<?xml version="1.0" encoding="UTF-8" standalone="no" ?>
<gpx xmlns="http://www.topografix.com/GPX/1/1" xmlns:xsi="http://www.w3.org/2001/XMLSchema-instance" xsi:schemaLocation="http://www.topografix.com/GPX/1/1 http://www.topografix.com/GPX/1/1/gpx.xsd" version="1.1" creator="VisuGPX - https://www.visugpx.com">
  <metadata>
    <name>Lot boucle 1 jour 2</name>
    <desc><![CDATA[Au départ du camping mis en gérance depuis peu... 
 Chevaux au parc sous notre roulotte.
Tout était ok pour notre arrivée.
Repas au camping à proximité et piscine qui nous tendait les bras.
La rando s'est bien déroulée : juste le passage du pont de Cajarc en fer qui est glissant.
Arrivée au domaine de Gaiffie. 

]]></desc>
  </metadata>
  <trk>
    <name><![CDATA[SityTrail - Lot 2019-1-2]]></name>
    <trkseg>
      <trkpt lat="44.57773" lon="1.93629">
        <ele>316</ele>
        <time>2019-08-06T07:37:14.072Z</time>
      </trkpt>
      <trkpt lat="44.57773" lon="1.93626">
        <ele>316</ele>
        <time>2019-08-06T07:37:41.740Z</time>
      </trkpt>
      <trkpt lat="44.57777" lon="1.93627">
        <ele>316</ele>
        <time>2019-08-06T07:38:05.734Z</time>
      </trkpt>
      <trkpt lat="44.57776" lon="1.93621">
        <ele>316</ele>
        <time>2019-08-06T07:38:10.712Z</time>
      </trkpt>
      <trkpt lat="44.57776" lon="1.9362">
        <ele>316</ele>
        <time>2019-08-06T07:38:15.719Z</time>
      </trkpt>
      <trkpt lat="44.57777" lon="1.93618">
        <ele>316</ele>
        <time>2019-08-06T07:38:20.707Z</time>
      </trkpt>
      <trkpt lat="44.57776" lon="1.93616">
        <ele>316</ele>
        <time>2019-08-06T07:38:55.728Z</time>
      </trkpt>
      <trkpt lat="44.57773" lon="1.9361">
        <ele>316</ele>
        <time>2019-08-06T07:39:00.711Z</time>
      </trkpt>
      <trkpt lat="44.57771" lon="1.93611">
        <ele>316</ele>
        <time>2019-08-06T07:39:05.728Z</time>
      </trkpt>
      <trkpt lat="44.57771" lon="1.93605">
        <ele>316</ele>
        <time>2019-08-06T07:39:10.706Z</time>
      </trkpt>
      <trkpt lat="44.57772" lon="1.93603">
        <ele>316</ele>
        <time>2019-08-06T07:39:15.729Z</time>
      </trkpt>
      <trkpt lat="44.57775" lon="1.93603">
        <ele>316</ele>
        <time>2019-08-06T07:41:41.710Z</time>
      </trkpt>
      <trkpt lat="44.57776" lon="1.93604">
        <ele>316</ele>
        <time>2019-08-06T07:41:46.711Z</time>
      </trkpt>
      <trkpt lat="44.57777" lon="1.93603">
        <ele>316</ele>
        <time>2019-08-06T07:41:51.708Z</time>
      </trkpt>
      <trkpt lat="44.57776" lon="1.93595">
        <ele>316</ele>
        <time>2019-08-06T07:41:55.724Z</time>
      </trkpt>
      <trkpt lat="44.57771" lon="1.93587">
        <ele>316</ele>
        <time>2019-08-06T07:42:00.709Z</time>
      </trkpt>
      <trkpt lat="44.57768" lon="1.93583">
        <ele>316</ele>
        <time>2019-08-06T07:42:05.728Z</time>
      </trkpt>
      <trkpt lat="44.57762" lon="1.93582">
        <ele>312</ele>
        <time>2019-08-06T07:42:10.713Z</time>
      </trkpt>
      <trkpt lat="44.57754" lon="1.93584">
        <ele>312</ele>
        <time>2019-08-06T07:42:14.718Z</time>
      </trkpt>
      <trkpt lat="44.57748" lon="1.93591">
        <ele>312</ele>
        <time>2019-08-06T07:42:19.736Z</time>
      </trkpt>
      <trkpt lat="44.57743" lon="1.93593">
        <ele>312</ele>
        <time>2019-08-06T07:42:24.707Z</time>
      </trkpt>
      <trkpt lat="44.57735" lon="1.93597">
        <ele>310</ele>
        <time>2019-08-06T07:42:29.724Z</time>
      </trkpt>
      <trkpt lat="44.57727" lon="1.936">
        <ele>310</ele>
        <time>2019-08-06T07:42:34.722Z</time>
      </trkpt>
      <trkpt lat="44.57722" lon="1.93601">
        <ele>310</ele>
        <time>2019-08-06T07:42:39.724Z</time>
      </trkpt>
      <trkpt lat="44.57718" lon="1.936">
        <ele>310</ele>
        <time>2019-08-06T07:42:44.705Z</time>
      </trkpt>
      <trkpt lat="44.57713" lon="1.93601">
        <ele>310</ele>
        <time>2019-08-06T07:42:48.728Z</time>
      </trkpt>
      <trkpt lat="44.57707" lon="1.93603">
        <ele>306</ele>
        <time>2019-08-06T07:42:53.731Z</time>
      </trkpt>
      <trkpt lat="44.577" lon="1.93604">
        <ele>306</ele>
        <time>2019-08-06T07:42:58.729Z</time>
      </trkpt>
      <trkpt lat="44.57693" lon="1.93605">
        <ele>306</ele>
        <time>2019-08-06T07:43:03.721Z</time>
      </trkpt>
      <trkpt lat="44.57685" lon="1.93605">
        <ele>306</ele>
        <time>2019-08-06T07:43:08.708Z</time>
      </trkpt>
      <trkpt lat="44.57679" lon="1.93604">
        <ele>303</ele>
        <time>2019-08-06T07:43:13.733Z</time>
      </trkpt>
      <trkpt lat="44.57673" lon="1.93603">
        <ele>303</ele>
        <time>2019-08-06T07:43:18.701Z</time>
      </trkpt>
      <trkpt lat="44.57666" lon="1.93603">
        <ele>303</ele>
        <time>2019-08-06T07:43:23.726Z</time>
      </trkpt>
      <trkpt lat="44.57659" lon="1.93603">
        <ele>303</ele>
        <time>2019-08-06T07:43:28.729Z</time>
      </trkpt>
      <trkpt lat="44.57654" lon="1.93602">
        <ele>303</ele>
        <time>2019-08-06T07:43:33.721Z</time>
      </trkpt>
      <trkpt lat="44.57654" lon="1.93602">
        <ele>303</ele>
        <time>2019-08-06T07:43:38.726Z</time>
      </trkpt>
      <trkpt lat="44.5765" lon="1.93598">
        <ele>300</ele>
        <time>2019-08-06T07:44:12.707Z</time>
      </trkpt>
      <trkpt lat="44.57646" lon="1.93605">
        <ele>300</ele>
        <time>2019-08-06T07:44:17.736Z</time>
      </trkpt>
      <trkpt lat="44.57643" lon="1.93609">
        <ele>300</ele>
        <time>2019-08-06T07:44:22.701Z</time>
      </trkpt>
      <trkpt lat="44.57641" lon="1.93607">
        <ele>300</ele>
        <time>2019-08-06T07:44:26.723Z</time>
      </trkpt>
      <trkpt lat="44.57638" lon="1.93608">
        <ele>300</ele>
        <time>2019-08-06T07:44:30.734Z</time>
      </trkpt>
      <trkpt lat="44.57636" lon="1.93609">
        <ele>300</ele>
        <time>2019-08-06T07:44:59.718Z</time>
      </trkpt>
      <trkpt lat="44.57633" lon="1.93611">
        <ele>300</ele>
        <time>2019-08-06T07:45:04.707Z</time>
      </trkpt>
      <trkpt lat="44.57632" lon="1.93611">
        <ele>300</ele>
        <time>2019-08-06T07:45:08.737Z</time>
      </trkpt>
      <trkpt lat="44.57624" lon="1.93616">
        <ele>297</ele>
        <time>2019-08-06T07:45:13.715Z</time>
      </trkpt>
      <trkpt lat="44.57619" lon="1.93616">
        <ele>297</ele>
        <time>2019-08-06T07:45:17.726Z</time>
      </trkpt>
      <trkpt lat="44.57612" lon="1.93618">
        <ele>297</ele>
        <time>2019-08-06T07:45:22.722Z</time>
      </trkpt>
      <trkpt lat="44.57604" lon="1.93618">
        <ele>297</ele>
        <time>2019-08-06T07:45:27.737Z</time>
      </trkpt>
      <trkpt lat="44.57594" lon="1.93619">
        <ele>296</ele>
        <time>2019-08-06T07:45:32.713Z</time>
      </trkpt>
      <trkpt lat="44.57586" lon="1.9362">
        <ele>296</ele>
        <time>2019-08-06T07:45:37.718Z</time>
      </trkpt>
      <trkpt lat="44.57581" lon="1.9362">
        <ele>296</ele>
        <time>2019-08-06T07:45:41.737Z</time>
      </trkpt>
      <trkpt lat="44.57575" lon="1.93619">
        <ele>296</ele>
        <time>2019-08-06T07:45:46.716Z</time>
      </trkpt>
      <trkpt lat="44.57566" lon="1.93617">
        <ele>298</ele>
        <time>2019-08-06T07:45:51.716Z</time>
      </trkpt>
      <trkpt lat="44.57559" lon="1.93616">
        <ele>298</ele>
        <time>2019-08-06T07:45:55.730Z</time>
      </trkpt>
      <trkpt lat="44.57553" lon="1.93618">
        <ele>298</ele>
        <time>2019-08-06T07:46:00.707Z</time>
      </trkpt>
      <trkpt lat="44.57548" lon="1.9362">
        <ele>298</ele>
        <time>2019-08-06T07:46:04.705Z</time>
      </trkpt>
      <trkpt lat="44.57543" lon="1.93623">
        <ele>298</ele>
        <time>2019-08-06T07:46:09.736Z</time>
      </trkpt>
      <trkpt lat="44.57536" lon="1.93627">
        <ele>298</ele>
        <time>2019-08-06T07:46:14.717Z</time>
      </trkpt>
      <trkpt lat="44.57529" lon="1.93628">
        <ele>298</ele>
        <time>2019-08-06T07:46:19.729Z</time>
      </trkpt>
      <trkpt lat="44.57523" lon="1.9363">
        <ele>298</ele>
        <time>2019-08-06T07:46:24.719Z</time>
      </trkpt>
      <trkpt lat="44.57517" lon="1.93631">
        <ele>298</ele>
        <time>2019-08-06T07:46:29.719Z</time>
      </trkpt>
      <trkpt lat="44.5751" lon="1.93636">
        <ele>298</ele>
        <time>2019-08-06T07:46:34.714Z</time>
      </trkpt>
      <trkpt lat="44.57497" lon="1.93631">
        <ele>298</ele>
        <time>2019-08-06T07:46:54.707Z</time>
      </trkpt>
      <trkpt lat="44.57498" lon="1.93629">
        <ele>298</ele>
        <time>2019-08-06T07:46:59.728Z</time>
      </trkpt>
      <trkpt lat="44.57497" lon="1.93628">
        <ele>298</ele>
        <time>2019-08-06T07:47:04.723Z</time>
      </trkpt>
      <trkpt lat="44.57495" lon="1.93628">
        <ele>298</ele>
        <time>2019-08-06T07:47:08.716Z</time>
      </trkpt>
      <trkpt lat="44.57495" lon="1.93624">
        <ele>299</ele>
        <time>2019-08-06T07:47:13.735Z</time>
      </trkpt>
      <trkpt lat="44.57497" lon="1.93625">
        <ele>298</ele>
        <time>2019-08-06T07:49:46.693Z</time>
      </trkpt>
      <trkpt lat="44.57492" lon="1.93628">
        <ele>298</ele>
        <time>2019-08-06T07:49:50.747Z</time>
      </trkpt>
      <trkpt lat="44.57483" lon="1.93629">
        <ele>297</ele>
        <time>2019-08-06T07:49:55.720Z</time>
      </trkpt>
      <trkpt lat="44.57476" lon="1.9363">
        <ele>297</ele>
        <time>2019-08-06T07:49:59.737Z</time>
      </trkpt>
      <trkpt lat="44.57467" lon="1.93628">
        <ele>297</ele>
        <time>2019-08-06T07:50:04.719Z</time>
      </trkpt>
      <trkpt lat="44.57462" lon="1.93626">
        <ele>297</ele>
        <time>2019-08-06T07:50:08.737Z</time>
      </trkpt>
      <trkpt lat="44.57458" lon="1.93624">
        <ele>298</ele>
        <time>2019-08-06T07:50:13.730Z</time>
      </trkpt>
      <trkpt lat="44.57451" lon="1.93623">
        <ele>298</ele>
        <time>2019-08-06T07:50:18.723Z</time>
      </trkpt>
      <trkpt lat="44.57443" lon="1.93622">
        <ele>298</ele>
        <time>2019-08-06T07:50:23.721Z</time>
      </trkpt>
      <trkpt lat="44.57438" lon="1.93624">
        <ele>298</ele>
        <time>2019-08-06T07:50:27.740Z</time>
      </trkpt>
      <trkpt lat="44.57432" lon="1.93626">
        <ele>297</ele>
        <time>2019-08-06T07:50:32.723Z</time>
      </trkpt>
      <trkpt lat="44.57426" lon="1.93629">
        <ele>297</ele>
        <time>2019-08-06T07:50:37.729Z</time>
      </trkpt>
      <trkpt lat="44.5742" lon="1.93633">
        <ele>297</ele>
        <time>2019-08-06T07:50:42.730Z</time>
      </trkpt>
      <trkpt lat="44.57415" lon="1.93638">
        <ele>297</ele>
        <time>2019-08-06T07:50:47.726Z</time>
      </trkpt>
      <trkpt lat="44.5741" lon="1.93645">
        <ele>297</ele>
        <time>2019-08-06T07:50:52.728Z</time>
      </trkpt>
      <trkpt lat="44.57406" lon="1.93651">
        <ele>297</ele>
        <time>2019-08-06T07:50:57.727Z</time>
      </trkpt>
      <trkpt lat="44.57402" lon="1.93658">
        <ele>301</ele>
        <time>2019-08-06T07:51:02.723Z</time>
      </trkpt>
      <trkpt lat="44.57396" lon="1.93664">
        <ele>301</ele>
        <time>2019-08-06T07:51:07.716Z</time>
      </trkpt>
      <trkpt lat="44.57389" lon="1.93668">
        <ele>301</ele>
        <time>2019-08-06T07:51:11.728Z</time>
      </trkpt>
      <trkpt lat="44.5738" lon="1.93674">
        <ele>301</ele>
        <time>2019-08-06T07:51:16.704Z</time>
      </trkpt>
      <trkpt lat="44.57379" lon="1.93677">
        <ele>301</ele>
        <time>2019-08-06T07:51:20.753Z</time>
      </trkpt>
      <trkpt lat="44.57375" lon="1.93678">
        <ele>305</ele>
        <time>2019-08-06T07:51:25.725Z</time>
      </trkpt>
      <trkpt lat="44.57371" lon="1.93681">
        <ele>306</ele>
        <time>2019-08-06T07:51:30.704Z</time>
      </trkpt>
      <trkpt lat="44.57368" lon="1.93681">
        <ele>306</ele>
        <time>2019-08-06T07:51:34.751Z</time>
      </trkpt>
      <trkpt lat="44.57363" lon="1.93682">
        <ele>306</ele>
        <time>2019-08-06T07:51:39.732Z</time>
      </trkpt>
      <trkpt lat="44.57358" lon="1.93681">
        <ele>306</ele>
        <time>2019-08-06T07:51:44.752Z</time>
      </trkpt>
      <trkpt lat="44.57354" lon="1.93673">
        <ele>305</ele>
        <time>2019-08-06T07:51:48.751Z</time>
      </trkpt>
      <trkpt lat="44.57346" lon="1.93663">
        <ele>308</ele>
        <time>2019-08-06T07:51:53.734Z</time>
      </trkpt>
      <trkpt lat="44.57342" lon="1.93656">
        <ele>308</ele>
        <time>2019-08-06T07:51:58.766Z</time>
      </trkpt>
      <trkpt lat="44.57337" lon="1.9365">
        <ele>307</ele>
        <time>2019-08-06T07:52:03.721Z</time>
      </trkpt>
      <trkpt lat="44.57337" lon="1.93646">
        <ele>307</ele>
        <time>2019-08-06T07:52:07.734Z</time>
      </trkpt>
      <trkpt lat="44.57333" lon="1.93636">
        <ele>307</ele>
        <time>2019-08-06T07:52:12.724Z</time>
      </trkpt>
      <trkpt lat="44.5733" lon="1.93631">
        <ele>307</ele>
        <time>2019-08-06T07:52:17.728Z</time>
      </trkpt>
      <trkpt lat="44.57326" lon="1.93628">
        <ele>307</ele>
        <time>2019-08-06T07:52:22.733Z</time>
      </trkpt>
      <trkpt lat="44.57323" lon="1.93623">
        <ele>306</ele>
        <time>2019-08-06T07:52:27.732Z</time>
      </trkpt>
      <trkpt lat="44.57317" lon="1.93617">
        <ele>308</ele>
        <time>2019-08-06T07:52:32.758Z</time>
      </trkpt>
      <trkpt lat="44.57313" lon="1.93611">
        <ele>308</ele>
        <time>2019-08-06T07:52:37.719Z</time>
      </trkpt>
      <trkpt lat="44.57306" lon="1.93604">
        <ele>308</ele>
        <time>2019-08-06T07:52:42.733Z</time>
      </trkpt>
      <trkpt lat="44.57302" lon="1.93601">
        <ele>308</ele>
        <time>2019-08-06T07:52:47.725Z</time>
      </trkpt>
      <trkpt lat="44.57296" lon="1.93595">
        <ele>310</ele>
        <time>2019-08-06T07:52:51.739Z</time>
      </trkpt>
      <trkpt lat="44.57294" lon="1.93587">
        <ele>310</ele>
        <time>2019-08-06T07:52:56.718Z</time>
      </trkpt>
      <trkpt lat="44.57288" lon="1.9358">
        <ele>313</ele>
        <time>2019-08-06T07:53:01.730Z</time>
      </trkpt>
      <trkpt lat="44.57283" lon="1.93572">
        <ele>313</ele>
        <time>2019-08-06T07:53:06.698Z</time>
      </trkpt>
      <trkpt lat="44.57279" lon="1.93567">
        <ele>317</ele>
        <time>2019-08-06T07:53:10.729Z</time>
      </trkpt>
      <trkpt lat="44.57274" lon="1.93561">
        <ele>317</ele>
        <time>2019-08-06T07:53:15.725Z</time>
      </trkpt>
      <trkpt lat="44.57269" lon="1.93557">
        <ele>317</ele>
        <time>2019-08-06T07:53:20.743Z</time>
      </trkpt>
      <trkpt lat="44.57264" lon="1.93554">
        <ele>317</ele>
        <time>2019-08-06T07:53:25.730Z</time>
      </trkpt>
      <trkpt lat="44.57258" lon="1.93549">
        <ele>321</ele>
        <time>2019-08-06T07:53:30.759Z</time>
      </trkpt>
      <trkpt lat="44.57253" lon="1.93545">
        <ele>321</ele>
        <time>2019-08-06T07:53:35.729Z</time>
      </trkpt>
      <trkpt lat="44.57247" lon="1.93542">
        <ele>321</ele>
        <time>2019-08-06T07:53:40.747Z</time>
      </trkpt>
      <trkpt lat="44.57243" lon="1.9354">
        <ele>323</ele>
        <time>2019-08-06T07:53:44.744Z</time>
      </trkpt>
      <trkpt lat="44.57238" lon="1.93537">
        <ele>323</ele>
        <time>2019-08-06T07:53:49.729Z</time>
      </trkpt>
      <trkpt lat="44.57235" lon="1.93534">
        <ele>323</ele>
        <time>2019-08-06T07:53:54.777Z</time>
      </trkpt>
      <trkpt lat="44.57229" lon="1.93532">
        <ele>323</ele>
        <time>2019-08-06T07:53:59.734Z</time>
      </trkpt>
      <trkpt lat="44.57224" lon="1.93527">
        <ele>323</ele>
        <time>2019-08-06T07:54:04.739Z</time>
      </trkpt>
      <trkpt lat="44.57218" lon="1.93525">
        <ele>323</ele>
        <time>2019-08-06T07:54:08.753Z</time>
      </trkpt>
      <trkpt lat="44.57212" lon="1.93523">
        <ele>323</ele>
        <time>2019-08-06T07:54:13.731Z</time>
      </trkpt>
      <trkpt lat="44.57208" lon="1.93523">
        <ele>323</ele>
        <time>2019-08-06T07:54:18.765Z</time>
      </trkpt>
      <trkpt lat="44.57205" lon="1.93522">
        <ele>323</ele>
        <time>2019-08-06T07:54:23.741Z</time>
      </trkpt>
      <trkpt lat="44.57199" lon="1.93519">
        <ele>323</ele>
        <time>2019-08-06T07:54:28.765Z</time>
      </trkpt>
      <trkpt lat="44.57192" lon="1.93515">
        <ele>323</ele>
        <time>2019-08-06T07:54:33.732Z</time>
      </trkpt>
      <trkpt lat="44.57183" lon="1.93514">
        <ele>323</ele>
        <time>2019-08-06T07:54:38.788Z</time>
      </trkpt>
      <trkpt lat="44.57176" lon="1.93512">
        <ele>323</ele>
        <time>2019-08-06T07:54:43.731Z</time>
      </trkpt>
      <trkpt lat="44.57171" lon="1.93507">
        <ele>323</ele>
        <time>2019-08-06T07:54:48.738Z</time>
      </trkpt>
      <trkpt lat="44.57165" lon="1.93503">
        <ele>323</ele>
        <time>2019-08-06T07:54:53.727Z</time>
      </trkpt>
      <trkpt lat="44.57159" lon="1.93502">
        <ele>323</ele>
        <time>2019-08-06T07:54:58.729Z</time>
      </trkpt>
      <trkpt lat="44.57156" lon="1.935">
        <ele>323</ele>
        <time>2019-08-06T07:55:03.734Z</time>
      </trkpt>
      <trkpt lat="44.57153" lon="1.93499">
        <ele>322</ele>
        <time>2019-08-06T07:55:07.750Z</time>
      </trkpt>
      <trkpt lat="44.57149" lon="1.93499">
        <ele>322</ele>
        <time>2019-08-06T07:55:12.744Z</time>
      </trkpt>
      <trkpt lat="44.57138" lon="1.93494">
        <ele>322</ele>
        <time>2019-08-06T07:55:17.723Z</time>
      </trkpt>
      <trkpt lat="44.57131" lon="1.9349">
        <ele>322</ele>
        <time>2019-08-06T07:55:22.734Z</time>
      </trkpt>
      <trkpt lat="44.57123" lon="1.93487">
        <ele>320</ele>
        <time>2019-08-06T07:55:27.726Z</time>
      </trkpt>
      <trkpt lat="44.57117" lon="1.93485">
        <ele>319</ele>
        <time>2019-08-06T07:55:32.727Z</time>
      </trkpt>
      <trkpt lat="44.57107" lon="1.93478">
        <ele>319</ele>
        <time>2019-08-06T07:55:37.731Z</time>
      </trkpt>
      <trkpt lat="44.571" lon="1.93477">
        <ele>319</ele>
        <time>2019-08-06T07:55:42.753Z</time>
      </trkpt>
      <trkpt lat="44.57093" lon="1.93477">
        <ele>319</ele>
        <time>2019-08-06T07:55:47.726Z</time>
      </trkpt>
      <trkpt lat="44.57083" lon="1.93475">
        <ele>319</ele>
        <time>2019-08-06T07:55:52.726Z</time>
      </trkpt>
      <trkpt lat="44.57075" lon="1.93479">
        <ele>319</ele>
        <time>2019-08-06T07:55:57.732Z</time>
      </trkpt>
      <trkpt lat="44.57069" lon="1.93479">
        <ele>319</ele>
        <time>2019-08-06T07:56:02.728Z</time>
      </trkpt>
      <trkpt lat="44.57065" lon="1.93482">
        <ele>319</ele>
        <time>2019-08-06T07:56:06.753Z</time>
      </trkpt>
      <trkpt lat="44.57059" lon="1.93483">
        <ele>319</ele>
        <time>2019-08-06T07:56:11.733Z</time>
      </trkpt>
      <trkpt lat="44.57047" lon="1.93487">
        <ele>319</ele>
        <time>2019-08-06T07:56:16.766Z</time>
      </trkpt>
      <trkpt lat="44.57044" lon="1.93488">
        <ele>319</ele>
        <time>2019-08-06T07:56:21.730Z</time>
      </trkpt>
      <trkpt lat="44.5704" lon="1.93482">
        <ele>320</ele>
        <time>2019-08-06T07:56:26.739Z</time>
      </trkpt>
      <trkpt lat="44.57037" lon="1.93479">
        <ele>320</ele>
        <time>2019-08-06T07:56:30.754Z</time>
      </trkpt>
      <trkpt lat="44.57029" lon="1.9348">
        <ele>320</ele>
        <time>2019-08-06T07:56:35.716Z</time>
      </trkpt>
      <trkpt lat="44.57025" lon="1.93479">
        <ele>320</ele>
        <time>2019-08-06T07:56:39.731Z</time>
      </trkpt>
      <trkpt lat="44.57019" lon="1.93475">
        <ele>320</ele>
        <time>2019-08-06T07:56:44.744Z</time>
      </trkpt>
      <trkpt lat="44.57013" lon="1.93476">
        <ele>321</ele>
        <time>2019-08-06T07:56:49.736Z</time>
      </trkpt>
      <trkpt lat="44.57006" lon="1.93475">
        <ele>321</ele>
        <time>2019-08-06T07:56:54.736Z</time>
      </trkpt>
      <trkpt lat="44.56999" lon="1.93472">
        <ele>321</ele>
        <time>2019-08-06T07:56:59.727Z</time>
      </trkpt>
      <trkpt lat="44.56993" lon="1.93466">
        <ele>321</ele>
        <time>2019-08-06T07:57:04.743Z</time>
      </trkpt>
      <trkpt lat="44.56986" lon="1.93464">
        <ele>324</ele>
        <time>2019-08-06T07:57:09.723Z</time>
      </trkpt>
      <trkpt lat="44.56979" lon="1.9346">
        <ele>324</ele>
        <time>2019-08-06T07:57:14.721Z</time>
      </trkpt>
      <trkpt lat="44.56975" lon="1.93455">
        <ele>323</ele>
        <time>2019-08-06T07:57:19.718Z</time>
      </trkpt>
      <trkpt lat="44.5697" lon="1.9345">
        <ele>323</ele>
        <time>2019-08-06T07:57:24.720Z</time>
      </trkpt>
      <trkpt lat="44.56964" lon="1.93446">
        <ele>323</ele>
        <time>2019-08-06T07:57:29.728Z</time>
      </trkpt>
      <trkpt lat="44.56958" lon="1.93442">
        <ele>326</ele>
        <time>2019-08-06T07:57:34.736Z</time>
      </trkpt>
      <trkpt lat="44.56952" lon="1.93437">
        <ele>326</ele>
        <time>2019-08-06T07:57:39.744Z</time>
      </trkpt>
      <trkpt lat="44.56947" lon="1.93432">
        <ele>326</ele>
        <time>2019-08-06T07:57:44.723Z</time>
      </trkpt>
      <trkpt lat="44.56939" lon="1.93426">
        <ele>326</ele>
        <time>2019-08-06T07:57:49.732Z</time>
      </trkpt>
      <trkpt lat="44.5693" lon="1.93422">
        <ele>329</ele>
        <time>2019-08-06T07:57:54.726Z</time>
      </trkpt>
      <trkpt lat="44.56926" lon="1.93419">
        <ele>329</ele>
        <time>2019-08-06T07:57:59.721Z</time>
      </trkpt>
      <trkpt lat="44.56922" lon="1.93413">
        <ele>329</ele>
        <time>2019-08-06T07:58:03.734Z</time>
      </trkpt>
      <trkpt lat="44.56917" lon="1.9341">
        <ele>329</ele>
        <time>2019-08-06T07:58:08.724Z</time>
      </trkpt>
      <trkpt lat="44.56902" lon="1.93404">
        <ele>331</ele>
        <time>2019-08-06T07:58:28.728Z</time>
      </trkpt>
      <trkpt lat="44.569" lon="1.93405">
        <ele>331</ele>
        <time>2019-08-06T07:58:33.729Z</time>
      </trkpt>
      <trkpt lat="44.56895" lon="1.93406">
        <ele>331</ele>
        <time>2019-08-06T07:58:38.724Z</time>
      </trkpt>
      <trkpt lat="44.56887" lon="1.93404">
        <ele>331</ele>
        <time>2019-08-06T07:58:43.729Z</time>
      </trkpt>
      <trkpt lat="44.56879" lon="1.93403">
        <ele>331</ele>
        <time>2019-08-06T07:58:48.738Z</time>
      </trkpt>
      <trkpt lat="44.56869" lon="1.93405">
        <ele>332</ele>
        <time>2019-08-06T07:59:02.740Z</time>
      </trkpt>
      <trkpt lat="44.56864" lon="1.93405">
        <ele>332</ele>
        <time>2019-08-06T07:59:07.723Z</time>
      </trkpt>
      <trkpt lat="44.56856" lon="1.93403">
        <ele>332</ele>
        <time>2019-08-06T07:59:12.738Z</time>
      </trkpt>
      <trkpt lat="44.56849" lon="1.93402">
        <ele>333</ele>
        <time>2019-08-06T07:59:17.771Z</time>
      </trkpt>
      <trkpt lat="44.56843" lon="1.93395">
        <ele>335</ele>
        <time>2019-08-06T07:59:22.730Z</time>
      </trkpt>
      <trkpt lat="44.56835" lon="1.93392">
        <ele>335</ele>
        <time>2019-08-06T07:59:27.733Z</time>
      </trkpt>
      <trkpt lat="44.56832" lon="1.9339">
        <ele>335</ele>
        <time>2019-08-06T07:59:32.724Z</time>
      </trkpt>
      <trkpt lat="44.56824" lon="1.93385">
        <ele>335</ele>
        <time>2019-08-06T07:59:37.733Z</time>
      </trkpt>
      <trkpt lat="44.56819" lon="1.93383">
        <ele>337</ele>
        <time>2019-08-06T07:59:42.740Z</time>
      </trkpt>
      <trkpt lat="44.56811" lon="1.93379">
        <ele>337</ele>
        <time>2019-08-06T07:59:47.720Z</time>
      </trkpt>
      <trkpt lat="44.56805" lon="1.93376">
        <ele>337</ele>
        <time>2019-08-06T07:59:52.729Z</time>
      </trkpt>
      <trkpt lat="44.56799" lon="1.93372">
        <ele>338</ele>
        <time>2019-08-06T07:59:57.732Z</time>
      </trkpt>
      <trkpt lat="44.56793" lon="1.93369">
        <ele>338</ele>
        <time>2019-08-06T08:00:02.717Z</time>
      </trkpt>
      <trkpt lat="44.56788" lon="1.93365">
        <ele>340</ele>
        <time>2019-08-06T08:00:07.729Z</time>
      </trkpt>
      <trkpt lat="44.56782" lon="1.93361">
        <ele>340</ele>
        <time>2019-08-06T08:00:12.733Z</time>
      </trkpt>
      <trkpt lat="44.56775" lon="1.93353">
        <ele>340</ele>
        <time>2019-08-06T08:00:17.718Z</time>
      </trkpt>
      <trkpt lat="44.56771" lon="1.93349">
        <ele>340</ele>
        <time>2019-08-06T08:00:22.731Z</time>
      </trkpt>
      <trkpt lat="44.56768" lon="1.93344">
        <ele>342</ele>
        <time>2019-08-06T08:00:27.734Z</time>
      </trkpt>
      <trkpt lat="44.56765" lon="1.93339">
        <ele>342</ele>
        <time>2019-08-06T08:00:32.723Z</time>
      </trkpt>
      <trkpt lat="44.56764" lon="1.93338">
        <ele>345</ele>
        <time>2019-08-06T08:00:37.733Z</time>
      </trkpt>
      <trkpt lat="44.56754" lon="1.93329">
        <ele>345</ele>
        <time>2019-08-06T08:00:42.720Z</time>
      </trkpt>
      <trkpt lat="44.56747" lon="1.93323">
        <ele>345</ele>
        <time>2019-08-06T08:00:47.717Z</time>
      </trkpt>
      <trkpt lat="44.56741" lon="1.93317">
        <ele>348</ele>
        <time>2019-08-06T08:00:52.723Z</time>
      </trkpt>
      <trkpt lat="44.56738" lon="1.93312">
        <ele>348</ele>
        <time>2019-08-06T08:00:57.732Z</time>
      </trkpt>
      <trkpt lat="44.56735" lon="1.93308">
        <ele>350</ele>
        <time>2019-08-06T08:01:02.726Z</time>
      </trkpt>
      <trkpt lat="44.56728" lon="1.93301">
        <ele>350</ele>
        <time>2019-08-06T08:01:07.725Z</time>
      </trkpt>
      <trkpt lat="44.56722" lon="1.93295">
        <ele>350</ele>
        <time>2019-08-06T08:01:12.730Z</time>
      </trkpt>
      <trkpt lat="44.56719" lon="1.93291">
        <ele>353</ele>
        <time>2019-08-06T08:01:17.721Z</time>
      </trkpt>
      <trkpt lat="44.56713" lon="1.93286">
        <ele>353</ele>
        <time>2019-08-06T08:01:21.739Z</time>
      </trkpt>
      <trkpt lat="44.56708" lon="1.93281">
        <ele>353</ele>
        <time>2019-08-06T08:01:26.711Z</time>
      </trkpt>
      <trkpt lat="44.56703" lon="1.93276">
        <ele>353</ele>
        <time>2019-08-06T08:01:30.728Z</time>
      </trkpt>
      <trkpt lat="44.56698" lon="1.93272">
        <ele>353</ele>
        <time>2019-08-06T08:01:35.723Z</time>
      </trkpt>
      <trkpt lat="44.56693" lon="1.93269">
        <ele>353</ele>
        <time>2019-08-06T08:01:40.714Z</time>
      </trkpt>
      <trkpt lat="44.56688" lon="1.93266">
        <ele>353</ele>
        <time>2019-08-06T08:01:44.732Z</time>
      </trkpt>
      <trkpt lat="44.56683" lon="1.93262">
        <ele>356</ele>
        <time>2019-08-06T08:01:49.723Z</time>
      </trkpt>
      <trkpt lat="44.56676" lon="1.93257">
        <ele>354</ele>
        <time>2019-08-06T08:01:54.735Z</time>
      </trkpt>
      <trkpt lat="44.56672" lon="1.93256">
        <ele>354</ele>
        <time>2019-08-06T08:01:59.734Z</time>
      </trkpt>
      <trkpt lat="44.56666" lon="1.93256">
        <ele>354</ele>
        <time>2019-08-06T08:02:04.736Z</time>
      </trkpt>
      <trkpt lat="44.5666" lon="1.93254">
        <ele>354</ele>
        <time>2019-08-06T08:02:08.754Z</time>
      </trkpt>
      <trkpt lat="44.56652" lon="1.93252">
        <ele>352</ele>
        <time>2019-08-06T08:02:13.725Z</time>
      </trkpt>
      <trkpt lat="44.56647" lon="1.93252">
        <ele>352</ele>
        <time>2019-08-06T08:02:18.726Z</time>
      </trkpt>
      <trkpt lat="44.56642" lon="1.93254">
        <ele>352</ele>
        <time>2019-08-06T08:02:23.735Z</time>
      </trkpt>
      <trkpt lat="44.56634" lon="1.93254">
        <ele>352</ele>
        <time>2019-08-06T08:02:28.737Z</time>
      </trkpt>
      <trkpt lat="44.56627" lon="1.93255">
        <ele>352</ele>
        <time>2019-08-06T08:02:33.735Z</time>
      </trkpt>
      <trkpt lat="44.56621" lon="1.93257">
        <ele>350</ele>
        <time>2019-08-06T08:02:38.723Z</time>
      </trkpt>
      <trkpt lat="44.56613" lon="1.93261">
        <ele>350</ele>
        <time>2019-08-06T08:02:43.727Z</time>
      </trkpt>
      <trkpt lat="44.56602" lon="1.93264">
        <ele>350</ele>
        <time>2019-08-06T08:02:48.739Z</time>
      </trkpt>
      <trkpt lat="44.56595" lon="1.93268">
        <ele>348</ele>
        <time>2019-08-06T08:02:53.738Z</time>
      </trkpt>
      <trkpt lat="44.56589" lon="1.93272">
        <ele>348</ele>
        <time>2019-08-06T08:02:58.731Z</time>
      </trkpt>
      <trkpt lat="44.5658" lon="1.93272">
        <ele>348</ele>
        <time>2019-08-06T08:03:03.718Z</time>
      </trkpt>
      <trkpt lat="44.56574" lon="1.9327">
        <ele>348</ele>
        <time>2019-08-06T08:03:08.736Z</time>
      </trkpt>
      <trkpt lat="44.56573" lon="1.93263">
        <ele>349</ele>
        <time>2019-08-06T08:03:13.731Z</time>
      </trkpt>
      <trkpt lat="44.56571" lon="1.93254">
        <ele>349</ele>
        <time>2019-08-06T08:03:18.723Z</time>
      </trkpt>
      <trkpt lat="44.56571" lon="1.93247">
        <ele>349</ele>
        <time>2019-08-06T08:03:22.738Z</time>
      </trkpt>
      <trkpt lat="44.56572" lon="1.93237">
        <ele>349</ele>
        <time>2019-08-06T08:03:27.721Z</time>
      </trkpt>
      <trkpt lat="44.56569" lon="1.93227">
        <ele>350</ele>
        <time>2019-08-06T08:03:32.734Z</time>
      </trkpt>
      <trkpt lat="44.56568" lon="1.9322">
        <ele>352</ele>
        <time>2019-08-06T08:03:37.738Z</time>
      </trkpt>
      <trkpt lat="44.56565" lon="1.93209">
        <ele>352</ele>
        <time>2019-08-06T08:03:42.724Z</time>
      </trkpt>
      <trkpt lat="44.56563" lon="1.93204">
        <ele>353</ele>
        <time>2019-08-06T08:03:47.727Z</time>
      </trkpt>
      <trkpt lat="44.56561" lon="1.93198">
        <ele>353</ele>
        <time>2019-08-06T08:03:51.738Z</time>
      </trkpt>
      <trkpt lat="44.56558" lon="1.9319">
        <ele>353</ele>
        <time>2019-08-06T08:03:56.726Z</time>
      </trkpt>
      <trkpt lat="44.56557" lon="1.93183">
        <ele>353</ele>
        <time>2019-08-06T08:04:01.725Z</time>
      </trkpt>
      <trkpt lat="44.56556" lon="1.93177">
        <ele>354</ele>
        <time>2019-08-06T08:04:05.743Z</time>
      </trkpt>
      <trkpt lat="44.56555" lon="1.9317">
        <ele>354</ele>
        <time>2019-08-06T08:04:09.760Z</time>
      </trkpt>
      <trkpt lat="44.56554" lon="1.93161">
        <ele>354</ele>
        <time>2019-08-06T08:04:14.728Z</time>
      </trkpt>
      <trkpt lat="44.56551" lon="1.93151">
        <ele>356</ele>
        <time>2019-08-06T08:04:19.706Z</time>
      </trkpt>
      <trkpt lat="44.56546" lon="1.93143">
        <ele>356</ele>
        <time>2019-08-06T08:04:23.732Z</time>
      </trkpt>
      <trkpt lat="44.56543" lon="1.93135">
        <ele>356</ele>
        <time>2019-08-06T08:04:28.728Z</time>
      </trkpt>
      <trkpt lat="44.56539" lon="1.93129">
        <ele>356</ele>
        <time>2019-08-06T08:04:33.695Z</time>
      </trkpt>
      <trkpt lat="44.56535" lon="1.93123">
        <ele>359</ele>
        <time>2019-08-06T08:04:37.727Z</time>
      </trkpt>
      <trkpt lat="44.56529" lon="1.93117">
        <ele>359</ele>
        <time>2019-08-06T08:04:42.721Z</time>
      </trkpt>
      <trkpt lat="44.56528" lon="1.93104">
        <ele>359</ele>
        <time>2019-08-06T08:04:47.729Z</time>
      </trkpt>
      <trkpt lat="44.56524" lon="1.93099">
        <ele>359</ele>
        <time>2019-08-06T08:04:52.721Z</time>
      </trkpt>
      <trkpt lat="44.5652" lon="1.93091">
        <ele>361</ele>
        <time>2019-08-06T08:04:57.738Z</time>
      </trkpt>
      <trkpt lat="44.56517" lon="1.93081">
        <ele>361</ele>
        <time>2019-08-06T08:05:02.725Z</time>
      </trkpt>
      <trkpt lat="44.56518" lon="1.93072">
        <ele>361</ele>
        <time>2019-08-06T08:05:07.729Z</time>
      </trkpt>
      <trkpt lat="44.56519" lon="1.93064">
        <ele>364</ele>
        <time>2019-08-06T08:05:12.734Z</time>
      </trkpt>
      <trkpt lat="44.56518" lon="1.93058">
        <ele>364</ele>
        <time>2019-08-06T08:05:17.737Z</time>
      </trkpt>
      <trkpt lat="44.56511" lon="1.93049">
        <ele>365</ele>
        <time>2019-08-06T08:05:22.733Z</time>
      </trkpt>
      <trkpt lat="44.56509" lon="1.93043">
        <ele>365</ele>
        <time>2019-08-06T08:05:26.733Z</time>
      </trkpt>
      <trkpt lat="44.56507" lon="1.93035">
        <ele>367</ele>
        <time>2019-08-06T08:05:31.722Z</time>
      </trkpt>
      <trkpt lat="44.56504" lon="1.93029">
        <ele>367</ele>
        <time>2019-08-06T08:05:36.725Z</time>
      </trkpt>
      <trkpt lat="44.56504" lon="1.93025">
        <ele>367</ele>
        <time>2019-08-06T08:05:41.737Z</time>
      </trkpt>
      <trkpt lat="44.56501" lon="1.93017">
        <ele>367</ele>
        <time>2019-08-06T08:05:46.733Z</time>
      </trkpt>
      <trkpt lat="44.56497" lon="1.93011">
        <ele>368</ele>
        <time>2019-08-06T08:05:51.731Z</time>
      </trkpt>
      <trkpt lat="44.5649" lon="1.93003">
        <ele>368</ele>
        <time>2019-08-06T08:05:56.738Z</time>
      </trkpt>
      <trkpt lat="44.56487" lon="1.92996">
        <ele>368</ele>
        <time>2019-08-06T08:06:01.723Z</time>
      </trkpt>
      <trkpt lat="44.56485" lon="1.92989">
        <ele>369</ele>
        <time>2019-08-06T08:06:06.742Z</time>
      </trkpt>
      <trkpt lat="44.56484" lon="1.92982">
        <ele>370</ele>
        <time>2019-08-06T08:06:11.745Z</time>
      </trkpt>
      <trkpt lat="44.56482" lon="1.92974">
        <ele>370</ele>
        <time>2019-08-06T08:06:16.732Z</time>
      </trkpt>
      <trkpt lat="44.56481" lon="1.92966">
        <ele>370</ele>
        <time>2019-08-06T08:06:21.725Z</time>
      </trkpt>
      <trkpt lat="44.5648" lon="1.92955">
        <ele>372</ele>
        <time>2019-08-06T08:06:26.733Z</time>
      </trkpt>
      <trkpt lat="44.56477" lon="1.92946">
        <ele>372</ele>
        <time>2019-08-06T08:06:31.730Z</time>
      </trkpt>
      <trkpt lat="44.56464" lon="1.92947">
        <ele>372</ele>
        <time>2019-08-06T08:06:36.727Z</time>
      </trkpt>
      <trkpt lat="44.56461" lon="1.92934">
        <ele>372</ele>
        <time>2019-08-06T08:06:41.734Z</time>
      </trkpt>
      <trkpt lat="44.56465" lon="1.92925">
        <ele>375</ele>
        <time>2019-08-06T08:06:46.715Z</time>
      </trkpt>
      <trkpt lat="44.56465" lon="1.92915">
        <ele>375</ele>
        <time>2019-08-06T08:06:51.731Z</time>
      </trkpt>
      <trkpt lat="44.56466" lon="1.92908">
        <ele>375</ele>
        <time>2019-08-06T08:06:56.727Z</time>
      </trkpt>
      <trkpt lat="44.56464" lon="1.92903">
        <ele>376</ele>
        <time>2019-08-06T08:07:01.732Z</time>
      </trkpt>
      <trkpt lat="44.56461" lon="1.92897">
        <ele>376</ele>
        <time>2019-08-06T08:07:06.711Z</time>
      </trkpt>
      <trkpt lat="44.56458" lon="1.92893">
        <ele>378</ele>
        <time>2019-08-06T08:07:10.738Z</time>
      </trkpt>
      <trkpt lat="44.56454" lon="1.92883">
        <ele>378</ele>
        <time>2019-08-06T08:07:15.742Z</time>
      </trkpt>
      <trkpt lat="44.56451" lon="1.92877">
        <ele>378</ele>
        <time>2019-08-06T08:07:20.730Z</time>
      </trkpt>
      <trkpt lat="44.56447" lon="1.9287">
        <ele>380</ele>
        <time>2019-08-06T08:07:25.730Z</time>
      </trkpt>
      <trkpt lat="44.56438" lon="1.9286">
        <ele>380</ele>
        <time>2019-08-06T08:07:30.724Z</time>
      </trkpt>
      <trkpt lat="44.56434" lon="1.92853">
        <ele>380</ele>
        <time>2019-08-06T08:07:35.732Z</time>
      </trkpt>
      <trkpt lat="44.56432" lon="1.92845">
        <ele>383</ele>
        <time>2019-08-06T08:07:40.744Z</time>
      </trkpt>
      <trkpt lat="44.5643" lon="1.92835">
        <ele>384</ele>
        <time>2019-08-06T08:07:45.730Z</time>
      </trkpt>
      <trkpt lat="44.56427" lon="1.92829">
        <ele>384</ele>
        <time>2019-08-06T08:07:50.728Z</time>
      </trkpt>
      <trkpt lat="44.56428" lon="1.92819">
        <ele>385</ele>
        <time>2019-08-06T08:07:55.722Z</time>
      </trkpt>
      <trkpt lat="44.56428" lon="1.92816">
        <ele>385</ele>
        <time>2019-08-06T08:08:00.736Z</time>
      </trkpt>
      <trkpt lat="44.56426" lon="1.92808">
        <ele>385</ele>
        <time>2019-08-06T08:08:05.688Z</time>
      </trkpt>
      <trkpt lat="44.56425" lon="1.92801">
        <ele>385</ele>
        <time>2019-08-06T08:08:10.711Z</time>
      </trkpt>
      <trkpt lat="44.5642" lon="1.92795">
        <ele>385</ele>
        <time>2019-08-06T08:08:14.725Z</time>
      </trkpt>
      <trkpt lat="44.56415" lon="1.9279">
        <ele>384</ele>
        <time>2019-08-06T08:08:19.722Z</time>
      </trkpt>
      <trkpt lat="44.56412" lon="1.92787">
        <ele>384</ele>
        <time>2019-08-06T08:08:23.733Z</time>
      </trkpt>
      <trkpt lat="44.5641" lon="1.92783">
        <ele>384</ele>
        <time>2019-08-06T08:08:28.710Z</time>
      </trkpt>
      <trkpt lat="44.56403" lon="1.92777">
        <ele>384</ele>
        <time>2019-08-06T08:08:32.719Z</time>
      </trkpt>
      <trkpt lat="44.564" lon="1.92775">
        <ele>385</ele>
        <time>2019-08-06T08:08:36.738Z</time>
      </trkpt>
      <trkpt lat="44.56395" lon="1.92771">
        <ele>385</ele>
        <time>2019-08-06T08:08:41.720Z</time>
      </trkpt>
      <trkpt lat="44.56392" lon="1.92767">
        <ele>385</ele>
        <time>2019-08-06T08:08:46.725Z</time>
      </trkpt>
      <trkpt lat="44.56387" lon="1.92763">
        <ele>381</ele>
        <time>2019-08-06T08:08:51.727Z</time>
      </trkpt>
      <trkpt lat="44.56382" lon="1.92758">
        <ele>381</ele>
        <time>2019-08-06T08:08:56.729Z</time>
      </trkpt>
      <trkpt lat="44.56379" lon="1.92754">
        <ele>381</ele>
        <time>2019-08-06T08:09:00.740Z</time>
      </trkpt>
      <trkpt lat="44.56373" lon="1.9275">
        <ele>381</ele>
        <time>2019-08-06T08:09:05.728Z</time>
      </trkpt>
      <trkpt lat="44.56369" lon="1.92748">
        <ele>381</ele>
        <time>2019-08-06T08:09:10.729Z</time>
      </trkpt>
      <trkpt lat="44.56363" lon="1.92743">
        <ele>381</ele>
        <time>2019-08-06T08:09:15.728Z</time>
      </trkpt>
      <trkpt lat="44.56355" lon="1.92742">
        <ele>381</ele>
        <time>2019-08-06T08:09:20.725Z</time>
      </trkpt>
      <trkpt lat="44.56351" lon="1.92737">
        <ele>381</ele>
        <time>2019-08-06T08:09:25.730Z</time>
      </trkpt>
      <trkpt lat="44.56345" lon="1.92732">
        <ele>378</ele>
        <time>2019-08-06T08:09:30.729Z</time>
      </trkpt>
      <trkpt lat="44.56336" lon="1.92724">
        <ele>378</ele>
        <time>2019-08-06T08:09:35.739Z</time>
      </trkpt>
      <trkpt lat="44.5633" lon="1.9272">
        <ele>378</ele>
        <time>2019-08-06T08:09:40.724Z</time>
      </trkpt>
      <trkpt lat="44.56324" lon="1.92716">
        <ele>378</ele>
        <time>2019-08-06T08:09:45.732Z</time>
      </trkpt>
      <trkpt lat="44.56321" lon="1.92712">
        <ele>378</ele>
        <time>2019-08-06T08:09:50.735Z</time>
      </trkpt>
      <trkpt lat="44.56316" lon="1.92706">
        <ele>378</ele>
        <time>2019-08-06T08:09:55.735Z</time>
      </trkpt>
      <trkpt lat="44.56308" lon="1.92698">
        <ele>378</ele>
        <time>2019-08-06T08:10:00.731Z</time>
      </trkpt>
      <trkpt lat="44.56302" lon="1.92694">
        <ele>378</ele>
        <time>2019-08-06T08:10:05.722Z</time>
      </trkpt>
      <trkpt lat="44.56296" lon="1.92686">
        <ele>378</ele>
        <time>2019-08-06T08:10:10.725Z</time>
      </trkpt>
      <trkpt lat="44.56289" lon="1.92679">
        <ele>376</ele>
        <time>2019-08-06T08:10:15.730Z</time>
      </trkpt>
      <trkpt lat="44.56283" lon="1.92675">
        <ele>376</ele>
        <time>2019-08-06T08:10:20.727Z</time>
      </trkpt>
      <trkpt lat="44.56278" lon="1.92668">
        <ele>376</ele>
        <time>2019-08-06T08:10:25.724Z</time>
      </trkpt>
      <trkpt lat="44.56269" lon="1.9265">
        <ele>373</ele>
        <time>2019-08-06T08:10:30.723Z</time>
      </trkpt>
      <trkpt lat="44.56267" lon="1.92633">
        <ele>373</ele>
        <time>2019-08-06T08:10:35.719Z</time>
      </trkpt>
      <trkpt lat="44.56265" lon="1.92625">
        <ele>373</ele>
        <time>2019-08-06T08:10:40.720Z</time>
      </trkpt>
      <trkpt lat="44.56261" lon="1.92618">
        <ele>374</ele>
        <time>2019-08-06T08:10:45.725Z</time>
      </trkpt>
      <trkpt lat="44.56257" lon="1.9261">
        <ele>374</ele>
        <time>2019-08-06T08:10:50.722Z</time>
      </trkpt>
      <trkpt lat="44.56252" lon="1.92602">
        <ele>374</ele>
        <time>2019-08-06T08:10:55.728Z</time>
      </trkpt>
      <trkpt lat="44.56247" lon="1.92593">
        <ele>373</ele>
        <time>2019-08-06T08:11:00.734Z</time>
      </trkpt>
      <trkpt lat="44.56244" lon="1.92585">
        <ele>373</ele>
        <time>2019-08-06T08:11:05.723Z</time>
      </trkpt>
      <trkpt lat="44.5624" lon="1.92576">
        <ele>373</ele>
        <time>2019-08-06T08:11:10.722Z</time>
      </trkpt>
      <trkpt lat="44.56235" lon="1.92565">
        <ele>376</ele>
        <time>2019-08-06T08:11:15.724Z</time>
      </trkpt>
      <trkpt lat="44.5623" lon="1.92558">
        <ele>376</ele>
        <time>2019-08-06T08:11:19.740Z</time>
      </trkpt>
      <trkpt lat="44.56226" lon="1.9255">
        <ele>376</ele>
        <time>2019-08-06T08:11:24.717Z</time>
      </trkpt>
      <trkpt lat="44.56218" lon="1.92542">
        <ele>375</ele>
        <time>2019-08-06T08:11:29.729Z</time>
      </trkpt>
      <trkpt lat="44.5621" lon="1.92534">
        <ele>375</ele>
        <time>2019-08-06T08:11:34.714Z</time>
      </trkpt>
      <trkpt lat="44.56206" lon="1.92529">
        <ele>376</ele>
        <time>2019-08-06T08:11:38.723Z</time>
      </trkpt>
      <trkpt lat="44.56201" lon="1.92521">
        <ele>376</ele>
        <time>2019-08-06T08:11:43.721Z</time>
      </trkpt>
      <trkpt lat="44.56199" lon="1.92517">
        <ele>376</ele>
        <time>2019-08-06T08:11:48.723Z</time>
      </trkpt>
      <trkpt lat="44.56197" lon="1.92512">
        <ele>375</ele>
        <time>2019-08-06T08:11:53.718Z</time>
      </trkpt>
      <trkpt lat="44.56195" lon="1.92506">
        <ele>375</ele>
        <time>2019-08-06T08:11:57.731Z</time>
      </trkpt>
      <trkpt lat="44.56191" lon="1.925">
        <ele>375</ele>
        <time>2019-08-06T08:12:02.728Z</time>
      </trkpt>
      <trkpt lat="44.56189" lon="1.92495">
        <ele>375</ele>
        <time>2019-08-06T08:12:07.730Z</time>
      </trkpt>
      <trkpt lat="44.56184" lon="1.92486">
        <ele>375</ele>
        <time>2019-08-06T08:12:12.730Z</time>
      </trkpt>
      <trkpt lat="44.5618" lon="1.92478">
        <ele>373</ele>
        <time>2019-08-06T08:12:17.733Z</time>
      </trkpt>
      <trkpt lat="44.56172" lon="1.92474">
        <ele>373</ele>
        <time>2019-08-06T08:12:22.725Z</time>
      </trkpt>
      <trkpt lat="44.56169" lon="1.92468">
        <ele>373</ele>
        <time>2019-08-06T08:12:27.727Z</time>
      </trkpt>
      <trkpt lat="44.56163" lon="1.92457">
        <ele>372</ele>
        <time>2019-08-06T08:12:32.731Z</time>
      </trkpt>
      <trkpt lat="44.56158" lon="1.92446">
        <ele>372</ele>
        <time>2019-08-06T08:12:37.725Z</time>
      </trkpt>
      <trkpt lat="44.56154" lon="1.92434">
        <ele>372</ele>
        <time>2019-08-06T08:12:42.727Z</time>
      </trkpt>
      <trkpt lat="44.56151" lon="1.92423">
        <ele>373</ele>
        <time>2019-08-06T08:12:47.728Z</time>
      </trkpt>
      <trkpt lat="44.56149" lon="1.92413">
        <ele>373</ele>
        <time>2019-08-06T08:12:52.734Z</time>
      </trkpt>
      <trkpt lat="44.5615" lon="1.92401">
        <ele>374</ele>
        <time>2019-08-06T08:12:56.732Z</time>
      </trkpt>
      <trkpt lat="44.5615" lon="1.92393">
        <ele>374</ele>
        <time>2019-08-06T08:13:00.725Z</time>
      </trkpt>
      <trkpt lat="44.5615" lon="1.92382">
        <ele>374</ele>
        <time>2019-08-06T08:13:05.736Z</time>
      </trkpt>
      <trkpt lat="44.56151" lon="1.92375">
        <ele>374</ele>
        <time>2019-08-06T08:13:10.723Z</time>
      </trkpt>
      <trkpt lat="44.56146" lon="1.92371">
        <ele>374</ele>
        <time>2019-08-06T08:13:14.736Z</time>
      </trkpt>
      <trkpt lat="44.56148" lon="1.92361">
        <ele>374</ele>
        <time>2019-08-06T08:13:19.733Z</time>
      </trkpt>
      <trkpt lat="44.56145" lon="1.92352">
        <ele>374</ele>
        <time>2019-08-06T08:13:24.722Z</time>
      </trkpt>
      <trkpt lat="44.56142" lon="1.92346">
        <ele>376</ele>
        <time>2019-08-06T08:13:29.730Z</time>
      </trkpt>
      <trkpt lat="44.5614" lon="1.92335">
        <ele>376</ele>
        <time>2019-08-06T08:13:34.733Z</time>
      </trkpt>
      <trkpt lat="44.56139" lon="1.92324">
        <ele>376</ele>
        <time>2019-08-06T08:13:39.722Z</time>
      </trkpt>
      <trkpt lat="44.56137" lon="1.92318">
        <ele>376</ele>
        <time>2019-08-06T08:13:44.737Z</time>
      </trkpt>
      <trkpt lat="44.56135" lon="1.92309">
        <ele>376</ele>
        <time>2019-08-06T08:13:49.723Z</time>
      </trkpt>
      <trkpt lat="44.56132" lon="1.92304">
        <ele>376</ele>
        <time>2019-08-06T08:13:54.747Z</time>
      </trkpt>
      <trkpt lat="44.5613" lon="1.923">
        <ele>376</ele>
        <time>2019-08-06T08:13:58.725Z</time>
      </trkpt>
      <trkpt lat="44.56125" lon="1.92292">
        <ele>376</ele>
        <time>2019-08-06T08:14:03.724Z</time>
      </trkpt>
      <trkpt lat="44.56118" lon="1.92288">
        <ele>375</ele>
        <time>2019-08-06T08:14:08.734Z</time>
      </trkpt>
      <trkpt lat="44.56116" lon="1.92282">
        <ele>375</ele>
        <time>2019-08-06T08:14:13.727Z</time>
      </trkpt>
      <trkpt lat="44.56113" lon="1.92276">
        <ele>375</ele>
        <time>2019-08-06T08:14:18.715Z</time>
      </trkpt>
      <trkpt lat="44.56112" lon="1.92269">
        <ele>375</ele>
        <time>2019-08-06T08:14:23.736Z</time>
      </trkpt>
      <trkpt lat="44.56109" lon="1.92261">
        <ele>375</ele>
        <time>2019-08-06T08:14:28.720Z</time>
      </trkpt>
      <trkpt lat="44.56105" lon="1.92257">
        <ele>375</ele>
        <time>2019-08-06T08:14:32.724Z</time>
      </trkpt>
      <trkpt lat="44.56102" lon="1.92253">
        <ele>375</ele>
        <time>2019-08-06T08:14:36.736Z</time>
      </trkpt>
      <trkpt lat="44.56101" lon="1.92249">
        <ele>375</ele>
        <time>2019-08-06T08:14:41.738Z</time>
      </trkpt>
      <trkpt lat="44.56099" lon="1.92241">
        <ele>375</ele>
        <time>2019-08-06T08:14:46.729Z</time>
      </trkpt>
      <trkpt lat="44.56097" lon="1.92235">
        <ele>373</ele>
        <time>2019-08-06T08:14:51.736Z</time>
      </trkpt>
      <trkpt lat="44.56095" lon="1.92229">
        <ele>373</ele>
        <time>2019-08-06T08:14:56.718Z</time>
      </trkpt>
      <trkpt lat="44.56094" lon="1.92222">
        <ele>373</ele>
        <time>2019-08-06T08:15:01.733Z</time>
      </trkpt>
      <trkpt lat="44.56091" lon="1.92214">
        <ele>373</ele>
        <time>2019-08-06T08:15:06.731Z</time>
      </trkpt>
      <trkpt lat="44.56086" lon="1.92207">
        <ele>374</ele>
        <time>2019-08-06T08:15:11.731Z</time>
      </trkpt>
      <trkpt lat="44.56076" lon="1.92197">
        <ele>374</ele>
        <time>2019-08-06T08:15:16.730Z</time>
      </trkpt>
      <trkpt lat="44.5607" lon="1.92189">
        <ele>374</ele>
        <time>2019-08-06T08:15:21.720Z</time>
      </trkpt>
      <trkpt lat="44.56066" lon="1.92184">
        <ele>372</ele>
        <time>2019-08-06T08:15:26.738Z</time>
      </trkpt>
      <trkpt lat="44.56062" lon="1.92177">
        <ele>372</ele>
        <time>2019-08-06T08:15:31.716Z</time>
      </trkpt>
      <trkpt lat="44.56059" lon="1.92172">
        <ele>372</ele>
        <time>2019-08-06T08:15:35.734Z</time>
      </trkpt>
      <trkpt lat="44.56057" lon="1.92167">
        <ele>372</ele>
        <time>2019-08-06T08:15:40.732Z</time>
      </trkpt>
      <trkpt lat="44.56056" lon="1.92162">
        <ele>372</ele>
        <time>2019-08-06T08:15:45.710Z</time>
      </trkpt>
      <trkpt lat="44.56052" lon="1.92155">
        <ele>372</ele>
        <time>2019-08-06T08:15:49.737Z</time>
      </trkpt>
      <trkpt lat="44.56044" lon="1.92145">
        <ele>373</ele>
        <time>2019-08-06T08:15:54.727Z</time>
      </trkpt>
      <trkpt lat="44.56039" lon="1.92139">
        <ele>368</ele>
        <time>2019-08-06T08:15:59.723Z</time>
      </trkpt>
      <trkpt lat="44.56036" lon="1.92127">
        <ele>368</ele>
        <time>2019-08-06T08:16:04.721Z</time>
      </trkpt>
      <trkpt lat="44.56033" lon="1.92118">
        <ele>368</ele>
        <time>2019-08-06T08:16:09.726Z</time>
      </trkpt>
      <trkpt lat="44.56032" lon="1.92114">
        <ele>368</ele>
        <time>2019-08-06T08:16:13.736Z</time>
      </trkpt>
      <trkpt lat="44.5603" lon="1.92105">
        <ele>368</ele>
        <time>2019-08-06T08:16:18.735Z</time>
      </trkpt>
      <trkpt lat="44.56029" lon="1.92097">
        <ele>369</ele>
        <time>2019-08-06T08:16:23.729Z</time>
      </trkpt>
      <trkpt lat="44.56027" lon="1.92088">
        <ele>369</ele>
        <time>2019-08-06T08:16:28.730Z</time>
      </trkpt>
      <trkpt lat="44.56027" lon="1.92077">
        <ele>369</ele>
        <time>2019-08-06T08:16:33.733Z</time>
      </trkpt>
      <trkpt lat="44.56027" lon="1.92068">
        <ele>368</ele>
        <time>2019-08-06T08:16:38.733Z</time>
      </trkpt>
      <trkpt lat="44.56023" lon="1.92057">
        <ele>368</ele>
        <time>2019-08-06T08:16:43.729Z</time>
      </trkpt>
      <trkpt lat="44.56022" lon="1.92047">
        <ele>368</ele>
        <time>2019-08-06T08:16:48.732Z</time>
      </trkpt>
      <trkpt lat="44.56024" lon="1.92039">
        <ele>368</ele>
        <time>2019-08-06T08:16:53.728Z</time>
      </trkpt>
      <trkpt lat="44.56024" lon="1.92032">
        <ele>368</ele>
        <time>2019-08-06T08:16:58.729Z</time>
      </trkpt>
      <trkpt lat="44.56019" lon="1.92024">
        <ele>368</ele>
        <time>2019-08-06T08:17:03.732Z</time>
      </trkpt>
      <trkpt lat="44.56021" lon="1.92014">
        <ele>368</ele>
        <time>2019-08-06T08:17:08.733Z</time>
      </trkpt>
      <trkpt lat="44.56016" lon="1.92007">
        <ele>367</ele>
        <time>2019-08-06T08:17:13.739Z</time>
      </trkpt>
      <trkpt lat="44.56016" lon="1.91997">
        <ele>367</ele>
        <time>2019-08-06T08:17:18.732Z</time>
      </trkpt>
      <trkpt lat="44.56014" lon="1.91986">
        <ele>362</ele>
        <time>2019-08-06T08:17:23.743Z</time>
      </trkpt>
      <trkpt lat="44.56012" lon="1.91976">
        <ele>363</ele>
        <time>2019-08-06T08:17:28.727Z</time>
      </trkpt>
      <trkpt lat="44.56011" lon="1.91961">
        <ele>363</ele>
        <time>2019-08-06T08:17:33.730Z</time>
      </trkpt>
      <trkpt lat="44.56012" lon="1.91948">
        <ele>362</ele>
        <time>2019-08-06T08:17:38.734Z</time>
      </trkpt>
      <trkpt lat="44.56011" lon="1.9194">
        <ele>362</ele>
        <time>2019-08-06T08:17:43.727Z</time>
      </trkpt>
      <trkpt lat="44.56011" lon="1.91932">
        <ele>362</ele>
        <time>2019-08-06T08:17:47.738Z</time>
      </trkpt>
      <trkpt lat="44.5601" lon="1.91923">
        <ele>362</ele>
        <time>2019-08-06T08:17:52.731Z</time>
      </trkpt>
      <trkpt lat="44.56009" lon="1.91914">
        <ele>362</ele>
        <time>2019-08-06T08:17:57.725Z</time>
      </trkpt>
      <trkpt lat="44.56004" lon="1.91906">
        <ele>362</ele>
        <time>2019-08-06T08:18:02.734Z</time>
      </trkpt>
      <trkpt lat="44.56003" lon="1.91898">
        <ele>363</ele>
        <time>2019-08-06T08:18:07.723Z</time>
      </trkpt>
      <trkpt lat="44.56001" lon="1.9189">
        <ele>363</ele>
        <time>2019-08-06T08:18:12.731Z</time>
      </trkpt>
      <trkpt lat="44.56" lon="1.91883">
        <ele>363</ele>
        <time>2019-08-06T08:18:17.713Z</time>
      </trkpt>
      <trkpt lat="44.55998" lon="1.91873">
        <ele>364</ele>
        <time>2019-08-06T08:18:21.736Z</time>
      </trkpt>
      <trkpt lat="44.55995" lon="1.91865">
        <ele>364</ele>
        <time>2019-08-06T08:18:26.726Z</time>
      </trkpt>
      <trkpt lat="44.55992" lon="1.91858">
        <ele>364</ele>
        <time>2019-08-06T08:18:31.736Z</time>
      </trkpt>
      <trkpt lat="44.5599" lon="1.91849">
        <ele>364</ele>
        <time>2019-08-06T08:18:36.718Z</time>
      </trkpt>
      <trkpt lat="44.55987" lon="1.91842">
        <ele>364</ele>
        <time>2019-08-06T08:18:40.728Z</time>
      </trkpt>
      <trkpt lat="44.55981" lon="1.91833">
        <ele>361</ele>
        <time>2019-08-06T08:18:45.720Z</time>
      </trkpt>
      <trkpt lat="44.55977" lon="1.91824">
        <ele>361</ele>
        <time>2019-08-06T08:18:49.732Z</time>
      </trkpt>
      <trkpt lat="44.55975" lon="1.91813">
        <ele>362</ele>
        <time>2019-08-06T08:18:54.721Z</time>
      </trkpt>
      <trkpt lat="44.55975" lon="1.91806">
        <ele>362</ele>
        <time>2019-08-06T08:18:59.715Z</time>
      </trkpt>
      <trkpt lat="44.55974" lon="1.918">
        <ele>362</ele>
        <time>2019-08-06T08:19:03.735Z</time>
      </trkpt>
      <trkpt lat="44.55972" lon="1.91797">
        <ele>362</ele>
        <time>2019-08-06T08:19:08.724Z</time>
      </trkpt>
      <trkpt lat="44.55967" lon="1.91789">
        <ele>363</ele>
        <time>2019-08-06T08:19:13.736Z</time>
      </trkpt>
      <trkpt lat="44.55963" lon="1.91783">
        <ele>363</ele>
        <time>2019-08-06T08:19:18.731Z</time>
      </trkpt>
      <trkpt lat="44.5596" lon="1.9178">
        <ele>363</ele>
        <time>2019-08-06T08:19:23.727Z</time>
      </trkpt>
      <trkpt lat="44.55955" lon="1.9177">
        <ele>361</ele>
        <time>2019-08-06T08:19:27.742Z</time>
      </trkpt>
      <trkpt lat="44.5595" lon="1.91758">
        <ele>359</ele>
        <time>2019-08-06T08:19:32.741Z</time>
      </trkpt>
      <trkpt lat="44.5595" lon="1.91745">
        <ele>359</ele>
        <time>2019-08-06T08:19:37.715Z</time>
      </trkpt>
      <trkpt lat="44.55948" lon="1.91736">
        <ele>357</ele>
        <time>2019-08-06T08:19:42.720Z</time>
      </trkpt>
      <trkpt lat="44.55947" lon="1.9173">
        <ele>357</ele>
        <time>2019-08-06T08:19:47.738Z</time>
      </trkpt>
      <trkpt lat="44.55949" lon="1.91718">
        <ele>357</ele>
        <time>2019-08-06T08:19:52.729Z</time>
      </trkpt>
      <trkpt lat="44.5595" lon="1.9171">
        <ele>357</ele>
        <time>2019-08-06T08:19:57.713Z</time>
      </trkpt>
      <trkpt lat="44.55949" lon="1.91703">
        <ele>356</ele>
        <time>2019-08-06T08:20:01.732Z</time>
      </trkpt>
      <trkpt lat="44.55949" lon="1.91695">
        <ele>356</ele>
        <time>2019-08-06T08:20:06.735Z</time>
      </trkpt>
      <trkpt lat="44.55947" lon="1.91689">
        <ele>356</ele>
        <time>2019-08-06T08:20:11.725Z</time>
      </trkpt>
      <trkpt lat="44.55947" lon="1.91682">
        <ele>356</ele>
        <time>2019-08-06T08:20:16.728Z</time>
      </trkpt>
      <trkpt lat="44.55942" lon="1.91675">
        <ele>356</ele>
        <time>2019-08-06T08:20:21.738Z</time>
      </trkpt>
      <trkpt lat="44.55937" lon="1.91667">
        <ele>356</ele>
        <time>2019-08-06T08:20:26.732Z</time>
      </trkpt>
      <trkpt lat="44.55936" lon="1.91662">
        <ele>356</ele>
        <time>2019-08-06T08:20:31.711Z</time>
      </trkpt>
      <trkpt lat="44.55935" lon="1.91661">
        <ele>356</ele>
        <time>2019-08-06T08:20:35.728Z</time>
      </trkpt>
      <trkpt lat="44.55931" lon="1.9166">
        <ele>356</ele>
        <time>2019-08-06T08:20:40.716Z</time>
      </trkpt>
      <trkpt lat="44.55929" lon="1.91666">
        <ele>354</ele>
        <time>2019-08-06T08:20:45.730Z</time>
      </trkpt>
      <trkpt lat="44.55929" lon="1.91675">
        <ele>354</ele>
        <time>2019-08-06T08:20:50.721Z</time>
      </trkpt>
      <trkpt lat="44.55927" lon="1.91688">
        <ele>354</ele>
        <time>2019-08-06T08:20:55.722Z</time>
      </trkpt>
      <trkpt lat="44.55924" lon="1.91697">
        <ele>354</ele>
        <time>2019-08-06T08:21:00.737Z</time>
      </trkpt>
      <trkpt lat="44.55921" lon="1.91705">
        <ele>354</ele>
        <time>2019-08-06T08:21:05.707Z</time>
      </trkpt>
      <trkpt lat="44.5592" lon="1.91712">
        <ele>354</ele>
        <time>2019-08-06T08:21:10.720Z</time>
      </trkpt>
      <trkpt lat="44.55918" lon="1.91721">
        <ele>354</ele>
        <time>2019-08-06T08:21:15.728Z</time>
      </trkpt>
      <trkpt lat="44.55913" lon="1.91729">
        <ele>354</ele>
        <time>2019-08-06T08:21:20.723Z</time>
      </trkpt>
      <trkpt lat="44.55901" lon="1.91744">
        <ele>356</ele>
        <time>2019-08-06T08:21:25.722Z</time>
      </trkpt>
      <trkpt lat="44.5589" lon="1.91757">
        <ele>356</ele>
        <time>2019-08-06T08:21:30.735Z</time>
      </trkpt>
      <trkpt lat="44.55881" lon="1.91765">
        <ele>358</ele>
        <time>2019-08-06T08:21:35.721Z</time>
      </trkpt>
      <trkpt lat="44.55874" lon="1.91767">
        <ele>358</ele>
        <time>2019-08-06T08:21:40.724Z</time>
      </trkpt>
      <trkpt lat="44.55864" lon="1.91766">
        <ele>358</ele>
        <time>2019-08-06T08:21:45.730Z</time>
      </trkpt>
      <trkpt lat="44.55855" lon="1.91771">
        <ele>358</ele>
        <time>2019-08-06T08:21:50.718Z</time>
      </trkpt>
      <trkpt lat="44.55851" lon="1.91773">
        <ele>358</ele>
        <time>2019-08-06T08:21:55.707Z</time>
      </trkpt>
      <trkpt lat="44.55843" lon="1.91773">
        <ele>358</ele>
        <time>2019-08-06T08:22:00.727Z</time>
      </trkpt>
      <trkpt lat="44.55834" lon="1.91773">
        <ele>358</ele>
        <time>2019-08-06T08:22:05.717Z</time>
      </trkpt>
      <trkpt lat="44.55827" lon="1.91774">
        <ele>358</ele>
        <time>2019-08-06T08:22:10.723Z</time>
      </trkpt>
      <trkpt lat="44.55819" lon="1.91777">
        <ele>358</ele>
        <time>2019-08-06T08:22:15.709Z</time>
      </trkpt>
      <trkpt lat="44.55811" lon="1.91776">
        <ele>358</ele>
        <time>2019-08-06T08:22:20.743Z</time>
      </trkpt>
      <trkpt lat="44.55804" lon="1.91778">
        <ele>358</ele>
        <time>2019-08-06T08:22:25.719Z</time>
      </trkpt>
      <trkpt lat="44.55797" lon="1.91778">
        <ele>358</ele>
        <time>2019-08-06T08:22:30.737Z</time>
      </trkpt>
      <trkpt lat="44.5579" lon="1.91778">
        <ele>359</ele>
        <time>2019-08-06T08:22:35.704Z</time>
      </trkpt>
      <trkpt lat="44.55783" lon="1.9178">
        <ele>359</ele>
        <time>2019-08-06T08:22:39.730Z</time>
      </trkpt>
      <trkpt lat="44.55778" lon="1.9178">
        <ele>359</ele>
        <time>2019-08-06T08:22:44.726Z</time>
      </trkpt>
      <trkpt lat="44.55772" lon="1.91781">
        <ele>359</ele>
        <time>2019-08-06T08:22:49.722Z</time>
      </trkpt>
      <trkpt lat="44.55765" lon="1.91781">
        <ele>359</ele>
        <time>2019-08-06T08:22:54.716Z</time>
      </trkpt>
      <trkpt lat="44.55756" lon="1.91782">
        <ele>361</ele>
        <time>2019-08-06T08:22:59.721Z</time>
      </trkpt>
      <trkpt lat="44.55751" lon="1.91784">
        <ele>361</ele>
        <time>2019-08-06T08:23:04.733Z</time>
      </trkpt>
      <trkpt lat="44.55745" lon="1.91784">
        <ele>361</ele>
        <time>2019-08-06T08:23:09.725Z</time>
      </trkpt>
      <trkpt lat="44.55738" lon="1.91786">
        <ele>361</ele>
        <time>2019-08-06T08:23:13.740Z</time>
      </trkpt>
      <trkpt lat="44.55733" lon="1.91784">
        <ele>363</ele>
        <time>2019-08-06T08:23:18.721Z</time>
      </trkpt>
      <trkpt lat="44.55727" lon="1.91783">
        <ele>363</ele>
        <time>2019-08-06T08:23:23.718Z</time>
      </trkpt>
      <trkpt lat="44.55721" lon="1.91787">
        <ele>363</ele>
        <time>2019-08-06T08:23:28.721Z</time>
      </trkpt>
      <trkpt lat="44.55714" lon="1.91781">
        <ele>363</ele>
        <time>2019-08-06T08:23:33.722Z</time>
      </trkpt>
      <trkpt lat="44.5571" lon="1.91775">
        <ele>363</ele>
        <time>2019-08-06T08:23:37.738Z</time>
      </trkpt>
      <trkpt lat="44.55706" lon="1.91771">
        <ele>364</ele>
        <time>2019-08-06T08:23:42.728Z</time>
      </trkpt>
      <trkpt lat="44.55699" lon="1.91762">
        <ele>361</ele>
        <time>2019-08-06T08:23:47.728Z</time>
      </trkpt>
      <trkpt lat="44.55694" lon="1.91754">
        <ele>361</ele>
        <time>2019-08-06T08:23:52.721Z</time>
      </trkpt>
      <trkpt lat="44.55688" lon="1.91748">
        <ele>361</ele>
        <time>2019-08-06T08:23:57.731Z</time>
      </trkpt>
      <trkpt lat="44.55681" lon="1.91742">
        <ele>361</ele>
        <time>2019-08-06T08:24:02.718Z</time>
      </trkpt>
      <trkpt lat="44.55674" lon="1.91734">
        <ele>360</ele>
        <time>2019-08-06T08:24:07.732Z</time>
      </trkpt>
      <trkpt lat="44.5567" lon="1.91726">
        <ele>360</ele>
        <time>2019-08-06T08:24:12.719Z</time>
      </trkpt>
      <trkpt lat="44.55667" lon="1.91718">
        <ele>360</ele>
        <time>2019-08-06T08:24:17.734Z</time>
      </trkpt>
      <trkpt lat="44.55664" lon="1.91712">
        <ele>360</ele>
        <time>2019-08-06T08:24:22.724Z</time>
      </trkpt>
      <trkpt lat="44.5566" lon="1.91704">
        <ele>358</ele>
        <time>2019-08-06T08:24:27.726Z</time>
      </trkpt>
      <trkpt lat="44.55654" lon="1.91697">
        <ele>358</ele>
        <time>2019-08-06T08:24:32.729Z</time>
      </trkpt>
      <trkpt lat="44.55649" lon="1.91687">
        <ele>360</ele>
        <time>2019-08-06T08:24:37.745Z</time>
      </trkpt>
      <trkpt lat="44.55643" lon="1.91676">
        <ele>358</ele>
        <time>2019-08-06T08:24:42.729Z</time>
      </trkpt>
      <trkpt lat="44.55642" lon="1.91669">
        <ele>358</ele>
        <time>2019-08-06T08:24:47.736Z</time>
      </trkpt>
      <trkpt lat="44.55636" lon="1.91662">
        <ele>358</ele>
        <time>2019-08-06T08:24:52.732Z</time>
      </trkpt>
      <trkpt lat="44.55632" lon="1.91653">
        <ele>358</ele>
        <time>2019-08-06T08:24:57.715Z</time>
      </trkpt>
      <trkpt lat="44.55629" lon="1.91645">
        <ele>357</ele>
        <time>2019-08-06T08:25:01.744Z</time>
      </trkpt>
      <trkpt lat="44.55624" lon="1.91636">
        <ele>360</ele>
        <time>2019-08-06T08:25:06.733Z</time>
      </trkpt>
      <trkpt lat="44.55621" lon="1.91629">
        <ele>360</ele>
        <time>2019-08-06T08:25:11.732Z</time>
      </trkpt>
      <trkpt lat="44.55616" lon="1.91622">
        <ele>356</ele>
        <time>2019-08-06T08:25:16.734Z</time>
      </trkpt>
      <trkpt lat="44.55612" lon="1.91615">
        <ele>356</ele>
        <time>2019-08-06T08:25:21.694Z</time>
      </trkpt>
      <trkpt lat="44.55609" lon="1.9161">
        <ele>356</ele>
        <time>2019-08-06T08:25:25.725Z</time>
      </trkpt>
      <trkpt lat="44.55603" lon="1.91603">
        <ele>356</ele>
        <time>2019-08-06T08:25:30.734Z</time>
      </trkpt>
      <trkpt lat="44.556" lon="1.91596">
        <ele>353</ele>
        <time>2019-08-06T08:25:35.725Z</time>
      </trkpt>
      <trkpt lat="44.55594" lon="1.9159">
        <ele>354</ele>
        <time>2019-08-06T08:25:40.721Z</time>
      </trkpt>
      <trkpt lat="44.55591" lon="1.91586">
        <ele>354</ele>
        <time>2019-08-06T08:25:45.733Z</time>
      </trkpt>
      <trkpt lat="44.55586" lon="1.91577">
        <ele>354</ele>
        <time>2019-08-06T08:25:50.719Z</time>
      </trkpt>
      <trkpt lat="44.55582" lon="1.91571">
        <ele>354</ele>
        <time>2019-08-06T08:25:55.726Z</time>
      </trkpt>
      <trkpt lat="44.55576" lon="1.91568">
        <ele>351</ele>
        <time>2019-08-06T08:25:59.728Z</time>
      </trkpt>
      <trkpt lat="44.55571" lon="1.91562">
        <ele>351</ele>
        <time>2019-08-06T08:26:04.727Z</time>
      </trkpt>
      <trkpt lat="44.55565" lon="1.91553">
        <ele>353</ele>
        <time>2019-08-06T08:26:09.739Z</time>
      </trkpt>
      <trkpt lat="44.55558" lon="1.91544">
        <ele>353</ele>
        <time>2019-08-06T08:26:14.733Z</time>
      </trkpt>
      <trkpt lat="44.55553" lon="1.91537">
        <ele>350</ele>
        <time>2019-08-06T08:26:19.728Z</time>
      </trkpt>
      <trkpt lat="44.55546" lon="1.9153">
        <ele>350</ele>
        <time>2019-08-06T08:26:24.714Z</time>
      </trkpt>
      <trkpt lat="44.55541" lon="1.91523">
        <ele>355</ele>
        <time>2019-08-06T08:26:29.723Z</time>
      </trkpt>
      <trkpt lat="44.55536" lon="1.91517">
        <ele>355</ele>
        <time>2019-08-06T08:26:33.736Z</time>
      </trkpt>
      <trkpt lat="44.55533" lon="1.91508">
        <ele>353</ele>
        <time>2019-08-06T08:26:38.721Z</time>
      </trkpt>
      <trkpt lat="44.5553" lon="1.915">
        <ele>353</ele>
        <time>2019-08-06T08:26:43.726Z</time>
      </trkpt>
      <trkpt lat="44.55526" lon="1.91493">
        <ele>353</ele>
        <time>2019-08-06T08:26:48.724Z</time>
      </trkpt>
      <trkpt lat="44.5552" lon="1.91486">
        <ele>352</ele>
        <time>2019-08-06T08:26:53.725Z</time>
      </trkpt>
      <trkpt lat="44.55515" lon="1.91477">
        <ele>352</ele>
        <time>2019-08-06T08:26:58.719Z</time>
      </trkpt>
      <trkpt lat="44.55511" lon="1.91469">
        <ele>353</ele>
        <time>2019-08-06T08:27:03.725Z</time>
      </trkpt>
      <trkpt lat="44.55507" lon="1.91462">
        <ele>353</ele>
        <time>2019-08-06T08:27:08.725Z</time>
      </trkpt>
      <trkpt lat="44.55504" lon="1.91457">
        <ele>351</ele>
        <time>2019-08-06T08:27:12.738Z</time>
      </trkpt>
      <trkpt lat="44.55498" lon="1.91449">
        <ele>351</ele>
        <time>2019-08-06T08:27:17.728Z</time>
      </trkpt>
      <trkpt lat="44.55493" lon="1.9144">
        <ele>351</ele>
        <time>2019-08-06T08:27:22.725Z</time>
      </trkpt>
      <trkpt lat="44.55489" lon="1.91431">
        <ele>351</ele>
        <time>2019-08-06T08:27:27.721Z</time>
      </trkpt>
      <trkpt lat="44.55486" lon="1.91428">
        <ele>350</ele>
        <time>2019-08-06T08:27:31.719Z</time>
      </trkpt>
      <trkpt lat="44.55483" lon="1.91421">
        <ele>350</ele>
        <time>2019-08-06T08:27:36.732Z</time>
      </trkpt>
      <trkpt lat="44.55479" lon="1.91412">
        <ele>350</ele>
        <time>2019-08-06T08:27:41.736Z</time>
      </trkpt>
      <trkpt lat="44.55478" lon="1.91404">
        <ele>350</ele>
        <time>2019-08-06T08:27:46.721Z</time>
      </trkpt>
      <trkpt lat="44.55473" lon="1.91396">
        <ele>347</ele>
        <time>2019-08-06T08:27:51.724Z</time>
      </trkpt>
      <trkpt lat="44.55465" lon="1.91391">
        <ele>347</ele>
        <time>2019-08-06T08:27:56.713Z</time>
      </trkpt>
      <trkpt lat="44.55462" lon="1.91387">
        <ele>347</ele>
        <time>2019-08-06T08:28:00.719Z</time>
      </trkpt>
      <trkpt lat="44.55455" lon="1.91381">
        <ele>346</ele>
        <time>2019-08-06T08:28:05.712Z</time>
      </trkpt>
      <trkpt lat="44.55448" lon="1.91373">
        <ele>344</ele>
        <time>2019-08-06T08:28:10.717Z</time>
      </trkpt>
      <trkpt lat="44.55444" lon="1.91369">
        <ele>344</ele>
        <time>2019-08-06T08:28:14.729Z</time>
      </trkpt>
      <trkpt lat="44.55439" lon="1.91362">
        <ele>344</ele>
        <time>2019-08-06T08:28:19.715Z</time>
      </trkpt>
      <trkpt lat="44.55434" lon="1.91354">
        <ele>344</ele>
        <time>2019-08-06T08:28:24.728Z</time>
      </trkpt>
      <trkpt lat="44.5543" lon="1.91347">
        <ele>344</ele>
        <time>2019-08-06T08:28:29.730Z</time>
      </trkpt>
      <trkpt lat="44.55425" lon="1.91338">
        <ele>344</ele>
        <time>2019-08-06T08:28:34.722Z</time>
      </trkpt>
      <trkpt lat="44.55421" lon="1.91329">
        <ele>344</ele>
        <time>2019-08-06T08:28:39.730Z</time>
      </trkpt>
      <trkpt lat="44.55416" lon="1.91318">
        <ele>343</ele>
        <time>2019-08-06T08:28:44.736Z</time>
      </trkpt>
      <trkpt lat="44.55412" lon="1.91308">
        <ele>343</ele>
        <time>2019-08-06T08:28:49.726Z</time>
      </trkpt>
      <trkpt lat="44.55408" lon="1.91298">
        <ele>343</ele>
        <time>2019-08-06T08:28:54.727Z</time>
      </trkpt>
      <trkpt lat="44.55403" lon="1.91287">
        <ele>342</ele>
        <time>2019-08-06T08:28:59.717Z</time>
      </trkpt>
      <trkpt lat="44.55397" lon="1.91278">
        <ele>343</ele>
        <time>2019-08-06T08:29:04.736Z</time>
      </trkpt>
      <trkpt lat="44.55392" lon="1.91268">
        <ele>343</ele>
        <time>2019-08-06T08:29:09.728Z</time>
      </trkpt>
      <trkpt lat="44.55389" lon="1.91257">
        <ele>342</ele>
        <time>2019-08-06T08:29:14.742Z</time>
      </trkpt>
      <trkpt lat="44.55383" lon="1.9125">
        <ele>342</ele>
        <time>2019-08-06T08:29:19.717Z</time>
      </trkpt>
      <trkpt lat="44.5538" lon="1.91241">
        <ele>342</ele>
        <time>2019-08-06T08:29:24.723Z</time>
      </trkpt>
      <trkpt lat="44.55377" lon="1.91229">
        <ele>340</ele>
        <time>2019-08-06T08:29:29.724Z</time>
      </trkpt>
      <trkpt lat="44.55377" lon="1.91222">
        <ele>340</ele>
        <time>2019-08-06T08:29:34.727Z</time>
      </trkpt>
      <trkpt lat="44.55375" lon="1.91214">
        <ele>341</ele>
        <time>2019-08-06T08:29:39.720Z</time>
      </trkpt>
      <trkpt lat="44.55371" lon="1.91207">
        <ele>341</ele>
        <time>2019-08-06T08:29:44.728Z</time>
      </trkpt>
      <trkpt lat="44.55369" lon="1.91198">
        <ele>341</ele>
        <time>2019-08-06T08:29:49.724Z</time>
      </trkpt>
      <trkpt lat="44.55368" lon="1.91187">
        <ele>341</ele>
        <time>2019-08-06T08:29:54.725Z</time>
      </trkpt>
      <trkpt lat="44.55369" lon="1.91173">
        <ele>340</ele>
        <time>2019-08-06T08:29:59.723Z</time>
      </trkpt>
      <trkpt lat="44.55366" lon="1.91164">
        <ele>340</ele>
        <time>2019-08-06T08:30:03.741Z</time>
      </trkpt>
      <trkpt lat="44.55363" lon="1.91151">
        <ele>340</ele>
        <time>2019-08-06T08:30:08.722Z</time>
      </trkpt>
      <trkpt lat="44.55361" lon="1.91141">
        <ele>340</ele>
        <time>2019-08-06T08:30:13.727Z</time>
      </trkpt>
      <trkpt lat="44.55358" lon="1.9113">
        <ele>340</ele>
        <time>2019-08-06T08:30:18.719Z</time>
      </trkpt>
      <trkpt lat="44.55356" lon="1.91118">
        <ele>339</ele>
        <time>2019-08-06T08:30:23.725Z</time>
      </trkpt>
      <trkpt lat="44.55354" lon="1.91108">
        <ele>339</ele>
        <time>2019-08-06T08:30:28.717Z</time>
      </trkpt>
      <trkpt lat="44.55354" lon="1.91099">
        <ele>339</ele>
        <time>2019-08-06T08:30:33.725Z</time>
      </trkpt>
      <trkpt lat="44.55353" lon="1.91088">
        <ele>338</ele>
        <time>2019-08-06T08:30:38.731Z</time>
      </trkpt>
      <trkpt lat="44.55355" lon="1.91078">
        <ele>338</ele>
        <time>2019-08-06T08:30:43.722Z</time>
      </trkpt>
      <trkpt lat="44.55356" lon="1.91061">
        <ele>338</ele>
        <time>2019-08-06T08:30:48.734Z</time>
      </trkpt>
      <trkpt lat="44.55355" lon="1.91025">
        <ele>339</ele>
        <time>2019-08-06T08:30:53.732Z</time>
      </trkpt>
      <trkpt lat="44.55353" lon="1.90989">
        <ele>340</ele>
        <time>2019-08-06T08:30:58.737Z</time>
      </trkpt>
      <trkpt lat="44.55348" lon="1.90957">
        <ele>343</ele>
        <time>2019-08-06T08:31:03.713Z</time>
      </trkpt>
      <trkpt lat="44.55345" lon="1.90939">
        <ele>339</ele>
        <time>2019-08-06T08:31:07.718Z</time>
      </trkpt>
      <trkpt lat="44.55341" lon="1.90908">
        <ele>340</ele>
        <time>2019-08-06T08:31:12.726Z</time>
      </trkpt>
      <trkpt lat="44.55329" lon="1.90874">
        <ele>340</ele>
        <time>2019-08-06T08:31:17.725Z</time>
      </trkpt>
      <trkpt lat="44.5532" lon="1.90844">
        <ele>342</ele>
        <time>2019-08-06T08:31:22.728Z</time>
      </trkpt>
      <trkpt lat="44.55312" lon="1.90821">
        <ele>339</ele>
        <time>2019-08-06T08:31:27.721Z</time>
      </trkpt>
      <trkpt lat="44.55308" lon="1.90807">
        <ele>341</ele>
        <time>2019-08-06T08:31:32.726Z</time>
      </trkpt>
      <trkpt lat="44.55305" lon="1.90797">
        <ele>341</ele>
        <time>2019-08-06T08:31:37.723Z</time>
      </trkpt>
      <trkpt lat="44.553" lon="1.90789">
        <ele>343</ele>
        <time>2019-08-06T08:31:42.738Z</time>
      </trkpt>
      <trkpt lat="44.55294" lon="1.90783">
        <ele>343</ele>
        <time>2019-08-06T08:31:47.715Z</time>
      </trkpt>
      <trkpt lat="44.55289" lon="1.90775">
        <ele>339</ele>
        <time>2019-08-06T08:31:52.727Z</time>
      </trkpt>
      <trkpt lat="44.55282" lon="1.90769">
        <ele>339</ele>
        <time>2019-08-06T08:31:57.717Z</time>
      </trkpt>
      <trkpt lat="44.55277" lon="1.90753">
        <ele>341</ele>
        <time>2019-08-06T08:32:02.738Z</time>
      </trkpt>
      <trkpt lat="44.55271" lon="1.90745">
        <ele>341</ele>
        <time>2019-08-06T08:32:07.725Z</time>
      </trkpt>
      <trkpt lat="44.55264" lon="1.90738">
        <ele>341</ele>
        <time>2019-08-06T08:32:12.724Z</time>
      </trkpt>
      <trkpt lat="44.5526" lon="1.90731">
        <ele>339</ele>
        <time>2019-08-06T08:32:17.715Z</time>
      </trkpt>
      <trkpt lat="44.55255" lon="1.90723">
        <ele>339</ele>
        <time>2019-08-06T08:32:22.721Z</time>
      </trkpt>
      <trkpt lat="44.55247" lon="1.90708">
        <ele>340</ele>
        <time>2019-08-06T08:32:27.720Z</time>
      </trkpt>
      <trkpt lat="44.55245" lon="1.90696">
        <ele>340</ele>
        <time>2019-08-06T08:32:32.724Z</time>
      </trkpt>
      <trkpt lat="44.55241" lon="1.90689">
        <ele>340</ele>
        <time>2019-08-06T08:32:37.717Z</time>
      </trkpt>
      <trkpt lat="44.55237" lon="1.90681">
        <ele>340</ele>
        <time>2019-08-06T08:32:42.720Z</time>
      </trkpt>
      <trkpt lat="44.55233" lon="1.90673">
        <ele>339</ele>
        <time>2019-08-06T08:32:46.730Z</time>
      </trkpt>
      <trkpt lat="44.5523" lon="1.90665">
        <ele>339</ele>
        <time>2019-08-06T08:32:51.724Z</time>
      </trkpt>
      <trkpt lat="44.55224" lon="1.90656">
        <ele>339</ele>
        <time>2019-08-06T08:32:56.730Z</time>
      </trkpt>
      <trkpt lat="44.55219" lon="1.90652">
        <ele>339</ele>
        <time>2019-08-06T08:33:01.726Z</time>
      </trkpt>
      <trkpt lat="44.55213" lon="1.90645">
        <ele>339</ele>
        <time>2019-08-06T08:33:06.723Z</time>
      </trkpt>
      <trkpt lat="44.55209" lon="1.90632">
        <ele>339</ele>
        <time>2019-08-06T08:33:11.716Z</time>
      </trkpt>
      <trkpt lat="44.55203" lon="1.90622">
        <ele>337</ele>
        <time>2019-08-06T08:33:16.718Z</time>
      </trkpt>
      <trkpt lat="44.55199" lon="1.90615">
        <ele>337</ele>
        <time>2019-08-06T08:33:20.734Z</time>
      </trkpt>
      <trkpt lat="44.55193" lon="1.90607">
        <ele>337</ele>
        <time>2019-08-06T08:33:25.734Z</time>
      </trkpt>
      <trkpt lat="44.55186" lon="1.906">
        <ele>337</ele>
        <time>2019-08-06T08:33:30.722Z</time>
      </trkpt>
      <trkpt lat="44.55181" lon="1.90593">
        <ele>337</ele>
        <time>2019-08-06T08:33:35.730Z</time>
      </trkpt>
      <trkpt lat="44.55176" lon="1.90587">
        <ele>337</ele>
        <time>2019-08-06T08:33:39.749Z</time>
      </trkpt>
      <trkpt lat="44.5517" lon="1.90578">
        <ele>337</ele>
        <time>2019-08-06T08:33:44.730Z</time>
      </trkpt>
      <trkpt lat="44.55165" lon="1.90571">
        <ele>337</ele>
        <time>2019-08-06T08:33:49.731Z</time>
      </trkpt>
      <trkpt lat="44.5516" lon="1.90564">
        <ele>337</ele>
        <time>2019-08-06T08:33:54.733Z</time>
      </trkpt>
      <trkpt lat="44.55155" lon="1.90557">
        <ele>337</ele>
        <time>2019-08-06T08:33:59.738Z</time>
      </trkpt>
      <trkpt lat="44.55151" lon="1.90549">
        <ele>335</ele>
        <time>2019-08-06T08:34:04.730Z</time>
      </trkpt>
      <trkpt lat="44.55146" lon="1.90542">
        <ele>335</ele>
        <time>2019-08-06T08:34:09.722Z</time>
      </trkpt>
      <trkpt lat="44.55139" lon="1.90535">
        <ele>336</ele>
        <time>2019-08-06T08:34:14.730Z</time>
      </trkpt>
      <trkpt lat="44.55134" lon="1.90528">
        <ele>336</ele>
        <time>2019-08-06T08:34:19.726Z</time>
      </trkpt>
      <trkpt lat="44.55127" lon="1.90516">
        <ele>336</ele>
        <time>2019-08-06T08:34:24.733Z</time>
      </trkpt>
      <trkpt lat="44.55122" lon="1.90508">
        <ele>334</ele>
        <time>2019-08-06T08:34:29.721Z</time>
      </trkpt>
      <trkpt lat="44.55119" lon="1.90502">
        <ele>334</ele>
        <time>2019-08-06T08:34:33.741Z</time>
      </trkpt>
      <trkpt lat="44.55116" lon="1.90493">
        <ele>334</ele>
        <time>2019-08-06T08:34:38.742Z</time>
      </trkpt>
      <trkpt lat="44.55113" lon="1.90483">
        <ele>333</ele>
        <time>2019-08-06T08:34:43.731Z</time>
      </trkpt>
      <trkpt lat="44.55107" lon="1.90474">
        <ele>333</ele>
        <time>2019-08-06T08:34:48.723Z</time>
      </trkpt>
      <trkpt lat="44.55105" lon="1.90468">
        <ele>333</ele>
        <time>2019-08-06T08:34:52.733Z</time>
      </trkpt>
      <trkpt lat="44.551" lon="1.9046">
        <ele>333</ele>
        <time>2019-08-06T08:34:57.728Z</time>
      </trkpt>
      <trkpt lat="44.55098" lon="1.90455">
        <ele>332</ele>
        <time>2019-08-06T08:35:02.718Z</time>
      </trkpt>
      <trkpt lat="44.55092" lon="1.90446">
        <ele>330</ele>
        <time>2019-08-06T08:35:07.738Z</time>
      </trkpt>
      <trkpt lat="44.55088" lon="1.90437">
        <ele>330</ele>
        <time>2019-08-06T08:35:12.718Z</time>
      </trkpt>
      <trkpt lat="44.55081" lon="1.90425">
        <ele>330</ele>
        <time>2019-08-06T08:35:17.732Z</time>
      </trkpt>
      <trkpt lat="44.55077" lon="1.90416">
        <ele>330</ele>
        <time>2019-08-06T08:35:22.729Z</time>
      </trkpt>
      <trkpt lat="44.55071" lon="1.90408">
        <ele>330</ele>
        <time>2019-08-06T08:35:27.730Z</time>
      </trkpt>
      <trkpt lat="44.55065" lon="1.90402">
        <ele>328</ele>
        <time>2019-08-06T08:35:32.729Z</time>
      </trkpt>
      <trkpt lat="44.55059" lon="1.90397">
        <ele>328</ele>
        <time>2019-08-06T08:35:37.736Z</time>
      </trkpt>
      <trkpt lat="44.55053" lon="1.90392">
        <ele>328</ele>
        <time>2019-08-06T08:35:42.723Z</time>
      </trkpt>
      <trkpt lat="44.55048" lon="1.90387">
        <ele>328</ele>
        <time>2019-08-06T08:35:47.729Z</time>
      </trkpt>
      <trkpt lat="44.55043" lon="1.90378">
        <ele>328</ele>
        <time>2019-08-06T08:35:52.726Z</time>
      </trkpt>
      <trkpt lat="44.55039" lon="1.90371">
        <ele>327</ele>
        <time>2019-08-06T08:35:56.732Z</time>
      </trkpt>
      <trkpt lat="44.55038" lon="1.90361">
        <ele>327</ele>
        <time>2019-08-06T08:36:01.784Z</time>
      </trkpt>
      <trkpt lat="44.55034" lon="1.90352">
        <ele>327</ele>
        <time>2019-08-06T08:36:06.723Z</time>
      </trkpt>
      <trkpt lat="44.55031" lon="1.90342">
        <ele>326</ele>
        <time>2019-08-06T08:36:11.758Z</time>
      </trkpt>
      <trkpt lat="44.55026" lon="1.90332">
        <ele>326</ele>
        <time>2019-08-06T08:36:16.723Z</time>
      </trkpt>
      <trkpt lat="44.55024" lon="1.90322">
        <ele>326</ele>
        <time>2019-08-06T08:36:21.738Z</time>
      </trkpt>
      <trkpt lat="44.55021" lon="1.90313">
        <ele>325</ele>
        <time>2019-08-06T08:36:26.730Z</time>
      </trkpt>
      <trkpt lat="44.55018" lon="1.90307">
        <ele>325</ele>
        <time>2019-08-06T08:36:31.733Z</time>
      </trkpt>
      <trkpt lat="44.55013" lon="1.90299">
        <ele>324</ele>
        <time>2019-08-06T08:36:36.737Z</time>
      </trkpt>
      <trkpt lat="44.55006" lon="1.9029">
        <ele>322</ele>
        <time>2019-08-06T08:36:41.743Z</time>
      </trkpt>
      <trkpt lat="44.54998" lon="1.9028">
        <ele>322</ele>
        <time>2019-08-06T08:36:46.742Z</time>
      </trkpt>
      <trkpt lat="44.5499" lon="1.90271">
        <ele>322</ele>
        <time>2019-08-06T08:36:51.756Z</time>
      </trkpt>
      <trkpt lat="44.54983" lon="1.90264">
        <ele>321</ele>
        <time>2019-08-06T08:36:56.727Z</time>
      </trkpt>
      <trkpt lat="44.54976" lon="1.90259">
        <ele>320</ele>
        <time>2019-08-06T08:37:01.752Z</time>
      </trkpt>
      <trkpt lat="44.5497" lon="1.90254">
        <ele>320</ele>
        <time>2019-08-06T08:37:06.728Z</time>
      </trkpt>
      <trkpt lat="44.54963" lon="1.90249">
        <ele>320</ele>
        <time>2019-08-06T08:37:11.744Z</time>
      </trkpt>
      <trkpt lat="44.54957" lon="1.90243">
        <ele>321</ele>
        <time>2019-08-06T08:37:16.721Z</time>
      </trkpt>
      <trkpt lat="44.54951" lon="1.90236">
        <ele>321</ele>
        <time>2019-08-06T08:37:21.740Z</time>
      </trkpt>
      <trkpt lat="44.54946" lon="1.90231">
        <ele>322</ele>
        <time>2019-08-06T08:37:26.725Z</time>
      </trkpt>
      <trkpt lat="44.54941" lon="1.90226">
        <ele>322</ele>
        <time>2019-08-06T08:37:30.738Z</time>
      </trkpt>
      <trkpt lat="44.54935" lon="1.9022">
        <ele>322</ele>
        <time>2019-08-06T08:37:35.724Z</time>
      </trkpt>
      <trkpt lat="44.5493" lon="1.90216">
        <ele>326</ele>
        <time>2019-08-06T08:37:39.737Z</time>
      </trkpt>
      <trkpt lat="44.54922" lon="1.90208">
        <ele>325</ele>
        <time>2019-08-06T08:37:44.719Z</time>
      </trkpt>
      <trkpt lat="44.54914" lon="1.90201">
        <ele>325</ele>
        <time>2019-08-06T08:37:49.730Z</time>
      </trkpt>
      <trkpt lat="44.54911" lon="1.90196">
        <ele>325</ele>
        <time>2019-08-06T08:37:53.740Z</time>
      </trkpt>
      <trkpt lat="44.54906" lon="1.9019">
        <ele>325</ele>
        <time>2019-08-06T08:37:58.730Z</time>
      </trkpt>
      <trkpt lat="44.54902" lon="1.90182">
        <ele>328</ele>
        <time>2019-08-06T08:38:03.738Z</time>
      </trkpt>
      <trkpt lat="44.54897" lon="1.90174">
        <ele>326</ele>
        <time>2019-08-06T08:38:08.721Z</time>
      </trkpt>
      <trkpt lat="44.54893" lon="1.90167">
        <ele>326</ele>
        <time>2019-08-06T08:38:13.729Z</time>
      </trkpt>
      <trkpt lat="44.54888" lon="1.90159">
        <ele>326</ele>
        <time>2019-08-06T08:38:18.706Z</time>
      </trkpt>
      <trkpt lat="44.54883" lon="1.90152">
        <ele>325</ele>
        <time>2019-08-06T08:38:22.724Z</time>
      </trkpt>
      <trkpt lat="44.54878" lon="1.90145">
        <ele>325</ele>
        <time>2019-08-06T08:38:27.742Z</time>
      </trkpt>
      <trkpt lat="44.54874" lon="1.90137">
        <ele>328</ele>
        <time>2019-08-06T08:38:32.722Z</time>
      </trkpt>
      <trkpt lat="44.54869" lon="1.90129">
        <ele>328</ele>
        <time>2019-08-06T08:38:37.727Z</time>
      </trkpt>
      <trkpt lat="44.54864" lon="1.90121">
        <ele>327</ele>
        <time>2019-08-06T08:38:42.737Z</time>
      </trkpt>
      <trkpt lat="44.54861" lon="1.90112">
        <ele>327</ele>
        <time>2019-08-06T08:38:47.753Z</time>
      </trkpt>
      <trkpt lat="44.54857" lon="1.90102">
        <ele>327</ele>
        <time>2019-08-06T08:38:52.727Z</time>
      </trkpt>
      <trkpt lat="44.54854" lon="1.90094">
        <ele>326</ele>
        <time>2019-08-06T08:38:57.738Z</time>
      </trkpt>
      <trkpt lat="44.5485" lon="1.90086">
        <ele>326</ele>
        <time>2019-08-06T08:39:02.713Z</time>
      </trkpt>
      <trkpt lat="44.54846" lon="1.90079">
        <ele>329</ele>
        <time>2019-08-06T08:39:07.717Z</time>
      </trkpt>
      <trkpt lat="44.54842" lon="1.90074">
        <ele>329</ele>
        <time>2019-08-06T08:39:11.726Z</time>
      </trkpt>
      <trkpt lat="44.54838" lon="1.90068">
        <ele>329</ele>
        <time>2019-08-06T08:39:15.735Z</time>
      </trkpt>
      <trkpt lat="44.54833" lon="1.90061">
        <ele>329</ele>
        <time>2019-08-06T08:39:20.734Z</time>
      </trkpt>
      <trkpt lat="44.54828" lon="1.90054">
        <ele>329</ele>
        <time>2019-08-06T08:39:25.724Z</time>
      </trkpt>
      <trkpt lat="44.54821" lon="1.90045">
        <ele>329</ele>
        <time>2019-08-06T08:39:30.739Z</time>
      </trkpt>
      <trkpt lat="44.54815" lon="1.90034">
        <ele>332</ele>
        <time>2019-08-06T08:39:35.732Z</time>
      </trkpt>
      <trkpt lat="44.54811" lon="1.90027">
        <ele>332</ele>
        <time>2019-08-06T08:39:40.727Z</time>
      </trkpt>
      <trkpt lat="44.54804" lon="1.9002">
        <ele>332</ele>
        <time>2019-08-06T08:39:45.748Z</time>
      </trkpt>
      <trkpt lat="44.548" lon="1.9001">
        <ele>333</ele>
        <time>2019-08-06T08:39:50.719Z</time>
      </trkpt>
      <trkpt lat="44.54796" lon="1.90003">
        <ele>333</ele>
        <time>2019-08-06T08:39:54.732Z</time>
      </trkpt>
      <trkpt lat="44.54792" lon="1.89994">
        <ele>334</ele>
        <time>2019-08-06T08:39:59.722Z</time>
      </trkpt>
      <trkpt lat="44.54788" lon="1.89985">
        <ele>336</ele>
        <time>2019-08-06T08:40:04.734Z</time>
      </trkpt>
      <trkpt lat="44.54786" lon="1.89976">
        <ele>336</ele>
        <time>2019-08-06T08:40:09.716Z</time>
      </trkpt>
      <trkpt lat="44.54785" lon="1.89967">
        <ele>336</ele>
        <time>2019-08-06T08:40:14.744Z</time>
      </trkpt>
      <trkpt lat="44.54784" lon="1.8996">
        <ele>336</ele>
        <time>2019-08-06T08:40:19.724Z</time>
      </trkpt>
      <trkpt lat="44.54781" lon="1.89953">
        <ele>338</ele>
        <time>2019-08-06T08:40:24.726Z</time>
      </trkpt>
      <trkpt lat="44.54777" lon="1.89948">
        <ele>338</ele>
        <time>2019-08-06T08:40:29.730Z</time>
      </trkpt>
      <trkpt lat="44.54771" lon="1.89944">
        <ele>338</ele>
        <time>2019-08-06T08:40:34.733Z</time>
      </trkpt>
      <trkpt lat="44.54764" lon="1.89943">
        <ele>338</ele>
        <time>2019-08-06T08:40:39.721Z</time>
      </trkpt>
      <trkpt lat="44.54758" lon="1.8994">
        <ele>339</ele>
        <time>2019-08-06T08:40:44.696Z</time>
      </trkpt>
      <trkpt lat="44.54753" lon="1.89938">
        <ele>339</ele>
        <time>2019-08-06T08:40:48.727Z</time>
      </trkpt>
      <trkpt lat="44.54748" lon="1.89937">
        <ele>339</ele>
        <time>2019-08-06T08:40:52.725Z</time>
      </trkpt>
      <trkpt lat="44.54742" lon="1.89935">
        <ele>339</ele>
        <time>2019-08-06T08:40:57.721Z</time>
      </trkpt>
      <trkpt lat="44.54736" lon="1.89932">
        <ele>340</ele>
        <time>2019-08-06T08:41:02.726Z</time>
      </trkpt>
      <trkpt lat="44.54729" lon="1.89927">
        <ele>344</ele>
        <time>2019-08-06T08:41:07.727Z</time>
      </trkpt>
      <trkpt lat="44.54722" lon="1.89923">
        <ele>344</ele>
        <time>2019-08-06T08:41:12.709Z</time>
      </trkpt>
      <trkpt lat="44.54718" lon="1.8992">
        <ele>344</ele>
        <time>2019-08-06T08:41:16.738Z</time>
      </trkpt>
      <trkpt lat="44.54712" lon="1.89917">
        <ele>344</ele>
        <time>2019-08-06T08:41:21.726Z</time>
      </trkpt>
      <trkpt lat="44.54709" lon="1.89916">
        <ele>344</ele>
        <time>2019-08-06T08:41:26.735Z</time>
      </trkpt>
      <trkpt lat="44.54708" lon="1.89917">
        <ele>344</ele>
        <time>2019-08-06T08:41:31.724Z</time>
      </trkpt>
      <trkpt lat="44.54708" lon="1.89917">
        <ele>344</ele>
        <time>2019-08-06T08:41:35.740Z</time>
      </trkpt>
      <trkpt lat="44.54703" lon="1.89913">
        <ele>344</ele>
        <time>2019-08-06T08:41:40.720Z</time>
      </trkpt>
      <trkpt lat="44.54697" lon="1.89911">
        <ele>344</ele>
        <time>2019-08-06T08:41:45.713Z</time>
      </trkpt>
      <trkpt lat="44.54689" lon="1.89912">
        <ele>344</ele>
        <time>2019-08-06T08:41:50.730Z</time>
      </trkpt>
      <trkpt lat="44.54681" lon="1.89912">
        <ele>344</ele>
        <time>2019-08-06T08:41:55.724Z</time>
      </trkpt>
      <trkpt lat="44.54672" lon="1.89911">
        <ele>345</ele>
        <time>2019-08-06T08:42:00.731Z</time>
      </trkpt>
      <trkpt lat="44.54664" lon="1.8991">
        <ele>345</ele>
        <time>2019-08-06T08:42:05.720Z</time>
      </trkpt>
      <trkpt lat="44.54658" lon="1.89909">
        <ele>345</ele>
        <time>2019-08-06T08:42:09.734Z</time>
      </trkpt>
      <trkpt lat="44.54651" lon="1.89907">
        <ele>345</ele>
        <time>2019-08-06T08:42:14.731Z</time>
      </trkpt>
      <trkpt lat="44.54644" lon="1.89905">
        <ele>345</ele>
        <time>2019-08-06T08:42:19.730Z</time>
      </trkpt>
      <trkpt lat="44.54638" lon="1.89903">
        <ele>345</ele>
        <time>2019-08-06T08:42:24.722Z</time>
      </trkpt>
      <trkpt lat="44.54633" lon="1.89902">
        <ele>350</ele>
        <time>2019-08-06T08:42:28.725Z</time>
      </trkpt>
      <trkpt lat="44.54626" lon="1.899">
        <ele>350</ele>
        <time>2019-08-06T08:42:33.706Z</time>
      </trkpt>
      <trkpt lat="44.5462" lon="1.89899">
        <ele>352</ele>
        <time>2019-08-06T08:42:37.722Z</time>
      </trkpt>
      <trkpt lat="44.54613" lon="1.89898">
        <ele>352</ele>
        <time>2019-08-06T08:42:42.741Z</time>
      </trkpt>
      <trkpt lat="44.54608" lon="1.89899">
        <ele>352</ele>
        <time>2019-08-06T08:42:47.733Z</time>
      </trkpt>
      <trkpt lat="44.54602" lon="1.89897">
        <ele>352</ele>
        <time>2019-08-06T08:42:52.727Z</time>
      </trkpt>
      <trkpt lat="44.54595" lon="1.89894">
        <ele>353</ele>
        <time>2019-08-06T08:42:57.709Z</time>
      </trkpt>
      <trkpt lat="44.54588" lon="1.89891">
        <ele>353</ele>
        <time>2019-08-06T08:43:02.726Z</time>
      </trkpt>
      <trkpt lat="44.54581" lon="1.89891">
        <ele>353</ele>
        <time>2019-08-06T08:43:07.722Z</time>
      </trkpt>
      <trkpt lat="44.54573" lon="1.89888">
        <ele>353</ele>
        <time>2019-08-06T08:43:12.735Z</time>
      </trkpt>
      <trkpt lat="44.54567" lon="1.89887">
        <ele>353</ele>
        <time>2019-08-06T08:43:17.733Z</time>
      </trkpt>
      <trkpt lat="44.54562" lon="1.89885">
        <ele>353</ele>
        <time>2019-08-06T08:43:22.722Z</time>
      </trkpt>
      <trkpt lat="44.54556" lon="1.89883">
        <ele>353</ele>
        <time>2019-08-06T08:43:27.743Z</time>
      </trkpt>
      <trkpt lat="44.54549" lon="1.89879">
        <ele>353</ele>
        <time>2019-08-06T08:43:32.736Z</time>
      </trkpt>
      <trkpt lat="44.54542" lon="1.89877">
        <ele>353</ele>
        <time>2019-08-06T08:43:37.744Z</time>
      </trkpt>
      <trkpt lat="44.54536" lon="1.89875">
        <ele>356</ele>
        <time>2019-08-06T08:43:42.729Z</time>
      </trkpt>
      <trkpt lat="44.5453" lon="1.89874">
        <ele>356</ele>
        <time>2019-08-06T08:43:47.740Z</time>
      </trkpt>
      <trkpt lat="44.54523" lon="1.89875">
        <ele>352</ele>
        <time>2019-08-06T08:43:52.732Z</time>
      </trkpt>
      <trkpt lat="44.54515" lon="1.89876">
        <ele>352</ele>
        <time>2019-08-06T08:43:57.735Z</time>
      </trkpt>
      <trkpt lat="44.54507" lon="1.89877">
        <ele>355</ele>
        <time>2019-08-06T08:44:02.726Z</time>
      </trkpt>
      <trkpt lat="44.545" lon="1.89877">
        <ele>355</ele>
        <time>2019-08-06T08:44:07.736Z</time>
      </trkpt>
      <trkpt lat="44.54494" lon="1.89876">
        <ele>355</ele>
        <time>2019-08-06T08:44:12.735Z</time>
      </trkpt>
      <trkpt lat="44.54487" lon="1.89876">
        <ele>355</ele>
        <time>2019-08-06T08:44:17.738Z</time>
      </trkpt>
      <trkpt lat="44.54481" lon="1.89875">
        <ele>362</ele>
        <time>2019-08-06T08:44:22.729Z</time>
      </trkpt>
      <trkpt lat="44.54474" lon="1.89875">
        <ele>362</ele>
        <time>2019-08-06T08:44:27.737Z</time>
      </trkpt>
      <trkpt lat="44.54468" lon="1.89873">
        <ele>362</ele>
        <time>2019-08-06T08:44:32.733Z</time>
      </trkpt>
      <trkpt lat="44.54462" lon="1.89871">
        <ele>362</ele>
        <time>2019-08-06T08:44:37.744Z</time>
      </trkpt>
      <trkpt lat="44.54455" lon="1.8987">
        <ele>364</ele>
        <time>2019-08-06T08:44:42.727Z</time>
      </trkpt>
      <trkpt lat="44.54449" lon="1.8987">
        <ele>364</ele>
        <time>2019-08-06T08:44:47.720Z</time>
      </trkpt>
      <trkpt lat="44.54445" lon="1.89871">
        <ele>364</ele>
        <time>2019-08-06T08:44:52.732Z</time>
      </trkpt>
      <trkpt lat="44.54439" lon="1.8987">
        <ele>364</ele>
        <time>2019-08-06T08:44:57.734Z</time>
      </trkpt>
      <trkpt lat="44.54432" lon="1.89869">
        <ele>364</ele>
        <time>2019-08-06T08:45:02.724Z</time>
      </trkpt>
      <trkpt lat="44.54425" lon="1.8987">
        <ele>364</ele>
        <time>2019-08-06T08:45:07.735Z</time>
      </trkpt>
      <trkpt lat="44.54418" lon="1.89871">
        <ele>364</ele>
        <time>2019-08-06T08:45:12.724Z</time>
      </trkpt>
      <trkpt lat="44.54411" lon="1.89869">
        <ele>364</ele>
        <time>2019-08-06T08:45:17.732Z</time>
      </trkpt>
      <trkpt lat="44.54405" lon="1.89869">
        <ele>364</ele>
        <time>2019-08-06T08:45:22.728Z</time>
      </trkpt>
      <trkpt lat="44.54398" lon="1.89867">
        <ele>365</ele>
        <time>2019-08-06T08:45:27.746Z</time>
      </trkpt>
      <trkpt lat="44.54391" lon="1.89868">
        <ele>365</ele>
        <time>2019-08-06T08:45:32.720Z</time>
      </trkpt>
      <trkpt lat="44.54383" lon="1.89868">
        <ele>365</ele>
        <time>2019-08-06T08:45:37.735Z</time>
      </trkpt>
      <trkpt lat="44.54375" lon="1.89867">
        <ele>366</ele>
        <time>2019-08-06T08:45:42.733Z</time>
      </trkpt>
      <trkpt lat="44.54366" lon="1.89865">
        <ele>366</ele>
        <time>2019-08-06T08:45:47.732Z</time>
      </trkpt>
      <trkpt lat="44.54358" lon="1.89862">
        <ele>366</ele>
        <time>2019-08-06T08:45:52.732Z</time>
      </trkpt>
      <trkpt lat="44.54351" lon="1.89862">
        <ele>366</ele>
        <time>2019-08-06T08:45:57.735Z</time>
      </trkpt>
      <trkpt lat="44.54343" lon="1.89861">
        <ele>366</ele>
        <time>2019-08-06T08:46:02.731Z</time>
      </trkpt>
      <trkpt lat="44.54335" lon="1.89859">
        <ele>366</ele>
        <time>2019-08-06T08:46:07.739Z</time>
      </trkpt>
      <trkpt lat="44.54329" lon="1.89858">
        <ele>366</ele>
        <time>2019-08-06T08:46:12.732Z</time>
      </trkpt>
      <trkpt lat="44.54326" lon="1.89851">
        <ele>366</ele>
        <time>2019-08-06T08:46:17.727Z</time>
      </trkpt>
      <trkpt lat="44.54329" lon="1.89846">
        <ele>368</ele>
        <time>2019-08-06T08:46:21.746Z</time>
      </trkpt>
      <trkpt lat="44.54335" lon="1.89839">
        <ele>368</ele>
        <time>2019-08-06T08:46:26.732Z</time>
      </trkpt>
      <trkpt lat="44.54338" lon="1.89833">
        <ele>368</ele>
        <time>2019-08-06T08:46:30.724Z</time>
      </trkpt>
      <trkpt lat="44.5434" lon="1.89824">
        <ele>368</ele>
        <time>2019-08-06T08:46:35.727Z</time>
      </trkpt>
      <trkpt lat="44.54344" lon="1.89815">
        <ele>369</ele>
        <time>2019-08-06T08:46:40.704Z</time>
      </trkpt>
      <trkpt lat="44.54346" lon="1.89807">
        <ele>369</ele>
        <time>2019-08-06T08:46:44.735Z</time>
      </trkpt>
      <trkpt lat="44.54348" lon="1.89795">
        <ele>371</ele>
        <time>2019-08-06T08:46:49.724Z</time>
      </trkpt>
      <trkpt lat="44.5435" lon="1.89791">
        <ele>371</ele>
        <time>2019-08-06T08:46:53.740Z</time>
      </trkpt>
      <trkpt lat="44.54351" lon="1.89784">
        <ele>371</ele>
        <time>2019-08-06T08:46:58.737Z</time>
      </trkpt>
      <trkpt lat="44.54354" lon="1.89777">
        <ele>371</ele>
        <time>2019-08-06T08:47:03.729Z</time>
      </trkpt>
      <trkpt lat="44.5435" lon="1.89769">
        <ele>371</ele>
        <time>2019-08-06T08:47:08.765Z</time>
      </trkpt>
      <trkpt lat="44.54349" lon="1.89758">
        <ele>369</ele>
        <time>2019-08-06T08:47:13.720Z</time>
      </trkpt>
      <trkpt lat="44.54348" lon="1.89747">
        <ele>369</ele>
        <time>2019-08-06T08:47:18.717Z</time>
      </trkpt>
      <trkpt lat="44.54345" lon="1.89739">
        <ele>368</ele>
        <time>2019-08-06T08:47:23.716Z</time>
      </trkpt>
      <trkpt lat="44.5434" lon="1.89731">
        <ele>366</ele>
        <time>2019-08-06T08:47:28.732Z</time>
      </trkpt>
      <trkpt lat="44.54336" lon="1.89725">
        <ele>366</ele>
        <time>2019-08-06T08:47:33.717Z</time>
      </trkpt>
      <trkpt lat="44.54334" lon="1.89719">
        <ele>366</ele>
        <time>2019-08-06T08:47:37.725Z</time>
      </trkpt>
      <trkpt lat="44.54325" lon="1.89701">
        <ele>364</ele>
        <time>2019-08-06T08:48:06.730Z</time>
      </trkpt>
      <trkpt lat="44.54324" lon="1.897">
        <ele>364</ele>
        <time>2019-08-06T08:48:11.708Z</time>
      </trkpt>
      <trkpt lat="44.54321" lon="1.89697">
        <ele>364</ele>
        <time>2019-08-06T08:48:16.731Z</time>
      </trkpt>
      <trkpt lat="44.54317" lon="1.89686">
        <ele>363</ele>
        <time>2019-08-06T08:48:21.718Z</time>
      </trkpt>
      <trkpt lat="44.54312" lon="1.89678">
        <ele>361</ele>
        <time>2019-08-06T08:48:26.733Z</time>
      </trkpt>
      <trkpt lat="44.54309" lon="1.89672">
        <ele>361</ele>
        <time>2019-08-06T08:48:30.745Z</time>
      </trkpt>
      <trkpt lat="44.54305" lon="1.89665">
        <ele>361</ele>
        <time>2019-08-06T08:48:35.726Z</time>
      </trkpt>
      <trkpt lat="44.54301" lon="1.89659">
        <ele>361</ele>
        <time>2019-08-06T08:48:39.714Z</time>
      </trkpt>
      <trkpt lat="44.54299" lon="1.8965">
        <ele>361</ele>
        <time>2019-08-06T08:48:44.733Z</time>
      </trkpt>
      <trkpt lat="44.54295" lon="1.89641">
        <ele>361</ele>
        <time>2019-08-06T08:48:48.716Z</time>
      </trkpt>
      <trkpt lat="44.54292" lon="1.8963">
        <ele>361</ele>
        <time>2019-08-06T08:48:53.724Z</time>
      </trkpt>
      <trkpt lat="44.54291" lon="1.89621">
        <ele>364</ele>
        <time>2019-08-06T08:48:58.716Z</time>
      </trkpt>
      <trkpt lat="44.5429" lon="1.89617">
        <ele>364</ele>
        <time>2019-08-06T08:49:03.706Z</time>
      </trkpt>
      <trkpt lat="44.5429" lon="1.89612">
        <ele>364</ele>
        <time>2019-08-06T08:49:07.710Z</time>
      </trkpt>
      <trkpt lat="44.54289" lon="1.89601">
        <ele>364</ele>
        <time>2019-08-06T08:49:12.733Z</time>
      </trkpt>
      <trkpt lat="44.54288" lon="1.8959">
        <ele>367</ele>
        <time>2019-08-06T08:49:17.709Z</time>
      </trkpt>
      <trkpt lat="44.54285" lon="1.89583">
        <ele>367</ele>
        <time>2019-08-06T08:49:22.736Z</time>
      </trkpt>
      <trkpt lat="44.54285" lon="1.89574">
        <ele>367</ele>
        <time>2019-08-06T08:49:27.722Z</time>
      </trkpt>
      <trkpt lat="44.54283" lon="1.89561">
        <ele>369</ele>
        <time>2019-08-06T08:49:31.733Z</time>
      </trkpt>
      <trkpt lat="44.54285" lon="1.89551">
        <ele>369</ele>
        <time>2019-08-06T08:49:36.724Z</time>
      </trkpt>
      <trkpt lat="44.54283" lon="1.89541">
        <ele>371</ele>
        <time>2019-08-06T08:49:41.728Z</time>
      </trkpt>
      <trkpt lat="44.54281" lon="1.89533">
        <ele>371</ele>
        <time>2019-08-06T08:49:45.756Z</time>
      </trkpt>
      <trkpt lat="44.54276" lon="1.89526">
        <ele>371</ele>
        <time>2019-08-06T08:49:50.734Z</time>
      </trkpt>
      <trkpt lat="44.54272" lon="1.89524">
        <ele>371</ele>
        <time>2019-08-06T08:49:55.725Z</time>
      </trkpt>
      <trkpt lat="44.54269" lon="1.89521">
        <ele>371</ele>
        <time>2019-08-06T08:50:00.726Z</time>
      </trkpt>
      <trkpt lat="44.54268" lon="1.89521">
        <ele>371</ele>
        <time>2019-08-06T08:50:05.738Z</time>
      </trkpt>
      <trkpt lat="44.54263" lon="1.89519">
        <ele>372</ele>
        <time>2019-08-06T08:50:10.729Z</time>
      </trkpt>
      <trkpt lat="44.54256" lon="1.89516">
        <ele>372</ele>
        <time>2019-08-06T08:50:15.739Z</time>
      </trkpt>
      <trkpt lat="44.54254" lon="1.89513">
        <ele>373</ele>
        <time>2019-08-06T08:50:20.731Z</time>
      </trkpt>
      <trkpt lat="44.54248" lon="1.89509">
        <ele>373</ele>
        <time>2019-08-06T08:50:25.741Z</time>
      </trkpt>
      <trkpt lat="44.54243" lon="1.89506">
        <ele>373</ele>
        <time>2019-08-06T08:50:30.732Z</time>
      </trkpt>
      <trkpt lat="44.54235" lon="1.89504">
        <ele>368</ele>
        <time>2019-08-06T08:50:35.730Z</time>
      </trkpt>
      <trkpt lat="44.54232" lon="1.895">
        <ele>368</ele>
        <time>2019-08-06T08:50:39.761Z</time>
      </trkpt>
      <trkpt lat="44.54228" lon="1.89494">
        <ele>368</ele>
        <time>2019-08-06T08:50:44.739Z</time>
      </trkpt>
      <trkpt lat="44.54224" lon="1.8949">
        <ele>368</ele>
        <time>2019-08-06T08:50:49.743Z</time>
      </trkpt>
      <trkpt lat="44.54218" lon="1.89482">
        <ele>366</ele>
        <time>2019-08-06T08:50:54.721Z</time>
      </trkpt>
      <trkpt lat="44.54214" lon="1.89479">
        <ele>366</ele>
        <time>2019-08-06T08:50:59.732Z</time>
      </trkpt>
      <trkpt lat="44.54209" lon="1.89473">
        <ele>366</ele>
        <time>2019-08-06T08:51:04.722Z</time>
      </trkpt>
      <trkpt lat="44.54205" lon="1.89465">
        <ele>362</ele>
        <time>2019-08-06T08:51:09.727Z</time>
      </trkpt>
      <trkpt lat="44.54196" lon="1.89455">
        <ele>361</ele>
        <time>2019-08-06T08:51:14.723Z</time>
      </trkpt>
      <trkpt lat="44.54195" lon="1.89449">
        <ele>361</ele>
        <time>2019-08-06T08:51:18.734Z</time>
      </trkpt>
      <trkpt lat="44.54193" lon="1.89441">
        <ele>361</ele>
        <time>2019-08-06T08:51:23.730Z</time>
      </trkpt>
      <trkpt lat="44.54191" lon="1.89434">
        <ele>361</ele>
        <time>2019-08-06T08:51:28.718Z</time>
      </trkpt>
      <trkpt lat="44.54189" lon="1.89426">
        <ele>359</ele>
        <time>2019-08-06T08:51:33.737Z</time>
      </trkpt>
      <trkpt lat="44.54188" lon="1.89416">
        <ele>359</ele>
        <time>2019-08-06T08:51:38.720Z</time>
      </trkpt>
      <trkpt lat="44.54184" lon="1.89407">
        <ele>359</ele>
        <time>2019-08-06T08:51:43.736Z</time>
      </trkpt>
      <trkpt lat="44.54184" lon="1.89396">
        <ele>358</ele>
        <time>2019-08-06T08:51:48.733Z</time>
      </trkpt>
      <trkpt lat="44.54185" lon="1.89391">
        <ele>358</ele>
        <time>2019-08-06T08:51:53.740Z</time>
      </trkpt>
      <trkpt lat="44.54185" lon="1.89379">
        <ele>358</ele>
        <time>2019-08-06T08:51:58.723Z</time>
      </trkpt>
      <trkpt lat="44.54183" lon="1.89368">
        <ele>357</ele>
        <time>2019-08-06T08:52:03.738Z</time>
      </trkpt>
      <trkpt lat="44.5418" lon="1.89357">
        <ele>354</ele>
        <time>2019-08-06T08:52:08.723Z</time>
      </trkpt>
      <trkpt lat="44.54177" lon="1.89346">
        <ele>354</ele>
        <time>2019-08-06T08:52:13.730Z</time>
      </trkpt>
      <trkpt lat="44.54173" lon="1.89336">
        <ele>354</ele>
        <time>2019-08-06T08:52:18.723Z</time>
      </trkpt>
      <trkpt lat="44.54167" lon="1.89329">
        <ele>354</ele>
        <time>2019-08-06T08:52:23.727Z</time>
      </trkpt>
      <trkpt lat="44.54161" lon="1.89324">
        <ele>354</ele>
        <time>2019-08-06T08:52:28.727Z</time>
      </trkpt>
      <trkpt lat="44.54154" lon="1.89319">
        <ele>357</ele>
        <time>2019-08-06T08:52:33.755Z</time>
      </trkpt>
      <trkpt lat="44.54146" lon="1.89314">
        <ele>356</ele>
        <time>2019-08-06T08:52:38.714Z</time>
      </trkpt>
      <trkpt lat="44.54139" lon="1.89306">
        <ele>356</ele>
        <time>2019-08-06T08:52:43.733Z</time>
      </trkpt>
      <trkpt lat="44.54132" lon="1.89303">
        <ele>356</ele>
        <time>2019-08-06T08:52:48.727Z</time>
      </trkpt>
      <trkpt lat="44.54126" lon="1.893">
        <ele>356</ele>
        <time>2019-08-06T08:52:53.729Z</time>
      </trkpt>
      <trkpt lat="44.54117" lon="1.893">
        <ele>354</ele>
        <time>2019-08-06T08:52:58.724Z</time>
      </trkpt>
      <trkpt lat="44.54113" lon="1.89297">
        <ele>354</ele>
        <time>2019-08-06T08:53:03.738Z</time>
      </trkpt>
      <trkpt lat="44.54109" lon="1.89296">
        <ele>354</ele>
        <time>2019-08-06T08:53:08.710Z</time>
      </trkpt>
      <trkpt lat="44.54103" lon="1.89297">
        <ele>354</ele>
        <time>2019-08-06T08:53:12.723Z</time>
      </trkpt>
      <trkpt lat="44.54097" lon="1.89298">
        <ele>356</ele>
        <time>2019-08-06T08:53:17.733Z</time>
      </trkpt>
      <trkpt lat="44.54094" lon="1.89298">
        <ele>356</ele>
        <time>2019-08-06T08:53:21.724Z</time>
      </trkpt>
      <trkpt lat="44.54094" lon="1.89297">
        <ele>356</ele>
        <time>2019-08-06T08:53:26.728Z</time>
      </trkpt>
      <trkpt lat="44.54082" lon="1.89292">
        <ele>356</ele>
        <time>2019-08-06T08:53:31.729Z</time>
      </trkpt>
      <trkpt lat="44.54077" lon="1.89289">
        <ele>361</ele>
        <time>2019-08-06T08:53:36.731Z</time>
      </trkpt>
      <trkpt lat="44.54068" lon="1.89285">
        <ele>364</ele>
        <time>2019-08-06T08:53:41.722Z</time>
      </trkpt>
      <trkpt lat="44.54064" lon="1.89286">
        <ele>364</ele>
        <time>2019-08-06T08:53:46.720Z</time>
      </trkpt>
      <trkpt lat="44.5406" lon="1.89285">
        <ele>364</ele>
        <time>2019-08-06T08:53:50.724Z</time>
      </trkpt>
      <trkpt lat="44.54053" lon="1.89284">
        <ele>364</ele>
        <time>2019-08-06T08:53:55.725Z</time>
      </trkpt>
      <trkpt lat="44.54044" lon="1.89282">
        <ele>364</ele>
        <time>2019-08-06T08:54:00.732Z</time>
      </trkpt>
      <trkpt lat="44.54034" lon="1.89277">
        <ele>365</ele>
        <time>2019-08-06T08:54:05.714Z</time>
      </trkpt>
      <trkpt lat="44.54028" lon="1.89274">
        <ele>365</ele>
        <time>2019-08-06T08:54:09.726Z</time>
      </trkpt>
      <trkpt lat="44.54023" lon="1.89271">
        <ele>365</ele>
        <time>2019-08-06T08:54:14.731Z</time>
      </trkpt>
      <trkpt lat="44.54016" lon="1.89272">
        <ele>365</ele>
        <time>2019-08-06T08:54:19.724Z</time>
      </trkpt>
      <trkpt lat="44.54009" lon="1.89271">
        <ele>367</ele>
        <time>2019-08-06T08:54:24.738Z</time>
      </trkpt>
      <trkpt lat="44.54" lon="1.89267">
        <ele>367</ele>
        <time>2019-08-06T08:54:29.712Z</time>
      </trkpt>
      <trkpt lat="44.53993" lon="1.89263">
        <ele>371</ele>
        <time>2019-08-06T08:54:34.720Z</time>
      </trkpt>
      <trkpt lat="44.5399" lon="1.89261">
        <ele>371</ele>
        <time>2019-08-06T08:54:39.727Z</time>
      </trkpt>
      <trkpt lat="44.53986" lon="1.89259">
        <ele>371</ele>
        <time>2019-08-06T08:54:44.723Z</time>
      </trkpt>
      <trkpt lat="44.53982" lon="1.89258">
        <ele>369</ele>
        <time>2019-08-06T08:54:49.713Z</time>
      </trkpt>
      <trkpt lat="44.53975" lon="1.89257">
        <ele>369</ele>
        <time>2019-08-06T08:54:54.735Z</time>
      </trkpt>
      <trkpt lat="44.53968" lon="1.89254">
        <ele>369</ele>
        <time>2019-08-06T08:54:59.726Z</time>
      </trkpt>
      <trkpt lat="44.53964" lon="1.89252">
        <ele>369</ele>
        <time>2019-08-06T08:55:04.731Z</time>
      </trkpt>
      <trkpt lat="44.53958" lon="1.89252">
        <ele>369</ele>
        <time>2019-08-06T08:55:09.720Z</time>
      </trkpt>
      <trkpt lat="44.53948" lon="1.89252">
        <ele>369</ele>
        <time>2019-08-06T08:55:14.721Z</time>
      </trkpt>
      <trkpt lat="44.5394" lon="1.89254">
        <ele>369</ele>
        <time>2019-08-06T08:55:18.713Z</time>
      </trkpt>
      <trkpt lat="44.53933" lon="1.89257">
        <ele>369</ele>
        <time>2019-08-06T08:55:23.721Z</time>
      </trkpt>
      <trkpt lat="44.53927" lon="1.89261">
        <ele>370</ele>
        <time>2019-08-06T08:55:27.723Z</time>
      </trkpt>
      <trkpt lat="44.53921" lon="1.89264">
        <ele>370</ele>
        <time>2019-08-06T08:55:32.725Z</time>
      </trkpt>
      <trkpt lat="44.53915" lon="1.89266">
        <ele>368</ele>
        <time>2019-08-06T08:55:37.728Z</time>
      </trkpt>
      <trkpt lat="44.53908" lon="1.89265">
        <ele>368</ele>
        <time>2019-08-06T08:55:42.728Z</time>
      </trkpt>
      <trkpt lat="44.53899" lon="1.89267">
        <ele>370</ele>
        <time>2019-08-06T08:55:47.706Z</time>
      </trkpt>
      <trkpt lat="44.53893" lon="1.89266">
        <ele>370</ele>
        <time>2019-08-06T08:55:51.715Z</time>
      </trkpt>
      <trkpt lat="44.53885" lon="1.89265">
        <ele>370</ele>
        <time>2019-08-06T08:55:56.726Z</time>
      </trkpt>
      <trkpt lat="44.53878" lon="1.89264">
        <ele>372</ele>
        <time>2019-08-06T08:56:01.716Z</time>
      </trkpt>
      <trkpt lat="44.5387" lon="1.89258">
        <ele>372</ele>
        <time>2019-08-06T08:56:06.725Z</time>
      </trkpt>
      <trkpt lat="44.53866" lon="1.89253">
        <ele>372</ele>
        <time>2019-08-06T08:56:11.733Z</time>
      </trkpt>
      <trkpt lat="44.5386" lon="1.89244">
        <ele>372</ele>
        <time>2019-08-06T08:56:16.722Z</time>
      </trkpt>
      <trkpt lat="44.53856" lon="1.89236">
        <ele>374</ele>
        <time>2019-08-06T08:56:21.726Z</time>
      </trkpt>
      <trkpt lat="44.53853" lon="1.89229">
        <ele>374</ele>
        <time>2019-08-06T08:56:25.746Z</time>
      </trkpt>
      <trkpt lat="44.53852" lon="1.89219">
        <ele>374</ele>
        <time>2019-08-06T08:56:30.726Z</time>
      </trkpt>
      <trkpt lat="44.5385" lon="1.89211">
        <ele>374</ele>
        <time>2019-08-06T08:56:35.704Z</time>
      </trkpt>
      <trkpt lat="44.53847" lon="1.89204">
        <ele>377</ele>
        <time>2019-08-06T08:56:39.715Z</time>
      </trkpt>
      <trkpt lat="44.53842" lon="1.89195">
        <ele>377</ele>
        <time>2019-08-06T08:56:44.732Z</time>
      </trkpt>
      <trkpt lat="44.53837" lon="1.89188">
        <ele>377</ele>
        <time>2019-08-06T08:56:48.721Z</time>
      </trkpt>
      <trkpt lat="44.53833" lon="1.89178">
        <ele>379</ele>
        <time>2019-08-06T08:56:53.715Z</time>
      </trkpt>
      <trkpt lat="44.53831" lon="1.89168">
        <ele>379</ele>
        <time>2019-08-06T08:56:58.733Z</time>
      </trkpt>
      <trkpt lat="44.53828" lon="1.89159">
        <ele>379</ele>
        <time>2019-08-06T08:57:03.732Z</time>
      </trkpt>
      <trkpt lat="44.53824" lon="1.89149">
        <ele>381</ele>
        <time>2019-08-06T08:57:08.715Z</time>
      </trkpt>
      <trkpt lat="44.53819" lon="1.89138">
        <ele>382</ele>
        <time>2019-08-06T08:57:13.730Z</time>
      </trkpt>
      <trkpt lat="44.53816" lon="1.89129">
        <ele>382</ele>
        <time>2019-08-06T08:57:18.718Z</time>
      </trkpt>
      <trkpt lat="44.53813" lon="1.89122">
        <ele>384</ele>
        <time>2019-08-06T08:57:23.721Z</time>
      </trkpt>
      <trkpt lat="44.5381" lon="1.89114">
        <ele>384</ele>
        <time>2019-08-06T08:57:28.708Z</time>
      </trkpt>
      <trkpt lat="44.53809" lon="1.89107">
        <ele>384</ele>
        <time>2019-08-06T08:57:32.727Z</time>
      </trkpt>
      <trkpt lat="44.53805" lon="1.89086">
        <ele>384</ele>
        <time>2019-08-06T08:57:37.718Z</time>
      </trkpt>
      <trkpt lat="44.53789" lon="1.89047">
        <ele>389</ele>
        <time>2019-08-06T08:57:42.731Z</time>
      </trkpt>
      <trkpt lat="44.53777" lon="1.89014">
        <ele>392</ele>
        <time>2019-08-06T08:57:47.722Z</time>
      </trkpt>
      <trkpt lat="44.53771" lon="1.89">
        <ele>392</ele>
        <time>2019-08-06T08:57:52.716Z</time>
      </trkpt>
      <trkpt lat="44.53767" lon="1.88996">
        <ele>392</ele>
        <time>2019-08-06T08:57:57.720Z</time>
      </trkpt>
      <trkpt lat="44.53764" lon="1.88991">
        <ele>392</ele>
        <time>2019-08-06T08:58:01.717Z</time>
      </trkpt>
      <trkpt lat="44.5376" lon="1.88984">
        <ele>394</ele>
        <time>2019-08-06T08:58:05.738Z</time>
      </trkpt>
      <trkpt lat="44.53755" lon="1.88975">
        <ele>394</ele>
        <time>2019-08-06T08:58:10.721Z</time>
      </trkpt>
      <trkpt lat="44.53751" lon="1.88966">
        <ele>394</ele>
        <time>2019-08-06T08:58:15.751Z</time>
      </trkpt>
      <trkpt lat="44.5375" lon="1.88959">
        <ele>394</ele>
        <time>2019-08-06T08:58:19.757Z</time>
      </trkpt>
      <trkpt lat="44.53749" lon="1.88954">
        <ele>395</ele>
        <time>2019-08-06T08:58:23.758Z</time>
      </trkpt>
      <trkpt lat="44.53747" lon="1.88947">
        <ele>395</ele>
        <time>2019-08-06T08:58:27.713Z</time>
      </trkpt>
      <trkpt lat="44.53746" lon="1.88938">
        <ele>395</ele>
        <time>2019-08-06T08:58:31.721Z</time>
      </trkpt>
      <trkpt lat="44.53745" lon="1.88924">
        <ele>395</ele>
        <time>2019-08-06T08:58:36.720Z</time>
      </trkpt>
      <trkpt lat="44.53745" lon="1.88913">
        <ele>395</ele>
        <time>2019-08-06T08:58:41.732Z</time>
      </trkpt>
      <trkpt lat="44.53744" lon="1.88899">
        <ele>396</ele>
        <time>2019-08-06T08:58:46.745Z</time>
      </trkpt>
      <trkpt lat="44.53746" lon="1.88886">
        <ele>396</ele>
        <time>2019-08-06T08:58:51.722Z</time>
      </trkpt>
      <trkpt lat="44.53752" lon="1.88884">
        <ele>396</ele>
        <time>2019-08-06T08:58:56.724Z</time>
      </trkpt>
      <trkpt lat="44.53758" lon="1.88877">
        <ele>396</ele>
        <time>2019-08-06T08:59:01.834Z</time>
      </trkpt>
      <trkpt lat="44.53761" lon="1.88869">
        <ele>397</ele>
        <time>2019-08-06T08:59:06.735Z</time>
      </trkpt>
      <trkpt lat="44.53762" lon="1.88865">
        <ele>397</ele>
        <time>2019-08-06T08:59:11.780Z</time>
      </trkpt>
      <trkpt lat="44.53765" lon="1.88855">
        <ele>398</ele>
        <time>2019-08-06T08:59:16.721Z</time>
      </trkpt>
      <trkpt lat="44.5377" lon="1.88847">
        <ele>399</ele>
        <time>2019-08-06T08:59:21.724Z</time>
      </trkpt>
      <trkpt lat="44.53774" lon="1.88839">
        <ele>399</ele>
        <time>2019-08-06T08:59:25.726Z</time>
      </trkpt>
      <trkpt lat="44.53776" lon="1.88826">
        <ele>399</ele>
        <time>2019-08-06T08:59:30.728Z</time>
      </trkpt>
      <trkpt lat="44.53778" lon="1.88816">
        <ele>400</ele>
        <time>2019-08-06T08:59:35.713Z</time>
      </trkpt>
      <trkpt lat="44.53779" lon="1.88812">
        <ele>400</ele>
        <time>2019-08-06T08:59:40.733Z</time>
      </trkpt>
      <trkpt lat="44.53779" lon="1.888">
        <ele>400</ele>
        <time>2019-08-06T08:59:45.797Z</time>
      </trkpt>
      <trkpt lat="44.53783" lon="1.88792">
        <ele>400</ele>
        <time>2019-08-06T08:59:50.725Z</time>
      </trkpt>
      <trkpt lat="44.53786" lon="1.88792">
        <ele>400</ele>
        <time>2019-08-06T08:59:55.732Z</time>
      </trkpt>
      <trkpt lat="44.53789" lon="1.88789">
        <ele>400</ele>
        <time>2019-08-06T09:00:00.710Z</time>
      </trkpt>
      <trkpt lat="44.53791" lon="1.88781">
        <ele>400</ele>
        <time>2019-08-06T09:00:04.728Z</time>
      </trkpt>
      <trkpt lat="44.53792" lon="1.8877">
        <ele>401</ele>
        <time>2019-08-06T09:00:08.728Z</time>
      </trkpt>
      <trkpt lat="44.53792" lon="1.88758">
        <ele>400</ele>
        <time>2019-08-06T09:00:13.706Z</time>
      </trkpt>
      <trkpt lat="44.53792" lon="1.88749">
        <ele>400</ele>
        <time>2019-08-06T09:00:17.712Z</time>
      </trkpt>
      <trkpt lat="44.53794" lon="1.88741">
        <ele>400</ele>
        <time>2019-08-06T09:00:21.775Z</time>
      </trkpt>
      <trkpt lat="44.53795" lon="1.88731">
        <ele>399</ele>
        <time>2019-08-06T09:00:25.831Z</time>
      </trkpt>
      <trkpt lat="44.53796" lon="1.88721">
        <ele>399</ele>
        <time>2019-08-06T09:00:30.727Z</time>
      </trkpt>
      <trkpt lat="44.53798" lon="1.88708">
        <ele>398</ele>
        <time>2019-08-06T09:00:35.743Z</time>
      </trkpt>
      <trkpt lat="44.53798" lon="1.88698">
        <ele>398</ele>
        <time>2019-08-06T09:00:40.721Z</time>
      </trkpt>
      <trkpt lat="44.53796" lon="1.88692">
        <ele>398</ele>
        <time>2019-08-06T09:00:45.723Z</time>
      </trkpt>
      <trkpt lat="44.53791" lon="1.88695">
        <ele>398</ele>
        <time>2019-08-06T09:00:50.715Z</time>
      </trkpt>
      <trkpt lat="44.53783" lon="1.88699">
        <ele>398</ele>
        <time>2019-08-06T09:00:55.742Z</time>
      </trkpt>
      <trkpt lat="44.53778" lon="1.88703">
        <ele>398</ele>
        <time>2019-08-06T09:00:59.763Z</time>
      </trkpt>
      <trkpt lat="44.53771" lon="1.88706">
        <ele>398</ele>
        <time>2019-08-06T09:01:04.715Z</time>
      </trkpt>
      <trkpt lat="44.53765" lon="1.88707">
        <ele>398</ele>
        <time>2019-08-06T09:01:08.746Z</time>
      </trkpt>
      <trkpt lat="44.5376" lon="1.88712">
        <ele>396</ele>
        <time>2019-08-06T09:01:13.726Z</time>
      </trkpt>
      <trkpt lat="44.53756" lon="1.88715">
        <ele>396</ele>
        <time>2019-08-06T09:01:17.739Z</time>
      </trkpt>
      <trkpt lat="44.5375" lon="1.88718">
        <ele>396</ele>
        <time>2019-08-06T09:01:22.725Z</time>
      </trkpt>
      <trkpt lat="44.53743" lon="1.88717">
        <ele>396</ele>
        <time>2019-08-06T09:01:27.734Z</time>
      </trkpt>
      <trkpt lat="44.53735" lon="1.88717">
        <ele>395</ele>
        <time>2019-08-06T09:01:32.731Z</time>
      </trkpt>
      <trkpt lat="44.5373" lon="1.88726">
        <ele>395</ele>
        <time>2019-08-06T09:01:37.746Z</time>
      </trkpt>
      <trkpt lat="44.53722" lon="1.88725">
        <ele>395</ele>
        <time>2019-08-06T09:01:42.723Z</time>
      </trkpt>
      <trkpt lat="44.53714" lon="1.88724">
        <ele>395</ele>
        <time>2019-08-06T09:01:47.746Z</time>
      </trkpt>
      <trkpt lat="44.53708" lon="1.8873">
        <ele>390</ele>
        <time>2019-08-06T09:01:52.735Z</time>
      </trkpt>
      <trkpt lat="44.53702" lon="1.88727">
        <ele>390</ele>
        <time>2019-08-06T09:01:57.739Z</time>
      </trkpt>
      <trkpt lat="44.53703" lon="1.88731">
        <ele>390</ele>
        <time>2019-08-06T09:02:02.728Z</time>
      </trkpt>
      <trkpt lat="44.537" lon="1.88734">
        <ele>390</ele>
        <time>2019-08-06T09:02:07.752Z</time>
      </trkpt>
      <trkpt lat="44.53696" lon="1.88745">
        <ele>392</ele>
        <time>2019-08-06T09:02:12.734Z</time>
      </trkpt>
      <trkpt lat="44.53693" lon="1.88754">
        <ele>392</ele>
        <time>2019-08-06T09:02:17.742Z</time>
      </trkpt>
      <trkpt lat="44.5369" lon="1.88764">
        <ele>392</ele>
        <time>2019-08-06T09:02:21.730Z</time>
      </trkpt>
      <trkpt lat="44.53684" lon="1.88773">
        <ele>393</ele>
        <time>2019-08-06T09:02:26.724Z</time>
      </trkpt>
      <trkpt lat="44.53682" lon="1.88781">
        <ele>393</ele>
        <time>2019-08-06T09:02:31.739Z</time>
      </trkpt>
      <trkpt lat="44.53679" lon="1.88786">
        <ele>391</ele>
        <time>2019-08-06T09:02:36.734Z</time>
      </trkpt>
      <trkpt lat="44.53674" lon="1.88795">
        <ele>392</ele>
        <time>2019-08-06T09:02:41.740Z</time>
      </trkpt>
      <trkpt lat="44.53667" lon="1.888">
        <ele>392</ele>
        <time>2019-08-06T09:02:46.728Z</time>
      </trkpt>
      <trkpt lat="44.53659" lon="1.88804">
        <ele>392</ele>
        <time>2019-08-06T09:02:51.734Z</time>
      </trkpt>
      <trkpt lat="44.53646" lon="1.88812">
        <ele>389</ele>
        <time>2019-08-06T09:05:09.706Z</time>
      </trkpt>
      <trkpt lat="44.53646" lon="1.88813">
        <ele>389</ele>
        <time>2019-08-06T09:05:13.724Z</time>
      </trkpt>
      <trkpt lat="44.53646" lon="1.88814">
        <ele>389</ele>
        <time>2019-08-06T09:05:18.718Z</time>
      </trkpt>
      <trkpt lat="44.53646" lon="1.88815">
        <ele>389</ele>
        <time>2019-08-06T09:05:23.717Z</time>
      </trkpt>
      <trkpt lat="44.53646" lon="1.88816">
        <ele>389</ele>
        <time>2019-08-06T09:05:28.713Z</time>
      </trkpt>
      <trkpt lat="44.53651" lon="1.88815">
        <ele>389</ele>
        <time>2019-08-06T09:09:11.707Z</time>
      </trkpt>
      <trkpt lat="44.53653" lon="1.8882">
        <ele>393</ele>
        <time>2019-08-06T09:09:16.706Z</time>
      </trkpt>
      <trkpt lat="44.53654" lon="1.88826">
        <ele>393</ele>
        <time>2019-08-06T09:09:21.728Z</time>
      </trkpt>
      <trkpt lat="44.53655" lon="1.88834">
        <ele>393</ele>
        <time>2019-08-06T09:09:26.720Z</time>
      </trkpt>
      <trkpt lat="44.53656" lon="1.8884">
        <ele>393</ele>
        <time>2019-08-06T09:09:31.731Z</time>
      </trkpt>
      <trkpt lat="44.5366" lon="1.88838">
        <ele>393</ele>
        <time>2019-08-06T09:11:58.718Z</time>
      </trkpt>
      <trkpt lat="44.53664" lon="1.88827">
        <ele>393</ele>
        <time>2019-08-06T09:12:03.731Z</time>
      </trkpt>
      <trkpt lat="44.53672" lon="1.88822">
        <ele>393</ele>
        <time>2019-08-06T09:12:08.715Z</time>
      </trkpt>
      <trkpt lat="44.53678" lon="1.88814">
        <ele>392</ele>
        <time>2019-08-06T09:12:13.725Z</time>
      </trkpt>
      <trkpt lat="44.53682" lon="1.88807">
        <ele>394</ele>
        <time>2019-08-06T09:12:18.735Z</time>
      </trkpt>
      <trkpt lat="44.53683" lon="1.888">
        <ele>394</ele>
        <time>2019-08-06T09:12:23.718Z</time>
      </trkpt>
      <trkpt lat="44.53685" lon="1.88789">
        <ele>393</ele>
        <time>2019-08-06T09:12:28.736Z</time>
      </trkpt>
      <trkpt lat="44.53688" lon="1.88777">
        <ele>393</ele>
        <time>2019-08-06T09:12:33.720Z</time>
      </trkpt>
      <trkpt lat="44.53692" lon="1.88767">
        <ele>393</ele>
        <time>2019-08-06T09:12:38.708Z</time>
      </trkpt>
      <trkpt lat="44.53696" lon="1.88757">
        <ele>392</ele>
        <time>2019-08-06T09:12:43.738Z</time>
      </trkpt>
      <trkpt lat="44.53699" lon="1.88748">
        <ele>392</ele>
        <time>2019-08-06T09:12:48.717Z</time>
      </trkpt>
      <trkpt lat="44.53699" lon="1.88745">
        <ele>392</ele>
        <time>2019-08-06T09:12:53.734Z</time>
      </trkpt>
      <trkpt lat="44.53698" lon="1.88744">
        <ele>392</ele>
        <time>2019-08-06T09:12:58.712Z</time>
      </trkpt>
      <trkpt lat="44.53698" lon="1.88737">
        <ele>392</ele>
        <time>2019-08-06T09:13:02.735Z</time>
      </trkpt>
      <trkpt lat="44.53701" lon="1.88727">
        <ele>390</ele>
        <time>2019-08-06T09:13:07.728Z</time>
      </trkpt>
      <trkpt lat="44.53702" lon="1.88718">
        <ele>390</ele>
        <time>2019-08-06T09:13:12.724Z</time>
      </trkpt>
      <trkpt lat="44.53704" lon="1.88707">
        <ele>389</ele>
        <time>2019-08-06T09:13:17.714Z</time>
      </trkpt>
      <trkpt lat="44.53705" lon="1.88697">
        <ele>389</ele>
        <time>2019-08-06T09:13:22.725Z</time>
      </trkpt>
      <trkpt lat="44.53706" lon="1.88686">
        <ele>389</ele>
        <time>2019-08-06T09:13:27.715Z</time>
      </trkpt>
      <trkpt lat="44.53706" lon="1.88674">
        <ele>388</ele>
        <time>2019-08-06T09:13:32.725Z</time>
      </trkpt>
      <trkpt lat="44.53707" lon="1.88665">
        <ele>388</ele>
        <time>2019-08-06T09:13:37.720Z</time>
      </trkpt>
      <trkpt lat="44.53708" lon="1.88661">
        <ele>388</ele>
        <time>2019-08-06T09:13:42.729Z</time>
      </trkpt>
      <trkpt lat="44.53703" lon="1.88657">
        <ele>388</ele>
        <time>2019-08-06T09:13:47.716Z</time>
      </trkpt>
      <trkpt lat="44.53698" lon="1.88653">
        <ele>388</ele>
        <time>2019-08-06T09:13:52.724Z</time>
      </trkpt>
      <trkpt lat="44.5369" lon="1.8865">
        <ele>387</ele>
        <time>2019-08-06T09:13:57.721Z</time>
      </trkpt>
      <trkpt lat="44.53685" lon="1.88647">
        <ele>387</ele>
        <time>2019-08-06T09:14:02.732Z</time>
      </trkpt>
      <trkpt lat="44.53682" lon="1.88632">
        <ele>387</ele>
        <time>2019-08-06T09:14:07.733Z</time>
      </trkpt>
      <trkpt lat="44.53679" lon="1.88626">
        <ele>386</ele>
        <time>2019-08-06T09:14:12.724Z</time>
      </trkpt>
      <trkpt lat="44.53677" lon="1.88621">
        <ele>385</ele>
        <time>2019-08-06T09:14:17.729Z</time>
      </trkpt>
      <trkpt lat="44.53675" lon="1.88615">
        <ele>385</ele>
        <time>2019-08-06T09:14:22.732Z</time>
      </trkpt>
      <trkpt lat="44.53671" lon="1.8861">
        <ele>385</ele>
        <time>2019-08-06T09:14:27.731Z</time>
      </trkpt>
      <trkpt lat="44.53668" lon="1.88605">
        <ele>385</ele>
        <time>2019-08-06T09:14:32.719Z</time>
      </trkpt>
      <trkpt lat="44.53666" lon="1.88598">
        <ele>385</ele>
        <time>2019-08-06T09:14:37.727Z</time>
      </trkpt>
      <trkpt lat="44.53661" lon="1.88589">
        <ele>384</ele>
        <time>2019-08-06T09:14:42.712Z</time>
      </trkpt>
      <trkpt lat="44.5366" lon="1.8858">
        <ele>384</ele>
        <time>2019-08-06T09:14:47.786Z</time>
      </trkpt>
      <trkpt lat="44.53658" lon="1.88579">
        <ele>384</ele>
        <time>2019-08-06T09:14:52.720Z</time>
      </trkpt>
      <trkpt lat="44.53653" lon="1.88577">
        <ele>384</ele>
        <time>2019-08-06T09:14:57.721Z</time>
      </trkpt>
      <trkpt lat="44.53652" lon="1.8857">
        <ele>385</ele>
        <time>2019-08-06T09:15:02.728Z</time>
      </trkpt>
      <trkpt lat="44.53652" lon="1.88567">
        <ele>382</ele>
        <time>2019-08-06T09:15:07.723Z</time>
      </trkpt>
      <trkpt lat="44.53651" lon="1.88565">
        <ele>382</ele>
        <time>2019-08-06T09:15:12.722Z</time>
      </trkpt>
      <trkpt lat="44.53651" lon="1.88563">
        <ele>382</ele>
        <time>2019-08-06T09:15:17.718Z</time>
      </trkpt>
      <trkpt lat="44.53655" lon="1.88556">
        <ele>381</ele>
        <time>2019-08-06T09:15:22.722Z</time>
      </trkpt>
      <trkpt lat="44.5366" lon="1.88551">
        <ele>381</ele>
        <time>2019-08-06T09:15:27.728Z</time>
      </trkpt>
      <trkpt lat="44.53664" lon="1.88548">
        <ele>381</ele>
        <time>2019-08-06T09:15:32.721Z</time>
      </trkpt>
      <trkpt lat="44.53664" lon="1.88547">
        <ele>381</ele>
        <time>2019-08-06T09:15:37.718Z</time>
      </trkpt>
      <trkpt lat="44.53669" lon="1.8854">
        <ele>377</ele>
        <time>2019-08-06T09:15:42.735Z</time>
      </trkpt>
      <trkpt lat="44.53674" lon="1.88534">
        <ele>377</ele>
        <time>2019-08-06T09:15:47.717Z</time>
      </trkpt>
      <trkpt lat="44.5368" lon="1.88527">
        <ele>377</ele>
        <time>2019-08-06T09:15:52.721Z</time>
      </trkpt>
      <trkpt lat="44.53685" lon="1.8852">
        <ele>378</ele>
        <time>2019-08-06T09:15:56.723Z</time>
      </trkpt>
      <trkpt lat="44.53688" lon="1.88513">
        <ele>376</ele>
        <time>2019-08-06T09:16:01.716Z</time>
      </trkpt>
      <trkpt lat="44.53692" lon="1.88503">
        <ele>376</ele>
        <time>2019-08-06T09:16:06.723Z</time>
      </trkpt>
      <trkpt lat="44.53696" lon="1.88492">
        <ele>376</ele>
        <time>2019-08-06T09:16:11.723Z</time>
      </trkpt>
      <trkpt lat="44.537" lon="1.88482">
        <ele>375</ele>
        <time>2019-08-06T09:16:16.721Z</time>
      </trkpt>
      <trkpt lat="44.53703" lon="1.88477">
        <ele>375</ele>
        <time>2019-08-06T09:16:20.729Z</time>
      </trkpt>
      <trkpt lat="44.53706" lon="1.88467">
        <ele>375</ele>
        <time>2019-08-06T09:16:25.722Z</time>
      </trkpt>
      <trkpt lat="44.5371" lon="1.88458">
        <ele>378</ele>
        <time>2019-08-06T09:16:30.728Z</time>
      </trkpt>
      <trkpt lat="44.53713" lon="1.88448">
        <ele>378</ele>
        <time>2019-08-06T09:16:35.726Z</time>
      </trkpt>
      <trkpt lat="44.53715" lon="1.88439">
        <ele>378</ele>
        <time>2019-08-06T09:16:40.728Z</time>
      </trkpt>
      <trkpt lat="44.53719" lon="1.88428">
        <ele>377</ele>
        <time>2019-08-06T09:16:45.717Z</time>
      </trkpt>
      <trkpt lat="44.53724" lon="1.88423">
        <ele>377</ele>
        <time>2019-08-06T09:16:50.708Z</time>
      </trkpt>
      <trkpt lat="44.53728" lon="1.88414">
        <ele>377</ele>
        <time>2019-08-06T09:16:55.714Z</time>
      </trkpt>
      <trkpt lat="44.53728" lon="1.88404">
        <ele>377</ele>
        <time>2019-08-06T09:16:59.739Z</time>
      </trkpt>
      <trkpt lat="44.53731" lon="1.8839">
        <ele>376</ele>
        <time>2019-08-06T09:17:04.715Z</time>
      </trkpt>
      <trkpt lat="44.53733" lon="1.88381">
        <ele>376</ele>
        <time>2019-08-06T09:17:08.711Z</time>
      </trkpt>
      <trkpt lat="44.53735" lon="1.88367">
        <ele>377</ele>
        <time>2019-08-06T09:17:13.716Z</time>
      </trkpt>
      <trkpt lat="44.53735" lon="1.88357">
        <ele>377</ele>
        <time>2019-08-06T09:17:18.715Z</time>
      </trkpt>
      <trkpt lat="44.53734" lon="1.88346">
        <ele>378</ele>
        <time>2019-08-06T09:17:23.727Z</time>
      </trkpt>
      <trkpt lat="44.53733" lon="1.88333">
        <ele>378</ele>
        <time>2019-08-06T09:17:28.734Z</time>
      </trkpt>
      <trkpt lat="44.53733" lon="1.88317">
        <ele>378</ele>
        <time>2019-08-06T09:17:33.724Z</time>
      </trkpt>
      <trkpt lat="44.53731" lon="1.88307">
        <ele>378</ele>
        <time>2019-08-06T09:17:37.732Z</time>
      </trkpt>
      <trkpt lat="44.53731" lon="1.88294">
        <ele>378</ele>
        <time>2019-08-06T09:17:42.709Z</time>
      </trkpt>
      <trkpt lat="44.53729" lon="1.88282">
        <ele>376</ele>
        <time>2019-08-06T09:17:47.722Z</time>
      </trkpt>
      <trkpt lat="44.53728" lon="1.88271">
        <ele>376</ele>
        <time>2019-08-06T09:17:52.717Z</time>
      </trkpt>
      <trkpt lat="44.53728" lon="1.88262">
        <ele>375</ele>
        <time>2019-08-06T09:17:56.733Z</time>
      </trkpt>
      <trkpt lat="44.53727" lon="1.88252">
        <ele>375</ele>
        <time>2019-08-06T09:18:01.728Z</time>
      </trkpt>
      <trkpt lat="44.53728" lon="1.88242">
        <ele>375</ele>
        <time>2019-08-06T09:18:06.725Z</time>
      </trkpt>
      <trkpt lat="44.53729" lon="1.88232">
        <ele>374</ele>
        <time>2019-08-06T09:18:11.724Z</time>
      </trkpt>
      <trkpt lat="44.53731" lon="1.88223">
        <ele>374</ele>
        <time>2019-08-06T09:18:16.720Z</time>
      </trkpt>
      <trkpt lat="44.53734" lon="1.88215">
        <ele>374</ele>
        <time>2019-08-06T09:18:21.720Z</time>
      </trkpt>
      <trkpt lat="44.53736" lon="1.88209">
        <ele>374</ele>
        <time>2019-08-06T09:18:25.739Z</time>
      </trkpt>
      <trkpt lat="44.53737" lon="1.88197">
        <ele>376</ele>
        <time>2019-08-06T09:18:30.716Z</time>
      </trkpt>
      <trkpt lat="44.53739" lon="1.88187">
        <ele>376</ele>
        <time>2019-08-06T09:18:35.734Z</time>
      </trkpt>
      <trkpt lat="44.5374" lon="1.88176">
        <ele>373</ele>
        <time>2019-08-06T09:18:40.716Z</time>
      </trkpt>
      <trkpt lat="44.53744" lon="1.88167">
        <ele>373</ele>
        <time>2019-08-06T09:18:45.723Z</time>
      </trkpt>
      <trkpt lat="44.53746" lon="1.88154">
        <ele>373</ele>
        <time>2019-08-06T09:18:50.718Z</time>
      </trkpt>
      <trkpt lat="44.53751" lon="1.88145">
        <ele>371</ele>
        <time>2019-08-06T09:18:55.723Z</time>
      </trkpt>
      <trkpt lat="44.53757" lon="1.8814">
        <ele>371</ele>
        <time>2019-08-06T09:19:00.733Z</time>
      </trkpt>
      <trkpt lat="44.53762" lon="1.88131">
        <ele>371</ele>
        <time>2019-08-06T09:19:05.715Z</time>
      </trkpt>
      <trkpt lat="44.53766" lon="1.88124">
        <ele>374</ele>
        <time>2019-08-06T09:19:09.726Z</time>
      </trkpt>
      <trkpt lat="44.53772" lon="1.88113">
        <ele>374</ele>
        <time>2019-08-06T09:19:14.722Z</time>
      </trkpt>
      <trkpt lat="44.53776" lon="1.88106">
        <ele>374</ele>
        <time>2019-08-06T09:19:18.723Z</time>
      </trkpt>
      <trkpt lat="44.53782" lon="1.88099">
        <ele>374</ele>
        <time>2019-08-06T09:19:23.720Z</time>
      </trkpt>
      <trkpt lat="44.53787" lon="1.88091">
        <ele>374</ele>
        <time>2019-08-06T09:19:28.722Z</time>
      </trkpt>
      <trkpt lat="44.53793" lon="1.88082">
        <ele>375</ele>
        <time>2019-08-06T09:19:33.728Z</time>
      </trkpt>
      <trkpt lat="44.53799" lon="1.88074">
        <ele>375</ele>
        <time>2019-08-06T09:19:38.762Z</time>
      </trkpt>
      <trkpt lat="44.53804" lon="1.88065">
        <ele>374</ele>
        <time>2019-08-06T09:19:43.721Z</time>
      </trkpt>
      <trkpt lat="44.53811" lon="1.8806">
        <ele>374</ele>
        <time>2019-08-06T09:19:48.722Z</time>
      </trkpt>
      <trkpt lat="44.53815" lon="1.88054">
        <ele>374</ele>
        <time>2019-08-06T09:19:53.731Z</time>
      </trkpt>
      <trkpt lat="44.53819" lon="1.88047">
        <ele>374</ele>
        <time>2019-08-06T09:19:58.821Z</time>
      </trkpt>
      <trkpt lat="44.53824" lon="1.88038">
        <ele>379</ele>
        <time>2019-08-06T09:20:03.729Z</time>
      </trkpt>
      <trkpt lat="44.53828" lon="1.88029">
        <ele>379</ele>
        <time>2019-08-06T09:20:08.739Z</time>
      </trkpt>
      <trkpt lat="44.53835" lon="1.88025">
        <ele>379</ele>
        <time>2019-08-06T09:20:13.721Z</time>
      </trkpt>
      <trkpt lat="44.5384" lon="1.88021">
        <ele>379</ele>
        <time>2019-08-06T09:20:18.710Z</time>
      </trkpt>
      <trkpt lat="44.53844" lon="1.88015">
        <ele>379</ele>
        <time>2019-08-06T09:20:23.723Z</time>
      </trkpt>
      <trkpt lat="44.53847" lon="1.8801">
        <ele>379</ele>
        <time>2019-08-06T09:20:28.726Z</time>
      </trkpt>
      <trkpt lat="44.53848" lon="1.88003">
        <ele>383</ele>
        <time>2019-08-06T09:20:33.720Z</time>
      </trkpt>
      <trkpt lat="44.53852" lon="1.87995">
        <ele>383</ele>
        <time>2019-08-06T09:20:38.718Z</time>
      </trkpt>
      <trkpt lat="44.53855" lon="1.87987">
        <ele>383</ele>
        <time>2019-08-06T09:20:43.734Z</time>
      </trkpt>
      <trkpt lat="44.53858" lon="1.87977">
        <ele>383</ele>
        <time>2019-08-06T09:20:48.699Z</time>
      </trkpt>
      <trkpt lat="44.5386" lon="1.87969">
        <ele>383</ele>
        <time>2019-08-06T09:20:52.717Z</time>
      </trkpt>
      <trkpt lat="44.53862" lon="1.87959">
        <ele>383</ele>
        <time>2019-08-06T09:20:57.708Z</time>
      </trkpt>
      <trkpt lat="44.53863" lon="1.8795">
        <ele>384</ele>
        <time>2019-08-06T09:21:01.733Z</time>
      </trkpt>
      <trkpt lat="44.53863" lon="1.87938">
        <ele>384</ele>
        <time>2019-08-06T09:21:06.727Z</time>
      </trkpt>
      <trkpt lat="44.53865" lon="1.87929">
        <ele>383</ele>
        <time>2019-08-06T09:21:11.722Z</time>
      </trkpt>
      <trkpt lat="44.53865" lon="1.8792">
        <ele>383</ele>
        <time>2019-08-06T09:21:16.727Z</time>
      </trkpt>
      <trkpt lat="44.53865" lon="1.87911">
        <ele>383</ele>
        <time>2019-08-06T09:21:21.724Z</time>
      </trkpt>
      <trkpt lat="44.53865" lon="1.87899">
        <ele>384</ele>
        <time>2019-08-06T09:21:26.716Z</time>
      </trkpt>
      <trkpt lat="44.53864" lon="1.87886">
        <ele>384</ele>
        <time>2019-08-06T09:21:31.720Z</time>
      </trkpt>
      <trkpt lat="44.53864" lon="1.87873">
        <ele>385</ele>
        <time>2019-08-06T09:21:36.717Z</time>
      </trkpt>
      <trkpt lat="44.53862" lon="1.87861">
        <ele>385</ele>
        <time>2019-08-06T09:21:41.726Z</time>
      </trkpt>
      <trkpt lat="44.53861" lon="1.87849">
        <ele>385</ele>
        <time>2019-08-06T09:21:46.707Z</time>
      </trkpt>
      <trkpt lat="44.53861" lon="1.87841">
        <ele>387</ele>
        <time>2019-08-06T09:21:50.734Z</time>
      </trkpt>
      <trkpt lat="44.53859" lon="1.87835">
        <ele>387</ele>
        <time>2019-08-06T09:21:55.720Z</time>
      </trkpt>
      <trkpt lat="44.53857" lon="1.87828">
        <ele>387</ele>
        <time>2019-08-06T09:22:00.723Z</time>
      </trkpt>
      <trkpt lat="44.53856" lon="1.87818">
        <ele>387</ele>
        <time>2019-08-06T09:22:05.721Z</time>
      </trkpt>
      <trkpt lat="44.53854" lon="1.87804">
        <ele>387</ele>
        <time>2019-08-06T09:22:10.718Z</time>
      </trkpt>
      <trkpt lat="44.53855" lon="1.87778">
        <ele>387</ele>
        <time>2019-08-06T09:22:40.716Z</time>
      </trkpt>
      <trkpt lat="44.53855" lon="1.87776">
        <ele>387</ele>
        <time>2019-08-06T09:22:45.731Z</time>
      </trkpt>
      <trkpt lat="44.53853" lon="1.87769">
        <ele>387</ele>
        <time>2019-08-06T09:22:50.730Z</time>
      </trkpt>
      <trkpt lat="44.5385" lon="1.87758">
        <ele>386</ele>
        <time>2019-08-06T09:22:55.716Z</time>
      </trkpt>
      <trkpt lat="44.53849" lon="1.87745">
        <ele>386</ele>
        <time>2019-08-06T09:23:00.722Z</time>
      </trkpt>
      <trkpt lat="44.53837" lon="1.87722">
        <ele>386</ele>
        <time>2019-08-06T09:23:19.729Z</time>
      </trkpt>
      <trkpt lat="44.53836" lon="1.87722">
        <ele>386</ele>
        <time>2019-08-06T09:23:24.716Z</time>
      </trkpt>
      <trkpt lat="44.53836" lon="1.8772">
        <ele>386</ele>
        <time>2019-08-06T09:23:28.722Z</time>
      </trkpt>
      <trkpt lat="44.53833" lon="1.87711">
        <ele>386</ele>
        <time>2019-08-06T09:23:33.726Z</time>
      </trkpt>
      <trkpt lat="44.53828" lon="1.87702">
        <ele>386</ele>
        <time>2019-08-06T09:23:38.780Z</time>
      </trkpt>
      <trkpt lat="44.53823" lon="1.87691">
        <ele>386</ele>
        <time>2019-08-06T09:23:43.725Z</time>
      </trkpt>
      <trkpt lat="44.53819" lon="1.8768">
        <ele>386</ele>
        <time>2019-08-06T09:23:48.762Z</time>
      </trkpt>
      <trkpt lat="44.53816" lon="1.87671">
        <ele>386</ele>
        <time>2019-08-06T09:23:53.714Z</time>
      </trkpt>
      <trkpt lat="44.53813" lon="1.87662">
        <ele>386</ele>
        <time>2019-08-06T09:23:58.724Z</time>
      </trkpt>
      <trkpt lat="44.5381" lon="1.87649">
        <ele>386</ele>
        <time>2019-08-06T09:24:03.703Z</time>
      </trkpt>
      <trkpt lat="44.53808" lon="1.87643">
        <ele>386</ele>
        <time>2019-08-06T09:24:07.713Z</time>
      </trkpt>
      <trkpt lat="44.53806" lon="1.87636">
        <ele>386</ele>
        <time>2019-08-06T09:24:12.719Z</time>
      </trkpt>
      <trkpt lat="44.53804" lon="1.87627">
        <ele>386</ele>
        <time>2019-08-06T09:24:17.719Z</time>
      </trkpt>
      <trkpt lat="44.53801" lon="1.87618">
        <ele>385</ele>
        <time>2019-08-06T09:24:22.729Z</time>
      </trkpt>
      <trkpt lat="44.53798" lon="1.87609">
        <ele>385</ele>
        <time>2019-08-06T09:24:27.730Z</time>
      </trkpt>
      <trkpt lat="44.53795" lon="1.87603">
        <ele>385</ele>
        <time>2019-08-06T09:24:32.719Z</time>
      </trkpt>
      <trkpt lat="44.53793" lon="1.87594">
        <ele>385</ele>
        <time>2019-08-06T09:24:37.727Z</time>
      </trkpt>
      <trkpt lat="44.53792" lon="1.87584">
        <ele>385</ele>
        <time>2019-08-06T09:24:42.724Z</time>
      </trkpt>
      <trkpt lat="44.5379" lon="1.8757">
        <ele>384</ele>
        <time>2019-08-06T09:24:47.731Z</time>
      </trkpt>
      <trkpt lat="44.53787" lon="1.87557">
        <ele>387</ele>
        <time>2019-08-06T09:24:52.727Z</time>
      </trkpt>
      <trkpt lat="44.53785" lon="1.87546">
        <ele>387</ele>
        <time>2019-08-06T09:24:57.717Z</time>
      </trkpt>
      <trkpt lat="44.53784" lon="1.87537">
        <ele>388</ele>
        <time>2019-08-06T09:25:02.722Z</time>
      </trkpt>
      <trkpt lat="44.53779" lon="1.87528">
        <ele>388</ele>
        <time>2019-08-06T09:25:07.735Z</time>
      </trkpt>
      <trkpt lat="44.53778" lon="1.87518">
        <ele>388</ele>
        <time>2019-08-06T09:25:12.729Z</time>
      </trkpt>
      <trkpt lat="44.53778" lon="1.87507">
        <ele>390</ele>
        <time>2019-08-06T09:25:17.723Z</time>
      </trkpt>
      <trkpt lat="44.53778" lon="1.87496">
        <ele>390</ele>
        <time>2019-08-06T09:25:22.711Z</time>
      </trkpt>
      <trkpt lat="44.53777" lon="1.87489">
        <ele>390</ele>
        <time>2019-08-06T09:25:26.720Z</time>
      </trkpt>
      <trkpt lat="44.53773" lon="1.87479">
        <ele>392</ele>
        <time>2019-08-06T09:25:31.727Z</time>
      </trkpt>
      <trkpt lat="44.53773" lon="1.87468">
        <ele>392</ele>
        <time>2019-08-06T09:25:36.733Z</time>
      </trkpt>
      <trkpt lat="44.53771" lon="1.87458">
        <ele>392</ele>
        <time>2019-08-06T09:25:41.736Z</time>
      </trkpt>
      <trkpt lat="44.5377" lon="1.87446">
        <ele>393</ele>
        <time>2019-08-06T09:25:46.727Z</time>
      </trkpt>
      <trkpt lat="44.53769" lon="1.87432">
        <ele>393</ele>
        <time>2019-08-06T09:25:51.718Z</time>
      </trkpt>
      <trkpt lat="44.53769" lon="1.87424">
        <ele>392</ele>
        <time>2019-08-06T09:25:56.737Z</time>
      </trkpt>
      <trkpt lat="44.53768" lon="1.87414">
        <ele>392</ele>
        <time>2019-08-06T09:26:01.737Z</time>
      </trkpt>
      <trkpt lat="44.53767" lon="1.87401">
        <ele>390</ele>
        <time>2019-08-06T09:26:06.730Z</time>
      </trkpt>
      <trkpt lat="44.53766" lon="1.87391">
        <ele>390</ele>
        <time>2019-08-06T09:26:11.738Z</time>
      </trkpt>
      <trkpt lat="44.53765" lon="1.8738">
        <ele>390</ele>
        <time>2019-08-06T09:26:16.716Z</time>
      </trkpt>
      <trkpt lat="44.53761" lon="1.87371">
        <ele>391</ele>
        <time>2019-08-06T09:26:21.719Z</time>
      </trkpt>
      <trkpt lat="44.53757" lon="1.87364">
        <ele>391</ele>
        <time>2019-08-06T09:26:25.734Z</time>
      </trkpt>
      <trkpt lat="44.53754" lon="1.87353">
        <ele>391</ele>
        <time>2019-08-06T09:26:30.715Z</time>
      </trkpt>
      <trkpt lat="44.5375" lon="1.87344">
        <ele>389</ele>
        <time>2019-08-06T09:26:35.731Z</time>
      </trkpt>
      <trkpt lat="44.53747" lon="1.87336">
        <ele>389</ele>
        <time>2019-08-06T09:26:40.726Z</time>
      </trkpt>
      <trkpt lat="44.53743" lon="1.87328">
        <ele>389</ele>
        <time>2019-08-06T09:26:45.730Z</time>
      </trkpt>
      <trkpt lat="44.53739" lon="1.87318">
        <ele>387</ele>
        <time>2019-08-06T09:26:50.726Z</time>
      </trkpt>
      <trkpt lat="44.53734" lon="1.87309">
        <ele>390</ele>
        <time>2019-08-06T09:26:55.713Z</time>
      </trkpt>
      <trkpt lat="44.53729" lon="1.87299">
        <ele>390</ele>
        <time>2019-08-06T09:26:59.723Z</time>
      </trkpt>
      <trkpt lat="44.53723" lon="1.87288">
        <ele>389</ele>
        <time>2019-08-06T09:27:04.732Z</time>
      </trkpt>
      <trkpt lat="44.53715" lon="1.87279">
        <ele>389</ele>
        <time>2019-08-06T09:27:09.726Z</time>
      </trkpt>
      <trkpt lat="44.5371" lon="1.87266">
        <ele>389</ele>
        <time>2019-08-06T09:27:14.720Z</time>
      </trkpt>
      <trkpt lat="44.53707" lon="1.87255">
        <ele>389</ele>
        <time>2019-08-06T09:27:19.729Z</time>
      </trkpt>
      <trkpt lat="44.53706" lon="1.87247">
        <ele>389</ele>
        <time>2019-08-06T09:27:24.716Z</time>
      </trkpt>
      <trkpt lat="44.53705" lon="1.87236">
        <ele>389</ele>
        <time>2019-08-06T09:27:29.736Z</time>
      </trkpt>
      <trkpt lat="44.53702" lon="1.87225">
        <ele>389</ele>
        <time>2019-08-06T09:27:34.727Z</time>
      </trkpt>
      <trkpt lat="44.53702" lon="1.87215">
        <ele>389</ele>
        <time>2019-08-06T09:27:39.733Z</time>
      </trkpt>
      <trkpt lat="44.537" lon="1.87203">
        <ele>388</ele>
        <time>2019-08-06T09:27:44.719Z</time>
      </trkpt>
      <trkpt lat="44.53695" lon="1.87173">
        <ele>389</ele>
        <time>2019-08-06T09:27:49.734Z</time>
      </trkpt>
      <trkpt lat="44.53688" lon="1.87139">
        <ele>390</ele>
        <time>2019-08-06T09:27:54.734Z</time>
      </trkpt>
      <trkpt lat="44.53682" lon="1.87111">
        <ele>389</ele>
        <time>2019-08-06T09:27:59.730Z</time>
      </trkpt>
      <trkpt lat="44.53675" lon="1.8708">
        <ele>388</ele>
        <time>2019-08-06T09:28:04.757Z</time>
      </trkpt>
      <trkpt lat="44.53665" lon="1.87046">
        <ele>389</ele>
        <time>2019-08-06T09:28:09.721Z</time>
      </trkpt>
      <trkpt lat="44.5366" lon="1.8702">
        <ele>390</ele>
        <time>2019-08-06T09:28:14.728Z</time>
      </trkpt>
      <trkpt lat="44.53658" lon="1.87013">
        <ele>390</ele>
        <time>2019-08-06T09:28:18.737Z</time>
      </trkpt>
      <trkpt lat="44.53652" lon="1.87005">
        <ele>389</ele>
        <time>2019-08-06T09:28:23.731Z</time>
      </trkpt>
      <trkpt lat="44.5365" lon="1.86997">
        <ele>389</ele>
        <time>2019-08-06T09:28:28.721Z</time>
      </trkpt>
      <trkpt lat="44.53648" lon="1.86986">
        <ele>389</ele>
        <time>2019-08-06T09:28:33.731Z</time>
      </trkpt>
      <trkpt lat="44.53644" lon="1.86978">
        <ele>389</ele>
        <time>2019-08-06T09:28:38.735Z</time>
      </trkpt>
      <trkpt lat="44.5364" lon="1.86967">
        <ele>389</ele>
        <time>2019-08-06T09:28:43.720Z</time>
      </trkpt>
      <trkpt lat="44.53636" lon="1.86959">
        <ele>389</ele>
        <time>2019-08-06T09:28:48.726Z</time>
      </trkpt>
      <trkpt lat="44.53631" lon="1.86954">
        <ele>390</ele>
        <time>2019-08-06T09:28:53.713Z</time>
      </trkpt>
      <trkpt lat="44.53625" lon="1.86944">
        <ele>390</ele>
        <time>2019-08-06T09:28:58.716Z</time>
      </trkpt>
      <trkpt lat="44.53619" lon="1.86933">
        <ele>390</ele>
        <time>2019-08-06T09:29:03.736Z</time>
      </trkpt>
      <trkpt lat="44.53612" lon="1.86924">
        <ele>391</ele>
        <time>2019-08-06T09:29:08.732Z</time>
      </trkpt>
      <trkpt lat="44.53606" lon="1.86915">
        <ele>391</ele>
        <time>2019-08-06T09:29:13.720Z</time>
      </trkpt>
      <trkpt lat="44.53604" lon="1.86908">
        <ele>391</ele>
        <time>2019-08-06T09:29:18.732Z</time>
      </trkpt>
      <trkpt lat="44.53602" lon="1.86897">
        <ele>391</ele>
        <time>2019-08-06T09:29:23.728Z</time>
      </trkpt>
      <trkpt lat="44.53597" lon="1.86885">
        <ele>389</ele>
        <time>2019-08-06T09:29:28.719Z</time>
      </trkpt>
      <trkpt lat="44.53592" lon="1.86875">
        <ele>389</ele>
        <time>2019-08-06T09:29:32.735Z</time>
      </trkpt>
      <trkpt lat="44.53589" lon="1.86867">
        <ele>389</ele>
        <time>2019-08-06T09:29:37.721Z</time>
      </trkpt>
      <trkpt lat="44.53584" lon="1.86858">
        <ele>389</ele>
        <time>2019-08-06T09:29:42.737Z</time>
      </trkpt>
      <trkpt lat="44.5358" lon="1.86847">
        <ele>388</ele>
        <time>2019-08-06T09:29:47.736Z</time>
      </trkpt>
      <trkpt lat="44.53577" lon="1.86836">
        <ele>388</ele>
        <time>2019-08-06T09:29:52.730Z</time>
      </trkpt>
      <trkpt lat="44.53575" lon="1.86827">
        <ele>388</ele>
        <time>2019-08-06T09:29:57.720Z</time>
      </trkpt>
      <trkpt lat="44.53574" lon="1.86818">
        <ele>387</ele>
        <time>2019-08-06T09:30:02.726Z</time>
      </trkpt>
      <trkpt lat="44.53572" lon="1.86811">
        <ele>387</ele>
        <time>2019-08-06T09:30:06.733Z</time>
      </trkpt>
      <trkpt lat="44.53569" lon="1.86801">
        <ele>384</ele>
        <time>2019-08-06T09:30:11.733Z</time>
      </trkpt>
      <trkpt lat="44.53569" lon="1.86794">
        <ele>384</ele>
        <time>2019-08-06T09:30:16.728Z</time>
      </trkpt>
      <trkpt lat="44.53566" lon="1.86788">
        <ele>383</ele>
        <time>2019-08-06T09:30:21.728Z</time>
      </trkpt>
      <trkpt lat="44.53565" lon="1.86777">
        <ele>383</ele>
        <time>2019-08-06T09:30:26.730Z</time>
      </trkpt>
      <trkpt lat="44.53564" lon="1.86764">
        <ele>383</ele>
        <time>2019-08-06T09:30:31.727Z</time>
      </trkpt>
      <trkpt lat="44.53564" lon="1.86753">
        <ele>381</ele>
        <time>2019-08-06T09:30:36.722Z</time>
      </trkpt>
      <trkpt lat="44.53563" lon="1.86743">
        <ele>381</ele>
        <time>2019-08-06T09:30:41.729Z</time>
      </trkpt>
      <trkpt lat="44.53563" lon="1.86733">
        <ele>380</ele>
        <time>2019-08-06T09:30:46.730Z</time>
      </trkpt>
      <trkpt lat="44.53561" lon="1.86722">
        <ele>380</ele>
        <time>2019-08-06T09:30:51.728Z</time>
      </trkpt>
      <trkpt lat="44.53558" lon="1.86712">
        <ele>380</ele>
        <time>2019-08-06T09:30:56.735Z</time>
      </trkpt>
      <trkpt lat="44.53553" lon="1.86701">
        <ele>379</ele>
        <time>2019-08-06T09:31:01.706Z</time>
      </trkpt>
      <trkpt lat="44.53549" lon="1.86692">
        <ele>379</ele>
        <time>2019-08-06T09:31:05.726Z</time>
      </trkpt>
      <trkpt lat="44.53544" lon="1.86682">
        <ele>379</ele>
        <time>2019-08-06T09:31:10.738Z</time>
      </trkpt>
      <trkpt lat="44.53538" lon="1.86671">
        <ele>381</ele>
        <time>2019-08-06T09:31:15.725Z</time>
      </trkpt>
      <trkpt lat="44.53535" lon="1.86661">
        <ele>381</ele>
        <time>2019-08-06T09:31:20.752Z</time>
      </trkpt>
      <trkpt lat="44.53533" lon="1.86651">
        <ele>381</ele>
        <time>2019-08-06T09:31:25.735Z</time>
      </trkpt>
      <trkpt lat="44.53529" lon="1.86643">
        <ele>381</ele>
        <time>2019-08-06T09:31:29.727Z</time>
      </trkpt>
      <trkpt lat="44.53526" lon="1.86636">
        <ele>381</ele>
        <time>2019-08-06T09:31:34.725Z</time>
      </trkpt>
      <trkpt lat="44.53524" lon="1.86629">
        <ele>381</ele>
        <time>2019-08-06T09:31:39.730Z</time>
      </trkpt>
      <trkpt lat="44.5352" lon="1.86621">
        <ele>381</ele>
        <time>2019-08-06T09:31:44.733Z</time>
      </trkpt>
      <trkpt lat="44.53515" lon="1.86615">
        <ele>381</ele>
        <time>2019-08-06T09:31:48.718Z</time>
      </trkpt>
      <trkpt lat="44.53511" lon="1.86607">
        <ele>383</ele>
        <time>2019-08-06T09:31:53.725Z</time>
      </trkpt>
      <trkpt lat="44.5351" lon="1.86598">
        <ele>383</ele>
        <time>2019-08-06T09:31:58.728Z</time>
      </trkpt>
      <trkpt lat="44.53505" lon="1.86587">
        <ele>382</ele>
        <time>2019-08-06T09:32:03.725Z</time>
      </trkpt>
      <trkpt lat="44.53501" lon="1.86579">
        <ele>382</ele>
        <time>2019-08-06T09:32:07.720Z</time>
      </trkpt>
      <trkpt lat="44.53498" lon="1.8657">
        <ele>382</ele>
        <time>2019-08-06T09:32:12.751Z</time>
      </trkpt>
      <trkpt lat="44.53491" lon="1.86558">
        <ele>380</ele>
        <time>2019-08-06T09:32:17.719Z</time>
      </trkpt>
      <trkpt lat="44.53493" lon="1.8655">
        <ele>380</ele>
        <time>2019-08-06T09:32:21.695Z</time>
      </trkpt>
      <trkpt lat="44.53493" lon="1.86543">
        <ele>380</ele>
        <time>2019-08-06T09:32:25.726Z</time>
      </trkpt>
      <trkpt lat="44.53491" lon="1.86535">
        <ele>380</ele>
        <time>2019-08-06T09:32:30.724Z</time>
      </trkpt>
      <trkpt lat="44.53488" lon="1.86529">
        <ele>380</ele>
        <time>2019-08-06T09:32:35.740Z</time>
      </trkpt>
      <trkpt lat="44.53484" lon="1.86527">
        <ele>383</ele>
        <time>2019-08-06T09:32:40.733Z</time>
      </trkpt>
      <trkpt lat="44.53477" lon="1.86524">
        <ele>383</ele>
        <time>2019-08-06T09:32:45.707Z</time>
      </trkpt>
      <trkpt lat="44.53471" lon="1.86519">
        <ele>383</ele>
        <time>2019-08-06T09:32:50.726Z</time>
      </trkpt>
      <trkpt lat="44.53462" lon="1.86515">
        <ele>383</ele>
        <time>2019-08-06T09:32:55.762Z</time>
      </trkpt>
      <trkpt lat="44.53456" lon="1.86512">
        <ele>381</ele>
        <time>2019-08-06T09:33:00.743Z</time>
      </trkpt>
      <trkpt lat="44.5345" lon="1.86509">
        <ele>381</ele>
        <time>2019-08-06T09:33:05.728Z</time>
      </trkpt>
      <trkpt lat="44.53445" lon="1.86507">
        <ele>381</ele>
        <time>2019-08-06T09:33:10.731Z</time>
      </trkpt>
      <trkpt lat="44.53436" lon="1.86503">
        <ele>381</ele>
        <time>2019-08-06T09:33:15.719Z</time>
      </trkpt>
      <trkpt lat="44.53428" lon="1.86501">
        <ele>379</ele>
        <time>2019-08-06T09:33:20.728Z</time>
      </trkpt>
      <trkpt lat="44.53421" lon="1.86499">
        <ele>379</ele>
        <time>2019-08-06T09:33:25.730Z</time>
      </trkpt>
      <trkpt lat="44.53416" lon="1.86497">
        <ele>379</ele>
        <time>2019-08-06T09:33:29.762Z</time>
      </trkpt>
      <trkpt lat="44.53408" lon="1.86492">
        <ele>379</ele>
        <time>2019-08-06T09:33:34.728Z</time>
      </trkpt>
      <trkpt lat="44.53403" lon="1.86493">
        <ele>379</ele>
        <time>2019-08-06T09:33:39.719Z</time>
      </trkpt>
      <trkpt lat="44.53399" lon="1.86493">
        <ele>376</ele>
        <time>2019-08-06T09:33:43.725Z</time>
      </trkpt>
      <trkpt lat="44.53392" lon="1.86495">
        <ele>376</ele>
        <time>2019-08-06T09:33:48.722Z</time>
      </trkpt>
      <trkpt lat="44.53386" lon="1.86494">
        <ele>376</ele>
        <time>2019-08-06T09:33:53.739Z</time>
      </trkpt>
      <trkpt lat="44.53381" lon="1.86498">
        <ele>376</ele>
        <time>2019-08-06T09:33:58.724Z</time>
      </trkpt>
      <trkpt lat="44.53379" lon="1.86499">
        <ele>376</ele>
        <time>2019-08-06T09:34:03.734Z</time>
      </trkpt>
      <trkpt lat="44.53374" lon="1.86499">
        <ele>373</ele>
        <time>2019-08-06T09:34:08.730Z</time>
      </trkpt>
      <trkpt lat="44.53368" lon="1.86497">
        <ele>373</ele>
        <time>2019-08-06T09:34:13.743Z</time>
      </trkpt>
      <trkpt lat="44.53362" lon="1.86495">
        <ele>373</ele>
        <time>2019-08-06T09:34:18.721Z</time>
      </trkpt>
      <trkpt lat="44.53357" lon="1.86496">
        <ele>373</ele>
        <time>2019-08-06T09:34:23.740Z</time>
      </trkpt>
      <trkpt lat="44.5335" lon="1.86496">
        <ele>373</ele>
        <time>2019-08-06T09:34:28.726Z</time>
      </trkpt>
      <trkpt lat="44.53343" lon="1.86492">
        <ele>373</ele>
        <time>2019-08-06T09:34:33.730Z</time>
      </trkpt>
      <trkpt lat="44.53337" lon="1.86492">
        <ele>373</ele>
        <time>2019-08-06T09:34:38.735Z</time>
      </trkpt>
      <trkpt lat="44.53331" lon="1.86491">
        <ele>373</ele>
        <time>2019-08-06T09:34:43.739Z</time>
      </trkpt>
      <trkpt lat="44.53328" lon="1.86491">
        <ele>373</ele>
        <time>2019-08-06T09:34:48.717Z</time>
      </trkpt>
      <trkpt lat="44.53324" lon="1.86488">
        <ele>373</ele>
        <time>2019-08-06T09:34:52.729Z</time>
      </trkpt>
      <trkpt lat="44.53317" lon="1.86485">
        <ele>368</ele>
        <time>2019-08-06T09:34:57.734Z</time>
      </trkpt>
      <trkpt lat="44.53312" lon="1.86483">
        <ele>368</ele>
        <time>2019-08-06T09:35:02.724Z</time>
      </trkpt>
      <trkpt lat="44.53311" lon="1.86482">
        <ele>368</ele>
        <time>2019-08-06T09:35:07.713Z</time>
      </trkpt>
      <trkpt lat="44.53309" lon="1.8648">
        <ele>368</ele>
        <time>2019-08-06T09:35:11.721Z</time>
      </trkpt>
      <trkpt lat="44.53303" lon="1.86479">
        <ele>368</ele>
        <time>2019-08-06T09:35:16.725Z</time>
      </trkpt>
      <trkpt lat="44.53296" lon="1.86483">
        <ele>368</ele>
        <time>2019-08-06T09:35:21.734Z</time>
      </trkpt>
      <trkpt lat="44.5329" lon="1.86483">
        <ele>366</ele>
        <time>2019-08-06T09:35:26.730Z</time>
      </trkpt>
      <trkpt lat="44.53282" lon="1.8648">
        <ele>366</ele>
        <time>2019-08-06T09:35:31.744Z</time>
      </trkpt>
      <trkpt lat="44.53277" lon="1.8648">
        <ele>366</ele>
        <time>2019-08-06T09:35:36.729Z</time>
      </trkpt>
      <trkpt lat="44.53272" lon="1.86482">
        <ele>366</ele>
        <time>2019-08-06T09:35:41.737Z</time>
      </trkpt>
      <trkpt lat="44.53266" lon="1.86483">
        <ele>366</ele>
        <time>2019-08-06T09:35:46.719Z</time>
      </trkpt>
      <trkpt lat="44.53262" lon="1.86483">
        <ele>363</ele>
        <time>2019-08-06T09:35:50.732Z</time>
      </trkpt>
      <trkpt lat="44.53255" lon="1.86483">
        <ele>363</ele>
        <time>2019-08-06T09:35:55.741Z</time>
      </trkpt>
      <trkpt lat="44.5325" lon="1.86483">
        <ele>363</ele>
        <time>2019-08-06T09:36:00.722Z</time>
      </trkpt>
      <trkpt lat="44.53243" lon="1.86486">
        <ele>363</ele>
        <time>2019-08-06T09:36:05.713Z</time>
      </trkpt>
      <trkpt lat="44.5324" lon="1.86485">
        <ele>363</ele>
        <time>2019-08-06T09:36:09.747Z</time>
      </trkpt>
      <trkpt lat="44.53233" lon="1.86483">
        <ele>362</ele>
        <time>2019-08-06T09:36:14.731Z</time>
      </trkpt>
      <trkpt lat="44.53227" lon="1.86485">
        <ele>362</ele>
        <time>2019-08-06T09:36:19.737Z</time>
      </trkpt>
      <trkpt lat="44.53221" lon="1.86488">
        <ele>365</ele>
        <time>2019-08-06T09:36:24.724Z</time>
      </trkpt>
      <trkpt lat="44.53216" lon="1.86487">
        <ele>365</ele>
        <time>2019-08-06T09:36:29.738Z</time>
      </trkpt>
      <trkpt lat="44.53212" lon="1.86487">
        <ele>365</ele>
        <time>2019-08-06T09:36:33.754Z</time>
      </trkpt>
      <trkpt lat="44.53205" lon="1.86486">
        <ele>364</ele>
        <time>2019-08-06T09:36:38.734Z</time>
      </trkpt>
      <trkpt lat="44.53197" lon="1.86487">
        <ele>364</ele>
        <time>2019-08-06T09:36:43.722Z</time>
      </trkpt>
      <trkpt lat="44.53193" lon="1.86485">
        <ele>361</ele>
        <time>2019-08-06T09:36:47.737Z</time>
      </trkpt>
      <trkpt lat="44.53187" lon="1.86485">
        <ele>361</ele>
        <time>2019-08-06T09:36:52.737Z</time>
      </trkpt>
      <trkpt lat="44.53181" lon="1.86484">
        <ele>361</ele>
        <time>2019-08-06T09:36:57.746Z</time>
      </trkpt>
      <trkpt lat="44.53176" lon="1.86487">
        <ele>361</ele>
        <time>2019-08-06T09:37:02.731Z</time>
      </trkpt>
      <trkpt lat="44.5317" lon="1.86491">
        <ele>361</ele>
        <time>2019-08-06T09:37:07.743Z</time>
      </trkpt>
      <trkpt lat="44.53164" lon="1.86496">
        <ele>361</ele>
        <time>2019-08-06T09:37:12.719Z</time>
      </trkpt>
      <trkpt lat="44.53158" lon="1.86501">
        <ele>361</ele>
        <time>2019-08-06T09:37:17.735Z</time>
      </trkpt>
      <trkpt lat="44.53152" lon="1.86503">
        <ele>358</ele>
        <time>2019-08-06T09:37:22.720Z</time>
      </trkpt>
      <trkpt lat="44.53147" lon="1.86503">
        <ele>358</ele>
        <time>2019-08-06T09:37:26.730Z</time>
      </trkpt>
      <trkpt lat="44.5314" lon="1.86506">
        <ele>358</ele>
        <time>2019-08-06T09:37:31.731Z</time>
      </trkpt>
      <trkpt lat="44.53134" lon="1.86507">
        <ele>358</ele>
        <time>2019-08-06T09:37:36.730Z</time>
      </trkpt>
      <trkpt lat="44.53129" lon="1.86511">
        <ele>358</ele>
        <time>2019-08-06T09:37:41.739Z</time>
      </trkpt>
      <trkpt lat="44.53123" lon="1.86511">
        <ele>354</ele>
        <time>2019-08-06T09:37:46.716Z</time>
      </trkpt>
      <trkpt lat="44.53116" lon="1.86511">
        <ele>354</ele>
        <time>2019-08-06T09:37:51.739Z</time>
      </trkpt>
      <trkpt lat="44.5311" lon="1.86515">
        <ele>356</ele>
        <time>2019-08-06T09:37:56.727Z</time>
      </trkpt>
      <trkpt lat="44.53103" lon="1.86515">
        <ele>356</ele>
        <time>2019-08-06T09:38:01.727Z</time>
      </trkpt>
      <trkpt lat="44.53098" lon="1.86515">
        <ele>356</ele>
        <time>2019-08-06T09:38:05.712Z</time>
      </trkpt>
      <trkpt lat="44.5309" lon="1.86515">
        <ele>352</ele>
        <time>2019-08-06T09:38:10.715Z</time>
      </trkpt>
      <trkpt lat="44.53085" lon="1.86516">
        <ele>352</ele>
        <time>2019-08-06T09:38:15.708Z</time>
      </trkpt>
      <trkpt lat="44.5308" lon="1.86517">
        <ele>352</ele>
        <time>2019-08-06T09:38:19.728Z</time>
      </trkpt>
      <trkpt lat="44.53073" lon="1.86517">
        <ele>352</ele>
        <time>2019-08-06T09:38:24.713Z</time>
      </trkpt>
      <trkpt lat="44.53066" lon="1.8652">
        <ele>349</ele>
        <time>2019-08-06T09:38:29.724Z</time>
      </trkpt>
      <trkpt lat="44.53061" lon="1.86526">
        <ele>349</ele>
        <time>2019-08-06T09:38:34.717Z</time>
      </trkpt>
      <trkpt lat="44.53056" lon="1.8653">
        <ele>349</ele>
        <time>2019-08-06T09:38:39.760Z</time>
      </trkpt>
      <trkpt lat="44.5305" lon="1.86533">
        <ele>349</ele>
        <time>2019-08-06T09:38:44.728Z</time>
      </trkpt>
      <trkpt lat="44.53047" lon="1.86534">
        <ele>349</ele>
        <time>2019-08-06T09:38:49.733Z</time>
      </trkpt>
      <trkpt lat="44.53042" lon="1.86536">
        <ele>349</ele>
        <time>2019-08-06T09:38:54.728Z</time>
      </trkpt>
      <trkpt lat="44.53034" lon="1.86537">
        <ele>349</ele>
        <time>2019-08-06T09:38:59.743Z</time>
      </trkpt>
      <trkpt lat="44.53027" lon="1.86536">
        <ele>349</ele>
        <time>2019-08-06T09:39:04.723Z</time>
      </trkpt>
      <trkpt lat="44.53021" lon="1.86538">
        <ele>349</ele>
        <time>2019-08-06T09:39:09.725Z</time>
      </trkpt>
      <trkpt lat="44.53017" lon="1.86538">
        <ele>349</ele>
        <time>2019-08-06T09:39:13.755Z</time>
      </trkpt>
      <trkpt lat="44.53011" lon="1.86536">
        <ele>344</ele>
        <time>2019-08-06T09:39:18.724Z</time>
      </trkpt>
      <trkpt lat="44.53006" lon="1.86536">
        <ele>344</ele>
        <time>2019-08-06T09:39:23.720Z</time>
      </trkpt>
      <trkpt lat="44.53002" lon="1.86535">
        <ele>344</ele>
        <time>2019-08-06T09:39:27.721Z</time>
      </trkpt>
      <trkpt lat="44.52995" lon="1.86534">
        <ele>344</ele>
        <time>2019-08-06T09:39:32.739Z</time>
      </trkpt>
      <trkpt lat="44.52988" lon="1.86534">
        <ele>344</ele>
        <time>2019-08-06T09:39:37.728Z</time>
      </trkpt>
      <trkpt lat="44.52982" lon="1.86532">
        <ele>341</ele>
        <time>2019-08-06T09:39:42.736Z</time>
      </trkpt>
      <trkpt lat="44.52975" lon="1.86533">
        <ele>341</ele>
        <time>2019-08-06T09:39:47.713Z</time>
      </trkpt>
      <trkpt lat="44.52969" lon="1.86532">
        <ele>341</ele>
        <time>2019-08-06T09:39:52.735Z</time>
      </trkpt>
      <trkpt lat="44.52963" lon="1.86529">
        <ele>341</ele>
        <time>2019-08-06T09:39:57.716Z</time>
      </trkpt>
      <trkpt lat="44.52957" lon="1.86525">
        <ele>340</ele>
        <time>2019-08-06T09:40:02.734Z</time>
      </trkpt>
      <trkpt lat="44.52948" lon="1.86517">
        <ele>340</ele>
        <time>2019-08-06T09:40:07.729Z</time>
      </trkpt>
      <trkpt lat="44.52942" lon="1.86511">
        <ele>340</ele>
        <time>2019-08-06T09:40:12.731Z</time>
      </trkpt>
      <trkpt lat="44.52936" lon="1.86505">
        <ele>340</ele>
        <time>2019-08-06T09:41:34.731Z</time>
      </trkpt>
      <trkpt lat="44.52936" lon="1.86505">
        <ele>340</ele>
        <time>2019-08-06T09:41:39.740Z</time>
      </trkpt>
      <trkpt lat="44.52934" lon="1.86497">
        <ele>340</ele>
        <time>2019-08-06T09:41:44.745Z</time>
      </trkpt>
      <trkpt lat="44.52929" lon="1.86488">
        <ele>340</ele>
        <time>2019-08-06T09:41:49.720Z</time>
      </trkpt>
      <trkpt lat="44.52926" lon="1.8648">
        <ele>340</ele>
        <time>2019-08-06T09:41:54.750Z</time>
      </trkpt>
      <trkpt lat="44.52922" lon="1.86472">
        <ele>340</ele>
        <time>2019-08-06T09:41:59.726Z</time>
      </trkpt>
      <trkpt lat="44.52918" lon="1.86465">
        <ele>340</ele>
        <time>2019-08-06T09:42:04.724Z</time>
      </trkpt>
      <trkpt lat="44.52915" lon="1.86455">
        <ele>337</ele>
        <time>2019-08-06T09:42:09.727Z</time>
      </trkpt>
      <trkpt lat="44.52911" lon="1.86449">
        <ele>337</ele>
        <time>2019-08-06T09:42:14.735Z</time>
      </trkpt>
      <trkpt lat="44.52906" lon="1.86441">
        <ele>337</ele>
        <time>2019-08-06T09:42:19.730Z</time>
      </trkpt>
      <trkpt lat="44.52902" lon="1.86436">
        <ele>339</ele>
        <time>2019-08-06T09:42:24.719Z</time>
      </trkpt>
      <trkpt lat="44.52898" lon="1.8643">
        <ele>338</ele>
        <time>2019-08-06T09:42:28.741Z</time>
      </trkpt>
      <trkpt lat="44.52893" lon="1.86424">
        <ele>338</ele>
        <time>2019-08-06T09:42:33.747Z</time>
      </trkpt>
      <trkpt lat="44.52887" lon="1.86419">
        <ele>338</ele>
        <time>2019-08-06T09:42:38.723Z</time>
      </trkpt>
      <trkpt lat="44.52885" lon="1.86416">
        <ele>338</ele>
        <time>2019-08-06T09:42:42.753Z</time>
      </trkpt>
      <trkpt lat="44.52882" lon="1.86414">
        <ele>338</ele>
        <time>2019-08-06T09:42:47.717Z</time>
      </trkpt>
      <trkpt lat="44.52876" lon="1.86411">
        <ele>338</ele>
        <time>2019-08-06T09:42:51.737Z</time>
      </trkpt>
      <trkpt lat="44.52869" lon="1.86405">
        <ele>339</ele>
        <time>2019-08-06T09:42:56.736Z</time>
      </trkpt>
      <trkpt lat="44.5286" lon="1.86402">
        <ele>338</ele>
        <time>2019-08-06T09:43:01.707Z</time>
      </trkpt>
      <trkpt lat="44.52855" lon="1.86396">
        <ele>338</ele>
        <time>2019-08-06T09:43:05.739Z</time>
      </trkpt>
      <trkpt lat="44.52848" lon="1.86388">
        <ele>338</ele>
        <time>2019-08-06T09:43:10.738Z</time>
      </trkpt>
      <trkpt lat="44.5284" lon="1.86381">
        <ele>337</ele>
        <time>2019-08-06T09:43:15.737Z</time>
      </trkpt>
      <trkpt lat="44.52833" lon="1.86376">
        <ele>337</ele>
        <time>2019-08-06T09:43:20.725Z</time>
      </trkpt>
      <trkpt lat="44.52827" lon="1.86374">
        <ele>335</ele>
        <time>2019-08-06T09:43:25.731Z</time>
      </trkpt>
      <trkpt lat="44.52822" lon="1.8637">
        <ele>335</ele>
        <time>2019-08-06T09:43:30.722Z</time>
      </trkpt>
      <trkpt lat="44.52815" lon="1.86365">
        <ele>334</ele>
        <time>2019-08-06T09:43:35.734Z</time>
      </trkpt>
      <trkpt lat="44.52807" lon="1.86359">
        <ele>334</ele>
        <time>2019-08-06T09:43:40.741Z</time>
      </trkpt>
      <trkpt lat="44.52802" lon="1.86357">
        <ele>334</ele>
        <time>2019-08-06T09:43:45.722Z</time>
      </trkpt>
      <trkpt lat="44.52794" lon="1.86355">
        <ele>334</ele>
        <time>2019-08-06T09:43:50.718Z</time>
      </trkpt>
      <trkpt lat="44.52789" lon="1.86351">
        <ele>334</ele>
        <time>2019-08-06T09:43:55.731Z</time>
      </trkpt>
      <trkpt lat="44.52783" lon="1.86344">
        <ele>331</ele>
        <time>2019-08-06T09:44:00.723Z</time>
      </trkpt>
      <trkpt lat="44.52776" lon="1.86336">
        <ele>331</ele>
        <time>2019-08-06T09:44:05.723Z</time>
      </trkpt>
      <trkpt lat="44.5277" lon="1.8633">
        <ele>331</ele>
        <time>2019-08-06T09:44:10.728Z</time>
      </trkpt>
      <trkpt lat="44.52763" lon="1.86323">
        <ele>332</ele>
        <time>2019-08-06T09:44:15.725Z</time>
      </trkpt>
      <trkpt lat="44.52759" lon="1.86318">
        <ele>331</ele>
        <time>2019-08-06T09:44:20.743Z</time>
      </trkpt>
      <trkpt lat="44.52753" lon="1.86313">
        <ele>331</ele>
        <time>2019-08-06T09:44:25.734Z</time>
      </trkpt>
      <trkpt lat="44.52747" lon="1.86308">
        <ele>331</ele>
        <time>2019-08-06T09:44:30.740Z</time>
      </trkpt>
      <trkpt lat="44.52738" lon="1.86302">
        <ele>331</ele>
        <time>2019-08-06T09:44:35.731Z</time>
      </trkpt>
      <trkpt lat="44.5273" lon="1.86298">
        <ele>331</ele>
        <time>2019-08-06T09:44:40.716Z</time>
      </trkpt>
      <trkpt lat="44.52723" lon="1.86293">
        <ele>331</ele>
        <time>2019-08-06T09:44:45.721Z</time>
      </trkpt>
      <trkpt lat="44.5272" lon="1.86289">
        <ele>330</ele>
        <time>2019-08-06T09:44:49.732Z</time>
      </trkpt>
      <trkpt lat="44.52716" lon="1.86287">
        <ele>330</ele>
        <time>2019-08-06T09:44:54.732Z</time>
      </trkpt>
      <trkpt lat="44.52707" lon="1.86287">
        <ele>332</ele>
        <time>2019-08-06T09:44:59.724Z</time>
      </trkpt>
      <trkpt lat="44.527" lon="1.86281">
        <ele>332</ele>
        <time>2019-08-06T09:45:04.731Z</time>
      </trkpt>
      <trkpt lat="44.52689" lon="1.86274">
        <ele>332</ele>
        <time>2019-08-06T09:45:09.724Z</time>
      </trkpt>
      <trkpt lat="44.52684" lon="1.86268">
        <ele>332</ele>
        <time>2019-08-06T09:45:14.721Z</time>
      </trkpt>
      <trkpt lat="44.52679" lon="1.86265">
        <ele>333</ele>
        <time>2019-08-06T09:45:19.728Z</time>
      </trkpt>
      <trkpt lat="44.52674" lon="1.8626">
        <ele>332</ele>
        <time>2019-08-06T09:45:24.723Z</time>
      </trkpt>
      <trkpt lat="44.52669" lon="1.86257">
        <ele>332</ele>
        <time>2019-08-06T09:45:29.730Z</time>
      </trkpt>
      <trkpt lat="44.52665" lon="1.86252">
        <ele>332</ele>
        <time>2019-08-06T09:45:34.705Z</time>
      </trkpt>
      <trkpt lat="44.52664" lon="1.86252">
        <ele>332</ele>
        <time>2019-08-06T09:45:38.735Z</time>
      </trkpt>
      <trkpt lat="44.52661" lon="1.8625">
        <ele>332</ele>
        <time>2019-08-06T09:45:43.725Z</time>
      </trkpt>
      <trkpt lat="44.52653" lon="1.86253">
        <ele>332</ele>
        <time>2019-08-06T09:45:48.706Z</time>
      </trkpt>
      <trkpt lat="44.52651" lon="1.86253">
        <ele>333</ele>
        <time>2019-08-06T09:46:03.717Z</time>
      </trkpt>
      <trkpt lat="44.52651" lon="1.86252">
        <ele>333</ele>
        <time>2019-08-06T09:46:08.716Z</time>
      </trkpt>
      <trkpt lat="44.52651" lon="1.86251">
        <ele>333</ele>
        <time>2019-08-06T09:46:12.722Z</time>
      </trkpt>
      <trkpt lat="44.52648" lon="1.8625">
        <ele>333</ele>
        <time>2019-08-06T09:46:17.728Z</time>
      </trkpt>
      <trkpt lat="44.52642" lon="1.86246">
        <ele>333</ele>
        <time>2019-08-06T09:46:22.732Z</time>
      </trkpt>
      <trkpt lat="44.52635" lon="1.86246">
        <ele>333</ele>
        <time>2019-08-06T09:46:27.740Z</time>
      </trkpt>
      <trkpt lat="44.5263" lon="1.86244">
        <ele>333</ele>
        <time>2019-08-06T09:46:32.715Z</time>
      </trkpt>
      <trkpt lat="44.52625" lon="1.86243">
        <ele>333</ele>
        <time>2019-08-06T09:46:36.724Z</time>
      </trkpt>
      <trkpt lat="44.52621" lon="1.86239">
        <ele>333</ele>
        <time>2019-08-06T09:46:41.728Z</time>
      </trkpt>
      <trkpt lat="44.52615" lon="1.86237">
        <ele>333</ele>
        <time>2019-08-06T09:46:45.741Z</time>
      </trkpt>
      <trkpt lat="44.52606" lon="1.86231">
        <ele>331</ele>
        <time>2019-08-06T09:46:50.746Z</time>
      </trkpt>
      <trkpt lat="44.52598" lon="1.86229">
        <ele>331</ele>
        <time>2019-08-06T09:46:55.733Z</time>
      </trkpt>
      <trkpt lat="44.5259" lon="1.86226">
        <ele>329</ele>
        <time>2019-08-06T09:47:00.717Z</time>
      </trkpt>
      <trkpt lat="44.52584" lon="1.86223">
        <ele>329</ele>
        <time>2019-08-06T09:47:05.716Z</time>
      </trkpt>
      <trkpt lat="44.5258" lon="1.86221">
        <ele>329</ele>
        <time>2019-08-06T09:47:09.730Z</time>
      </trkpt>
      <trkpt lat="44.52573" lon="1.86219">
        <ele>329</ele>
        <time>2019-08-06T09:47:14.720Z</time>
      </trkpt>
      <trkpt lat="44.52566" lon="1.86217">
        <ele>327</ele>
        <time>2019-08-06T09:47:19.711Z</time>
      </trkpt>
      <trkpt lat="44.52559" lon="1.86215">
        <ele>327</ele>
        <time>2019-08-06T09:47:23.721Z</time>
      </trkpt>
      <trkpt lat="44.52552" lon="1.86211">
        <ele>327</ele>
        <time>2019-08-06T09:47:28.737Z</time>
      </trkpt>
      <trkpt lat="44.5255" lon="1.8621">
        <ele>327</ele>
        <time>2019-08-06T09:47:33.724Z</time>
      </trkpt>
      <trkpt lat="44.52549" lon="1.8621">
        <ele>327</ele>
        <time>2019-08-06T09:47:38.716Z</time>
      </trkpt>
      <trkpt lat="44.52547" lon="1.86209">
        <ele>327</ele>
        <time>2019-08-06T09:47:42.732Z</time>
      </trkpt>
      <trkpt lat="44.5254" lon="1.86207">
        <ele>320</ele>
        <time>2019-08-06T09:47:47.752Z</time>
      </trkpt>
      <trkpt lat="44.52534" lon="1.86206">
        <ele>320</ele>
        <time>2019-08-06T09:47:52.743Z</time>
      </trkpt>
      <trkpt lat="44.52527" lon="1.86203">
        <ele>320</ele>
        <time>2019-08-06T09:47:57.726Z</time>
      </trkpt>
      <trkpt lat="44.52517" lon="1.86199">
        <ele>320</ele>
        <time>2019-08-06T09:48:02.717Z</time>
      </trkpt>
      <trkpt lat="44.5251" lon="1.86196">
        <ele>318</ele>
        <time>2019-08-06T09:48:07.726Z</time>
      </trkpt>
      <trkpt lat="44.52504" lon="1.86192">
        <ele>318</ele>
        <time>2019-08-06T09:48:12.723Z</time>
      </trkpt>
      <trkpt lat="44.52499" lon="1.86189">
        <ele>318</ele>
        <time>2019-08-06T09:48:16.739Z</time>
      </trkpt>
      <trkpt lat="44.52492" lon="1.86183">
        <ele>318</ele>
        <time>2019-08-06T09:48:21.696Z</time>
      </trkpt>
      <trkpt lat="44.52489" lon="1.86181">
        <ele>318</ele>
        <time>2019-08-06T09:48:25.727Z</time>
      </trkpt>
      <trkpt lat="44.5248" lon="1.86179">
        <ele>315</ele>
        <time>2019-08-06T09:48:30.738Z</time>
      </trkpt>
      <trkpt lat="44.52468" lon="1.86175">
        <ele>315</ele>
        <time>2019-08-06T09:48:35.719Z</time>
      </trkpt>
      <trkpt lat="44.52461" lon="1.8617">
        <ele>315</ele>
        <time>2019-08-06T09:48:40.740Z</time>
      </trkpt>
      <trkpt lat="44.52457" lon="1.86169">
        <ele>317</ele>
        <time>2019-08-06T09:48:45.727Z</time>
      </trkpt>
      <trkpt lat="44.5245" lon="1.86171">
        <ele>317</ele>
        <time>2019-08-06T09:48:50.723Z</time>
      </trkpt>
      <trkpt lat="44.52444" lon="1.8617">
        <ele>317</ele>
        <time>2019-08-06T09:48:54.736Z</time>
      </trkpt>
      <trkpt lat="44.52437" lon="1.86168">
        <ele>317</ele>
        <time>2019-08-06T09:48:59.726Z</time>
      </trkpt>
      <trkpt lat="44.52432" lon="1.86168">
        <ele>317</ele>
        <time>2019-08-06T09:49:04.729Z</time>
      </trkpt>
      <trkpt lat="44.52425" lon="1.86164">
        <ele>318</ele>
        <time>2019-08-06T09:49:09.721Z</time>
      </trkpt>
      <trkpt lat="44.52423" lon="1.86162">
        <ele>318</ele>
        <time>2019-08-06T09:49:14.709Z</time>
      </trkpt>
      <trkpt lat="44.52423" lon="1.86162">
        <ele>318</ele>
        <time>2019-08-06T09:49:18.724Z</time>
      </trkpt>
      <trkpt lat="44.52418" lon="1.86158">
        <ele>318</ele>
        <time>2019-08-06T09:49:23.739Z</time>
      </trkpt>
      <trkpt lat="44.52413" lon="1.86155">
        <ele>318</ele>
        <time>2019-08-06T09:49:28.736Z</time>
      </trkpt>
      <trkpt lat="44.52408" lon="1.86152">
        <ele>316</ele>
        <time>2019-08-06T09:49:33.732Z</time>
      </trkpt>
      <trkpt lat="44.52402" lon="1.86149">
        <ele>317</ele>
        <time>2019-08-06T09:49:38.719Z</time>
      </trkpt>
      <trkpt lat="44.52396" lon="1.86148">
        <ele>317</ele>
        <time>2019-08-06T09:49:43.731Z</time>
      </trkpt>
      <trkpt lat="44.5239" lon="1.86147">
        <ele>317</ele>
        <time>2019-08-06T09:49:48.736Z</time>
      </trkpt>
      <trkpt lat="44.52383" lon="1.86146">
        <ele>317</ele>
        <time>2019-08-06T09:49:53.728Z</time>
      </trkpt>
      <trkpt lat="44.52376" lon="1.86142">
        <ele>317</ele>
        <time>2019-08-06T09:49:58.724Z</time>
      </trkpt>
      <trkpt lat="44.52369" lon="1.86141">
        <ele>315</ele>
        <time>2019-08-06T09:50:02.742Z</time>
      </trkpt>
      <trkpt lat="44.52362" lon="1.86138">
        <ele>315</ele>
        <time>2019-08-06T09:50:07.734Z</time>
      </trkpt>
      <trkpt lat="44.52354" lon="1.86136">
        <ele>315</ele>
        <time>2019-08-06T09:50:12.730Z</time>
      </trkpt>
      <trkpt lat="44.52348" lon="1.86133">
        <ele>315</ele>
        <time>2019-08-06T09:50:17.726Z</time>
      </trkpt>
      <trkpt lat="44.52342" lon="1.86131">
        <ele>312</ele>
        <time>2019-08-06T09:50:21.736Z</time>
      </trkpt>
      <trkpt lat="44.52336" lon="1.86128">
        <ele>312</ele>
        <time>2019-08-06T09:50:26.728Z</time>
      </trkpt>
      <trkpt lat="44.52328" lon="1.86124">
        <ele>311</ele>
        <time>2019-08-06T09:50:31.735Z</time>
      </trkpt>
      <trkpt lat="44.52321" lon="1.86123">
        <ele>311</ele>
        <time>2019-08-06T09:50:36.729Z</time>
      </trkpt>
      <trkpt lat="44.52316" lon="1.8612">
        <ele>308</ele>
        <time>2019-08-06T09:50:41.725Z</time>
      </trkpt>
      <trkpt lat="44.52309" lon="1.86117">
        <ele>308</ele>
        <time>2019-08-06T09:50:46.717Z</time>
      </trkpt>
      <trkpt lat="44.52302" lon="1.86113">
        <ele>308</ele>
        <time>2019-08-06T09:50:51.722Z</time>
      </trkpt>
      <trkpt lat="44.52295" lon="1.86107">
        <ele>308</ele>
        <time>2019-08-06T09:50:56.713Z</time>
      </trkpt>
      <trkpt lat="44.52287" lon="1.86103">
        <ele>308</ele>
        <time>2019-08-06T09:51:01.722Z</time>
      </trkpt>
      <trkpt lat="44.52285" lon="1.86104">
        <ele>308</ele>
        <time>2019-08-06T09:51:06.727Z</time>
      </trkpt>
      <trkpt lat="44.52284" lon="1.86104">
        <ele>308</ele>
        <time>2019-08-06T09:51:11.727Z</time>
      </trkpt>
      <trkpt lat="44.52283" lon="1.86103">
        <ele>308</ele>
        <time>2019-08-06T09:51:16.717Z</time>
      </trkpt>
      <trkpt lat="44.52281" lon="1.86099">
        <ele>308</ele>
        <time>2019-08-06T09:51:21.722Z</time>
      </trkpt>
      <trkpt lat="44.5228" lon="1.86095">
        <ele>307</ele>
        <time>2019-08-06T09:51:26.720Z</time>
      </trkpt>
      <trkpt lat="44.52279" lon="1.86095">
        <ele>307</ele>
        <time>2019-08-06T09:51:30.738Z</time>
      </trkpt>
      <trkpt lat="44.52275" lon="1.86092">
        <ele>307</ele>
        <time>2019-08-06T09:51:35.727Z</time>
      </trkpt>
      <trkpt lat="44.52274" lon="1.86088">
        <ele>307</ele>
        <time>2019-08-06T09:51:40.742Z</time>
      </trkpt>
      <trkpt lat="44.52273" lon="1.86088">
        <ele>307</ele>
        <time>2019-08-06T09:51:45.732Z</time>
      </trkpt>
      <trkpt lat="44.52273" lon="1.86088">
        <ele>307</ele>
        <time>2019-08-06T09:51:50.716Z</time>
      </trkpt>
      <trkpt lat="44.52267" lon="1.86086">
        <ele>307</ele>
        <time>2019-08-06T09:51:55.741Z</time>
      </trkpt>
      <trkpt lat="44.52259" lon="1.86078">
        <ele>308</ele>
        <time>2019-08-06T09:52:00.735Z</time>
      </trkpt>
      <trkpt lat="44.52252" lon="1.8607">
        <ele>308</ele>
        <time>2019-08-06T09:52:05.726Z</time>
      </trkpt>
      <trkpt lat="44.52246" lon="1.8606">
        <ele>307</ele>
        <time>2019-08-06T09:52:10.745Z</time>
      </trkpt>
      <trkpt lat="44.5224" lon="1.86051">
        <ele>307</ele>
        <time>2019-08-06T09:52:15.720Z</time>
      </trkpt>
      <trkpt lat="44.52235" lon="1.8604">
        <ele>309</ele>
        <time>2019-08-06T09:52:20.725Z</time>
      </trkpt>
      <trkpt lat="44.5223" lon="1.86035">
        <ele>309</ele>
        <time>2019-08-06T09:52:25.725Z</time>
      </trkpt>
      <trkpt lat="44.52224" lon="1.86031">
        <ele>309</ele>
        <time>2019-08-06T09:52:30.725Z</time>
      </trkpt>
      <trkpt lat="44.52217" lon="1.86029">
        <ele>309</ele>
        <time>2019-08-06T09:52:35.734Z</time>
      </trkpt>
      <trkpt lat="44.5221" lon="1.86025">
        <ele>309</ele>
        <time>2019-08-06T09:52:40.722Z</time>
      </trkpt>
      <trkpt lat="44.52202" lon="1.86026">
        <ele>310</ele>
        <time>2019-08-06T09:52:45.742Z</time>
      </trkpt>
      <trkpt lat="44.52195" lon="1.86028">
        <ele>310</ele>
        <time>2019-08-06T09:52:50.727Z</time>
      </trkpt>
      <trkpt lat="44.5219" lon="1.86028">
        <ele>310</ele>
        <time>2019-08-06T09:52:55.719Z</time>
      </trkpt>
      <trkpt lat="44.52184" lon="1.86029">
        <ele>310</ele>
        <time>2019-08-06T09:53:00.721Z</time>
      </trkpt>
      <trkpt lat="44.52176" lon="1.8603">
        <ele>308</ele>
        <time>2019-08-06T09:53:05.727Z</time>
      </trkpt>
      <trkpt lat="44.52169" lon="1.86032">
        <ele>308</ele>
        <time>2019-08-06T09:53:09.741Z</time>
      </trkpt>
      <trkpt lat="44.52161" lon="1.86034">
        <ele>308</ele>
        <time>2019-08-06T09:53:14.719Z</time>
      </trkpt>
      <trkpt lat="44.52154" lon="1.86031">
        <ele>308</ele>
        <time>2019-08-06T09:53:19.711Z</time>
      </trkpt>
      <trkpt lat="44.52149" lon="1.8603">
        <ele>307</ele>
        <time>2019-08-06T09:53:23.725Z</time>
      </trkpt>
      <trkpt lat="44.52142" lon="1.86031">
        <ele>307</ele>
        <time>2019-08-06T09:53:28.721Z</time>
      </trkpt>
      <trkpt lat="44.52134" lon="1.86032">
        <ele>307</ele>
        <time>2019-08-06T09:53:33.724Z</time>
      </trkpt>
      <trkpt lat="44.52129" lon="1.86033">
        <ele>307</ele>
        <time>2019-08-06T09:53:38.739Z</time>
      </trkpt>
      <trkpt lat="44.52119" lon="1.86029">
        <ele>306</ele>
        <time>2019-08-06T09:53:43.725Z</time>
      </trkpt>
      <trkpt lat="44.52111" lon="1.86028">
        <ele>306</ele>
        <time>2019-08-06T09:53:48.713Z</time>
      </trkpt>
      <trkpt lat="44.52104" lon="1.86025">
        <ele>306</ele>
        <time>2019-08-06T09:53:52.730Z</time>
      </trkpt>
      <trkpt lat="44.52098" lon="1.86023">
        <ele>306</ele>
        <time>2019-08-06T09:53:56.747Z</time>
      </trkpt>
      <trkpt lat="44.52092" lon="1.86021">
        <ele>306</ele>
        <time>2019-08-06T09:54:01.731Z</time>
      </trkpt>
      <trkpt lat="44.52084" lon="1.86017">
        <ele>306</ele>
        <time>2019-08-06T09:54:06.722Z</time>
      </trkpt>
      <trkpt lat="44.52078" lon="1.86017">
        <ele>306</ele>
        <time>2019-08-06T09:54:11.729Z</time>
      </trkpt>
      <trkpt lat="44.5207" lon="1.86012">
        <ele>303</ele>
        <time>2019-08-06T09:54:16.728Z</time>
      </trkpt>
      <trkpt lat="44.52064" lon="1.86008">
        <ele>308</ele>
        <time>2019-08-06T09:54:20.744Z</time>
      </trkpt>
      <trkpt lat="44.52058" lon="1.86003">
        <ele>308</ele>
        <time>2019-08-06T09:54:25.732Z</time>
      </trkpt>
      <trkpt lat="44.52051" lon="1.85998">
        <ele>308</ele>
        <time>2019-08-06T09:54:30.723Z</time>
      </trkpt>
      <trkpt lat="44.52044" lon="1.85994">
        <ele>308</ele>
        <time>2019-08-06T09:54:35.727Z</time>
      </trkpt>
      <trkpt lat="44.52038" lon="1.85989">
        <ele>313</ele>
        <time>2019-08-06T09:54:39.767Z</time>
      </trkpt>
      <trkpt lat="44.52029" lon="1.85986">
        <ele>313</ele>
        <time>2019-08-06T09:54:44.732Z</time>
      </trkpt>
      <trkpt lat="44.52024" lon="1.85982">
        <ele>311</ele>
        <time>2019-08-06T09:54:49.731Z</time>
      </trkpt>
      <trkpt lat="44.52017" lon="1.85978">
        <ele>311</ele>
        <time>2019-08-06T09:54:54.740Z</time>
      </trkpt>
      <trkpt lat="44.52011" lon="1.85975">
        <ele>313</ele>
        <time>2019-08-06T09:54:59.727Z</time>
      </trkpt>
      <trkpt lat="44.52003" lon="1.85969">
        <ele>313</ele>
        <time>2019-08-06T09:55:04.729Z</time>
      </trkpt>
      <trkpt lat="44.51996" lon="1.85965">
        <ele>313</ele>
        <time>2019-08-06T09:55:09.730Z</time>
      </trkpt>
      <trkpt lat="44.5199" lon="1.85966">
        <ele>313</ele>
        <time>2019-08-06T09:55:13.743Z</time>
      </trkpt>
      <trkpt lat="44.51983" lon="1.85968">
        <ele>313</ele>
        <time>2019-08-06T09:55:18.736Z</time>
      </trkpt>
      <trkpt lat="44.51977" lon="1.85965">
        <ele>313</ele>
        <time>2019-08-06T09:55:23.724Z</time>
      </trkpt>
      <trkpt lat="44.51969" lon="1.85962">
        <ele>313</ele>
        <time>2019-08-06T09:55:28.716Z</time>
      </trkpt>
      <trkpt lat="44.51962" lon="1.85961">
        <ele>313</ele>
        <time>2019-08-06T09:55:33.728Z</time>
      </trkpt>
      <trkpt lat="44.51953" lon="1.85961">
        <ele>314</ele>
        <time>2019-08-06T09:55:38.727Z</time>
      </trkpt>
      <trkpt lat="44.51945" lon="1.85961">
        <ele>314</ele>
        <time>2019-08-06T09:55:43.727Z</time>
      </trkpt>
      <trkpt lat="44.51939" lon="1.8596">
        <ele>314</ele>
        <time>2019-08-06T09:55:48.721Z</time>
      </trkpt>
      <trkpt lat="44.51932" lon="1.85961">
        <ele>314</ele>
        <time>2019-08-06T09:55:53.728Z</time>
      </trkpt>
      <trkpt lat="44.51926" lon="1.8596">
        <ele>313</ele>
        <time>2019-08-06T09:55:57.732Z</time>
      </trkpt>
      <trkpt lat="44.51917" lon="1.8596">
        <ele>313</ele>
        <time>2019-08-06T09:56:02.757Z</time>
      </trkpt>
      <trkpt lat="44.51911" lon="1.85959">
        <ele>313</ele>
        <time>2019-08-06T09:56:07.725Z</time>
      </trkpt>
      <trkpt lat="44.51903" lon="1.85958">
        <ele>313</ele>
        <time>2019-08-06T09:56:12.731Z</time>
      </trkpt>
      <trkpt lat="44.51895" lon="1.85959">
        <ele>313</ele>
        <time>2019-08-06T09:56:17.723Z</time>
      </trkpt>
      <trkpt lat="44.5189" lon="1.85958">
        <ele>313</ele>
        <time>2019-08-06T09:56:22.721Z</time>
      </trkpt>
      <trkpt lat="44.51881" lon="1.85958">
        <ele>313</ele>
        <time>2019-08-06T09:56:27.717Z</time>
      </trkpt>
      <trkpt lat="44.51872" lon="1.85958">
        <ele>310</ele>
        <time>2019-08-06T09:56:32.728Z</time>
      </trkpt>
      <trkpt lat="44.51865" lon="1.85957">
        <ele>310</ele>
        <time>2019-08-06T09:56:37.720Z</time>
      </trkpt>
      <trkpt lat="44.51856" lon="1.85958">
        <ele>310</ele>
        <time>2019-08-06T09:56:42.726Z</time>
      </trkpt>
      <trkpt lat="44.51848" lon="1.85959">
        <ele>312</ele>
        <time>2019-08-06T09:56:47.732Z</time>
      </trkpt>
      <trkpt lat="44.51841" lon="1.8596">
        <ele>311</ele>
        <time>2019-08-06T09:56:52.728Z</time>
      </trkpt>
      <trkpt lat="44.51833" lon="1.8596">
        <ele>311</ele>
        <time>2019-08-06T09:56:57.726Z</time>
      </trkpt>
      <trkpt lat="44.51826" lon="1.85956">
        <ele>310</ele>
        <time>2019-08-06T09:57:02.733Z</time>
      </trkpt>
      <trkpt lat="44.51821" lon="1.85952">
        <ele>310</ele>
        <time>2019-08-06T09:57:07.722Z</time>
      </trkpt>
      <trkpt lat="44.51812" lon="1.85947">
        <ele>309</ele>
        <time>2019-08-06T09:57:12.699Z</time>
      </trkpt>
      <trkpt lat="44.51806" lon="1.85944">
        <ele>309</ele>
        <time>2019-08-06T09:57:16.719Z</time>
      </trkpt>
      <trkpt lat="44.51797" lon="1.85938">
        <ele>309</ele>
        <time>2019-08-06T09:57:21.724Z</time>
      </trkpt>
      <trkpt lat="44.51792" lon="1.85931">
        <ele>309</ele>
        <time>2019-08-06T09:57:26.722Z</time>
      </trkpt>
      <trkpt lat="44.51791" lon="1.85933">
        <ele>307</ele>
        <time>2019-08-06T09:57:30.726Z</time>
      </trkpt>
      <trkpt lat="44.51791" lon="1.85932">
        <ele>307</ele>
        <time>2019-08-06T09:57:39.746Z</time>
      </trkpt>
      <trkpt lat="44.51791" lon="1.85932">
        <ele>307</ele>
        <time>2019-08-06T09:57:44.730Z</time>
      </trkpt>
      <trkpt lat="44.51789" lon="1.85929">
        <ele>308</ele>
        <time>2019-08-06T09:57:49.734Z</time>
      </trkpt>
      <trkpt lat="44.51784" lon="1.85925">
        <ele>308</ele>
        <time>2019-08-06T09:57:54.753Z</time>
      </trkpt>
      <trkpt lat="44.51776" lon="1.85923">
        <ele>308</ele>
        <time>2019-08-06T09:57:59.723Z</time>
      </trkpt>
      <trkpt lat="44.5177" lon="1.85917">
        <ele>308</ele>
        <time>2019-08-06T09:58:04.728Z</time>
      </trkpt>
      <trkpt lat="44.51765" lon="1.85914">
        <ele>308</ele>
        <time>2019-08-06T09:58:09.715Z</time>
      </trkpt>
      <trkpt lat="44.51761" lon="1.85911">
        <ele>309</ele>
        <time>2019-08-06T09:58:13.740Z</time>
      </trkpt>
      <trkpt lat="44.51754" lon="1.85908">
        <ele>309</ele>
        <time>2019-08-06T09:58:18.724Z</time>
      </trkpt>
      <trkpt lat="44.51747" lon="1.85903">
        <ele>309</ele>
        <time>2019-08-06T09:58:23.731Z</time>
      </trkpt>
      <trkpt lat="44.51739" lon="1.85898">
        <ele>310</ele>
        <time>2019-08-06T09:58:28.739Z</time>
      </trkpt>
      <trkpt lat="44.5173" lon="1.85892">
        <ele>311</ele>
        <time>2019-08-06T09:58:33.725Z</time>
      </trkpt>
      <trkpt lat="44.51723" lon="1.85889">
        <ele>311</ele>
        <time>2019-08-06T09:58:38.722Z</time>
      </trkpt>
      <trkpt lat="44.51718" lon="1.85885">
        <ele>311</ele>
        <time>2019-08-06T09:58:43.753Z</time>
      </trkpt>
      <trkpt lat="44.51712" lon="1.85878">
        <ele>311</ele>
        <time>2019-08-06T09:58:48.732Z</time>
      </trkpt>
      <trkpt lat="44.51707" lon="1.85872">
        <ele>313</ele>
        <time>2019-08-06T09:58:53.727Z</time>
      </trkpt>
      <trkpt lat="44.517" lon="1.85868">
        <ele>313</ele>
        <time>2019-08-06T09:58:58.737Z</time>
      </trkpt>
      <trkpt lat="44.51693" lon="1.85864">
        <ele>313</ele>
        <time>2019-08-06T09:59:03.728Z</time>
      </trkpt>
      <trkpt lat="44.51685" lon="1.85859">
        <ele>313</ele>
        <time>2019-08-06T09:59:08.727Z</time>
      </trkpt>
      <trkpt lat="44.51678" lon="1.85856">
        <ele>314</ele>
        <time>2019-08-06T09:59:13.720Z</time>
      </trkpt>
      <trkpt lat="44.51673" lon="1.85851">
        <ele>314</ele>
        <time>2019-08-06T09:59:18.733Z</time>
      </trkpt>
      <trkpt lat="44.51666" lon="1.85847">
        <ele>314</ele>
        <time>2019-08-06T09:59:38.721Z</time>
      </trkpt>
      <trkpt lat="44.51665" lon="1.85844">
        <ele>314</ele>
        <time>2019-08-06T09:59:43.720Z</time>
      </trkpt>
      <trkpt lat="44.51661" lon="1.85839">
        <ele>314</ele>
        <time>2019-08-06T09:59:48.716Z</time>
      </trkpt>
      <trkpt lat="44.51655" lon="1.85835">
        <ele>314</ele>
        <time>2019-08-06T09:59:53.752Z</time>
      </trkpt>
      <trkpt lat="44.51652" lon="1.85832">
        <ele>313</ele>
        <time>2019-08-06T09:59:58.734Z</time>
      </trkpt>
      <trkpt lat="44.51647" lon="1.85815">
        <ele>315</ele>
        <time>2019-08-06T10:00:46.750Z</time>
      </trkpt>
      <trkpt lat="44.51645" lon="1.8581">
        <ele>315</ele>
        <time>2019-08-06T10:00:51.732Z</time>
      </trkpt>
      <trkpt lat="44.51644" lon="1.8581">
        <ele>315</ele>
        <time>2019-08-06T10:00:56.714Z</time>
      </trkpt>
      <trkpt lat="44.51646" lon="1.85806">
        <ele>315</ele>
        <time>2019-08-06T10:01:00.733Z</time>
      </trkpt>
      <trkpt lat="44.51649" lon="1.85799">
        <ele>315</ele>
        <time>2019-08-06T10:01:05.724Z</time>
      </trkpt>
      <trkpt lat="44.51651" lon="1.8579">
        <ele>315</ele>
        <time>2019-08-06T10:01:10.731Z</time>
      </trkpt>
      <trkpt lat="44.51652" lon="1.8578">
        <ele>315</ele>
        <time>2019-08-06T10:01:15.728Z</time>
      </trkpt>
      <trkpt lat="44.51652" lon="1.8577">
        <ele>315</ele>
        <time>2019-08-06T10:01:20.724Z</time>
      </trkpt>
      <trkpt lat="44.5165" lon="1.85764">
        <ele>314</ele>
        <time>2019-08-06T10:01:25.731Z</time>
      </trkpt>
      <trkpt lat="44.51649" lon="1.85742">
        <ele>314</ele>
        <time>2019-08-06T10:01:38.749Z</time>
      </trkpt>
      <trkpt lat="44.5165" lon="1.85737">
        <ele>314</ele>
        <time>2019-08-06T10:01:43.736Z</time>
      </trkpt>
      <trkpt lat="44.5165" lon="1.85726">
        <ele>313</ele>
        <time>2019-08-06T10:01:48.717Z</time>
      </trkpt>
      <trkpt lat="44.51651" lon="1.85718">
        <ele>313</ele>
        <time>2019-08-06T10:01:53.721Z</time>
      </trkpt>
      <trkpt lat="44.51654" lon="1.85711">
        <ele>315</ele>
        <time>2019-08-06T10:01:58.717Z</time>
      </trkpt>
      <trkpt lat="44.51657" lon="1.85705">
        <ele>315</ele>
        <time>2019-08-06T10:02:03.722Z</time>
      </trkpt>
      <trkpt lat="44.5166" lon="1.857">
        <ele>315</ele>
        <time>2019-08-06T10:02:08.725Z</time>
      </trkpt>
      <trkpt lat="44.51662" lon="1.85692">
        <ele>315</ele>
        <time>2019-08-06T10:02:13.723Z</time>
      </trkpt>
      <trkpt lat="44.51662" lon="1.85685">
        <ele>315</ele>
        <time>2019-08-06T10:02:17.734Z</time>
      </trkpt>
      <trkpt lat="44.51661" lon="1.85678">
        <ele>317</ele>
        <time>2019-08-06T10:02:22.719Z</time>
      </trkpt>
      <trkpt lat="44.51661" lon="1.85667">
        <ele>317</ele>
        <time>2019-08-06T10:02:27.722Z</time>
      </trkpt>
      <trkpt lat="44.51663" lon="1.85657">
        <ele>317</ele>
        <time>2019-08-06T10:02:31.737Z</time>
      </trkpt>
      <trkpt lat="44.51662" lon="1.85647">
        <ele>320</ele>
        <time>2019-08-06T10:02:36.730Z</time>
      </trkpt>
      <trkpt lat="44.51662" lon="1.85636">
        <ele>320</ele>
        <time>2019-08-06T10:02:41.718Z</time>
      </trkpt>
      <trkpt lat="44.51663" lon="1.85624">
        <ele>322</ele>
        <time>2019-08-06T10:02:46.719Z</time>
      </trkpt>
      <trkpt lat="44.51662" lon="1.85614">
        <ele>322</ele>
        <time>2019-08-06T10:02:51.726Z</time>
      </trkpt>
      <trkpt lat="44.51661" lon="1.85602">
        <ele>322</ele>
        <time>2019-08-06T10:02:56.718Z</time>
      </trkpt>
      <trkpt lat="44.5166" lon="1.85592">
        <ele>323</ele>
        <time>2019-08-06T10:03:01.732Z</time>
      </trkpt>
      <trkpt lat="44.51659" lon="1.85585">
        <ele>323</ele>
        <time>2019-08-06T10:03:06.712Z</time>
      </trkpt>
      <trkpt lat="44.51656" lon="1.85578">
        <ele>323</ele>
        <time>2019-08-06T10:03:11.708Z</time>
      </trkpt>
      <trkpt lat="44.51655" lon="1.85569">
        <ele>324</ele>
        <time>2019-08-06T10:03:15.722Z</time>
      </trkpt>
      <trkpt lat="44.51659" lon="1.85553">
        <ele>324</ele>
        <time>2019-08-06T10:03:20.729Z</time>
      </trkpt>
      <trkpt lat="44.51662" lon="1.85547">
        <ele>324</ele>
        <time>2019-08-06T10:03:25.714Z</time>
      </trkpt>
      <trkpt lat="44.51668" lon="1.85544">
        <ele>324</ele>
        <time>2019-08-06T10:03:30.723Z</time>
      </trkpt>
      <trkpt lat="44.51675" lon="1.85543">
        <ele>324</ele>
        <time>2019-08-06T10:03:35.695Z</time>
      </trkpt>
      <trkpt lat="44.5168" lon="1.85541">
        <ele>323</ele>
        <time>2019-08-06T10:03:39.733Z</time>
      </trkpt>
      <trkpt lat="44.51688" lon="1.85539">
        <ele>325</ele>
        <time>2019-08-06T10:03:44.720Z</time>
      </trkpt>
      <trkpt lat="44.51696" lon="1.85536">
        <ele>325</ele>
        <time>2019-08-06T10:03:49.720Z</time>
      </trkpt>
      <trkpt lat="44.51703" lon="1.85529">
        <ele>325</ele>
        <time>2019-08-06T10:03:54.706Z</time>
      </trkpt>
      <trkpt lat="44.51707" lon="1.85522">
        <ele>325</ele>
        <time>2019-08-06T10:03:59.708Z</time>
      </trkpt>
      <trkpt lat="44.51707" lon="1.85518">
        <ele>325</ele>
        <time>2019-08-06T10:04:03.727Z</time>
      </trkpt>
      <trkpt lat="44.5171" lon="1.85508">
        <ele>328</ele>
        <time>2019-08-06T10:04:08.711Z</time>
      </trkpt>
      <trkpt lat="44.51713" lon="1.85497">
        <ele>328</ele>
        <time>2019-08-06T10:04:13.705Z</time>
      </trkpt>
      <trkpt lat="44.51715" lon="1.85488">
        <ele>328</ele>
        <time>2019-08-06T10:04:18.718Z</time>
      </trkpt>
      <trkpt lat="44.51716" lon="1.85476">
        <ele>329</ele>
        <time>2019-08-06T10:04:23.725Z</time>
      </trkpt>
      <trkpt lat="44.51717" lon="1.85466">
        <ele>329</ele>
        <time>2019-08-06T10:04:28.720Z</time>
      </trkpt>
      <trkpt lat="44.51717" lon="1.85456">
        <ele>328</ele>
        <time>2019-08-06T10:04:33.713Z</time>
      </trkpt>
      <trkpt lat="44.51716" lon="1.85448">
        <ele>328</ele>
        <time>2019-08-06T10:04:37.740Z</time>
      </trkpt>
      <trkpt lat="44.51716" lon="1.85438">
        <ele>328</ele>
        <time>2019-08-06T10:04:42.703Z</time>
      </trkpt>
      <trkpt lat="44.51717" lon="1.85429">
        <ele>329</ele>
        <time>2019-08-06T10:04:47.719Z</time>
      </trkpt>
      <trkpt lat="44.51717" lon="1.85416">
        <ele>329</ele>
        <time>2019-08-06T10:04:52.727Z</time>
      </trkpt>
      <trkpt lat="44.51717" lon="1.85405">
        <ele>329</ele>
        <time>2019-08-06T10:04:57.719Z</time>
      </trkpt>
      <trkpt lat="44.51715" lon="1.85395">
        <ele>332</ele>
        <time>2019-08-06T10:05:02.736Z</time>
      </trkpt>
      <trkpt lat="44.51712" lon="1.85386">
        <ele>332</ele>
        <time>2019-08-06T10:05:07.712Z</time>
      </trkpt>
      <trkpt lat="44.5171" lon="1.85377">
        <ele>332</ele>
        <time>2019-08-06T10:05:12.715Z</time>
      </trkpt>
      <trkpt lat="44.5171" lon="1.85368">
        <ele>333</ele>
        <time>2019-08-06T10:05:17.719Z</time>
      </trkpt>
      <trkpt lat="44.51712" lon="1.85363">
        <ele>333</ele>
        <time>2019-08-06T10:05:22.717Z</time>
      </trkpt>
      <trkpt lat="44.51716" lon="1.85353">
        <ele>333</ele>
        <time>2019-08-06T10:05:27.721Z</time>
      </trkpt>
      <trkpt lat="44.51723" lon="1.85346">
        <ele>333</ele>
        <time>2019-08-06T10:05:32.719Z</time>
      </trkpt>
      <trkpt lat="44.5173" lon="1.85339">
        <ele>333</ele>
        <time>2019-08-06T10:05:37.719Z</time>
      </trkpt>
      <trkpt lat="44.51738" lon="1.85334">
        <ele>337</ele>
        <time>2019-08-06T10:05:42.699Z</time>
      </trkpt>
      <trkpt lat="44.51742" lon="1.85329">
        <ele>337</ele>
        <time>2019-08-06T10:05:46.713Z</time>
      </trkpt>
      <trkpt lat="44.51747" lon="1.85326">
        <ele>337</ele>
        <time>2019-08-06T10:05:50.738Z</time>
      </trkpt>
      <trkpt lat="44.51754" lon="1.85324">
        <ele>337</ele>
        <time>2019-08-06T10:05:55.711Z</time>
      </trkpt>
      <trkpt lat="44.51762" lon="1.85321">
        <ele>337</ele>
        <time>2019-08-06T10:06:00.723Z</time>
      </trkpt>
      <trkpt lat="44.51769" lon="1.85319">
        <ele>338</ele>
        <time>2019-08-06T10:06:05.712Z</time>
      </trkpt>
      <trkpt lat="44.51776" lon="1.85315">
        <ele>338</ele>
        <time>2019-08-06T10:06:10.710Z</time>
      </trkpt>
      <trkpt lat="44.51783" lon="1.85309">
        <ele>338</ele>
        <time>2019-08-06T10:06:15.701Z</time>
      </trkpt>
      <trkpt lat="44.51788" lon="1.85303">
        <ele>338</ele>
        <time>2019-08-06T10:06:20.703Z</time>
      </trkpt>
      <trkpt lat="44.51795" lon="1.85297">
        <ele>338</ele>
        <time>2019-08-06T10:06:25.697Z</time>
      </trkpt>
      <trkpt lat="44.51802" lon="1.85292">
        <ele>338</ele>
        <time>2019-08-06T10:06:30.718Z</time>
      </trkpt>
      <trkpt lat="44.5181" lon="1.85285">
        <ele>337</ele>
        <time>2019-08-06T10:06:35.715Z</time>
      </trkpt>
      <trkpt lat="44.51817" lon="1.85282">
        <ele>337</ele>
        <time>2019-08-06T10:06:40.710Z</time>
      </trkpt>
      <trkpt lat="44.51823" lon="1.85277">
        <ele>338</ele>
        <time>2019-08-06T10:06:45.729Z</time>
      </trkpt>
      <trkpt lat="44.51829" lon="1.85271">
        <ele>338</ele>
        <time>2019-08-06T10:06:50.703Z</time>
      </trkpt>
      <trkpt lat="44.51834" lon="1.85264">
        <ele>338</ele>
        <time>2019-08-06T10:06:54.728Z</time>
      </trkpt>
      <trkpt lat="44.51839" lon="1.85257">
        <ele>337</ele>
        <time>2019-08-06T10:06:59.720Z</time>
      </trkpt>
      <trkpt lat="44.51845" lon="1.8525">
        <ele>337</ele>
        <time>2019-08-06T10:07:04.724Z</time>
      </trkpt>
      <trkpt lat="44.51851" lon="1.85242">
        <ele>337</ele>
        <time>2019-08-06T10:07:09.720Z</time>
      </trkpt>
      <trkpt lat="44.51856" lon="1.85234">
        <ele>336</ele>
        <time>2019-08-06T10:07:14.723Z</time>
      </trkpt>
      <trkpt lat="44.5186" lon="1.85226">
        <ele>336</ele>
        <time>2019-08-06T10:07:19.708Z</time>
      </trkpt>
      <trkpt lat="44.51863" lon="1.85218">
        <ele>336</ele>
        <time>2019-08-06T10:07:24.708Z</time>
      </trkpt>
      <trkpt lat="44.51867" lon="1.85214">
        <ele>336</ele>
        <time>2019-08-06T10:07:28.728Z</time>
      </trkpt>
      <trkpt lat="44.51871" lon="1.85206">
        <ele>335</ele>
        <time>2019-08-06T10:07:33.720Z</time>
      </trkpt>
      <trkpt lat="44.51876" lon="1.85201">
        <ele>335</ele>
        <time>2019-08-06T10:07:38.717Z</time>
      </trkpt>
      <trkpt lat="44.51881" lon="1.85195">
        <ele>335</ele>
        <time>2019-08-06T10:07:43.719Z</time>
      </trkpt>
      <trkpt lat="44.51885" lon="1.85193">
        <ele>335</ele>
        <time>2019-08-06T10:07:47.741Z</time>
      </trkpt>
      <trkpt lat="44.51891" lon="1.85186">
        <ele>335</ele>
        <time>2019-08-06T10:07:52.713Z</time>
      </trkpt>
      <trkpt lat="44.51895" lon="1.85181">
        <ele>335</ele>
        <time>2019-08-06T10:07:57.724Z</time>
      </trkpt>
      <trkpt lat="44.519" lon="1.85173">
        <ele>335</ele>
        <time>2019-08-06T10:08:02.709Z</time>
      </trkpt>
      <trkpt lat="44.51903" lon="1.85168">
        <ele>334</ele>
        <time>2019-08-06T10:08:06.735Z</time>
      </trkpt>
      <trkpt lat="44.51907" lon="1.85163">
        <ele>334</ele>
        <time>2019-08-06T10:08:11.715Z</time>
      </trkpt>
      <trkpt lat="44.51912" lon="1.85154">
        <ele>334</ele>
        <time>2019-08-06T10:08:16.715Z</time>
      </trkpt>
      <trkpt lat="44.51916" lon="1.85148">
        <ele>336</ele>
        <time>2019-08-06T10:08:20.732Z</time>
      </trkpt>
      <trkpt lat="44.5192" lon="1.85142">
        <ele>336</ele>
        <time>2019-08-06T10:08:24.744Z</time>
      </trkpt>
      <trkpt lat="44.51926" lon="1.85131">
        <ele>336</ele>
        <time>2019-08-06T10:08:29.725Z</time>
      </trkpt>
      <trkpt lat="44.51929" lon="1.8512">
        <ele>336</ele>
        <time>2019-08-06T10:08:34.716Z</time>
      </trkpt>
      <trkpt lat="44.51932" lon="1.85112">
        <ele>335</ele>
        <time>2019-08-06T10:08:39.705Z</time>
      </trkpt>
      <trkpt lat="44.51936" lon="1.85104">
        <ele>335</ele>
        <time>2019-08-06T10:08:44.720Z</time>
      </trkpt>
      <trkpt lat="44.51941" lon="1.85093">
        <ele>336</ele>
        <time>2019-08-06T10:08:49.755Z</time>
      </trkpt>
      <trkpt lat="44.51945" lon="1.85083">
        <ele>336</ele>
        <time>2019-08-06T10:08:54.718Z</time>
      </trkpt>
      <trkpt lat="44.5195" lon="1.85076">
        <ele>336</ele>
        <time>2019-08-06T10:08:59.704Z</time>
      </trkpt>
      <trkpt lat="44.51953" lon="1.85066">
        <ele>336</ele>
        <time>2019-08-06T10:09:04.714Z</time>
      </trkpt>
      <trkpt lat="44.51956" lon="1.8506">
        <ele>336</ele>
        <time>2019-08-06T10:09:08.698Z</time>
      </trkpt>
      <trkpt lat="44.51958" lon="1.85053">
        <ele>336</ele>
        <time>2019-08-06T10:09:13.699Z</time>
      </trkpt>
      <trkpt lat="44.51962" lon="1.85045">
        <ele>336</ele>
        <time>2019-08-06T10:09:18.701Z</time>
      </trkpt>
      <trkpt lat="44.51965" lon="1.85038">
        <ele>338</ele>
        <time>2019-08-06T10:09:22.727Z</time>
      </trkpt>
      <trkpt lat="44.51968" lon="1.8503">
        <ele>338</ele>
        <time>2019-08-06T10:09:27.719Z</time>
      </trkpt>
      <trkpt lat="44.51972" lon="1.85022">
        <ele>338</ele>
        <time>2019-08-06T10:09:32.714Z</time>
      </trkpt>
      <trkpt lat="44.51973" lon="1.85016">
        <ele>338</ele>
        <time>2019-08-06T10:09:37.720Z</time>
      </trkpt>
      <trkpt lat="44.51976" lon="1.85009">
        <ele>339</ele>
        <time>2019-08-06T10:09:42.719Z</time>
      </trkpt>
      <trkpt lat="44.51978" lon="1.85001">
        <ele>339</ele>
        <time>2019-08-06T10:09:47.716Z</time>
      </trkpt>
      <trkpt lat="44.51982" lon="1.84992">
        <ele>339</ele>
        <time>2019-08-06T10:09:52.713Z</time>
      </trkpt>
      <trkpt lat="44.51985" lon="1.84981">
        <ele>339</ele>
        <time>2019-08-06T10:09:56.740Z</time>
      </trkpt>
      <trkpt lat="44.51989" lon="1.84967">
        <ele>340</ele>
        <time>2019-08-06T10:10:01.715Z</time>
      </trkpt>
      <trkpt lat="44.51993" lon="1.84956">
        <ele>342</ele>
        <time>2019-08-06T10:10:06.728Z</time>
      </trkpt>
      <trkpt lat="44.51996" lon="1.84945">
        <ele>342</ele>
        <time>2019-08-06T10:10:11.725Z</time>
      </trkpt>
      <trkpt lat="44.52" lon="1.84938">
        <ele>342</ele>
        <time>2019-08-06T10:10:16.700Z</time>
      </trkpt>
      <trkpt lat="44.52001" lon="1.84928">
        <ele>345</ele>
        <time>2019-08-06T10:10:21.721Z</time>
      </trkpt>
      <trkpt lat="44.52003" lon="1.84921">
        <ele>345</ele>
        <time>2019-08-06T10:10:25.733Z</time>
      </trkpt>
      <trkpt lat="44.52005" lon="1.84913">
        <ele>345</ele>
        <time>2019-08-06T10:10:30.724Z</time>
      </trkpt>
      <trkpt lat="44.52006" lon="1.84905">
        <ele>345</ele>
        <time>2019-08-06T10:10:35.747Z</time>
      </trkpt>
      <trkpt lat="44.52007" lon="1.84896">
        <ele>349</ele>
        <time>2019-08-06T10:10:40.701Z</time>
      </trkpt>
      <trkpt lat="44.52007" lon="1.84888">
        <ele>349</ele>
        <time>2019-08-06T10:10:45.707Z</time>
      </trkpt>
      <trkpt lat="44.52009" lon="1.84879">
        <ele>349</ele>
        <time>2019-08-06T10:10:50.701Z</time>
      </trkpt>
      <trkpt lat="44.52009" lon="1.84868">
        <ele>351</ele>
        <time>2019-08-06T10:10:55.705Z</time>
      </trkpt>
      <trkpt lat="44.52011" lon="1.84858">
        <ele>351</ele>
        <time>2019-08-06T10:11:00.732Z</time>
      </trkpt>
      <trkpt lat="44.5201" lon="1.8485">
        <ele>351</ele>
        <time>2019-08-06T10:11:05.719Z</time>
      </trkpt>
      <trkpt lat="44.52011" lon="1.84842">
        <ele>352</ele>
        <time>2019-08-06T10:11:10.717Z</time>
      </trkpt>
      <trkpt lat="44.5201" lon="1.84828">
        <ele>352</ele>
        <time>2019-08-06T10:11:15.718Z</time>
      </trkpt>
      <trkpt lat="44.52011" lon="1.84818">
        <ele>354</ele>
        <time>2019-08-06T10:11:20.734Z</time>
      </trkpt>
      <trkpt lat="44.52012" lon="1.84813">
        <ele>354</ele>
        <time>2019-08-06T10:11:25.723Z</time>
      </trkpt>
      <trkpt lat="44.52013" lon="1.84805">
        <ele>354</ele>
        <time>2019-08-06T10:11:30.707Z</time>
      </trkpt>
      <trkpt lat="44.52015" lon="1.84794">
        <ele>352</ele>
        <time>2019-08-06T10:11:35.720Z</time>
      </trkpt>
      <trkpt lat="44.52018" lon="1.84786">
        <ele>353</ele>
        <time>2019-08-06T10:11:40.698Z</time>
      </trkpt>
      <trkpt lat="44.52022" lon="1.84776">
        <ele>353</ele>
        <time>2019-08-06T10:11:54.700Z</time>
      </trkpt>
      <trkpt lat="44.52022" lon="1.84776">
        <ele>353</ele>
        <time>2019-08-06T10:11:59.707Z</time>
      </trkpt>
      <trkpt lat="44.52023" lon="1.84774">
        <ele>353</ele>
        <time>2019-08-06T10:12:04.697Z</time>
      </trkpt>
      <trkpt lat="44.52025" lon="1.84767">
        <ele>353</ele>
        <time>2019-08-06T10:12:09.719Z</time>
      </trkpt>
      <trkpt lat="44.5203" lon="1.84764">
        <ele>353</ele>
        <time>2019-08-06T10:12:14.692Z</time>
      </trkpt>
      <trkpt lat="44.52034" lon="1.84761">
        <ele>353</ele>
        <time>2019-08-06T10:12:18.735Z</time>
      </trkpt>
      <trkpt lat="44.52039" lon="1.84759">
        <ele>353</ele>
        <time>2019-08-06T10:12:23.708Z</time>
      </trkpt>
      <trkpt lat="44.52043" lon="1.84757">
        <ele>353</ele>
        <time>2019-08-06T10:12:28.704Z</time>
      </trkpt>
      <trkpt lat="44.52046" lon="1.84752">
        <ele>353</ele>
        <time>2019-08-06T10:12:33.720Z</time>
      </trkpt>
      <trkpt lat="44.52049" lon="1.84748">
        <ele>353</ele>
        <time>2019-08-06T10:12:38.707Z</time>
      </trkpt>
      <trkpt lat="44.52056" lon="1.84745">
        <ele>353</ele>
        <time>2019-08-06T10:12:43.719Z</time>
      </trkpt>
      <trkpt lat="44.52058" lon="1.84744">
        <ele>353</ele>
        <time>2019-08-06T10:12:48.711Z</time>
      </trkpt>
      <trkpt lat="44.52062" lon="1.84741">
        <ele>353</ele>
        <time>2019-08-06T10:12:53.716Z</time>
      </trkpt>
      <trkpt lat="44.52067" lon="1.84733">
        <ele>353</ele>
        <time>2019-08-06T10:12:58.701Z</time>
      </trkpt>
      <trkpt lat="44.52074" lon="1.84724">
        <ele>358</ele>
        <time>2019-08-06T10:13:03.715Z</time>
      </trkpt>
      <trkpt lat="44.52079" lon="1.84716">
        <ele>358</ele>
        <time>2019-08-06T10:13:08.697Z</time>
      </trkpt>
      <trkpt lat="44.52082" lon="1.84712">
        <ele>358</ele>
        <time>2019-08-06T10:13:13.709Z</time>
      </trkpt>
      <trkpt lat="44.52093" lon="1.84709">
        <ele>358</ele>
        <time>2019-08-06T10:13:18.701Z</time>
      </trkpt>
      <trkpt lat="44.52097" lon="1.84704">
        <ele>362</ele>
        <time>2019-08-06T10:13:23.706Z</time>
      </trkpt>
      <trkpt lat="44.52101" lon="1.847">
        <ele>362</ele>
        <time>2019-08-06T10:13:27.718Z</time>
      </trkpt>
      <trkpt lat="44.52109" lon="1.84696">
        <ele>362</ele>
        <time>2019-08-06T10:13:32.702Z</time>
      </trkpt>
      <trkpt lat="44.52114" lon="1.84691">
        <ele>362</ele>
        <time>2019-08-06T10:13:37.700Z</time>
      </trkpt>
      <trkpt lat="44.5212" lon="1.84686">
        <ele>362</ele>
        <time>2019-08-06T10:13:41.710Z</time>
      </trkpt>
      <trkpt lat="44.52127" lon="1.84678">
        <ele>369</ele>
        <time>2019-08-06T10:13:46.724Z</time>
      </trkpt>
      <trkpt lat="44.52132" lon="1.84671">
        <ele>369</ele>
        <time>2019-08-06T10:13:51.716Z</time>
      </trkpt>
      <trkpt lat="44.52136" lon="1.84661">
        <ele>369</ele>
        <time>2019-08-06T10:13:56.691Z</time>
      </trkpt>
      <trkpt lat="44.52136" lon="1.84654">
        <ele>369</ele>
        <time>2019-08-06T10:14:00.702Z</time>
      </trkpt>
      <trkpt lat="44.52135" lon="1.84645">
        <ele>369</ele>
        <time>2019-08-06T10:14:05.724Z</time>
      </trkpt>
      <trkpt lat="44.52131" lon="1.84638">
        <ele>369</ele>
        <time>2019-08-06T10:14:10.698Z</time>
      </trkpt>
      <trkpt lat="44.52128" lon="1.84627">
        <ele>369</ele>
        <time>2019-08-06T10:14:15.704Z</time>
      </trkpt>
      <trkpt lat="44.52125" lon="1.84617">
        <ele>366</ele>
        <time>2019-08-06T10:14:20.752Z</time>
      </trkpt>
      <trkpt lat="44.52121" lon="1.84608">
        <ele>366</ele>
        <time>2019-08-06T10:14:25.710Z</time>
      </trkpt>
      <trkpt lat="44.52117" lon="1.84601">
        <ele>366</ele>
        <time>2019-08-06T10:14:29.732Z</time>
      </trkpt>
      <trkpt lat="44.52114" lon="1.84592">
        <ele>366</ele>
        <time>2019-08-06T10:14:34.699Z</time>
      </trkpt>
      <trkpt lat="44.52112" lon="1.84586">
        <ele>366</ele>
        <time>2019-08-06T10:14:38.704Z</time>
      </trkpt>
      <trkpt lat="44.52108" lon="1.84579">
        <ele>366</ele>
        <time>2019-08-06T10:14:43.722Z</time>
      </trkpt>
      <trkpt lat="44.52104" lon="1.84572">
        <ele>366</ele>
        <time>2019-08-06T10:14:48.691Z</time>
      </trkpt>
      <trkpt lat="44.521" lon="1.84566">
        <ele>367</ele>
        <time>2019-08-06T10:14:52.710Z</time>
      </trkpt>
      <trkpt lat="44.52096" lon="1.84561">
        <ele>367</ele>
        <time>2019-08-06T10:14:57.734Z</time>
      </trkpt>
      <trkpt lat="44.52092" lon="1.84557">
        <ele>367</ele>
        <time>2019-08-06T10:15:02.699Z</time>
      </trkpt>
      <trkpt lat="44.52091" lon="1.84555">
        <ele>367</ele>
        <time>2019-08-06T10:15:07.718Z</time>
      </trkpt>
      <trkpt lat="44.52086" lon="1.84547">
        <ele>367</ele>
        <time>2019-08-06T10:15:12.699Z</time>
      </trkpt>
      <trkpt lat="44.52083" lon="1.84543">
        <ele>367</ele>
        <time>2019-08-06T10:15:16.706Z</time>
      </trkpt>
      <trkpt lat="44.5208" lon="1.84537">
        <ele>368</ele>
        <time>2019-08-06T10:15:20.707Z</time>
      </trkpt>
      <trkpt lat="44.52077" lon="1.84527">
        <ele>368</ele>
        <time>2019-08-06T10:15:25.719Z</time>
      </trkpt>
      <trkpt lat="44.52072" lon="1.8452">
        <ele>368</ele>
        <time>2019-08-06T10:15:30.697Z</time>
      </trkpt>
      <trkpt lat="44.52068" lon="1.84514">
        <ele>372</ele>
        <time>2019-08-06T10:15:35.715Z</time>
      </trkpt>
      <trkpt lat="44.52064" lon="1.84507">
        <ele>372</ele>
        <time>2019-08-06T10:15:40.687Z</time>
      </trkpt>
      <trkpt lat="44.52062" lon="1.84505">
        <ele>372</ele>
        <time>2019-08-06T10:15:45.715Z</time>
      </trkpt>
      <trkpt lat="44.52058" lon="1.84502">
        <ele>372</ele>
        <time>2019-08-06T10:15:49.730Z</time>
      </trkpt>
      <trkpt lat="44.52054" lon="1.84493">
        <ele>372</ele>
        <time>2019-08-06T10:15:54.709Z</time>
      </trkpt>
      <trkpt lat="44.5205" lon="1.84488">
        <ele>372</ele>
        <time>2019-08-06T10:15:59.716Z</time>
      </trkpt>
      <trkpt lat="44.52044" lon="1.84479">
        <ele>372</ele>
        <time>2019-08-06T10:16:04.712Z</time>
      </trkpt>
      <trkpt lat="44.5204" lon="1.84476">
        <ele>375</ele>
        <time>2019-08-06T10:16:09.715Z</time>
      </trkpt>
      <trkpt lat="44.52038" lon="1.84477">
        <ele>375</ele>
        <time>2019-08-06T10:16:14.703Z</time>
      </trkpt>
      <trkpt lat="44.52032" lon="1.84476">
        <ele>375</ele>
        <time>2019-08-06T10:16:19.719Z</time>
      </trkpt>
      <trkpt lat="44.52028" lon="1.84469">
        <ele>375</ele>
        <time>2019-08-06T10:16:24.701Z</time>
      </trkpt>
      <trkpt lat="44.52024" lon="1.84464">
        <ele>375</ele>
        <time>2019-08-06T10:16:28.730Z</time>
      </trkpt>
      <trkpt lat="44.52018" lon="1.84459">
        <ele>375</ele>
        <time>2019-08-06T10:16:33.705Z</time>
      </trkpt>
      <trkpt lat="44.52015" lon="1.84452">
        <ele>375</ele>
        <time>2019-08-06T10:16:38.704Z</time>
      </trkpt>
      <trkpt lat="44.52012" lon="1.84446">
        <ele>377</ele>
        <time>2019-08-06T10:16:43.710Z</time>
      </trkpt>
      <trkpt lat="44.52009" lon="1.84442">
        <ele>377</ele>
        <time>2019-08-06T10:16:47.720Z</time>
      </trkpt>
      <trkpt lat="44.52003" lon="1.84436">
        <ele>377</ele>
        <time>2019-08-06T10:16:52.701Z</time>
      </trkpt>
      <trkpt lat="44.51999" lon="1.84433">
        <ele>377</ele>
        <time>2019-08-06T10:16:56.727Z</time>
      </trkpt>
      <trkpt lat="44.51995" lon="1.84428">
        <ele>376</ele>
        <time>2019-08-06T10:17:01.704Z</time>
      </trkpt>
      <trkpt lat="44.51991" lon="1.84419">
        <ele>376</ele>
        <time>2019-08-06T10:17:06.684Z</time>
      </trkpt>
      <trkpt lat="44.51985" lon="1.84412">
        <ele>375</ele>
        <time>2019-08-06T10:17:10.696Z</time>
      </trkpt>
      <trkpt lat="44.51979" lon="1.844">
        <ele>376</ele>
        <time>2019-08-06T10:17:15.725Z</time>
      </trkpt>
      <trkpt lat="44.51971" lon="1.8439">
        <ele>376</ele>
        <time>2019-08-06T10:17:20.700Z</time>
      </trkpt>
      <trkpt lat="44.51966" lon="1.84382">
        <ele>376</ele>
        <time>2019-08-06T10:17:25.716Z</time>
      </trkpt>
      <trkpt lat="44.5196" lon="1.84377">
        <ele>376</ele>
        <time>2019-08-06T10:17:30.689Z</time>
      </trkpt>
      <trkpt lat="44.51955" lon="1.84368">
        <ele>376</ele>
        <time>2019-08-06T10:17:35.716Z</time>
      </trkpt>
      <trkpt lat="44.51949" lon="1.84361">
        <ele>376</ele>
        <time>2019-08-06T10:17:40.690Z</time>
      </trkpt>
      <trkpt lat="44.51944" lon="1.84355">
        <ele>376</ele>
        <time>2019-08-06T10:17:45.697Z</time>
      </trkpt>
      <trkpt lat="44.51939" lon="1.84348">
        <ele>376</ele>
        <time>2019-08-06T10:17:50.707Z</time>
      </trkpt>
      <trkpt lat="44.51935" lon="1.84342">
        <ele>377</ele>
        <time>2019-08-06T10:17:55.717Z</time>
      </trkpt>
      <trkpt lat="44.5193" lon="1.84335">
        <ele>376</ele>
        <time>2019-08-06T10:18:00.701Z</time>
      </trkpt>
      <trkpt lat="44.51921" lon="1.84323">
        <ele>376</ele>
        <time>2019-08-06T10:18:05.711Z</time>
      </trkpt>
      <trkpt lat="44.51902" lon="1.84302">
        <ele>377</ele>
        <time>2019-08-06T10:18:10.739Z</time>
      </trkpt>
      <trkpt lat="44.51893" lon="1.84291">
        <ele>378</ele>
        <time>2019-08-06T10:18:15.724Z</time>
      </trkpt>
      <trkpt lat="44.51891" lon="1.8429">
        <ele>378</ele>
        <time>2019-08-06T10:18:20.701Z</time>
      </trkpt>
      <trkpt lat="44.51885" lon="1.84286">
        <ele>378</ele>
        <time>2019-08-06T10:18:25.700Z</time>
      </trkpt>
      <trkpt lat="44.5188" lon="1.8428">
        <ele>378</ele>
        <time>2019-08-06T10:18:30.708Z</time>
      </trkpt>
      <trkpt lat="44.51876" lon="1.84271">
        <ele>378</ele>
        <time>2019-08-06T10:18:35.716Z</time>
      </trkpt>
      <trkpt lat="44.51872" lon="1.84264">
        <ele>379</ele>
        <time>2019-08-06T10:18:40.735Z</time>
      </trkpt>
      <trkpt lat="44.51866" lon="1.84256">
        <ele>381</ele>
        <time>2019-08-06T10:18:45.704Z</time>
      </trkpt>
      <trkpt lat="44.51862" lon="1.84253">
        <ele>381</ele>
        <time>2019-08-06T10:18:50.696Z</time>
      </trkpt>
      <trkpt lat="44.51858" lon="1.8425">
        <ele>381</ele>
        <time>2019-08-06T10:18:55.718Z</time>
      </trkpt>
      <trkpt lat="44.51857" lon="1.84249">
        <ele>381</ele>
        <time>2019-08-06T10:19:00.712Z</time>
      </trkpt>
      <trkpt lat="44.51852" lon="1.84245">
        <ele>381</ele>
        <time>2019-08-06T10:19:05.718Z</time>
      </trkpt>
      <trkpt lat="44.51847" lon="1.84241">
        <ele>381</ele>
        <time>2019-08-06T10:19:10.725Z</time>
      </trkpt>
      <trkpt lat="44.51841" lon="1.84236">
        <ele>381</ele>
        <time>2019-08-06T10:19:15.725Z</time>
      </trkpt>
      <trkpt lat="44.51835" lon="1.84232">
        <ele>381</ele>
        <time>2019-08-06T10:19:20.705Z</time>
      </trkpt>
      <trkpt lat="44.5183" lon="1.84229">
        <ele>381</ele>
        <time>2019-08-06T10:19:25.727Z</time>
      </trkpt>
      <trkpt lat="44.51824" lon="1.84224">
        <ele>381</ele>
        <time>2019-08-06T10:19:30.707Z</time>
      </trkpt>
      <trkpt lat="44.51817" lon="1.84218">
        <ele>382</ele>
        <time>2019-08-06T10:19:35.729Z</time>
      </trkpt>
      <trkpt lat="44.51813" lon="1.84215">
        <ele>382</ele>
        <time>2019-08-06T10:19:40.730Z</time>
      </trkpt>
      <trkpt lat="44.51807" lon="1.84212">
        <ele>382</ele>
        <time>2019-08-06T10:19:45.723Z</time>
      </trkpt>
      <trkpt lat="44.518" lon="1.84207">
        <ele>380</ele>
        <time>2019-08-06T10:19:50.721Z</time>
      </trkpt>
      <trkpt lat="44.51796" lon="1.84203">
        <ele>380</ele>
        <time>2019-08-06T10:19:55.709Z</time>
      </trkpt>
      <trkpt lat="44.51793" lon="1.84199">
        <ele>380</ele>
        <time>2019-08-06T10:20:00.717Z</time>
      </trkpt>
      <trkpt lat="44.51788" lon="1.84193">
        <ele>381</ele>
        <time>2019-08-06T10:20:04.749Z</time>
      </trkpt>
      <trkpt lat="44.51784" lon="1.84188">
        <ele>381</ele>
        <time>2019-08-06T10:20:09.734Z</time>
      </trkpt>
      <trkpt lat="44.5178" lon="1.84182">
        <ele>381</ele>
        <time>2019-08-06T10:20:14.710Z</time>
      </trkpt>
      <trkpt lat="44.51774" lon="1.84175">
        <ele>378</ele>
        <time>2019-08-06T10:20:19.720Z</time>
      </trkpt>
      <trkpt lat="44.5177" lon="1.8417">
        <ele>378</ele>
        <time>2019-08-06T10:20:24.710Z</time>
      </trkpt>
      <trkpt lat="44.51767" lon="1.84163">
        <ele>378</ele>
        <time>2019-08-06T10:20:28.728Z</time>
      </trkpt>
      <trkpt lat="44.51762" lon="1.84153">
        <ele>376</ele>
        <time>2019-08-06T10:20:33.706Z</time>
      </trkpt>
      <trkpt lat="44.51759" lon="1.84146">
        <ele>376</ele>
        <time>2019-08-06T10:20:38.693Z</time>
      </trkpt>
      <trkpt lat="44.51757" lon="1.84143">
        <ele>376</ele>
        <time>2019-08-06T10:20:43.713Z</time>
      </trkpt>
      <trkpt lat="44.51753" lon="1.8414">
        <ele>376</ele>
        <time>2019-08-06T10:20:48.699Z</time>
      </trkpt>
      <trkpt lat="44.51752" lon="1.84137">
        <ele>376</ele>
        <time>2019-08-06T10:20:52.696Z</time>
      </trkpt>
      <trkpt lat="44.51746" lon="1.84132">
        <ele>376</ele>
        <time>2019-08-06T10:20:56.741Z</time>
      </trkpt>
      <trkpt lat="44.51732" lon="1.84117">
        <ele>375</ele>
        <time>2019-08-06T10:21:02.675Z</time>
      </trkpt>
      <trkpt lat="44.51715" lon="1.84093">
        <ele>372</ele>
        <time>2019-08-06T10:21:06.694Z</time>
      </trkpt>
      <trkpt lat="44.51702" lon="1.84065">
        <ele>371</ele>
        <time>2019-08-06T10:21:11.682Z</time>
      </trkpt>
      <trkpt lat="44.51697" lon="1.84059">
        <ele>371</ele>
        <time>2019-08-06T10:21:15.698Z</time>
      </trkpt>
      <trkpt lat="44.51693" lon="1.84054">
        <ele>371</ele>
        <time>2019-08-06T10:21:19.702Z</time>
      </trkpt>
      <trkpt lat="44.51685" lon="1.84047">
        <ele>371</ele>
        <time>2019-08-06T10:21:24.711Z</time>
      </trkpt>
      <trkpt lat="44.5168" lon="1.84039">
        <ele>370</ele>
        <time>2019-08-06T10:21:28.732Z</time>
      </trkpt>
      <trkpt lat="44.51673" lon="1.8403">
        <ele>370</ele>
        <time>2019-08-06T10:21:33.716Z</time>
      </trkpt>
      <trkpt lat="44.51666" lon="1.84024">
        <ele>370</ele>
        <time>2019-08-06T10:21:38.724Z</time>
      </trkpt>
      <trkpt lat="44.51663" lon="1.8402">
        <ele>370</ele>
        <time>2019-08-06T10:21:41.735Z</time>
      </trkpt>
      <trkpt lat="44.51657" lon="1.84016">
        <ele>370</ele>
        <time>2019-08-06T10:21:46.691Z</time>
      </trkpt>
      <trkpt lat="44.51651" lon="1.84005">
        <ele>371</ele>
        <time>2019-08-06T10:21:51.682Z</time>
      </trkpt>
      <trkpt lat="44.51649" lon="1.84">
        <ele>371</ele>
        <time>2019-08-06T10:21:56.694Z</time>
      </trkpt>
      <trkpt lat="44.51648" lon="1.84">
        <ele>371</ele>
        <time>2019-08-06T10:22:01.689Z</time>
      </trkpt>
      <trkpt lat="44.51645" lon="1.83998">
        <ele>371</ele>
        <time>2019-08-06T10:22:05.701Z</time>
      </trkpt>
      <trkpt lat="44.51642" lon="1.83988">
        <ele>371</ele>
        <time>2019-08-06T10:22:10.697Z</time>
      </trkpt>
      <trkpt lat="44.51642" lon="1.83978">
        <ele>372</ele>
        <time>2019-08-06T10:22:14.711Z</time>
      </trkpt>
      <trkpt lat="44.51642" lon="1.83967">
        <ele>372</ele>
        <time>2019-08-06T10:22:19.712Z</time>
      </trkpt>
      <trkpt lat="44.51641" lon="1.8396">
        <ele>372</ele>
        <time>2019-08-06T10:22:24.722Z</time>
      </trkpt>
      <trkpt lat="44.5164" lon="1.83951">
        <ele>374</ele>
        <time>2019-08-06T10:22:29.717Z</time>
      </trkpt>
      <trkpt lat="44.5164" lon="1.83941">
        <ele>374</ele>
        <time>2019-08-06T10:22:34.711Z</time>
      </trkpt>
      <trkpt lat="44.51641" lon="1.8393">
        <ele>375</ele>
        <time>2019-08-06T10:22:39.714Z</time>
      </trkpt>
      <trkpt lat="44.5164" lon="1.83922">
        <ele>375</ele>
        <time>2019-08-06T10:22:44.715Z</time>
      </trkpt>
      <trkpt lat="44.51639" lon="1.83913">
        <ele>375</ele>
        <time>2019-08-06T10:22:49.718Z</time>
      </trkpt>
      <trkpt lat="44.51637" lon="1.83901">
        <ele>374</ele>
        <time>2019-08-06T10:22:54.743Z</time>
      </trkpt>
      <trkpt lat="44.51636" lon="1.83891">
        <ele>374</ele>
        <time>2019-08-06T10:22:59.719Z</time>
      </trkpt>
      <trkpt lat="44.51637" lon="1.83884">
        <ele>374</ele>
        <time>2019-08-06T10:23:04.713Z</time>
      </trkpt>
      <trkpt lat="44.51636" lon="1.83879">
        <ele>374</ele>
        <time>2019-08-06T10:23:09.714Z</time>
      </trkpt>
      <trkpt lat="44.51637" lon="1.83871">
        <ele>373</ele>
        <time>2019-08-06T10:23:14.724Z</time>
      </trkpt>
      <trkpt lat="44.51637" lon="1.8386">
        <ele>373</ele>
        <time>2019-08-06T10:23:19.725Z</time>
      </trkpt>
      <trkpt lat="44.51634" lon="1.8384">
        <ele>373</ele>
        <time>2019-08-06T10:23:24.709Z</time>
      </trkpt>
      <trkpt lat="44.51632" lon="1.83832">
        <ele>373</ele>
        <time>2019-08-06T10:23:29.690Z</time>
      </trkpt>
      <trkpt lat="44.5163" lon="1.83825">
        <ele>373</ele>
        <time>2019-08-06T10:23:33.728Z</time>
      </trkpt>
      <trkpt lat="44.51629" lon="1.83815">
        <ele>372</ele>
        <time>2019-08-06T10:23:38.708Z</time>
      </trkpt>
      <trkpt lat="44.51624" lon="1.83799">
        <ele>372</ele>
        <time>2019-08-06T10:23:43.705Z</time>
      </trkpt>
      <trkpt lat="44.51621" lon="1.83786">
        <ele>372</ele>
        <time>2019-08-06T10:23:48.708Z</time>
      </trkpt>
      <trkpt lat="44.51619" lon="1.83776">
        <ele>372</ele>
        <time>2019-08-06T10:23:53.703Z</time>
      </trkpt>
      <trkpt lat="44.51615" lon="1.83767">
        <ele>372</ele>
        <time>2019-08-06T10:23:58.720Z</time>
      </trkpt>
      <trkpt lat="44.51613" lon="1.83764">
        <ele>372</ele>
        <time>2019-08-06T10:24:03.712Z</time>
      </trkpt>
      <trkpt lat="44.51611" lon="1.83759">
        <ele>371</ele>
        <time>2019-08-06T10:24:07.725Z</time>
      </trkpt>
      <trkpt lat="44.51607" lon="1.83751">
        <ele>371</ele>
        <time>2019-08-06T10:24:12.717Z</time>
      </trkpt>
      <trkpt lat="44.51602" lon="1.83744">
        <ele>371</ele>
        <time>2019-08-06T10:24:17.704Z</time>
      </trkpt>
      <trkpt lat="44.51599" lon="1.83738">
        <ele>371</ele>
        <time>2019-08-06T10:24:22.704Z</time>
      </trkpt>
      <trkpt lat="44.51595" lon="1.83733">
        <ele>372</ele>
        <time>2019-08-06T10:24:27.704Z</time>
      </trkpt>
      <trkpt lat="44.51591" lon="1.83725">
        <ele>372</ele>
        <time>2019-08-06T10:24:32.730Z</time>
      </trkpt>
      <trkpt lat="44.51587" lon="1.83716">
        <ele>372</ele>
        <time>2019-08-06T10:24:37.714Z</time>
      </trkpt>
      <trkpt lat="44.51583" lon="1.83706">
        <ele>373</ele>
        <time>2019-08-06T10:24:42.723Z</time>
      </trkpt>
      <trkpt lat="44.51581" lon="1.83696">
        <ele>373</ele>
        <time>2019-08-06T10:24:47.721Z</time>
      </trkpt>
      <trkpt lat="44.51581" lon="1.83691">
        <ele>373</ele>
        <time>2019-08-06T10:24:51.688Z</time>
      </trkpt>
      <trkpt lat="44.51579" lon="1.83683">
        <ele>373</ele>
        <time>2019-08-06T10:24:56.707Z</time>
      </trkpt>
      <trkpt lat="44.51578" lon="1.83671">
        <ele>372</ele>
        <time>2019-08-06T10:25:01.727Z</time>
      </trkpt>
      <trkpt lat="44.51579" lon="1.83661">
        <ele>372</ele>
        <time>2019-08-06T10:25:06.715Z</time>
      </trkpt>
      <trkpt lat="44.51578" lon="1.83652">
        <ele>371</ele>
        <time>2019-08-06T10:25:11.711Z</time>
      </trkpt>
      <trkpt lat="44.51577" lon="1.83641">
        <ele>371</ele>
        <time>2019-08-06T10:25:16.708Z</time>
      </trkpt>
      <trkpt lat="44.51577" lon="1.83632">
        <ele>371</ele>
        <time>2019-08-06T10:25:20.725Z</time>
      </trkpt>
      <trkpt lat="44.51577" lon="1.83624">
        <ele>368</ele>
        <time>2019-08-06T10:25:25.720Z</time>
      </trkpt>
      <trkpt lat="44.51578" lon="1.83617">
        <ele>368</ele>
        <time>2019-08-06T10:25:30.716Z</time>
      </trkpt>
      <trkpt lat="44.51578" lon="1.8361">
        <ele>368</ele>
        <time>2019-08-06T10:25:34.723Z</time>
      </trkpt>
      <trkpt lat="44.5158" lon="1.83599">
        <ele>368</ele>
        <time>2019-08-06T10:25:39.714Z</time>
      </trkpt>
      <trkpt lat="44.51582" lon="1.83592">
        <ele>366</ele>
        <time>2019-08-06T10:25:44.728Z</time>
      </trkpt>
      <trkpt lat="44.51582" lon="1.83585">
        <ele>366</ele>
        <time>2019-08-06T10:25:49.714Z</time>
      </trkpt>
      <trkpt lat="44.51579" lon="1.83579">
        <ele>366</ele>
        <time>2019-08-06T10:25:53.727Z</time>
      </trkpt>
      <trkpt lat="44.5158" lon="1.83573">
        <ele>366</ele>
        <time>2019-08-06T10:25:58.713Z</time>
      </trkpt>
      <trkpt lat="44.51584" lon="1.83572">
        <ele>366</ele>
        <time>2019-08-06T10:26:03.706Z</time>
      </trkpt>
      <trkpt lat="44.51588" lon="1.83576">
        <ele>366</ele>
        <time>2019-08-06T10:26:08.715Z</time>
      </trkpt>
      <trkpt lat="44.51593" lon="1.83574">
        <ele>366</ele>
        <time>2019-08-06T10:26:12.740Z</time>
      </trkpt>
      <trkpt lat="44.51598" lon="1.83572">
        <ele>362</ele>
        <time>2019-08-06T10:26:17.707Z</time>
      </trkpt>
      <trkpt lat="44.51618" lon="1.83565">
        <ele>362</ele>
        <time>2019-08-06T10:26:22.708Z</time>
      </trkpt>
      <trkpt lat="44.51619" lon="1.83564">
        <ele>362</ele>
        <time>2019-08-06T10:26:26.739Z</time>
      </trkpt>
      <trkpt lat="44.51624" lon="1.83557">
        <ele>362</ele>
        <time>2019-08-06T10:26:31.749Z</time>
      </trkpt>
      <trkpt lat="44.51621" lon="1.83551">
        <ele>362</ele>
        <time>2019-08-06T10:26:36.711Z</time>
      </trkpt>
      <trkpt lat="44.51616" lon="1.83547">
        <ele>362</ele>
        <time>2019-08-06T10:26:41.707Z</time>
      </trkpt>
      <trkpt lat="44.51615" lon="1.8355">
        <ele>362</ele>
        <time>2019-08-06T10:26:51.742Z</time>
      </trkpt>
      <trkpt lat="44.51615" lon="1.8355">
        <ele>362</ele>
        <time>2019-08-06T10:26:56.728Z</time>
      </trkpt>
      <trkpt lat="44.51614" lon="1.8355">
        <ele>362</ele>
        <time>2019-08-06T10:27:01.730Z</time>
      </trkpt>
      <trkpt lat="44.51609" lon="1.83546">
        <ele>362</ele>
        <time>2019-08-06T10:27:06.714Z</time>
      </trkpt>
      <trkpt lat="44.51604" lon="1.8354">
        <ele>360</ele>
        <time>2019-08-06T10:27:11.702Z</time>
      </trkpt>
      <trkpt lat="44.51598" lon="1.83535">
        <ele>360</ele>
        <time>2019-08-06T10:27:16.722Z</time>
      </trkpt>
      <trkpt lat="44.51594" lon="1.83533">
        <ele>364</ele>
        <time>2019-08-06T10:27:21.764Z</time>
      </trkpt>
      <trkpt lat="44.51587" lon="1.83534">
        <ele>364</ele>
        <time>2019-08-06T10:27:26.727Z</time>
      </trkpt>
      <trkpt lat="44.51584" lon="1.83531">
        <ele>364</ele>
        <time>2019-08-06T10:27:31.716Z</time>
      </trkpt>
      <trkpt lat="44.51582" lon="1.83528">
        <ele>364</ele>
        <time>2019-08-06T10:27:36.738Z</time>
      </trkpt>
      <trkpt lat="44.51581" lon="1.83528">
        <ele>364</ele>
        <time>2019-08-06T10:27:41.735Z</time>
      </trkpt>
      <trkpt lat="44.51581" lon="1.83527">
        <ele>364</ele>
        <time>2019-08-06T10:27:46.714Z</time>
      </trkpt>
      <trkpt lat="44.51579" lon="1.83522">
        <ele>364</ele>
        <time>2019-08-06T10:27:51.715Z</time>
      </trkpt>
      <trkpt lat="44.51578" lon="1.83517">
        <ele>364</ele>
        <time>2019-08-06T10:27:56.722Z</time>
      </trkpt>
      <trkpt lat="44.51577" lon="1.83508">
        <ele>362</ele>
        <time>2019-08-06T10:28:01.725Z</time>
      </trkpt>
      <trkpt lat="44.51575" lon="1.83499">
        <ele>362</ele>
        <time>2019-08-06T10:28:06.713Z</time>
      </trkpt>
      <trkpt lat="44.5157" lon="1.83488">
        <ele>362</ele>
        <time>2019-08-06T10:28:11.756Z</time>
      </trkpt>
      <trkpt lat="44.51567" lon="1.83478">
        <ele>362</ele>
        <time>2019-08-06T10:28:16.716Z</time>
      </trkpt>
      <trkpt lat="44.51565" lon="1.83471">
        <ele>362</ele>
        <time>2019-08-06T10:28:21.723Z</time>
      </trkpt>
      <trkpt lat="44.51562" lon="1.83463">
        <ele>362</ele>
        <time>2019-08-06T10:28:26.717Z</time>
      </trkpt>
      <trkpt lat="44.51561" lon="1.83454">
        <ele>362</ele>
        <time>2019-08-06T10:28:31.712Z</time>
      </trkpt>
      <trkpt lat="44.51559" lon="1.83446">
        <ele>362</ele>
        <time>2019-08-06T10:28:36.722Z</time>
      </trkpt>
      <trkpt lat="44.51557" lon="1.83439">
        <ele>362</ele>
        <time>2019-08-06T10:28:41.692Z</time>
      </trkpt>
      <trkpt lat="44.51553" lon="1.83432">
        <ele>362</ele>
        <time>2019-08-06T10:28:45.733Z</time>
      </trkpt>
      <trkpt lat="44.51548" lon="1.83421">
        <ele>362</ele>
        <time>2019-08-06T10:28:50.715Z</time>
      </trkpt>
      <trkpt lat="44.51543" lon="1.83404">
        <ele>362</ele>
        <time>2019-08-06T10:28:55.720Z</time>
      </trkpt>
      <trkpt lat="44.51539" lon="1.83394">
        <ele>365</ele>
        <time>2019-08-06T10:29:00.701Z</time>
      </trkpt>
      <trkpt lat="44.51536" lon="1.83391">
        <ele>365</ele>
        <time>2019-08-06T10:29:04.713Z</time>
      </trkpt>
      <trkpt lat="44.51535" lon="1.83387">
        <ele>365</ele>
        <time>2019-08-06T10:29:09.717Z</time>
      </trkpt>
      <trkpt lat="44.51532" lon="1.8338">
        <ele>365</ele>
        <time>2019-08-06T10:29:14.718Z</time>
      </trkpt>
      <trkpt lat="44.51529" lon="1.83373">
        <ele>365</ele>
        <time>2019-08-06T10:29:19.712Z</time>
      </trkpt>
      <trkpt lat="44.51525" lon="1.83363">
        <ele>365</ele>
        <time>2019-08-06T10:29:24.749Z</time>
      </trkpt>
      <trkpt lat="44.51522" lon="1.83355">
        <ele>365</ele>
        <time>2019-08-06T10:29:29.699Z</time>
      </trkpt>
      <trkpt lat="44.51518" lon="1.83346">
        <ele>365</ele>
        <time>2019-08-06T10:29:34.704Z</time>
      </trkpt>
      <trkpt lat="44.51514" lon="1.83337">
        <ele>365</ele>
        <time>2019-08-06T10:29:38.717Z</time>
      </trkpt>
      <trkpt lat="44.51513" lon="1.83332">
        <ele>365</ele>
        <time>2019-08-06T10:29:43.706Z</time>
      </trkpt>
      <trkpt lat="44.5151" lon="1.83327">
        <ele>365</ele>
        <time>2019-08-06T10:29:47.716Z</time>
      </trkpt>
      <trkpt lat="44.51507" lon="1.8332">
        <ele>365</ele>
        <time>2019-08-06T10:29:52.705Z</time>
      </trkpt>
      <trkpt lat="44.51502" lon="1.83306">
        <ele>364</ele>
        <time>2019-08-06T10:29:57.714Z</time>
      </trkpt>
      <trkpt lat="44.51499" lon="1.83299">
        <ele>364</ele>
        <time>2019-08-06T10:30:02.721Z</time>
      </trkpt>
      <trkpt lat="44.51495" lon="1.8329">
        <ele>363</ele>
        <time>2019-08-06T10:30:07.730Z</time>
      </trkpt>
      <trkpt lat="44.51493" lon="1.83283">
        <ele>363</ele>
        <time>2019-08-06T10:30:12.721Z</time>
      </trkpt>
      <trkpt lat="44.51491" lon="1.83278">
        <ele>363</ele>
        <time>2019-08-06T10:30:17.718Z</time>
      </trkpt>
      <trkpt lat="44.51489" lon="1.83271">
        <ele>363</ele>
        <time>2019-08-06T10:30:22.722Z</time>
      </trkpt>
      <trkpt lat="44.51487" lon="1.83266">
        <ele>363</ele>
        <time>2019-08-06T10:30:27.714Z</time>
      </trkpt>
      <trkpt lat="44.51483" lon="1.83256">
        <ele>361</ele>
        <time>2019-08-06T10:30:32.712Z</time>
      </trkpt>
      <trkpt lat="44.51479" lon="1.83249">
        <ele>361</ele>
        <time>2019-08-06T10:30:37.715Z</time>
      </trkpt>
      <trkpt lat="44.51479" lon="1.83246">
        <ele>361</ele>
        <time>2019-08-06T10:30:42.713Z</time>
      </trkpt>
      <trkpt lat="44.51476" lon="1.8324">
        <ele>361</ele>
        <time>2019-08-06T10:30:47.701Z</time>
      </trkpt>
      <trkpt lat="44.51473" lon="1.83234">
        <ele>359</ele>
        <time>2019-08-06T10:30:52.693Z</time>
      </trkpt>
      <trkpt lat="44.51469" lon="1.83225">
        <ele>359</ele>
        <time>2019-08-06T10:30:57.702Z</time>
      </trkpt>
      <trkpt lat="44.51466" lon="1.83215">
        <ele>359</ele>
        <time>2019-08-06T10:31:01.725Z</time>
      </trkpt>
      <trkpt lat="44.51462" lon="1.83207">
        <ele>356</ele>
        <time>2019-08-06T10:31:06.693Z</time>
      </trkpt>
      <trkpt lat="44.5146" lon="1.83201">
        <ele>356</ele>
        <time>2019-08-06T10:31:10.701Z</time>
      </trkpt>
      <trkpt lat="44.51459" lon="1.83195">
        <ele>356</ele>
        <time>2019-08-06T10:31:14.720Z</time>
      </trkpt>
      <trkpt lat="44.51457" lon="1.83187">
        <ele>355</ele>
        <time>2019-08-06T10:31:19.703Z</time>
      </trkpt>
      <trkpt lat="44.51455" lon="1.83181">
        <ele>355</ele>
        <time>2019-08-06T10:31:24.718Z</time>
      </trkpt>
      <trkpt lat="44.51453" lon="1.83177">
        <ele>351</ele>
        <time>2019-08-06T10:31:29.718Z</time>
      </trkpt>
      <trkpt lat="44.51453" lon="1.83173">
        <ele>351</ele>
        <time>2019-08-06T10:31:33.728Z</time>
      </trkpt>
      <trkpt lat="44.51452" lon="1.83167">
        <ele>351</ele>
        <time>2019-08-06T10:31:38.732Z</time>
      </trkpt>
      <trkpt lat="44.51451" lon="1.83163">
        <ele>351</ele>
        <time>2019-08-06T10:31:43.729Z</time>
      </trkpt>
      <trkpt lat="44.51449" lon="1.83155">
        <ele>351</ele>
        <time>2019-08-06T10:31:48.721Z</time>
      </trkpt>
      <trkpt lat="44.51448" lon="1.83148">
        <ele>346</ele>
        <time>2019-08-06T10:31:53.736Z</time>
      </trkpt>
      <trkpt lat="44.51447" lon="1.83141">
        <ele>346</ele>
        <time>2019-08-06T10:31:58.685Z</time>
      </trkpt>
      <trkpt lat="44.51444" lon="1.83133">
        <ele>346</ele>
        <time>2019-08-06T10:32:02.704Z</time>
      </trkpt>
      <trkpt lat="44.5144" lon="1.83126">
        <ele>346</ele>
        <time>2019-08-06T10:32:07.706Z</time>
      </trkpt>
      <trkpt lat="44.51439" lon="1.83116">
        <ele>340</ele>
        <time>2019-08-06T10:32:12.692Z</time>
      </trkpt>
      <trkpt lat="44.51436" lon="1.83107">
        <ele>340</ele>
        <time>2019-08-06T10:32:17.720Z</time>
      </trkpt>
      <trkpt lat="44.51435" lon="1.83098">
        <ele>340</ele>
        <time>2019-08-06T10:32:22.718Z</time>
      </trkpt>
      <trkpt lat="44.51433" lon="1.8309">
        <ele>335</ele>
        <time>2019-08-06T10:32:27.739Z</time>
      </trkpt>
      <trkpt lat="44.51433" lon="1.83087">
        <ele>335</ele>
        <time>2019-08-06T10:32:32.712Z</time>
      </trkpt>
      <trkpt lat="44.51432" lon="1.83085">
        <ele>335</ele>
        <time>2019-08-06T10:32:37.707Z</time>
      </trkpt>
      <trkpt lat="44.51432" lon="1.83083">
        <ele>335</ele>
        <time>2019-08-06T10:32:42.683Z</time>
      </trkpt>
      <trkpt lat="44.51431" lon="1.83077">
        <ele>335</ele>
        <time>2019-08-06T10:32:46.691Z</time>
      </trkpt>
      <trkpt lat="44.5143" lon="1.83066">
        <ele>333</ele>
        <time>2019-08-06T10:32:51.670Z</time>
      </trkpt>
      <trkpt lat="44.51429" lon="1.83055">
        <ele>333</ele>
        <time>2019-08-06T10:32:55.702Z</time>
      </trkpt>
      <trkpt lat="44.51429" lon="1.83045">
        <ele>333</ele>
        <time>2019-08-06T10:33:00.701Z</time>
      </trkpt>
      <trkpt lat="44.51426" lon="1.83034">
        <ele>331</ele>
        <time>2019-08-06T10:33:05.710Z</time>
      </trkpt>
      <trkpt lat="44.51425" lon="1.83028">
        <ele>331</ele>
        <time>2019-08-06T10:33:09.722Z</time>
      </trkpt>
      <trkpt lat="44.51423" lon="1.83022">
        <ele>331</ele>
        <time>2019-08-06T10:33:14.711Z</time>
      </trkpt>
      <trkpt lat="44.51421" lon="1.83015">
        <ele>331</ele>
        <time>2019-08-06T10:33:19.713Z</time>
      </trkpt>
      <trkpt lat="44.51419" lon="1.8301">
        <ele>328</ele>
        <time>2019-08-06T10:33:24.714Z</time>
      </trkpt>
      <trkpt lat="44.51417" lon="1.83001">
        <ele>328</ele>
        <time>2019-08-06T10:33:29.699Z</time>
      </trkpt>
      <trkpt lat="44.51414" lon="1.82992">
        <ele>328</ele>
        <time>2019-08-06T10:33:34.706Z</time>
      </trkpt>
      <trkpt lat="44.5141" lon="1.82981">
        <ele>326</ele>
        <time>2019-08-06T10:33:39.711Z</time>
      </trkpt>
      <trkpt lat="44.51408" lon="1.82973">
        <ele>326</ele>
        <time>2019-08-06T10:33:44.701Z</time>
      </trkpt>
      <trkpt lat="44.51406" lon="1.82968">
        <ele>326</ele>
        <time>2019-08-06T10:33:47.682Z</time>
      </trkpt>
      <trkpt lat="44.51403" lon="1.82959">
        <ele>326</ele>
        <time>2019-08-06T10:33:52.681Z</time>
      </trkpt>
      <trkpt lat="44.51402" lon="1.82948">
        <ele>324</ele>
        <time>2019-08-06T10:33:57.748Z</time>
      </trkpt>
      <trkpt lat="44.51401" lon="1.8294">
        <ele>324</ele>
        <time>2019-08-06T10:34:02.677Z</time>
      </trkpt>
      <trkpt lat="44.51398" lon="1.82934">
        <ele>324</ele>
        <time>2019-08-06T10:34:06.706Z</time>
      </trkpt>
      <trkpt lat="44.51394" lon="1.82925">
        <ele>323</ele>
        <time>2019-08-06T10:34:11.723Z</time>
      </trkpt>
      <trkpt lat="44.51389" lon="1.82918">
        <ele>323</ele>
        <time>2019-08-06T10:34:16.710Z</time>
      </trkpt>
      <trkpt lat="44.51384" lon="1.8291">
        <ele>323</ele>
        <time>2019-08-06T10:34:21.708Z</time>
      </trkpt>
      <trkpt lat="44.51381" lon="1.829">
        <ele>323</ele>
        <time>2019-08-06T10:34:26.706Z</time>
      </trkpt>
      <trkpt lat="44.51378" lon="1.82892">
        <ele>323</ele>
        <time>2019-08-06T10:34:31.725Z</time>
      </trkpt>
      <trkpt lat="44.51375" lon="1.82884">
        <ele>321</ele>
        <time>2019-08-06T10:34:36.722Z</time>
      </trkpt>
      <trkpt lat="44.5137" lon="1.82877">
        <ele>321</ele>
        <time>2019-08-06T10:34:41.713Z</time>
      </trkpt>
      <trkpt lat="44.51366" lon="1.82869">
        <ele>321</ele>
        <time>2019-08-06T10:34:46.720Z</time>
      </trkpt>
      <trkpt lat="44.51356" lon="1.82856">
        <ele>321</ele>
        <time>2019-08-06T10:35:15.717Z</time>
      </trkpt>
      <trkpt lat="44.51354" lon="1.82861">
        <ele>321</ele>
        <time>2019-08-06T10:35:20.714Z</time>
      </trkpt>
      <trkpt lat="44.5135" lon="1.82864">
        <ele>321</ele>
        <time>2019-08-06T10:35:25.710Z</time>
      </trkpt>
      <trkpt lat="44.51346" lon="1.82867">
        <ele>318</ele>
        <time>2019-08-06T10:35:30.704Z</time>
      </trkpt>
      <trkpt lat="44.51339" lon="1.82873">
        <ele>318</ele>
        <time>2019-08-06T10:35:35.712Z</time>
      </trkpt>
      <trkpt lat="44.51333" lon="1.82875">
        <ele>318</ele>
        <time>2019-08-06T10:35:40.735Z</time>
      </trkpt>
      <trkpt lat="44.51324" lon="1.82875">
        <ele>318</ele>
        <time>2019-08-06T10:35:45.737Z</time>
      </trkpt>
      <trkpt lat="44.51316" lon="1.82875">
        <ele>319</ele>
        <time>2019-08-06T10:35:50.714Z</time>
      </trkpt>
      <trkpt lat="44.5131" lon="1.82876">
        <ele>319</ele>
        <time>2019-08-06T10:35:54.743Z</time>
      </trkpt>
      <trkpt lat="44.51302" lon="1.82877">
        <ele>319</ele>
        <time>2019-08-06T10:35:59.735Z</time>
      </trkpt>
      <trkpt lat="44.51296" lon="1.82874">
        <ele>317</ele>
        <time>2019-08-06T10:36:04.766Z</time>
      </trkpt>
      <trkpt lat="44.51288" lon="1.82875">
        <ele>319</ele>
        <time>2019-08-06T10:36:09.696Z</time>
      </trkpt>
      <trkpt lat="44.51281" lon="1.82874">
        <ele>319</ele>
        <time>2019-08-06T10:36:14.708Z</time>
      </trkpt>
      <trkpt lat="44.51275" lon="1.82872">
        <ele>319</ele>
        <time>2019-08-06T10:36:19.710Z</time>
      </trkpt>
      <trkpt lat="44.5127" lon="1.8287">
        <ele>319</ele>
        <time>2019-08-06T10:36:24.708Z</time>
      </trkpt>
      <trkpt lat="44.51265" lon="1.82866">
        <ele>319</ele>
        <time>2019-08-06T10:36:29.705Z</time>
      </trkpt>
      <trkpt lat="44.51259" lon="1.82862">
        <ele>323</ele>
        <time>2019-08-06T10:36:34.708Z</time>
      </trkpt>
      <trkpt lat="44.51254" lon="1.8286">
        <ele>323</ele>
        <time>2019-08-06T10:36:39.697Z</time>
      </trkpt>
      <trkpt lat="44.51248" lon="1.82859">
        <ele>323</ele>
        <time>2019-08-06T10:36:44.703Z</time>
      </trkpt>
      <trkpt lat="44.51242" lon="1.82857">
        <ele>323</ele>
        <time>2019-08-06T10:36:49.691Z</time>
      </trkpt>
      <trkpt lat="44.51236" lon="1.82857">
        <ele>323</ele>
        <time>2019-08-06T10:36:53.713Z</time>
      </trkpt>
      <trkpt lat="44.51231" lon="1.82856">
        <ele>325</ele>
        <time>2019-08-06T10:36:58.699Z</time>
      </trkpt>
      <trkpt lat="44.51225" lon="1.82859">
        <ele>325</ele>
        <time>2019-08-06T10:37:03.707Z</time>
      </trkpt>
      <trkpt lat="44.51219" lon="1.82863">
        <ele>325</ele>
        <time>2019-08-06T10:37:08.709Z</time>
      </trkpt>
      <trkpt lat="44.51213" lon="1.82869">
        <ele>325</ele>
        <time>2019-08-06T10:37:13.708Z</time>
      </trkpt>
      <trkpt lat="44.51207" lon="1.82875">
        <ele>328</ele>
        <time>2019-08-06T10:37:18.705Z</time>
      </trkpt>
      <trkpt lat="44.51202" lon="1.82881">
        <ele>328</ele>
        <time>2019-08-06T10:37:22.707Z</time>
      </trkpt>
      <trkpt lat="44.51196" lon="1.82887">
        <ele>328</ele>
        <time>2019-08-06T10:37:27.706Z</time>
      </trkpt>
      <trkpt lat="44.5119" lon="1.82891">
        <ele>328</ele>
        <time>2019-08-06T10:37:32.699Z</time>
      </trkpt>
      <trkpt lat="44.51184" lon="1.82893">
        <ele>328</ele>
        <time>2019-08-06T10:37:37.705Z</time>
      </trkpt>
      <trkpt lat="44.51175" lon="1.82894">
        <ele>328</ele>
        <time>2019-08-06T10:37:42.699Z</time>
      </trkpt>
      <trkpt lat="44.51168" lon="1.82894">
        <ele>328</ele>
        <time>2019-08-06T10:37:46.736Z</time>
      </trkpt>
      <trkpt lat="44.51162" lon="1.82893">
        <ele>328</ele>
        <time>2019-08-06T10:37:51.701Z</time>
      </trkpt>
      <trkpt lat="44.51155" lon="1.82892">
        <ele>328</ele>
        <time>2019-08-06T10:37:56.710Z</time>
      </trkpt>
      <trkpt lat="44.51148" lon="1.8289">
        <ele>329</ele>
        <time>2019-08-06T10:38:01.710Z</time>
      </trkpt>
      <trkpt lat="44.51142" lon="1.82892">
        <ele>329</ele>
        <time>2019-08-06T10:38:06.712Z</time>
      </trkpt>
      <trkpt lat="44.51135" lon="1.82895">
        <ele>329</ele>
        <time>2019-08-06T10:38:11.712Z</time>
      </trkpt>
      <trkpt lat="44.51129" lon="1.82899">
        <ele>329</ele>
        <time>2019-08-06T10:38:16.701Z</time>
      </trkpt>
      <trkpt lat="44.51124" lon="1.82901">
        <ele>330</ele>
        <time>2019-08-06T10:38:21.706Z</time>
      </trkpt>
      <trkpt lat="44.51118" lon="1.82904">
        <ele>332</ele>
        <time>2019-08-06T10:38:26.707Z</time>
      </trkpt>
      <trkpt lat="44.51111" lon="1.82907">
        <ele>332</ele>
        <time>2019-08-06T10:38:31.706Z</time>
      </trkpt>
      <trkpt lat="44.51106" lon="1.82908">
        <ele>332</ele>
        <time>2019-08-06T10:38:35.717Z</time>
      </trkpt>
      <trkpt lat="44.511" lon="1.82912">
        <ele>332</ele>
        <time>2019-08-06T10:38:39.685Z</time>
      </trkpt>
      <trkpt lat="44.51094" lon="1.82918">
        <ele>333</ele>
        <time>2019-08-06T10:38:44.713Z</time>
      </trkpt>
      <trkpt lat="44.51088" lon="1.82921">
        <ele>333</ele>
        <time>2019-08-06T10:38:49.716Z</time>
      </trkpt>
      <trkpt lat="44.5108" lon="1.82923">
        <ele>333</ele>
        <time>2019-08-06T10:38:54.693Z</time>
      </trkpt>
      <trkpt lat="44.51075" lon="1.82925">
        <ele>333</ele>
        <time>2019-08-06T10:38:58.724Z</time>
      </trkpt>
      <trkpt lat="44.51069" lon="1.82928">
        <ele>334</ele>
        <time>2019-08-06T10:39:03.715Z</time>
      </trkpt>
      <trkpt lat="44.51064" lon="1.82929">
        <ele>334</ele>
        <time>2019-08-06T10:39:08.734Z</time>
      </trkpt>
      <trkpt lat="44.51058" lon="1.82931">
        <ele>337</ele>
        <time>2019-08-06T10:39:13.718Z</time>
      </trkpt>
      <trkpt lat="44.51052" lon="1.82935">
        <ele>337</ele>
        <time>2019-08-06T10:39:18.729Z</time>
      </trkpt>
      <trkpt lat="44.51047" lon="1.8294">
        <ele>337</ele>
        <time>2019-08-06T10:39:23.722Z</time>
      </trkpt>
      <trkpt lat="44.51043" lon="1.82945">
        <ele>337</ele>
        <time>2019-08-06T10:39:28.698Z</time>
      </trkpt>
      <trkpt lat="44.51037" lon="1.8295">
        <ele>338</ele>
        <time>2019-08-06T10:39:32.718Z</time>
      </trkpt>
      <trkpt lat="44.51031" lon="1.82956">
        <ele>338</ele>
        <time>2019-08-06T10:39:36.751Z</time>
      </trkpt>
      <trkpt lat="44.51024" lon="1.82961">
        <ele>340</ele>
        <time>2019-08-06T10:39:41.735Z</time>
      </trkpt>
      <trkpt lat="44.51018" lon="1.82967">
        <ele>340</ele>
        <time>2019-08-06T10:39:46.732Z</time>
      </trkpt>
      <trkpt lat="44.51012" lon="1.82972">
        <ele>340</ele>
        <time>2019-08-06T10:39:51.752Z</time>
      </trkpt>
      <trkpt lat="44.51005" lon="1.82978">
        <ele>340</ele>
        <time>2019-08-06T10:39:56.704Z</time>
      </trkpt>
      <trkpt lat="44.50998" lon="1.82984">
        <ele>340</ele>
        <time>2019-08-06T10:40:01.713Z</time>
      </trkpt>
      <trkpt lat="44.50993" lon="1.82988">
        <ele>343</ele>
        <time>2019-08-06T10:40:06.705Z</time>
      </trkpt>
      <trkpt lat="44.50987" lon="1.82992">
        <ele>343</ele>
        <time>2019-08-06T10:40:11.767Z</time>
      </trkpt>
      <trkpt lat="44.50981" lon="1.82998">
        <ele>343</ele>
        <time>2019-08-06T10:40:16.715Z</time>
      </trkpt>
      <trkpt lat="44.50975" lon="1.83005">
        <ele>343</ele>
        <time>2019-08-06T10:40:21.755Z</time>
      </trkpt>
      <trkpt lat="44.50969" lon="1.83011">
        <ele>343</ele>
        <time>2019-08-06T10:40:26.706Z</time>
      </trkpt>
      <trkpt lat="44.50963" lon="1.83018">
        <ele>348</ele>
        <time>2019-08-06T10:40:31.703Z</time>
      </trkpt>
      <trkpt lat="44.50957" lon="1.83025">
        <ele>349</ele>
        <time>2019-08-06T10:40:36.717Z</time>
      </trkpt>
      <trkpt lat="44.50955" lon="1.83029">
        <ele>349</ele>
        <time>2019-08-06T10:40:41.731Z</time>
      </trkpt>
      <trkpt lat="44.50955" lon="1.8303">
        <ele>349</ele>
        <time>2019-08-06T10:40:46.715Z</time>
      </trkpt>
      <trkpt lat="44.50953" lon="1.83034">
        <ele>349</ele>
        <time>2019-08-06T10:40:51.697Z</time>
      </trkpt>
      <trkpt lat="44.5095" lon="1.8304">
        <ele>349</ele>
        <time>2019-08-06T10:40:55.707Z</time>
      </trkpt>
      <trkpt lat="44.50945" lon="1.83046">
        <ele>353</ele>
        <time>2019-08-06T10:41:00.705Z</time>
      </trkpt>
      <trkpt lat="44.50941" lon="1.83052">
        <ele>353</ele>
        <time>2019-08-06T10:41:05.705Z</time>
      </trkpt>
      <trkpt lat="44.50935" lon="1.83062">
        <ele>353</ele>
        <time>2019-08-06T10:41:10.704Z</time>
      </trkpt>
      <trkpt lat="44.50929" lon="1.83065">
        <ele>351</ele>
        <time>2019-08-06T10:41:15.696Z</time>
      </trkpt>
      <trkpt lat="44.50923" lon="1.83066">
        <ele>351</ele>
        <time>2019-08-06T10:41:20.720Z</time>
      </trkpt>
      <trkpt lat="44.50915" lon="1.83067">
        <ele>351</ele>
        <time>2019-08-06T10:41:25.730Z</time>
      </trkpt>
      <trkpt lat="44.50908" lon="1.83069">
        <ele>351</ele>
        <time>2019-08-06T10:41:30.707Z</time>
      </trkpt>
      <trkpt lat="44.50901" lon="1.8307">
        <ele>354</ele>
        <time>2019-08-06T10:41:35.706Z</time>
      </trkpt>
      <trkpt lat="44.50897" lon="1.8307">
        <ele>354</ele>
        <time>2019-08-06T10:41:39.738Z</time>
      </trkpt>
      <trkpt lat="44.5089" lon="1.83073">
        <ele>354</ele>
        <time>2019-08-06T10:41:44.727Z</time>
      </trkpt>
      <trkpt lat="44.50884" lon="1.83073">
        <ele>354</ele>
        <time>2019-08-06T10:41:49.724Z</time>
      </trkpt>
      <trkpt lat="44.50877" lon="1.83074">
        <ele>354</ele>
        <time>2019-08-06T10:41:54.717Z</time>
      </trkpt>
      <trkpt lat="44.50872" lon="1.83076">
        <ele>356</ele>
        <time>2019-08-06T10:41:59.694Z</time>
      </trkpt>
      <trkpt lat="44.50866" lon="1.83078">
        <ele>356</ele>
        <time>2019-08-06T10:42:03.705Z</time>
      </trkpt>
      <trkpt lat="44.5086" lon="1.83083">
        <ele>356</ele>
        <time>2019-08-06T10:42:08.739Z</time>
      </trkpt>
      <trkpt lat="44.50855" lon="1.83085">
        <ele>356</ele>
        <time>2019-08-06T10:42:12.738Z</time>
      </trkpt>
      <trkpt lat="44.50848" lon="1.83089">
        <ele>356</ele>
        <time>2019-08-06T10:42:18.686Z</time>
      </trkpt>
      <trkpt lat="44.50844" lon="1.83093">
        <ele>359</ele>
        <time>2019-08-06T10:42:22.687Z</time>
      </trkpt>
      <trkpt lat="44.50839" lon="1.83096">
        <ele>359</ele>
        <time>2019-08-06T10:42:26.699Z</time>
      </trkpt>
      <trkpt lat="44.50836" lon="1.83102">
        <ele>360</ele>
        <time>2019-08-06T10:42:30.700Z</time>
      </trkpt>
      <trkpt lat="44.50831" lon="1.83113">
        <ele>360</ele>
        <time>2019-08-06T10:42:35.721Z</time>
      </trkpt>
      <trkpt lat="44.50827" lon="1.8312">
        <ele>360</ele>
        <time>2019-08-06T10:42:40.708Z</time>
      </trkpt>
      <trkpt lat="44.50818" lon="1.83129">
        <ele>360</ele>
        <time>2019-08-06T10:43:11.730Z</time>
      </trkpt>
      <trkpt lat="44.50818" lon="1.8313">
        <ele>360</ele>
        <time>2019-08-06T10:43:16.695Z</time>
      </trkpt>
      <trkpt lat="44.50817" lon="1.83131">
        <ele>360</ele>
        <time>2019-08-06T10:43:21.700Z</time>
      </trkpt>
      <trkpt lat="44.50817" lon="1.83133">
        <ele>360</ele>
        <time>2019-08-06T10:43:26.701Z</time>
      </trkpt>
      <trkpt lat="44.50818" lon="1.83134">
        <ele>360</ele>
        <time>2019-08-06T10:43:31.697Z</time>
      </trkpt>
      <trkpt lat="44.50817" lon="1.83136">
        <ele>360</ele>
        <time>2019-08-06T10:43:46.710Z</time>
      </trkpt>
      <trkpt lat="44.50817" lon="1.83136">
        <ele>360</ele>
        <time>2019-08-06T10:43:51.700Z</time>
      </trkpt>
      <trkpt lat="44.50814" lon="1.83136">
        <ele>360</ele>
        <time>2019-08-06T10:43:55.717Z</time>
      </trkpt>
      <trkpt lat="44.50813" lon="1.83137">
        <ele>360</ele>
        <time>2019-08-06T10:44:00.707Z</time>
      </trkpt>
      <trkpt lat="44.50808" lon="1.8314">
        <ele>360</ele>
        <time>2019-08-06T10:44:05.728Z</time>
      </trkpt>
      <trkpt lat="44.50803" lon="1.83143">
        <ele>360</ele>
        <time>2019-08-06T10:44:10.713Z</time>
      </trkpt>
      <trkpt lat="44.50798" lon="1.8315">
        <ele>360</ele>
        <time>2019-08-06T10:44:15.711Z</time>
      </trkpt>
      <trkpt lat="44.50792" lon="1.83156">
        <ele>355</ele>
        <time>2019-08-06T10:44:20.706Z</time>
      </trkpt>
      <trkpt lat="44.50785" lon="1.8316">
        <ele>355</ele>
        <time>2019-08-06T10:44:24.722Z</time>
      </trkpt>
      <trkpt lat="44.5078" lon="1.83165">
        <ele>355</ele>
        <time>2019-08-06T10:44:29.713Z</time>
      </trkpt>
      <trkpt lat="44.50776" lon="1.83169">
        <ele>355</ele>
        <time>2019-08-06T10:44:34.719Z</time>
      </trkpt>
      <trkpt lat="44.50775" lon="1.8317">
        <ele>355</ele>
        <time>2019-08-06T10:44:39.713Z</time>
      </trkpt>
      <trkpt lat="44.50772" lon="1.83172">
        <ele>355</ele>
        <time>2019-08-06T10:44:44.720Z</time>
      </trkpt>
      <trkpt lat="44.50761" lon="1.83179">
        <ele>354</ele>
        <time>2019-08-06T10:45:22.716Z</time>
      </trkpt>
      <trkpt lat="44.50761" lon="1.8318">
        <ele>354</ele>
        <time>2019-08-06T10:45:27.690Z</time>
      </trkpt>
      <trkpt lat="44.5076" lon="1.8318">
        <ele>354</ele>
        <time>2019-08-06T10:45:31.700Z</time>
      </trkpt>
      <trkpt lat="44.50759" lon="1.8318">
        <ele>354</ele>
        <time>2019-08-06T10:45:36.709Z</time>
      </trkpt>
      <trkpt lat="44.50756" lon="1.83181">
        <ele>351</ele>
        <time>2019-08-06T10:45:41.694Z</time>
      </trkpt>
      <trkpt lat="44.50755" lon="1.83181">
        <ele>351</ele>
        <time>2019-08-06T10:45:45.711Z</time>
      </trkpt>
      <trkpt lat="44.50755" lon="1.8318">
        <ele>354</ele>
        <time>2019-08-06T10:45:50.701Z</time>
      </trkpt>
      <trkpt lat="44.50752" lon="1.83183">
        <ele>351</ele>
        <time>2019-08-06T10:45:54.731Z</time>
      </trkpt>
      <trkpt lat="44.50746" lon="1.83186">
        <ele>351</ele>
        <time>2019-08-06T10:45:59.732Z</time>
      </trkpt>
      <trkpt lat="44.50742" lon="1.83187">
        <ele>351</ele>
        <time>2019-08-06T10:46:04.737Z</time>
      </trkpt>
      <trkpt lat="44.50738" lon="1.83189">
        <ele>351</ele>
        <time>2019-08-06T10:46:09.706Z</time>
      </trkpt>
      <trkpt lat="44.50738" lon="1.83188">
        <ele>351</ele>
        <time>2019-08-06T10:46:13.717Z</time>
      </trkpt>
      <trkpt lat="44.50733" lon="1.83189">
        <ele>348</ele>
        <time>2019-08-06T10:46:18.722Z</time>
      </trkpt>
      <trkpt lat="44.50728" lon="1.83192">
        <ele>348</ele>
        <time>2019-08-06T10:46:23.712Z</time>
      </trkpt>
      <trkpt lat="44.50721" lon="1.83195">
        <ele>348</ele>
        <time>2019-08-06T10:46:28.735Z</time>
      </trkpt>
      <trkpt lat="44.50716" lon="1.83197">
        <ele>348</ele>
        <time>2019-08-06T10:46:33.713Z</time>
      </trkpt>
      <trkpt lat="44.5071" lon="1.832">
        <ele>348</ele>
        <time>2019-08-06T10:46:38.723Z</time>
      </trkpt>
      <trkpt lat="44.50703" lon="1.83204">
        <ele>344</ele>
        <time>2019-08-06T10:46:43.702Z</time>
      </trkpt>
      <trkpt lat="44.50697" lon="1.83208">
        <ele>342</ele>
        <time>2019-08-06T10:46:47.716Z</time>
      </trkpt>
      <trkpt lat="44.50691" lon="1.8321">
        <ele>342</ele>
        <time>2019-08-06T10:46:52.704Z</time>
      </trkpt>
      <trkpt lat="44.50685" lon="1.83212">
        <ele>342</ele>
        <time>2019-08-06T10:46:57.725Z</time>
      </trkpt>
      <trkpt lat="44.5068" lon="1.83215">
        <ele>338</ele>
        <time>2019-08-06T10:47:02.713Z</time>
      </trkpt>
      <trkpt lat="44.50676" lon="1.83216">
        <ele>338</ele>
        <time>2019-08-06T10:47:07.714Z</time>
      </trkpt>
      <trkpt lat="44.50671" lon="1.83218">
        <ele>338</ele>
        <time>2019-08-06T10:47:12.706Z</time>
      </trkpt>
      <trkpt lat="44.50668" lon="1.8322">
        <ele>338</ele>
        <time>2019-08-06T10:47:16.725Z</time>
      </trkpt>
      <trkpt lat="44.50663" lon="1.83221">
        <ele>338</ele>
        <time>2019-08-06T10:47:21.725Z</time>
      </trkpt>
      <trkpt lat="44.50658" lon="1.83221">
        <ele>338</ele>
        <time>2019-08-06T10:47:26.715Z</time>
      </trkpt>
      <trkpt lat="44.50651" lon="1.83225">
        <ele>336</ele>
        <time>2019-08-06T10:47:31.710Z</time>
      </trkpt>
      <trkpt lat="44.50644" lon="1.83227">
        <ele>336</ele>
        <time>2019-08-06T10:47:36.712Z</time>
      </trkpt>
      <trkpt lat="44.50638" lon="1.83228">
        <ele>336</ele>
        <time>2019-08-06T10:47:41.706Z</time>
      </trkpt>
      <trkpt lat="44.50632" lon="1.83237">
        <ele>335</ele>
        <time>2019-08-06T10:48:21.703Z</time>
      </trkpt>
      <trkpt lat="44.5063" lon="1.83236">
        <ele>336</ele>
        <time>2019-08-06T10:48:26.712Z</time>
      </trkpt>
      <trkpt lat="44.50625" lon="1.83238">
        <ele>335</ele>
        <time>2019-08-06T10:48:31.719Z</time>
      </trkpt>
      <trkpt lat="44.50619" lon="1.83239">
        <ele>334</ele>
        <time>2019-08-06T10:48:36.708Z</time>
      </trkpt>
      <trkpt lat="44.50614" lon="1.83241">
        <ele>334</ele>
        <time>2019-08-06T10:48:40.724Z</time>
      </trkpt>
      <trkpt lat="44.50608" lon="1.83247">
        <ele>334</ele>
        <time>2019-08-06T10:48:45.716Z</time>
      </trkpt>
      <trkpt lat="44.50602" lon="1.83249">
        <ele>334</ele>
        <time>2019-08-06T10:48:50.716Z</time>
      </trkpt>
      <trkpt lat="44.50596" lon="1.83252">
        <ele>334</ele>
        <time>2019-08-06T10:48:55.711Z</time>
      </trkpt>
      <trkpt lat="44.50591" lon="1.83253">
        <ele>334</ele>
        <time>2019-08-06T10:49:00.713Z</time>
      </trkpt>
      <trkpt lat="44.50584" lon="1.83256">
        <ele>334</ele>
        <time>2019-08-06T10:49:05.716Z</time>
      </trkpt>
      <trkpt lat="44.50577" lon="1.8326">
        <ele>334</ele>
        <time>2019-08-06T10:49:10.709Z</time>
      </trkpt>
      <trkpt lat="44.50571" lon="1.83263">
        <ele>334</ele>
        <time>2019-08-06T10:49:15.731Z</time>
      </trkpt>
      <trkpt lat="44.50563" lon="1.83268">
        <ele>327</ele>
        <time>2019-08-06T10:49:20.741Z</time>
      </trkpt>
      <trkpt lat="44.50556" lon="1.83271">
        <ele>327</ele>
        <time>2019-08-06T10:49:25.713Z</time>
      </trkpt>
      <trkpt lat="44.5055" lon="1.83274">
        <ele>327</ele>
        <time>2019-08-06T10:49:30.707Z</time>
      </trkpt>
      <trkpt lat="44.50544" lon="1.83277">
        <ele>327</ele>
        <time>2019-08-06T10:49:35.708Z</time>
      </trkpt>
      <trkpt lat="44.50538" lon="1.83279">
        <ele>328</ele>
        <time>2019-08-06T10:49:40.715Z</time>
      </trkpt>
      <trkpt lat="44.5053" lon="1.83282">
        <ele>328</ele>
        <time>2019-08-06T10:49:45.714Z</time>
      </trkpt>
      <trkpt lat="44.50524" lon="1.83285">
        <ele>328</ele>
        <time>2019-08-06T10:49:50.732Z</time>
      </trkpt>
      <trkpt lat="44.50518" lon="1.83289">
        <ele>328</ele>
        <time>2019-08-06T10:49:55.713Z</time>
      </trkpt>
      <trkpt lat="44.50512" lon="1.83293">
        <ele>324</ele>
        <time>2019-08-06T10:50:00.716Z</time>
      </trkpt>
      <trkpt lat="44.50508" lon="1.83296">
        <ele>324</ele>
        <time>2019-08-06T10:50:05.713Z</time>
      </trkpt>
      <trkpt lat="44.50504" lon="1.83299">
        <ele>324</ele>
        <time>2019-08-06T10:50:10.711Z</time>
      </trkpt>
      <trkpt lat="44.50498" lon="1.83304">
        <ele>324</ele>
        <time>2019-08-06T10:50:15.722Z</time>
      </trkpt>
      <trkpt lat="44.50493" lon="1.83306">
        <ele>324</ele>
        <time>2019-08-06T10:50:20.719Z</time>
      </trkpt>
      <trkpt lat="44.50489" lon="1.83311">
        <ele>324</ele>
        <time>2019-08-06T10:50:25.721Z</time>
      </trkpt>
      <trkpt lat="44.50485" lon="1.83314">
        <ele>327</ele>
        <time>2019-08-06T10:50:30.716Z</time>
      </trkpt>
      <trkpt lat="44.5048" lon="1.83317">
        <ele>327</ele>
        <time>2019-08-06T10:50:35.729Z</time>
      </trkpt>
      <trkpt lat="44.50476" lon="1.83324">
        <ele>321</ele>
        <time>2019-08-06T10:50:40.714Z</time>
      </trkpt>
      <trkpt lat="44.50472" lon="1.83329">
        <ele>321</ele>
        <time>2019-08-06T10:50:45.731Z</time>
      </trkpt>
      <trkpt lat="44.50465" lon="1.83332">
        <ele>321</ele>
        <time>2019-08-06T10:50:50.724Z</time>
      </trkpt>
      <trkpt lat="44.5046" lon="1.83335">
        <ele>321</ele>
        <time>2019-08-06T10:50:55.727Z</time>
      </trkpt>
      <trkpt lat="44.50457" lon="1.83337">
        <ele>324</ele>
        <time>2019-08-06T10:51:00.722Z</time>
      </trkpt>
      <trkpt lat="44.50453" lon="1.83341">
        <ele>324</ele>
        <time>2019-08-06T10:51:04.729Z</time>
      </trkpt>
      <trkpt lat="44.50447" lon="1.83344">
        <ele>324</ele>
        <time>2019-08-06T10:51:09.726Z</time>
      </trkpt>
      <trkpt lat="44.50442" lon="1.83348">
        <ele>318</ele>
        <time>2019-08-06T10:51:14.714Z</time>
      </trkpt>
      <trkpt lat="44.50435" lon="1.83353">
        <ele>318</ele>
        <time>2019-08-06T10:51:19.718Z</time>
      </trkpt>
      <trkpt lat="44.50429" lon="1.83356">
        <ele>318</ele>
        <time>2019-08-06T10:51:24.715Z</time>
      </trkpt>
      <trkpt lat="44.50424" lon="1.83359">
        <ele>318</ele>
        <time>2019-08-06T10:51:28.732Z</time>
      </trkpt>
      <trkpt lat="44.50419" lon="1.83361">
        <ele>318</ele>
        <time>2019-08-06T10:51:32.765Z</time>
      </trkpt>
      <trkpt lat="44.50414" lon="1.83361">
        <ele>318</ele>
        <time>2019-08-06T10:51:37.716Z</time>
      </trkpt>
      <trkpt lat="44.50406" lon="1.83369">
        <ele>318</ele>
        <time>2019-08-06T10:51:42.725Z</time>
      </trkpt>
      <trkpt lat="44.50401" lon="1.83371">
        <ele>320</ele>
        <time>2019-08-06T10:51:47.719Z</time>
      </trkpt>
      <trkpt lat="44.50396" lon="1.83372">
        <ele>320</ele>
        <time>2019-08-06T10:51:52.714Z</time>
      </trkpt>
      <trkpt lat="44.50391" lon="1.83374">
        <ele>320</ele>
        <time>2019-08-06T10:51:56.726Z</time>
      </trkpt>
      <trkpt lat="44.50385" lon="1.83378">
        <ele>315</ele>
        <time>2019-08-06T10:52:01.719Z</time>
      </trkpt>
      <trkpt lat="44.50379" lon="1.83381">
        <ele>315</ele>
        <time>2019-08-06T10:52:05.737Z</time>
      </trkpt>
      <trkpt lat="44.50373" lon="1.83383">
        <ele>315</ele>
        <time>2019-08-06T10:52:10.722Z</time>
      </trkpt>
      <trkpt lat="44.50371" lon="1.83383">
        <ele>315</ele>
        <time>2019-08-06T10:52:15.722Z</time>
      </trkpt>
      <trkpt lat="44.5037" lon="1.83385">
        <ele>315</ele>
        <time>2019-08-06T10:52:20.717Z</time>
      </trkpt>
      <trkpt lat="44.50365" lon="1.8339">
        <ele>315</ele>
        <time>2019-08-06T10:52:25.724Z</time>
      </trkpt>
      <trkpt lat="44.50358" lon="1.83396">
        <ele>315</ele>
        <time>2019-08-06T10:52:30.750Z</time>
      </trkpt>
      <trkpt lat="44.50353" lon="1.83397">
        <ele>315</ele>
        <time>2019-08-06T10:52:35.716Z</time>
      </trkpt>
      <trkpt lat="44.50346" lon="1.83394">
        <ele>315</ele>
        <time>2019-08-06T10:52:40.705Z</time>
      </trkpt>
      <trkpt lat="44.5034" lon="1.83398">
        <ele>315</ele>
        <time>2019-08-06T10:52:45.719Z</time>
      </trkpt>
      <trkpt lat="44.50334" lon="1.83402">
        <ele>315</ele>
        <time>2019-08-06T10:52:50.717Z</time>
      </trkpt>
      <trkpt lat="44.50329" lon="1.83406">
        <ele>312</ele>
        <time>2019-08-06T10:52:54.732Z</time>
      </trkpt>
      <trkpt lat="44.50325" lon="1.83409">
        <ele>312</ele>
        <time>2019-08-06T10:52:59.721Z</time>
      </trkpt>
      <trkpt lat="44.50319" lon="1.83412">
        <ele>313</ele>
        <time>2019-08-06T10:53:04.709Z</time>
      </trkpt>
      <trkpt lat="44.50312" lon="1.83416">
        <ele>313</ele>
        <time>2019-08-06T10:53:09.708Z</time>
      </trkpt>
      <trkpt lat="44.50306" lon="1.83417">
        <ele>313</ele>
        <time>2019-08-06T10:53:13.733Z</time>
      </trkpt>
      <trkpt lat="44.503" lon="1.83419">
        <ele>313</ele>
        <time>2019-08-06T10:53:18.726Z</time>
      </trkpt>
      <trkpt lat="44.50294" lon="1.83421">
        <ele>313</ele>
        <time>2019-08-06T10:53:23.713Z</time>
      </trkpt>
      <trkpt lat="44.50289" lon="1.83425">
        <ele>314</ele>
        <time>2019-08-06T10:53:27.713Z</time>
      </trkpt>
      <trkpt lat="44.50287" lon="1.83427">
        <ele>314</ele>
        <time>2019-08-06T10:53:32.724Z</time>
      </trkpt>
      <trkpt lat="44.50286" lon="1.83429">
        <ele>314</ele>
        <time>2019-08-06T10:53:37.703Z</time>
      </trkpt>
      <trkpt lat="44.50285" lon="1.8343">
        <ele>314</ele>
        <time>2019-08-06T10:53:41.718Z</time>
      </trkpt>
      <trkpt lat="44.5028" lon="1.83432">
        <ele>309</ele>
        <time>2019-08-06T10:53:46.737Z</time>
      </trkpt>
      <trkpt lat="44.50273" lon="1.83433">
        <ele>309</ele>
        <time>2019-08-06T10:53:51.729Z</time>
      </trkpt>
      <trkpt lat="44.50266" lon="1.83435">
        <ele>309</ele>
        <time>2019-08-06T10:53:56.703Z</time>
      </trkpt>
      <trkpt lat="44.5026" lon="1.83439">
        <ele>310</ele>
        <time>2019-08-06T10:54:00.716Z</time>
      </trkpt>
      <trkpt lat="44.50253" lon="1.83444">
        <ele>310</ele>
        <time>2019-08-06T10:54:05.718Z</time>
      </trkpt>
      <trkpt lat="44.50247" lon="1.83448">
        <ele>310</ele>
        <time>2019-08-06T10:54:10.738Z</time>
      </trkpt>
      <trkpt lat="44.50242" lon="1.83452">
        <ele>310</ele>
        <time>2019-08-06T10:54:15.714Z</time>
      </trkpt>
      <trkpt lat="44.50236" lon="1.83456">
        <ele>310</ele>
        <time>2019-08-06T10:54:20.716Z</time>
      </trkpt>
      <trkpt lat="44.50229" lon="1.83462">
        <ele>304</ele>
        <time>2019-08-06T10:54:25.727Z</time>
      </trkpt>
      <trkpt lat="44.50222" lon="1.83467">
        <ele>304</ele>
        <time>2019-08-06T10:54:30.717Z</time>
      </trkpt>
      <trkpt lat="44.50217" lon="1.83473">
        <ele>304</ele>
        <time>2019-08-06T10:54:35.722Z</time>
      </trkpt>
      <trkpt lat="44.50211" lon="1.83478">
        <ele>304</ele>
        <time>2019-08-06T10:54:40.713Z</time>
      </trkpt>
      <trkpt lat="44.50207" lon="1.83482">
        <ele>307</ele>
        <time>2019-08-06T10:54:44.729Z</time>
      </trkpt>
      <trkpt lat="44.50199" lon="1.83485">
        <ele>307</ele>
        <time>2019-08-06T10:54:49.709Z</time>
      </trkpt>
      <trkpt lat="44.50193" lon="1.83487">
        <ele>304</ele>
        <time>2019-08-06T10:54:54.732Z</time>
      </trkpt>
      <trkpt lat="44.50187" lon="1.83491">
        <ele>304</ele>
        <time>2019-08-06T10:54:59.749Z</time>
      </trkpt>
      <trkpt lat="44.50179" lon="1.83493">
        <ele>307</ele>
        <time>2019-08-06T10:55:04.770Z</time>
      </trkpt>
      <trkpt lat="44.50172" lon="1.83495">
        <ele>307</ele>
        <time>2019-08-06T10:55:09.711Z</time>
      </trkpt>
      <trkpt lat="44.50167" lon="1.83494">
        <ele>307</ele>
        <time>2019-08-06T10:55:13.749Z</time>
      </trkpt>
      <trkpt lat="44.50163" lon="1.83493">
        <ele>307</ele>
        <time>2019-08-06T10:55:17.711Z</time>
      </trkpt>
      <trkpt lat="44.50158" lon="1.83494">
        <ele>307</ele>
        <time>2019-08-06T10:55:22.728Z</time>
      </trkpt>
      <trkpt lat="44.50152" lon="1.83494">
        <ele>305</ele>
        <time>2019-08-06T10:55:27.713Z</time>
      </trkpt>
      <trkpt lat="44.50145" lon="1.83495">
        <ele>305</ele>
        <time>2019-08-06T10:55:32.726Z</time>
      </trkpt>
      <trkpt lat="44.5014" lon="1.83495">
        <ele>305</ele>
        <time>2019-08-06T10:55:37.717Z</time>
      </trkpt>
      <trkpt lat="44.50133" lon="1.83492">
        <ele>305</ele>
        <time>2019-08-06T10:55:42.717Z</time>
      </trkpt>
      <trkpt lat="44.50128" lon="1.83491">
        <ele>305</ele>
        <time>2019-08-06T10:55:47.709Z</time>
      </trkpt>
      <trkpt lat="44.50121" lon="1.83491">
        <ele>302</ele>
        <time>2019-08-06T10:55:52.723Z</time>
      </trkpt>
      <trkpt lat="44.50115" lon="1.8349">
        <ele>302</ele>
        <time>2019-08-06T10:55:57.707Z</time>
      </trkpt>
      <trkpt lat="44.50108" lon="1.83491">
        <ele>302</ele>
        <time>2019-08-06T10:56:02.719Z</time>
      </trkpt>
      <trkpt lat="44.50102" lon="1.83491">
        <ele>302</ele>
        <time>2019-08-06T10:56:07.717Z</time>
      </trkpt>
      <trkpt lat="44.50096" lon="1.83491">
        <ele>298</ele>
        <time>2019-08-06T10:56:12.726Z</time>
      </trkpt>
      <trkpt lat="44.5009" lon="1.83493">
        <ele>298</ele>
        <time>2019-08-06T10:56:17.718Z</time>
      </trkpt>
      <trkpt lat="44.50084" lon="1.83493">
        <ele>298</ele>
        <time>2019-08-06T10:56:22.729Z</time>
      </trkpt>
      <trkpt lat="44.50078" lon="1.83494">
        <ele>298</ele>
        <time>2019-08-06T10:56:27.728Z</time>
      </trkpt>
      <trkpt lat="44.5007" lon="1.83495">
        <ele>298</ele>
        <time>2019-08-06T10:56:32.720Z</time>
      </trkpt>
      <trkpt lat="44.50062" lon="1.83497">
        <ele>296</ele>
        <time>2019-08-06T10:56:37.719Z</time>
      </trkpt>
      <trkpt lat="44.50055" lon="1.83499">
        <ele>296</ele>
        <time>2019-08-06T10:56:42.731Z</time>
      </trkpt>
      <trkpt lat="44.50048" lon="1.835">
        <ele>296</ele>
        <time>2019-08-06T10:56:47.722Z</time>
      </trkpt>
      <trkpt lat="44.50042" lon="1.83499">
        <ele>294</ele>
        <time>2019-08-06T10:56:52.718Z</time>
      </trkpt>
      <trkpt lat="44.50036" lon="1.83498">
        <ele>294</ele>
        <time>2019-08-06T10:56:57.729Z</time>
      </trkpt>
      <trkpt lat="44.50028" lon="1.835">
        <ele>294</ele>
        <time>2019-08-06T10:57:02.718Z</time>
      </trkpt>
      <trkpt lat="44.50022" lon="1.83502">
        <ele>294</ele>
        <time>2019-08-06T10:57:07.727Z</time>
      </trkpt>
      <trkpt lat="44.50017" lon="1.83503">
        <ele>294</ele>
        <time>2019-08-06T10:57:12.717Z</time>
      </trkpt>
      <trkpt lat="44.50011" lon="1.83504">
        <ele>292</ele>
        <time>2019-08-06T10:57:17.722Z</time>
      </trkpt>
      <trkpt lat="44.50008" lon="1.83506">
        <ele>292</ele>
        <time>2019-08-06T10:57:22.717Z</time>
      </trkpt>
      <trkpt lat="44.50005" lon="1.83506">
        <ele>292</ele>
        <time>2019-08-06T10:57:27.726Z</time>
      </trkpt>
      <trkpt lat="44.49998" lon="1.83507">
        <ele>292</ele>
        <time>2019-08-06T10:57:32.730Z</time>
      </trkpt>
      <trkpt lat="44.49991" lon="1.83507">
        <ele>292</ele>
        <time>2019-08-06T10:57:37.713Z</time>
      </trkpt>
      <trkpt lat="44.49983" lon="1.83507">
        <ele>290</ele>
        <time>2019-08-06T10:57:42.710Z</time>
      </trkpt>
      <trkpt lat="44.49977" lon="1.83507">
        <ele>290</ele>
        <time>2019-08-06T10:57:47.705Z</time>
      </trkpt>
      <trkpt lat="44.49971" lon="1.83507">
        <ele>290</ele>
        <time>2019-08-06T10:57:52.726Z</time>
      </trkpt>
      <trkpt lat="44.49964" lon="1.8351">
        <ele>290</ele>
        <time>2019-08-06T10:57:57.710Z</time>
      </trkpt>
      <trkpt lat="44.49959" lon="1.83511">
        <ele>290</ele>
        <time>2019-08-06T10:58:02.719Z</time>
      </trkpt>
      <trkpt lat="44.49953" lon="1.83512">
        <ele>288</ele>
        <time>2019-08-06T10:58:07.723Z</time>
      </trkpt>
      <trkpt lat="44.49946" lon="1.83512">
        <ele>288</ele>
        <time>2019-08-06T10:58:12.720Z</time>
      </trkpt>
      <trkpt lat="44.49944" lon="1.83514">
        <ele>289</ele>
        <time>2019-08-06T10:58:17.708Z</time>
      </trkpt>
      <trkpt lat="44.4994" lon="1.83514">
        <ele>289</ele>
        <time>2019-08-06T10:58:22.711Z</time>
      </trkpt>
      <trkpt lat="44.49935" lon="1.83515">
        <ele>289</ele>
        <time>2019-08-06T10:58:26.738Z</time>
      </trkpt>
      <trkpt lat="44.49927" lon="1.83515">
        <ele>289</ele>
        <time>2019-08-06T10:58:31.708Z</time>
      </trkpt>
      <trkpt lat="44.4992" lon="1.83514">
        <ele>289</ele>
        <time>2019-08-06T10:58:36.719Z</time>
      </trkpt>
      <trkpt lat="44.49914" lon="1.83515">
        <ele>289</ele>
        <time>2019-08-06T10:58:41.709Z</time>
      </trkpt>
      <trkpt lat="44.49906" lon="1.83515">
        <ele>289</ele>
        <time>2019-08-06T10:58:46.718Z</time>
      </trkpt>
      <trkpt lat="44.499" lon="1.83514">
        <ele>289</ele>
        <time>2019-08-06T10:58:51.724Z</time>
      </trkpt>
      <trkpt lat="44.49894" lon="1.83513">
        <ele>286</ele>
        <time>2019-08-06T10:58:56.724Z</time>
      </trkpt>
      <trkpt lat="44.49888" lon="1.83513">
        <ele>286</ele>
        <time>2019-08-06T10:59:01.730Z</time>
      </trkpt>
      <trkpt lat="44.49882" lon="1.83512">
        <ele>286</ele>
        <time>2019-08-06T10:59:06.724Z</time>
      </trkpt>
      <trkpt lat="44.49876" lon="1.83511">
        <ele>286</ele>
        <time>2019-08-06T10:59:11.711Z</time>
      </trkpt>
      <trkpt lat="44.49871" lon="1.83511">
        <ele>288</ele>
        <time>2019-08-06T10:59:15.710Z</time>
      </trkpt>
      <trkpt lat="44.49864" lon="1.83511">
        <ele>288</ele>
        <time>2019-08-06T10:59:20.734Z</time>
      </trkpt>
      <trkpt lat="44.49858" lon="1.8351">
        <ele>288</ele>
        <time>2019-08-06T10:59:25.709Z</time>
      </trkpt>
      <trkpt lat="44.49852" lon="1.83512">
        <ele>288</ele>
        <time>2019-08-06T10:59:30.732Z</time>
      </trkpt>
      <trkpt lat="44.49846" lon="1.8351">
        <ele>290</ele>
        <time>2019-08-06T10:59:35.728Z</time>
      </trkpt>
      <trkpt lat="44.4984" lon="1.8351">
        <ele>290</ele>
        <time>2019-08-06T10:59:40.719Z</time>
      </trkpt>
      <trkpt lat="44.49833" lon="1.83511">
        <ele>290</ele>
        <time>2019-08-06T10:59:45.710Z</time>
      </trkpt>
      <trkpt lat="44.49827" lon="1.83513">
        <ele>290</ele>
        <time>2019-08-06T10:59:50.708Z</time>
      </trkpt>
      <trkpt lat="44.49823" lon="1.83514">
        <ele>290</ele>
        <time>2019-08-06T10:59:54.727Z</time>
      </trkpt>
      <trkpt lat="44.49817" lon="1.83517">
        <ele>291</ele>
        <time>2019-08-06T10:59:59.714Z</time>
      </trkpt>
      <trkpt lat="44.49812" lon="1.83518">
        <ele>291</ele>
        <time>2019-08-06T11:00:04.711Z</time>
      </trkpt>
      <trkpt lat="44.49805" lon="1.83517">
        <ele>291</ele>
        <time>2019-08-06T11:00:09.721Z</time>
      </trkpt>
      <trkpt lat="44.49798" lon="1.83518">
        <ele>291</ele>
        <time>2019-08-06T11:00:14.719Z</time>
      </trkpt>
      <trkpt lat="44.49792" lon="1.83519">
        <ele>291</ele>
        <time>2019-08-06T11:00:19.739Z</time>
      </trkpt>
      <trkpt lat="44.49789" lon="1.83523">
        <ele>291</ele>
        <time>2019-08-06T11:00:24.713Z</time>
      </trkpt>
      <trkpt lat="44.49782" lon="1.83523">
        <ele>291</ele>
        <time>2019-08-06T11:00:29.717Z</time>
      </trkpt>
      <trkpt lat="44.49776" lon="1.83522">
        <ele>291</ele>
        <time>2019-08-06T11:00:34.734Z</time>
      </trkpt>
      <trkpt lat="44.49772" lon="1.83523">
        <ele>291</ele>
        <time>2019-08-06T11:00:39.712Z</time>
      </trkpt>
      <trkpt lat="44.49771" lon="1.83523">
        <ele>291</ele>
        <time>2019-08-06T11:00:44.686Z</time>
      </trkpt>
      <trkpt lat="44.49769" lon="1.83523">
        <ele>291</ele>
        <time>2019-08-06T11:01:22.697Z</time>
      </trkpt>
      <trkpt lat="44.49769" lon="1.83523">
        <ele>291</ele>
        <time>2019-08-06T11:01:27.716Z</time>
      </trkpt>
      <trkpt lat="44.49768" lon="1.83523">
        <ele>291</ele>
        <time>2019-08-06T11:01:32.698Z</time>
      </trkpt>
      <trkpt lat="44.49767" lon="1.83524">
        <ele>291</ele>
        <time>2019-08-06T11:01:37.699Z</time>
      </trkpt>
      <trkpt lat="44.49759" lon="1.83526">
        <ele>290</ele>
        <time>2019-08-06T11:01:42.729Z</time>
      </trkpt>
      <trkpt lat="44.49753" lon="1.83523">
        <ele>290</ele>
        <time>2019-08-06T11:01:47.726Z</time>
      </trkpt>
      <trkpt lat="44.49747" lon="1.83521">
        <ele>290</ele>
        <time>2019-08-06T11:01:52.719Z</time>
      </trkpt>
      <trkpt lat="44.49742" lon="1.83517">
        <ele>290</ele>
        <time>2019-08-06T11:01:57.704Z</time>
      </trkpt>
      <trkpt lat="44.49737" lon="1.83512">
        <ele>291</ele>
        <time>2019-08-06T11:02:01.720Z</time>
      </trkpt>
      <trkpt lat="44.49731" lon="1.83508">
        <ele>290</ele>
        <time>2019-08-06T11:02:06.721Z</time>
      </trkpt>
      <trkpt lat="44.49723" lon="1.8351">
        <ele>290</ele>
        <time>2019-08-06T11:02:11.723Z</time>
      </trkpt>
      <trkpt lat="44.49717" lon="1.83511">
        <ele>290</ele>
        <time>2019-08-06T11:02:16.742Z</time>
      </trkpt>
      <trkpt lat="44.4971" lon="1.83509">
        <ele>290</ele>
        <time>2019-08-06T11:02:21.709Z</time>
      </trkpt>
      <trkpt lat="44.49703" lon="1.83508">
        <ele>290</ele>
        <time>2019-08-06T11:02:26.710Z</time>
      </trkpt>
      <trkpt lat="44.49695" lon="1.83509">
        <ele>290</ele>
        <time>2019-08-06T11:02:31.708Z</time>
      </trkpt>
      <trkpt lat="44.49687" lon="1.83514">
        <ele>290</ele>
        <time>2019-08-06T11:02:36.705Z</time>
      </trkpt>
      <trkpt lat="44.49682" lon="1.8352">
        <ele>289</ele>
        <time>2019-08-06T11:02:41.721Z</time>
      </trkpt>
      <trkpt lat="44.49677" lon="1.83526">
        <ele>290</ele>
        <time>2019-08-06T11:02:46.715Z</time>
      </trkpt>
      <trkpt lat="44.49672" lon="1.8353">
        <ele>290</ele>
        <time>2019-08-06T11:02:51.698Z</time>
      </trkpt>
      <trkpt lat="44.49668" lon="1.83535">
        <ele>290</ele>
        <time>2019-08-06T11:02:56.702Z</time>
      </trkpt>
      <trkpt lat="44.49663" lon="1.83539">
        <ele>290</ele>
        <time>2019-08-06T11:03:01.708Z</time>
      </trkpt>
      <trkpt lat="44.49658" lon="1.83546">
        <ele>289</ele>
        <time>2019-08-06T11:03:06.710Z</time>
      </trkpt>
      <trkpt lat="44.49653" lon="1.83551">
        <ele>289</ele>
        <time>2019-08-06T11:03:11.703Z</time>
      </trkpt>
      <trkpt lat="44.49651" lon="1.83556">
        <ele>289</ele>
        <time>2019-08-06T11:03:16.707Z</time>
      </trkpt>
      <trkpt lat="44.49647" lon="1.83565">
        <ele>289</ele>
        <time>2019-08-06T11:03:21.703Z</time>
      </trkpt>
      <trkpt lat="44.49643" lon="1.83574">
        <ele>287</ele>
        <time>2019-08-06T11:03:26.719Z</time>
      </trkpt>
      <trkpt lat="44.4964" lon="1.83579">
        <ele>287</ele>
        <time>2019-08-06T11:03:31.706Z</time>
      </trkpt>
      <trkpt lat="44.49637" lon="1.83589">
        <ele>287</ele>
        <time>2019-08-06T11:03:36.716Z</time>
      </trkpt>
      <trkpt lat="44.49635" lon="1.83596">
        <ele>287</ele>
        <time>2019-08-06T11:03:41.711Z</time>
      </trkpt>
      <trkpt lat="44.49634" lon="1.83604">
        <ele>285</ele>
        <time>2019-08-06T11:03:46.712Z</time>
      </trkpt>
      <trkpt lat="44.49633" lon="1.83611">
        <ele>285</ele>
        <time>2019-08-06T11:03:51.715Z</time>
      </trkpt>
      <trkpt lat="44.49632" lon="1.83617">
        <ele>285</ele>
        <time>2019-08-06T11:03:56.710Z</time>
      </trkpt>
      <trkpt lat="44.49631" lon="1.83622">
        <ele>285</ele>
        <time>2019-08-06T11:04:01.728Z</time>
      </trkpt>
      <trkpt lat="44.49628" lon="1.8363">
        <ele>285</ele>
        <time>2019-08-06T11:04:06.704Z</time>
      </trkpt>
      <trkpt lat="44.49624" lon="1.83634">
        <ele>283</ele>
        <time>2019-08-06T11:04:10.719Z</time>
      </trkpt>
      <trkpt lat="44.49616" lon="1.83641">
        <ele>283</ele>
        <time>2019-08-06T11:04:15.721Z</time>
      </trkpt>
      <trkpt lat="44.49611" lon="1.83645">
        <ele>283</ele>
        <time>2019-08-06T11:04:20.711Z</time>
      </trkpt>
      <trkpt lat="44.49607" lon="1.83648">
        <ele>283</ele>
        <time>2019-08-06T11:04:25.719Z</time>
      </trkpt>
      <trkpt lat="44.49599" lon="1.83656">
        <ele>284</ele>
        <time>2019-08-06T11:04:30.706Z</time>
      </trkpt>
      <trkpt lat="44.49592" lon="1.8366">
        <ele>282</ele>
        <time>2019-08-06T11:04:34.709Z</time>
      </trkpt>
      <trkpt lat="44.49586" lon="1.83663">
        <ele>282</ele>
        <time>2019-08-06T11:04:38.731Z</time>
      </trkpt>
      <trkpt lat="44.49579" lon="1.8367">
        <ele>282</ele>
        <time>2019-08-06T11:04:43.723Z</time>
      </trkpt>
      <trkpt lat="44.49578" lon="1.83672">
        <ele>282</ele>
        <time>2019-08-06T11:04:48.711Z</time>
      </trkpt>
      <trkpt lat="44.49575" lon="1.83674">
        <ele>282</ele>
        <time>2019-08-06T11:04:53.711Z</time>
      </trkpt>
      <trkpt lat="44.49567" lon="1.83676">
        <ele>276</ele>
        <time>2019-08-06T11:04:58.710Z</time>
      </trkpt>
      <trkpt lat="44.49559" lon="1.83679">
        <ele>276</ele>
        <time>2019-08-06T11:05:03.707Z</time>
      </trkpt>
      <trkpt lat="44.49552" lon="1.83679">
        <ele>276</ele>
        <time>2019-08-06T11:05:08.713Z</time>
      </trkpt>
      <trkpt lat="44.49545" lon="1.83681">
        <ele>275</ele>
        <time>2019-08-06T11:05:13.724Z</time>
      </trkpt>
      <trkpt lat="44.49538" lon="1.83679">
        <ele>271</ele>
        <time>2019-08-06T11:05:18.714Z</time>
      </trkpt>
      <trkpt lat="44.49538" lon="1.83679">
        <ele>271</ele>
        <time>2019-08-06T11:05:23.722Z</time>
      </trkpt>
      <trkpt lat="44.49537" lon="1.83679">
        <ele>271</ele>
        <time>2019-08-06T11:05:28.708Z</time>
      </trkpt>
      <trkpt lat="44.49533" lon="1.83679">
        <ele>271</ele>
        <time>2019-08-06T11:05:33.703Z</time>
      </trkpt>
      <trkpt lat="44.49529" lon="1.83676">
        <ele>271</ele>
        <time>2019-08-06T11:05:37.717Z</time>
      </trkpt>
      <trkpt lat="44.49523" lon="1.83677">
        <ele>271</ele>
        <time>2019-08-06T11:05:42.710Z</time>
      </trkpt>
      <trkpt lat="44.49516" lon="1.83679">
        <ele>271</ele>
        <time>2019-08-06T11:05:47.707Z</time>
      </trkpt>
      <trkpt lat="44.49509" lon="1.83683">
        <ele>269</ele>
        <time>2019-08-06T11:05:52.711Z</time>
      </trkpt>
      <trkpt lat="44.49504" lon="1.83689">
        <ele>269</ele>
        <time>2019-08-06T11:05:57.712Z</time>
      </trkpt>
      <trkpt lat="44.495" lon="1.8369">
        <ele>269</ele>
        <time>2019-08-06T11:06:02.716Z</time>
      </trkpt>
      <trkpt lat="44.49494" lon="1.83693">
        <ele>269</ele>
        <time>2019-08-06T11:06:07.709Z</time>
      </trkpt>
      <trkpt lat="44.49488" lon="1.83694">
        <ele>269</ele>
        <time>2019-08-06T11:06:12.722Z</time>
      </trkpt>
      <trkpt lat="44.49481" lon="1.83699">
        <ele>267</ele>
        <time>2019-08-06T11:06:17.702Z</time>
      </trkpt>
      <trkpt lat="44.49477" lon="1.83702">
        <ele>267</ele>
        <time>2019-08-06T11:06:21.721Z</time>
      </trkpt>
      <trkpt lat="44.49471" lon="1.83707">
        <ele>267</ele>
        <time>2019-08-06T11:06:26.708Z</time>
      </trkpt>
      <trkpt lat="44.49468" lon="1.83711">
        <ele>266</ele>
        <time>2019-08-06T11:06:31.708Z</time>
      </trkpt>
      <trkpt lat="44.49462" lon="1.83714">
        <ele>266</ele>
        <time>2019-08-06T11:06:36.719Z</time>
      </trkpt>
      <trkpt lat="44.49455" lon="1.83716">
        <ele>262</ele>
        <time>2019-08-06T11:06:41.718Z</time>
      </trkpt>
      <trkpt lat="44.49449" lon="1.83718">
        <ele>262</ele>
        <time>2019-08-06T11:06:46.704Z</time>
      </trkpt>
      <trkpt lat="44.49444" lon="1.83721">
        <ele>262</ele>
        <time>2019-08-06T11:06:50.716Z</time>
      </trkpt>
      <trkpt lat="44.49438" lon="1.83727">
        <ele>262</ele>
        <time>2019-08-06T11:06:55.720Z</time>
      </trkpt>
      <trkpt lat="44.49425" lon="1.83739">
        <ele>251</ele>
        <time>2019-08-06T11:08:13.695Z</time>
      </trkpt>
      <trkpt lat="44.49425" lon="1.83739">
        <ele>251</ele>
        <time>2019-08-06T11:08:18.690Z</time>
      </trkpt>
      <trkpt lat="44.49424" lon="1.8374">
        <ele>251</ele>
        <time>2019-08-06T11:08:23.701Z</time>
      </trkpt>
      <trkpt lat="44.49423" lon="1.8374">
        <ele>251</ele>
        <time>2019-08-06T11:08:28.684Z</time>
      </trkpt>
      <trkpt lat="44.49423" lon="1.8374">
        <ele>251</ele>
        <time>2019-08-06T11:08:32.711Z</time>
      </trkpt>
      <trkpt lat="44.49422" lon="1.83741">
        <ele>251</ele>
        <time>2019-08-06T11:08:57.693Z</time>
      </trkpt>
      <trkpt lat="44.49422" lon="1.83741">
        <ele>251</ele>
        <time>2019-08-06T11:09:02.689Z</time>
      </trkpt>
      <trkpt lat="44.4942" lon="1.83739">
        <ele>251</ele>
        <time>2019-08-06T11:09:07.704Z</time>
      </trkpt>
      <trkpt lat="44.49415" lon="1.83733">
        <ele>260</ele>
        <time>2019-08-06T11:09:11.720Z</time>
      </trkpt>
      <trkpt lat="44.49411" lon="1.8373">
        <ele>260</ele>
        <time>2019-08-06T11:09:16.706Z</time>
      </trkpt>
      <trkpt lat="44.49406" lon="1.83726">
        <ele>260</ele>
        <time>2019-08-06T11:09:21.721Z</time>
      </trkpt>
      <trkpt lat="44.494" lon="1.83721">
        <ele>255</ele>
        <time>2019-08-06T11:09:26.708Z</time>
      </trkpt>
      <trkpt lat="44.49394" lon="1.83716">
        <ele>255</ele>
        <time>2019-08-06T11:09:31.707Z</time>
      </trkpt>
      <trkpt lat="44.49387" lon="1.8371">
        <ele>255</ele>
        <time>2019-08-06T11:09:36.698Z</time>
      </trkpt>
      <trkpt lat="44.49381" lon="1.83706">
        <ele>267</ele>
        <time>2019-08-06T11:09:40.712Z</time>
      </trkpt>
      <trkpt lat="44.49374" lon="1.83701">
        <ele>259</ele>
        <time>2019-08-06T11:09:45.712Z</time>
      </trkpt>
      <trkpt lat="44.49366" lon="1.83699">
        <ele>259</ele>
        <time>2019-08-06T11:09:50.726Z</time>
      </trkpt>
      <trkpt lat="44.49359" lon="1.83697">
        <ele>259</ele>
        <time>2019-08-06T11:09:55.709Z</time>
      </trkpt>
      <trkpt lat="44.49352" lon="1.83694">
        <ele>259</ele>
        <time>2019-08-06T11:10:00.699Z</time>
      </trkpt>
      <trkpt lat="44.49346" lon="1.8369">
        <ele>252</ele>
        <time>2019-08-06T11:10:05.679Z</time>
      </trkpt>
      <trkpt lat="44.49344" lon="1.8369">
        <ele>252</ele>
        <time>2019-08-06T11:10:09.698Z</time>
      </trkpt>
      <trkpt lat="44.49343" lon="1.8369">
        <ele>252</ele>
        <time>2019-08-06T11:10:13.681Z</time>
      </trkpt>
      <trkpt lat="44.49343" lon="1.8369">
        <ele>252</ele>
        <time>2019-08-06T11:10:18.688Z</time>
      </trkpt>
      <trkpt lat="44.49343" lon="1.8369">
        <ele>252</ele>
        <time>2019-08-06T11:10:23.695Z</time>
      </trkpt>
      <trkpt lat="44.49343" lon="1.8369">
        <ele>252</ele>
        <time>2019-08-06T11:10:27.691Z</time>
      </trkpt>
      <trkpt lat="44.4934" lon="1.83688">
        <ele>252</ele>
        <time>2019-08-06T11:10:32.704Z</time>
      </trkpt>
      <trkpt lat="44.49333" lon="1.83689">
        <ele>252</ele>
        <time>2019-08-06T11:10:37.703Z</time>
      </trkpt>
      <trkpt lat="44.49328" lon="1.83689">
        <ele>252</ele>
        <time>2019-08-06T11:10:42.704Z</time>
      </trkpt>
      <trkpt lat="44.49322" lon="1.8369">
        <ele>252</ele>
        <time>2019-08-06T11:10:47.708Z</time>
      </trkpt>
      <trkpt lat="44.49314" lon="1.83686">
        <ele>245</ele>
        <time>2019-08-06T11:10:52.707Z</time>
      </trkpt>
      <trkpt lat="44.4931" lon="1.83682">
        <ele>245</ele>
        <time>2019-08-06T11:10:56.731Z</time>
      </trkpt>
      <trkpt lat="44.49305" lon="1.83676">
        <ele>266</ele>
        <time>2019-08-06T11:11:01.717Z</time>
      </trkpt>
      <trkpt lat="44.493" lon="1.83674">
        <ele>266</ele>
        <time>2019-08-06T11:11:06.702Z</time>
      </trkpt>
      <trkpt lat="44.49299" lon="1.83672">
        <ele>266</ele>
        <time>2019-08-06T11:11:11.725Z</time>
      </trkpt>
      <trkpt lat="44.49295" lon="1.83669">
        <ele>266</ele>
        <time>2019-08-06T11:11:16.714Z</time>
      </trkpt>
      <trkpt lat="44.49292" lon="1.83667">
        <ele>253</ele>
        <time>2019-08-06T11:11:21.703Z</time>
      </trkpt>
      <trkpt lat="44.49288" lon="1.83667">
        <ele>253</ele>
        <time>2019-08-06T11:11:25.708Z</time>
      </trkpt>
      <trkpt lat="44.49285" lon="1.83666">
        <ele>253</ele>
        <time>2019-08-06T11:11:30.711Z</time>
      </trkpt>
      <trkpt lat="44.4928" lon="1.83664">
        <ele>253</ele>
        <time>2019-08-06T11:11:35.706Z</time>
      </trkpt>
      <trkpt lat="44.49277" lon="1.83665">
        <ele>253</ele>
        <time>2019-08-06T11:11:40.695Z</time>
      </trkpt>
      <trkpt lat="44.49275" lon="1.83664">
        <ele>253</ele>
        <time>2019-08-06T11:11:45.713Z</time>
      </trkpt>
      <trkpt lat="44.4927" lon="1.83662">
        <ele>253</ele>
        <time>2019-08-06T11:11:50.710Z</time>
      </trkpt>
      <trkpt lat="44.49266" lon="1.83661">
        <ele>253</ele>
        <time>2019-08-06T11:11:55.695Z</time>
      </trkpt>
      <trkpt lat="44.49262" lon="1.83665">
        <ele>238</ele>
        <time>2019-08-06T11:12:00.711Z</time>
      </trkpt>
      <trkpt lat="44.49262" lon="1.83665">
        <ele>238</ele>
        <time>2019-08-06T11:12:05.713Z</time>
      </trkpt>
      <trkpt lat="44.49257" lon="1.83662">
        <ele>238</ele>
        <time>2019-08-06T11:12:10.712Z</time>
      </trkpt>
      <trkpt lat="44.49252" lon="1.8366">
        <ele>238</ele>
        <time>2019-08-06T11:12:15.700Z</time>
      </trkpt>
      <trkpt lat="44.49247" lon="1.8366">
        <ele>238</ele>
        <time>2019-08-06T11:12:20.717Z</time>
      </trkpt>
      <trkpt lat="44.49242" lon="1.83661">
        <ele>238</ele>
        <time>2019-08-06T11:12:25.698Z</time>
      </trkpt>
      <trkpt lat="44.49239" lon="1.83661">
        <ele>238</ele>
        <time>2019-08-06T11:12:29.719Z</time>
      </trkpt>
      <trkpt lat="44.49234" lon="1.83663">
        <ele>232</ele>
        <time>2019-08-06T11:12:34.705Z</time>
      </trkpt>
      <trkpt lat="44.49229" lon="1.83662">
        <ele>232</ele>
        <time>2019-08-06T11:12:39.694Z</time>
      </trkpt>
      <trkpt lat="44.49224" lon="1.8366">
        <ele>232</ele>
        <time>2019-08-06T11:12:44.717Z</time>
      </trkpt>
      <trkpt lat="44.49218" lon="1.83658">
        <ele>232</ele>
        <time>2019-08-06T11:12:49.695Z</time>
      </trkpt>
      <trkpt lat="44.49213" lon="1.83656">
        <ele>232</ele>
        <time>2019-08-06T11:12:54.708Z</time>
      </trkpt>
      <trkpt lat="44.49209" lon="1.83649">
        <ele>241</ele>
        <time>2019-08-06T11:12:59.710Z</time>
      </trkpt>
      <trkpt lat="44.49202" lon="1.83647">
        <ele>235</ele>
        <time>2019-08-06T11:13:04.712Z</time>
      </trkpt>
      <trkpt lat="44.49197" lon="1.8364">
        <ele>235</ele>
        <time>2019-08-06T11:13:09.700Z</time>
      </trkpt>
      <trkpt lat="44.49193" lon="1.83637">
        <ele>235</ele>
        <time>2019-08-06T11:13:14.724Z</time>
      </trkpt>
      <trkpt lat="44.49187" lon="1.83638">
        <ele>235</ele>
        <time>2019-08-06T11:13:19.706Z</time>
      </trkpt>
      <trkpt lat="44.49183" lon="1.83625">
        <ele>235</ele>
        <time>2019-08-06T11:13:24.713Z</time>
      </trkpt>
      <trkpt lat="44.49181" lon="1.83624">
        <ele>261</ele>
        <time>2019-08-06T11:13:29.704Z</time>
      </trkpt>
      <trkpt lat="44.4918" lon="1.83625">
        <ele>239</ele>
        <time>2019-08-06T11:13:34.708Z</time>
      </trkpt>
      <trkpt lat="44.49173" lon="1.83618">
        <ele>239</ele>
        <time>2019-08-06T11:13:54.731Z</time>
      </trkpt>
      <trkpt lat="44.49173" lon="1.83617">
        <ele>239</ele>
        <time>2019-08-06T11:13:59.689Z</time>
      </trkpt>
      <trkpt lat="44.49171" lon="1.83621">
        <ele>239</ele>
        <time>2019-08-06T11:14:03.700Z</time>
      </trkpt>
      <trkpt lat="44.4917" lon="1.83624">
        <ele>239</ele>
        <time>2019-08-06T11:14:08.689Z</time>
      </trkpt>
      <trkpt lat="44.49167" lon="1.83624">
        <ele>239</ele>
        <time>2019-08-06T11:14:13.710Z</time>
      </trkpt>
      <trkpt lat="44.49168" lon="1.83625">
        <ele>228</ele>
        <time>2019-08-06T11:14:19.689Z</time>
      </trkpt>
      <trkpt lat="44.49167" lon="1.83628">
        <ele>228</ele>
        <time>2019-08-06T11:14:27.692Z</time>
      </trkpt>
      <trkpt lat="44.49164" lon="1.83629">
        <ele>228</ele>
        <time>2019-08-06T11:14:39.702Z</time>
      </trkpt>
      <trkpt lat="44.49165" lon="1.8363">
        <ele>228</ele>
        <time>2019-08-06T11:14:44.701Z</time>
      </trkpt>
      <trkpt lat="44.49162" lon="1.83636">
        <ele>228</ele>
        <time>2019-08-06T11:14:52.691Z</time>
      </trkpt>
      <trkpt lat="44.49161" lon="1.83621">
        <ele>239</ele>
        <time>2019-08-06T11:18:05.712Z</time>
      </trkpt>
      <trkpt lat="44.49154" lon="1.83622">
        <ele>239</ele>
        <time>2019-08-06T11:18:10.738Z</time>
      </trkpt>
      <trkpt lat="44.4915" lon="1.83624">
        <ele>235</ele>
        <time>2019-08-06T11:18:15.708Z</time>
      </trkpt>
      <trkpt lat="44.49144" lon="1.83627">
        <ele>224</ele>
        <time>2019-08-06T11:18:20.702Z</time>
      </trkpt>
      <trkpt lat="44.49138" lon="1.83629">
        <ele>224</ele>
        <time>2019-08-06T11:18:25.712Z</time>
      </trkpt>
      <trkpt lat="44.49132" lon="1.8363">
        <ele>224</ele>
        <time>2019-08-06T11:18:30.689Z</time>
      </trkpt>
      <trkpt lat="44.49125" lon="1.83633">
        <ele>224</ele>
        <time>2019-08-06T11:18:35.710Z</time>
      </trkpt>
      <trkpt lat="44.4912" lon="1.83632">
        <ele>222</ele>
        <time>2019-08-06T11:18:40.699Z</time>
      </trkpt>
      <trkpt lat="44.49117" lon="1.83632">
        <ele>222</ele>
        <time>2019-08-06T11:18:45.700Z</time>
      </trkpt>
      <trkpt lat="44.49115" lon="1.83632">
        <ele>222</ele>
        <time>2019-08-06T11:18:49.707Z</time>
      </trkpt>
      <trkpt lat="44.4911" lon="1.83634">
        <ele>222</ele>
        <time>2019-08-06T11:18:54.732Z</time>
      </trkpt>
      <trkpt lat="44.49106" lon="1.83636">
        <ele>222</ele>
        <time>2019-08-06T11:18:59.705Z</time>
      </trkpt>
      <trkpt lat="44.49101" lon="1.83636">
        <ele>222</ele>
        <time>2019-08-06T11:19:04.704Z</time>
      </trkpt>
      <trkpt lat="44.49097" lon="1.83637">
        <ele>219</ele>
        <time>2019-08-06T11:19:09.703Z</time>
      </trkpt>
      <trkpt lat="44.49092" lon="1.8364">
        <ele>219</ele>
        <time>2019-08-06T11:19:14.714Z</time>
      </trkpt>
      <trkpt lat="44.49087" lon="1.8364">
        <ele>219</ele>
        <time>2019-08-06T11:19:19.709Z</time>
      </trkpt>
      <trkpt lat="44.49082" lon="1.8364">
        <ele>219</ele>
        <time>2019-08-06T11:19:24.707Z</time>
      </trkpt>
      <trkpt lat="44.49077" lon="1.83642">
        <ele>219</ele>
        <time>2019-08-06T11:19:29.705Z</time>
      </trkpt>
      <trkpt lat="44.49073" lon="1.83642">
        <ele>219</ele>
        <time>2019-08-06T11:19:34.710Z</time>
      </trkpt>
      <trkpt lat="44.49072" lon="1.83641">
        <ele>219</ele>
        <time>2019-08-06T11:19:39.709Z</time>
      </trkpt>
      <trkpt lat="44.49068" lon="1.83643">
        <ele>208</ele>
        <time>2019-08-06T11:19:44.691Z</time>
      </trkpt>
      <trkpt lat="44.49063" lon="1.83643">
        <ele>208</ele>
        <time>2019-08-06T11:19:48.744Z</time>
      </trkpt>
      <trkpt lat="44.49058" lon="1.83644">
        <ele>208</ele>
        <time>2019-08-06T11:19:53.705Z</time>
      </trkpt>
      <trkpt lat="44.49052" lon="1.83647">
        <ele>208</ele>
        <time>2019-08-06T11:19:58.711Z</time>
      </trkpt>
      <trkpt lat="44.49048" lon="1.83646">
        <ele>208</ele>
        <time>2019-08-06T11:20:03.708Z</time>
      </trkpt>
      <trkpt lat="44.49047" lon="1.83644">
        <ele>208</ele>
        <time>2019-08-06T11:20:08.682Z</time>
      </trkpt>
      <trkpt lat="44.49045" lon="1.83644">
        <ele>208</ele>
        <time>2019-08-06T11:20:12.704Z</time>
      </trkpt>
      <trkpt lat="44.4904" lon="1.83646">
        <ele>204</ele>
        <time>2019-08-06T11:20:17.705Z</time>
      </trkpt>
      <trkpt lat="44.49036" lon="1.83648">
        <ele>204</ele>
        <time>2019-08-06T11:20:22.699Z</time>
      </trkpt>
      <trkpt lat="44.49033" lon="1.8365">
        <ele>204</ele>
        <time>2019-08-06T11:20:26.716Z</time>
      </trkpt>
      <trkpt lat="44.4903" lon="1.83651">
        <ele>204</ele>
        <time>2019-08-06T11:20:31.715Z</time>
      </trkpt>
      <trkpt lat="44.49027" lon="1.83651">
        <ele>204</ele>
        <time>2019-08-06T11:20:36.705Z</time>
      </trkpt>
      <trkpt lat="44.49025" lon="1.83651">
        <ele>204</ele>
        <time>2019-08-06T11:20:40.721Z</time>
      </trkpt>
      <trkpt lat="44.49019" lon="1.8365">
        <ele>204</ele>
        <time>2019-08-06T11:20:45.698Z</time>
      </trkpt>
      <trkpt lat="44.49013" lon="1.83651">
        <ele>202</ele>
        <time>2019-08-06T11:20:50.706Z</time>
      </trkpt>
      <trkpt lat="44.49008" lon="1.83652">
        <ele>202</ele>
        <time>2019-08-06T11:20:55.704Z</time>
      </trkpt>
      <trkpt lat="44.49003" lon="1.83653">
        <ele>189</ele>
        <time>2019-08-06T11:21:00.722Z</time>
      </trkpt>
      <trkpt lat="44.48997" lon="1.83655">
        <ele>189</ele>
        <time>2019-08-06T11:21:05.707Z</time>
      </trkpt>
      <trkpt lat="44.48991" lon="1.83657">
        <ele>189</ele>
        <time>2019-08-06T11:21:10.697Z</time>
      </trkpt>
      <trkpt lat="44.4899" lon="1.83658">
        <ele>189</ele>
        <time>2019-08-06T11:21:15.708Z</time>
      </trkpt>
      <trkpt lat="44.48989" lon="1.83657">
        <ele>189</ele>
        <time>2019-08-06T11:21:20.684Z</time>
      </trkpt>
      <trkpt lat="44.48987" lon="1.83657">
        <ele>189</ele>
        <time>2019-08-06T11:21:24.697Z</time>
      </trkpt>
      <trkpt lat="44.48981" lon="1.83659">
        <ele>189</ele>
        <time>2019-08-06T11:21:29.720Z</time>
      </trkpt>
      <trkpt lat="44.48975" lon="1.83661">
        <ele>189</ele>
        <time>2019-08-06T11:21:34.706Z</time>
      </trkpt>
      <trkpt lat="44.48969" lon="1.83663">
        <ele>189</ele>
        <time>2019-08-06T11:21:39.735Z</time>
      </trkpt>
      <trkpt lat="44.48965" lon="1.83668">
        <ele>189</ele>
        <time>2019-08-06T11:21:44.709Z</time>
      </trkpt>
      <trkpt lat="44.48959" lon="1.83672">
        <ele>189</ele>
        <time>2019-08-06T11:21:49.702Z</time>
      </trkpt>
      <trkpt lat="44.48947" lon="1.83678">
        <ele>186</ele>
        <time>2019-08-06T11:21:59.708Z</time>
      </trkpt>
      <trkpt lat="44.48945" lon="1.83678">
        <ele>186</ele>
        <time>2019-08-06T11:22:04.693Z</time>
      </trkpt>
      <trkpt lat="44.48945" lon="1.83678">
        <ele>186</ele>
        <time>2019-08-06T11:22:08.698Z</time>
      </trkpt>
      <trkpt lat="44.48945" lon="1.83679">
        <ele>186</ele>
        <time>2019-08-06T11:22:12.714Z</time>
      </trkpt>
      <trkpt lat="44.48941" lon="1.83681">
        <ele>179</ele>
        <time>2019-08-06T11:22:17.733Z</time>
      </trkpt>
      <trkpt lat="44.48937" lon="1.83683">
        <ele>179</ele>
        <time>2019-08-06T11:22:22.714Z</time>
      </trkpt>
      <trkpt lat="44.48931" lon="1.83689">
        <ele>179</ele>
        <time>2019-08-06T11:22:27.697Z</time>
      </trkpt>
      <trkpt lat="44.48927" lon="1.83696">
        <ele>178</ele>
        <time>2019-08-06T11:22:32.700Z</time>
      </trkpt>
      <trkpt lat="44.48925" lon="1.837">
        <ele>178</ele>
        <time>2019-08-06T11:22:37.706Z</time>
      </trkpt>
      <trkpt lat="44.48918" lon="1.83708">
        <ele>178</ele>
        <time>2019-08-06T11:22:42.694Z</time>
      </trkpt>
      <trkpt lat="44.48916" lon="1.83715">
        <ele>171</ele>
        <time>2019-08-06T11:22:46.694Z</time>
      </trkpt>
      <trkpt lat="44.48914" lon="1.8372">
        <ele>171</ele>
        <time>2019-08-06T11:22:50.711Z</time>
      </trkpt>
      <trkpt lat="44.48912" lon="1.83727">
        <ele>171</ele>
        <time>2019-08-06T11:22:55.695Z</time>
      </trkpt>
      <trkpt lat="44.48906" lon="1.83726">
        <ele>171</ele>
        <time>2019-08-06T11:23:04.678Z</time>
      </trkpt>
      <trkpt lat="44.48905" lon="1.83726">
        <ele>171</ele>
        <time>2019-08-06T11:23:09.690Z</time>
      </trkpt>
      <trkpt lat="44.48906" lon="1.8373">
        <ele>171</ele>
        <time>2019-08-06T11:23:13.690Z</time>
      </trkpt>
      <trkpt lat="44.48904" lon="1.83736">
        <ele>171</ele>
        <time>2019-08-06T11:23:17.714Z</time>
      </trkpt>
      <trkpt lat="44.48901" lon="1.83736">
        <ele>174</ele>
        <time>2019-08-06T11:23:22.702Z</time>
      </trkpt>
      <trkpt lat="44.489" lon="1.83746">
        <ele>169</ele>
        <time>2019-08-06T11:23:27.705Z</time>
      </trkpt>
      <trkpt lat="44.48899" lon="1.83752">
        <ele>169</ele>
        <time>2019-08-06T11:23:32.698Z</time>
      </trkpt>
      <trkpt lat="44.48898" lon="1.8376">
        <ele>169</ele>
        <time>2019-08-06T11:23:36.745Z</time>
      </trkpt>
      <trkpt lat="44.48897" lon="1.83771">
        <ele>165</ele>
        <time>2019-08-06T11:23:41.690Z</time>
      </trkpt>
      <trkpt lat="44.48896" lon="1.83783">
        <ele>165</ele>
        <time>2019-08-06T11:23:46.707Z</time>
      </trkpt>
      <trkpt lat="44.48893" lon="1.83791">
        <ele>165</ele>
        <time>2019-08-06T11:23:51.695Z</time>
      </trkpt>
      <trkpt lat="44.48892" lon="1.83801">
        <ele>162</ele>
        <time>2019-08-06T11:23:56.712Z</time>
      </trkpt>
      <trkpt lat="44.48891" lon="1.83808">
        <ele>162</ele>
        <time>2019-08-06T11:24:01.689Z</time>
      </trkpt>
      <trkpt lat="44.48887" lon="1.83835">
        <ele>160</ele>
        <time>2019-08-06T11:24:26.703Z</time>
      </trkpt>
      <trkpt lat="44.48881" lon="1.83842">
        <ele>160</ele>
        <time>2019-08-06T11:24:31.687Z</time>
      </trkpt>
      <trkpt lat="44.48881" lon="1.83848">
        <ele>159</ele>
        <time>2019-08-06T11:24:36.718Z</time>
      </trkpt>
      <trkpt lat="44.48879" lon="1.83855">
        <ele>159</ele>
        <time>2019-08-06T11:24:41.685Z</time>
      </trkpt>
      <trkpt lat="44.48876" lon="1.83863">
        <ele>159</ele>
        <time>2019-08-06T11:24:46.708Z</time>
      </trkpt>
      <trkpt lat="44.48875" lon="1.8387">
        <ele>158</ele>
        <time>2019-08-06T11:24:51.689Z</time>
      </trkpt>
      <trkpt lat="44.48876" lon="1.83881">
        <ele>158</ele>
        <time>2019-08-06T11:24:56.707Z</time>
      </trkpt>
      <trkpt lat="44.48873" lon="1.83888">
        <ele>158</ele>
        <time>2019-08-06T11:25:00.718Z</time>
      </trkpt>
      <trkpt lat="44.48869" lon="1.83897">
        <ele>158</ele>
        <time>2019-08-06T11:25:05.690Z</time>
      </trkpt>
      <trkpt lat="44.48865" lon="1.839">
        <ele>158</ele>
        <time>2019-08-06T11:25:10.701Z</time>
      </trkpt>
      <trkpt lat="44.48864" lon="1.83904">
        <ele>157</ele>
        <time>2019-08-06T11:25:15.690Z</time>
      </trkpt>
      <trkpt lat="44.48862" lon="1.83911">
        <ele>157</ele>
        <time>2019-08-06T11:25:19.698Z</time>
      </trkpt>
      <trkpt lat="44.4886" lon="1.83921">
        <ele>157</ele>
        <time>2019-08-06T11:25:24.691Z</time>
      </trkpt>
      <trkpt lat="44.48856" lon="1.83931">
        <ele>156</ele>
        <time>2019-08-06T11:25:29.697Z</time>
      </trkpt>
      <trkpt lat="44.48855" lon="1.83943">
        <ele>156</ele>
        <time>2019-08-06T11:25:34.710Z</time>
      </trkpt>
      <trkpt lat="44.48854" lon="1.83954">
        <ele>156</ele>
        <time>2019-08-06T11:25:39.700Z</time>
      </trkpt>
      <trkpt lat="44.48851" lon="1.83962">
        <ele>156</ele>
        <time>2019-08-06T11:25:44.710Z</time>
      </trkpt>
      <trkpt lat="44.48841" lon="1.83975">
        <ele>155</ele>
        <time>2019-08-06T11:26:13.679Z</time>
      </trkpt>
      <trkpt lat="44.48841" lon="1.83975">
        <ele>155</ele>
        <time>2019-08-06T11:26:18.693Z</time>
      </trkpt>
      <trkpt lat="44.48841" lon="1.83974">
        <ele>155</ele>
        <time>2019-08-06T11:26:23.681Z</time>
      </trkpt>
      <trkpt lat="44.4884" lon="1.83974">
        <ele>155</ele>
        <time>2019-08-06T11:26:27.691Z</time>
      </trkpt>
      <trkpt lat="44.48838" lon="1.83972">
        <ele>155</ele>
        <time>2019-08-06T11:26:32.693Z</time>
      </trkpt>
      <trkpt lat="44.48834" lon="1.83972">
        <ele>155</ele>
        <time>2019-08-06T11:28:31.726Z</time>
      </trkpt>
      <trkpt lat="44.48833" lon="1.8397">
        <ele>155</ele>
        <time>2019-08-06T11:28:36.696Z</time>
      </trkpt>
      <trkpt lat="44.48839" lon="1.8397">
        <ele>155</ele>
        <time>2019-08-06T11:28:41.714Z</time>
      </trkpt>
      <trkpt lat="44.48839" lon="1.83983">
        <ele>155</ele>
        <time>2019-08-06T11:28:46.713Z</time>
      </trkpt>
      <trkpt lat="44.48837" lon="1.83991">
        <ele>155</ele>
        <time>2019-08-06T11:28:51.720Z</time>
      </trkpt>
      <trkpt lat="44.48836" lon="1.84002">
        <ele>155</ele>
        <time>2019-08-06T11:28:56.705Z</time>
      </trkpt>
      <trkpt lat="44.48833" lon="1.84006">
        <ele>155</ele>
        <time>2019-08-06T11:29:01.698Z</time>
      </trkpt>
      <trkpt lat="44.48833" lon="1.84014">
        <ele>155</ele>
        <time>2019-08-06T11:29:06.707Z</time>
      </trkpt>
      <trkpt lat="44.48831" lon="1.84023">
        <ele>156</ele>
        <time>2019-08-06T11:29:11.691Z</time>
      </trkpt>
      <trkpt lat="44.48827" lon="1.84025">
        <ele>156</ele>
        <time>2019-08-06T11:29:40.697Z</time>
      </trkpt>
      <trkpt lat="44.48827" lon="1.84025">
        <ele>156</ele>
        <time>2019-08-06T11:29:45.689Z</time>
      </trkpt>
      <trkpt lat="44.48827" lon="1.84027">
        <ele>156</ele>
        <time>2019-08-06T11:29:50.697Z</time>
      </trkpt>
      <trkpt lat="44.48826" lon="1.84031">
        <ele>156</ele>
        <time>2019-08-06T11:29:55.686Z</time>
      </trkpt>
      <trkpt lat="44.48823" lon="1.84038">
        <ele>156</ele>
        <time>2019-08-06T11:30:00.693Z</time>
      </trkpt>
      <trkpt lat="44.4882" lon="1.84048">
        <ele>155</ele>
        <time>2019-08-06T11:30:04.707Z</time>
      </trkpt>
      <trkpt lat="44.48818" lon="1.84056">
        <ele>156</ele>
        <time>2019-08-06T11:30:09.706Z</time>
      </trkpt>
      <trkpt lat="44.48816" lon="1.84062">
        <ele>156</ele>
        <time>2019-08-06T11:30:14.696Z</time>
      </trkpt>
      <trkpt lat="44.48813" lon="1.8407">
        <ele>156</ele>
        <time>2019-08-06T11:30:19.723Z</time>
      </trkpt>
      <trkpt lat="44.4881" lon="1.84076">
        <ele>156</ele>
        <time>2019-08-06T11:30:24.697Z</time>
      </trkpt>
      <trkpt lat="44.48807" lon="1.84084">
        <ele>156</ele>
        <time>2019-08-06T11:30:29.711Z</time>
      </trkpt>
      <trkpt lat="44.48805" lon="1.8409">
        <ele>156</ele>
        <time>2019-08-06T11:30:34.714Z</time>
      </trkpt>
      <trkpt lat="44.48798" lon="1.841">
        <ele>155</ele>
        <time>2019-08-06T11:30:39.688Z</time>
      </trkpt>
      <trkpt lat="44.48791" lon="1.84107">
        <ele>154</ele>
        <time>2019-08-06T11:30:44.711Z</time>
      </trkpt>
      <trkpt lat="44.48781" lon="1.84108">
        <ele>154</ele>
        <time>2019-08-06T11:30:49.736Z</time>
      </trkpt>
      <trkpt lat="44.48777" lon="1.84113">
        <ele>154</ele>
        <time>2019-08-06T11:30:54.694Z</time>
      </trkpt>
      <trkpt lat="44.48772" lon="1.84117">
        <ele>154</ele>
        <time>2019-08-06T11:30:59.689Z</time>
      </trkpt>
      <trkpt lat="44.48767" lon="1.84118">
        <ele>154</ele>
        <time>2019-08-06T11:31:04.690Z</time>
      </trkpt>
      <trkpt lat="44.48762" lon="1.84122">
        <ele>153</ele>
        <time>2019-08-06T11:31:09.690Z</time>
      </trkpt>
      <trkpt lat="44.48755" lon="1.84125">
        <ele>153</ele>
        <time>2019-08-06T11:31:14.707Z</time>
      </trkpt>
      <trkpt lat="44.48749" lon="1.84128">
        <ele>153</ele>
        <time>2019-08-06T11:31:19.692Z</time>
      </trkpt>
      <trkpt lat="44.48744" lon="1.84132">
        <ele>153</ele>
        <time>2019-08-06T11:31:24.695Z</time>
      </trkpt>
      <trkpt lat="44.48739" lon="1.84137">
        <ele>153</ele>
        <time>2019-08-06T11:31:29.697Z</time>
      </trkpt>
      <trkpt lat="44.48734" lon="1.84141">
        <ele>152</ele>
        <time>2019-08-06T11:31:34.703Z</time>
      </trkpt>
      <trkpt lat="44.48729" lon="1.84146">
        <ele>152</ele>
        <time>2019-08-06T11:31:39.722Z</time>
      </trkpt>
      <trkpt lat="44.48723" lon="1.84151">
        <ele>152</ele>
        <time>2019-08-06T11:31:44.708Z</time>
      </trkpt>
      <trkpt lat="44.48716" lon="1.84156">
        <ele>152</ele>
        <time>2019-08-06T11:31:49.698Z</time>
      </trkpt>
      <trkpt lat="44.48709" lon="1.84164">
        <ele>152</ele>
        <time>2019-08-06T11:31:54.708Z</time>
      </trkpt>
      <trkpt lat="44.48701" lon="1.84167">
        <ele>153</ele>
        <time>2019-08-06T11:31:59.677Z</time>
      </trkpt>
      <trkpt lat="44.48697" lon="1.8417">
        <ele>153</ele>
        <time>2019-08-06T11:32:03.714Z</time>
      </trkpt>
      <trkpt lat="44.48692" lon="1.84174">
        <ele>153</ele>
        <time>2019-08-06T11:32:07.742Z</time>
      </trkpt>
      <trkpt lat="44.4869" lon="1.84175">
        <ele>153</ele>
        <time>2019-08-06T11:32:12.699Z</time>
      </trkpt>
      <trkpt lat="44.48688" lon="1.84173">
        <ele>153</ele>
        <time>2019-08-06T11:32:17.686Z</time>
      </trkpt>
      <trkpt lat="44.48687" lon="1.84166">
        <ele>153</ele>
        <time>2019-08-06T11:32:22.701Z</time>
      </trkpt>
      <trkpt lat="44.48685" lon="1.84156">
        <ele>153</ele>
        <time>2019-08-06T11:32:27.707Z</time>
      </trkpt>
      <trkpt lat="44.48685" lon="1.84154">
        <ele>153</ele>
        <time>2019-08-06T11:32:32.701Z</time>
      </trkpt>
      <trkpt lat="44.48685" lon="1.84154">
        <ele>153</ele>
        <time>2019-08-06T11:32:37.685Z</time>
      </trkpt>
      <trkpt lat="44.48684" lon="1.84148">
        <ele>153</ele>
        <time>2019-08-06T11:32:41.741Z</time>
      </trkpt>
      <trkpt lat="44.48687" lon="1.84156">
        <ele>153</ele>
        <time>2019-08-06T12:59:04.592Z</time>
      </trkpt>
      <trkpt lat="44.48683" lon="1.84159">
        <ele>153</ele>
        <time>2019-08-06T12:59:09.582Z</time>
      </trkpt>
      <trkpt lat="44.48683" lon="1.84161">
        <ele>153</ele>
        <time>2019-08-06T12:59:13.585Z</time>
      </trkpt>
      <trkpt lat="44.48682" lon="1.84165">
        <ele>153</ele>
        <time>2019-08-06T12:59:17.588Z</time>
      </trkpt>
      <trkpt lat="44.4868" lon="1.84173">
        <ele>152</ele>
        <time>2019-08-06T12:59:22.582Z</time>
      </trkpt>
      <trkpt lat="44.48677" lon="1.8418">
        <ele>152</ele>
        <time>2019-08-06T12:59:26.607Z</time>
      </trkpt>
      <trkpt lat="44.48673" lon="1.84187">
        <ele>153</ele>
        <time>2019-08-06T12:59:31.594Z</time>
      </trkpt>
      <trkpt lat="44.4867" lon="1.8419">
        <ele>153</ele>
        <time>2019-08-06T12:59:35.586Z</time>
      </trkpt>
      <trkpt lat="44.48665" lon="1.84194">
        <ele>153</ele>
        <time>2019-08-06T12:59:40.616Z</time>
      </trkpt>
      <trkpt lat="44.4866" lon="1.84198">
        <ele>153</ele>
        <time>2019-08-06T12:59:45.585Z</time>
      </trkpt>
      <trkpt lat="44.48657" lon="1.84199">
        <ele>153</ele>
        <time>2019-08-06T12:59:49.599Z</time>
      </trkpt>
      <trkpt lat="44.48652" lon="1.84197">
        <ele>153</ele>
        <time>2019-08-06T12:59:53.601Z</time>
      </trkpt>
      <trkpt lat="44.48646" lon="1.84195">
        <ele>153</ele>
        <time>2019-08-06T12:59:57.609Z</time>
      </trkpt>
      <trkpt lat="44.4864" lon="1.84191">
        <ele>153</ele>
        <time>2019-08-06T13:00:02.625Z</time>
      </trkpt>
      <trkpt lat="44.48637" lon="1.84188">
        <ele>153</ele>
        <time>2019-08-06T13:00:06.605Z</time>
      </trkpt>
      <trkpt lat="44.48631" lon="1.84186">
        <ele>153</ele>
        <time>2019-08-06T13:00:11.574Z</time>
      </trkpt>
      <trkpt lat="44.48627" lon="1.84184">
        <ele>153</ele>
        <time>2019-08-06T13:00:15.592Z</time>
      </trkpt>
      <trkpt lat="44.48621" lon="1.84182">
        <ele>155</ele>
        <time>2019-08-06T13:00:20.587Z</time>
      </trkpt>
      <trkpt lat="44.48615" lon="1.8418">
        <ele>153</ele>
        <time>2019-08-06T13:00:24.624Z</time>
      </trkpt>
      <trkpt lat="44.48608" lon="1.84177">
        <ele>153</ele>
        <time>2019-08-06T13:00:29.595Z</time>
      </trkpt>
      <trkpt lat="44.48602" lon="1.84173">
        <ele>153</ele>
        <time>2019-08-06T13:00:34.598Z</time>
      </trkpt>
      <trkpt lat="44.48595" lon="1.8417">
        <ele>155</ele>
        <time>2019-08-06T13:00:39.592Z</time>
      </trkpt>
      <trkpt lat="44.48587" lon="1.84166">
        <ele>155</ele>
        <time>2019-08-06T13:00:44.578Z</time>
      </trkpt>
      <trkpt lat="44.48579" lon="1.84163">
        <ele>155</ele>
        <time>2019-08-06T13:00:49.590Z</time>
      </trkpt>
      <trkpt lat="44.48572" lon="1.84165">
        <ele>155</ele>
        <time>2019-08-06T13:00:54.637Z</time>
      </trkpt>
      <trkpt lat="44.48566" lon="1.84164">
        <ele>154</ele>
        <time>2019-08-06T13:00:59.588Z</time>
      </trkpt>
      <trkpt lat="44.48561" lon="1.84164">
        <ele>154</ele>
        <time>2019-08-06T13:01:04.591Z</time>
      </trkpt>
      <trkpt lat="44.48555" lon="1.84158">
        <ele>154</ele>
        <time>2019-08-06T13:01:09.573Z</time>
      </trkpt>
      <trkpt lat="44.48549" lon="1.84156">
        <ele>154</ele>
        <time>2019-08-06T13:01:13.582Z</time>
      </trkpt>
      <trkpt lat="44.48543" lon="1.84155">
        <ele>154</ele>
        <time>2019-08-06T13:01:18.589Z</time>
      </trkpt>
      <trkpt lat="44.4854" lon="1.84154">
        <ele>154</ele>
        <time>2019-08-06T13:01:22.578Z</time>
      </trkpt>
      <trkpt lat="44.48534" lon="1.84153">
        <ele>154</ele>
        <time>2019-08-06T13:01:26.590Z</time>
      </trkpt>
      <trkpt lat="44.4853" lon="1.84152">
        <ele>153</ele>
        <time>2019-08-06T13:01:30.592Z</time>
      </trkpt>
      <trkpt lat="44.48521" lon="1.84153">
        <ele>154</ele>
        <time>2019-08-06T13:01:35.587Z</time>
      </trkpt>
      <trkpt lat="44.48513" lon="1.84156">
        <ele>154</ele>
        <time>2019-08-06T13:01:40.594Z</time>
      </trkpt>
      <trkpt lat="44.48507" lon="1.84162">
        <ele>154</ele>
        <time>2019-08-06T13:01:45.590Z</time>
      </trkpt>
      <trkpt lat="44.48501" lon="1.84169">
        <ele>154</ele>
        <time>2019-08-06T13:01:50.641Z</time>
      </trkpt>
      <trkpt lat="44.48496" lon="1.84175">
        <ele>154</ele>
        <time>2019-08-06T13:01:55.584Z</time>
      </trkpt>
      <trkpt lat="44.48492" lon="1.84179">
        <ele>154</ele>
        <time>2019-08-06T13:01:59.583Z</time>
      </trkpt>
      <trkpt lat="44.48487" lon="1.84185">
        <ele>154</ele>
        <time>2019-08-06T13:02:04.608Z</time>
      </trkpt>
      <trkpt lat="44.48482" lon="1.84194">
        <ele>154</ele>
        <time>2019-08-06T13:02:09.585Z</time>
      </trkpt>
      <trkpt lat="44.48477" lon="1.842">
        <ele>154</ele>
        <time>2019-08-06T13:02:14.565Z</time>
      </trkpt>
      <trkpt lat="44.48472" lon="1.84206">
        <ele>154</ele>
        <time>2019-08-06T13:02:18.594Z</time>
      </trkpt>
      <trkpt lat="44.48469" lon="1.84213">
        <ele>154</ele>
        <time>2019-08-06T13:02:23.581Z</time>
      </trkpt>
      <trkpt lat="44.48466" lon="1.84221">
        <ele>154</ele>
        <time>2019-08-06T13:02:28.612Z</time>
      </trkpt>
      <trkpt lat="44.48463" lon="1.84227">
        <ele>154</ele>
        <time>2019-08-06T13:02:32.645Z</time>
      </trkpt>
      <trkpt lat="44.48462" lon="1.84234">
        <ele>154</ele>
        <time>2019-08-06T13:02:37.586Z</time>
      </trkpt>
      <trkpt lat="44.48461" lon="1.84244">
        <ele>154</ele>
        <time>2019-08-06T13:02:41.587Z</time>
      </trkpt>
      <trkpt lat="44.4846" lon="1.84253">
        <ele>154</ele>
        <time>2019-08-06T13:02:45.583Z</time>
      </trkpt>
      <trkpt lat="44.48459" lon="1.84266">
        <ele>155</ele>
        <time>2019-08-06T13:02:50.603Z</time>
      </trkpt>
      <trkpt lat="44.4846" lon="1.84277">
        <ele>155</ele>
        <time>2019-08-06T13:02:55.585Z</time>
      </trkpt>
      <trkpt lat="44.48462" lon="1.84284">
        <ele>155</ele>
        <time>2019-08-06T13:03:00.594Z</time>
      </trkpt>
      <trkpt lat="44.48464" lon="1.84291">
        <ele>155</ele>
        <time>2019-08-06T13:03:04.591Z</time>
      </trkpt>
      <trkpt lat="44.48467" lon="1.843">
        <ele>155</ele>
        <time>2019-08-06T13:03:09.582Z</time>
      </trkpt>
      <trkpt lat="44.4847" lon="1.84307">
        <ele>155</ele>
        <time>2019-08-06T13:03:13.575Z</time>
      </trkpt>
      <trkpt lat="44.48472" lon="1.84314">
        <ele>155</ele>
        <time>2019-08-06T13:03:17.582Z</time>
      </trkpt>
      <trkpt lat="44.48473" lon="1.84323">
        <ele>155</ele>
        <time>2019-08-06T13:03:22.586Z</time>
      </trkpt>
      <trkpt lat="44.48475" lon="1.8433">
        <ele>155</ele>
        <time>2019-08-06T13:03:26.639Z</time>
      </trkpt>
      <trkpt lat="44.48476" lon="1.84336">
        <ele>155</ele>
        <time>2019-08-06T13:03:31.577Z</time>
      </trkpt>
      <trkpt lat="44.48475" lon="1.84339">
        <ele>155</ele>
        <time>2019-08-06T13:03:36.593Z</time>
      </trkpt>
      <trkpt lat="44.48475" lon="1.84346">
        <ele>155</ele>
        <time>2019-08-06T13:03:40.602Z</time>
      </trkpt>
      <trkpt lat="44.48473" lon="1.84353">
        <ele>154</ele>
        <time>2019-08-06T13:03:44.586Z</time>
      </trkpt>
      <trkpt lat="44.48466" lon="1.84359">
        <ele>154</ele>
        <time>2019-08-06T13:03:49.588Z</time>
      </trkpt>
      <trkpt lat="44.48459" lon="1.84363">
        <ele>154</ele>
        <time>2019-08-06T13:03:54.588Z</time>
      </trkpt>
      <trkpt lat="44.48453" lon="1.84366">
        <ele>154</ele>
        <time>2019-08-06T13:03:58.590Z</time>
      </trkpt>
      <trkpt lat="44.48445" lon="1.84369">
        <ele>154</ele>
        <time>2019-08-06T13:04:03.583Z</time>
      </trkpt>
      <trkpt lat="44.48439" lon="1.84373">
        <ele>154</ele>
        <time>2019-08-06T13:04:07.579Z</time>
      </trkpt>
      <trkpt lat="44.48433" lon="1.84375">
        <ele>154</ele>
        <time>2019-08-06T13:04:12.588Z</time>
      </trkpt>
      <trkpt lat="44.48433" lon="1.84377">
        <ele>154</ele>
        <time>2019-08-06T13:04:16.596Z</time>
      </trkpt>
      <trkpt lat="44.48433" lon="1.84377">
        <ele>154</ele>
        <time>2019-08-06T13:04:21.585Z</time>
      </trkpt>
      <trkpt lat="44.48433" lon="1.84378">
        <ele>154</ele>
        <time>2019-08-06T13:04:25.586Z</time>
      </trkpt>
      <trkpt lat="44.48428" lon="1.84382">
        <ele>153</ele>
        <time>2019-08-06T13:04:30.583Z</time>
      </trkpt>
      <trkpt lat="44.48421" lon="1.84387">
        <ele>153</ele>
        <time>2019-08-06T13:04:35.576Z</time>
      </trkpt>
      <trkpt lat="44.48413" lon="1.84392">
        <ele>153</ele>
        <time>2019-08-06T13:04:40.588Z</time>
      </trkpt>
      <trkpt lat="44.48406" lon="1.84395">
        <ele>153</ele>
        <time>2019-08-06T13:04:45.580Z</time>
      </trkpt>
      <trkpt lat="44.48401" lon="1.84398">
        <ele>152</ele>
        <time>2019-08-06T13:04:49.581Z</time>
      </trkpt>
      <trkpt lat="44.48395" lon="1.84402">
        <ele>152</ele>
        <time>2019-08-06T13:04:53.588Z</time>
      </trkpt>
      <trkpt lat="44.48389" lon="1.84405">
        <ele>152</ele>
        <time>2019-08-06T13:04:57.593Z</time>
      </trkpt>
      <trkpt lat="44.48383" lon="1.84406">
        <ele>152</ele>
        <time>2019-08-06T13:05:02.597Z</time>
      </trkpt>
      <trkpt lat="44.48379" lon="1.8441">
        <ele>152</ele>
        <time>2019-08-06T13:05:07.581Z</time>
      </trkpt>
      <trkpt lat="44.48374" lon="1.84412">
        <ele>151</ele>
        <time>2019-08-06T13:05:12.609Z</time>
      </trkpt>
      <trkpt lat="44.48368" lon="1.84415">
        <ele>151</ele>
        <time>2019-08-06T13:05:26.606Z</time>
      </trkpt>
      <trkpt lat="44.48367" lon="1.84415">
        <ele>151</ele>
        <time>2019-08-06T13:05:31.579Z</time>
      </trkpt>
      <trkpt lat="44.48366" lon="1.84416">
        <ele>151</ele>
        <time>2019-08-06T13:05:36.600Z</time>
      </trkpt>
      <trkpt lat="44.48362" lon="1.84418">
        <ele>151</ele>
        <time>2019-08-06T13:05:41.585Z</time>
      </trkpt>
      <trkpt lat="44.4836" lon="1.8442">
        <ele>151</ele>
        <time>2019-08-06T13:05:46.631Z</time>
      </trkpt>
      <trkpt lat="44.4836" lon="1.84421">
        <ele>151</ele>
        <time>2019-08-06T13:05:51.566Z</time>
      </trkpt>
      <trkpt lat="44.48358" lon="1.8442">
        <ele>151</ele>
        <time>2019-08-06T13:05:55.583Z</time>
      </trkpt>
      <trkpt lat="44.48355" lon="1.84421">
        <ele>151</ele>
        <time>2019-08-06T13:05:59.589Z</time>
      </trkpt>
      <trkpt lat="44.4835" lon="1.84422">
        <ele>151</ele>
        <time>2019-08-06T13:06:04.591Z</time>
      </trkpt>
      <trkpt lat="44.48346" lon="1.84424">
        <ele>149</ele>
        <time>2019-08-06T13:06:18.591Z</time>
      </trkpt>
      <trkpt lat="44.48346" lon="1.84426">
        <ele>149</ele>
        <time>2019-08-06T13:06:23.589Z</time>
      </trkpt>
      <trkpt lat="44.48345" lon="1.84426">
        <ele>149</ele>
        <time>2019-08-06T13:06:27.589Z</time>
      </trkpt>
      <trkpt lat="44.48344" lon="1.84426">
        <ele>149</ele>
        <time>2019-08-06T13:06:32.597Z</time>
      </trkpt>
      <trkpt lat="44.48339" lon="1.84428">
        <ele>149</ele>
        <time>2019-08-06T13:06:37.586Z</time>
      </trkpt>
      <trkpt lat="44.48336" lon="1.84431">
        <ele>148</ele>
        <time>2019-08-06T13:06:41.594Z</time>
      </trkpt>
      <trkpt lat="44.4833" lon="1.84436">
        <ele>148</ele>
        <time>2019-08-06T13:06:45.589Z</time>
      </trkpt>
      <trkpt lat="44.48322" lon="1.84441">
        <ele>148</ele>
        <time>2019-08-06T13:06:50.584Z</time>
      </trkpt>
      <trkpt lat="44.48313" lon="1.84446">
        <ele>148</ele>
        <time>2019-08-06T13:06:55.583Z</time>
      </trkpt>
      <trkpt lat="44.48309" lon="1.84449">
        <ele>148</ele>
        <time>2019-08-06T13:06:59.592Z</time>
      </trkpt>
      <trkpt lat="44.48304" lon="1.84451">
        <ele>148</ele>
        <time>2019-08-06T13:07:04.585Z</time>
      </trkpt>
      <trkpt lat="44.483" lon="1.84453">
        <ele>148</ele>
        <time>2019-08-06T13:07:08.580Z</time>
      </trkpt>
      <trkpt lat="44.48297" lon="1.84455">
        <ele>148</ele>
        <time>2019-08-06T13:07:12.576Z</time>
      </trkpt>
      <trkpt lat="44.48292" lon="1.84457">
        <ele>148</ele>
        <time>2019-08-06T13:07:17.587Z</time>
      </trkpt>
      <trkpt lat="44.48287" lon="1.84459">
        <ele>148</ele>
        <time>2019-08-06T13:07:21.584Z</time>
      </trkpt>
      <trkpt lat="44.48282" lon="1.84462">
        <ele>148</ele>
        <time>2019-08-06T13:07:26.578Z</time>
      </trkpt>
      <trkpt lat="44.48276" lon="1.84464">
        <ele>148</ele>
        <time>2019-08-06T13:07:31.586Z</time>
      </trkpt>
      <trkpt lat="44.48271" lon="1.84467">
        <ele>148</ele>
        <time>2019-08-06T13:07:36.600Z</time>
      </trkpt>
      <trkpt lat="44.48266" lon="1.8447">
        <ele>148</ele>
        <time>2019-08-06T13:07:41.586Z</time>
      </trkpt>
      <trkpt lat="44.48263" lon="1.84473">
        <ele>150</ele>
        <time>2019-08-06T13:07:45.585Z</time>
      </trkpt>
      <trkpt lat="44.48259" lon="1.84475">
        <ele>150</ele>
        <time>2019-08-06T13:07:50.587Z</time>
      </trkpt>
      <trkpt lat="44.48254" lon="1.84475">
        <ele>150</ele>
        <time>2019-08-06T13:07:54.584Z</time>
      </trkpt>
      <trkpt lat="44.48249" lon="1.84477">
        <ele>150</ele>
        <time>2019-08-06T13:07:58.585Z</time>
      </trkpt>
      <trkpt lat="44.48243" lon="1.8448">
        <ele>150</ele>
        <time>2019-08-06T13:08:03.579Z</time>
      </trkpt>
      <trkpt lat="44.48237" lon="1.84482">
        <ele>150</ele>
        <time>2019-08-06T13:08:08.581Z</time>
      </trkpt>
      <trkpt lat="44.4823" lon="1.84485">
        <ele>151</ele>
        <time>2019-08-06T13:08:13.547Z</time>
      </trkpt>
      <trkpt lat="44.48223" lon="1.84486">
        <ele>155</ele>
        <time>2019-08-06T13:08:17.597Z</time>
      </trkpt>
      <trkpt lat="44.48219" lon="1.84486">
        <ele>151</ele>
        <time>2019-08-06T13:08:22.577Z</time>
      </trkpt>
      <trkpt lat="44.48216" lon="1.84482">
        <ele>151</ele>
        <time>2019-08-06T13:08:27.585Z</time>
      </trkpt>
      <trkpt lat="44.48213" lon="1.84477">
        <ele>151</ele>
        <time>2019-08-06T13:08:32.580Z</time>
      </trkpt>
      <trkpt lat="44.48211" lon="1.84474">
        <ele>151</ele>
        <time>2019-08-06T13:08:36.587Z</time>
      </trkpt>
      <trkpt lat="44.4821" lon="1.84469">
        <ele>151</ele>
        <time>2019-08-06T13:08:40.606Z</time>
      </trkpt>
      <trkpt lat="44.48206" lon="1.84459">
        <ele>150</ele>
        <time>2019-08-06T13:08:45.578Z</time>
      </trkpt>
      <trkpt lat="44.48205" lon="1.84455">
        <ele>150</ele>
        <time>2019-08-06T13:08:50.585Z</time>
      </trkpt>
      <trkpt lat="44.48204" lon="1.84451">
        <ele>150</ele>
        <time>2019-08-06T13:08:54.600Z</time>
      </trkpt>
      <trkpt lat="44.48203" lon="1.84444">
        <ele>150</ele>
        <time>2019-08-06T13:08:59.570Z</time>
      </trkpt>
      <trkpt lat="44.48203" lon="1.84438">
        <ele>150</ele>
        <time>2019-08-06T13:09:03.576Z</time>
      </trkpt>
      <trkpt lat="44.482" lon="1.84432">
        <ele>150</ele>
        <time>2019-08-06T13:09:07.581Z</time>
      </trkpt>
      <trkpt lat="44.48197" lon="1.84425">
        <ele>151</ele>
        <time>2019-08-06T13:09:12.583Z</time>
      </trkpt>
      <trkpt lat="44.48195" lon="1.84421">
        <ele>151</ele>
        <time>2019-08-06T13:09:16.585Z</time>
      </trkpt>
      <trkpt lat="44.48192" lon="1.84415">
        <ele>151</ele>
        <time>2019-08-06T13:09:21.586Z</time>
      </trkpt>
      <trkpt lat="44.48187" lon="1.84408">
        <ele>151</ele>
        <time>2019-08-06T13:09:26.580Z</time>
      </trkpt>
      <trkpt lat="44.48184" lon="1.84403">
        <ele>151</ele>
        <time>2019-08-06T13:09:31.580Z</time>
      </trkpt>
      <trkpt lat="44.48178" lon="1.84397">
        <ele>150</ele>
        <time>2019-08-06T13:09:36.587Z</time>
      </trkpt>
      <trkpt lat="44.48172" lon="1.84393">
        <ele>150</ele>
        <time>2019-08-06T13:09:41.588Z</time>
      </trkpt>
      <trkpt lat="44.48165" lon="1.8439">
        <ele>150</ele>
        <time>2019-08-06T13:09:46.588Z</time>
      </trkpt>
      <trkpt lat="44.48159" lon="1.84386">
        <ele>150</ele>
        <time>2019-08-06T13:09:51.587Z</time>
      </trkpt>
      <trkpt lat="44.48157" lon="1.8438">
        <ele>150</ele>
        <time>2019-08-06T13:09:56.596Z</time>
      </trkpt>
      <trkpt lat="44.48152" lon="1.84372">
        <ele>150</ele>
        <time>2019-08-06T13:10:01.577Z</time>
      </trkpt>
      <trkpt lat="44.48147" lon="1.84367">
        <ele>150</ele>
        <time>2019-08-06T13:10:06.592Z</time>
      </trkpt>
      <trkpt lat="44.48145" lon="1.84365">
        <ele>150</ele>
        <time>2019-08-06T13:10:11.592Z</time>
      </trkpt>
      <trkpt lat="44.4814" lon="1.8436">
        <ele>150</ele>
        <time>2019-08-06T13:10:16.580Z</time>
      </trkpt>
      <trkpt lat="44.48135" lon="1.84355">
        <ele>150</ele>
        <time>2019-08-06T13:10:20.593Z</time>
      </trkpt>
      <trkpt lat="44.48126" lon="1.84348">
        <ele>150</ele>
        <time>2019-08-06T13:10:53.591Z</time>
      </trkpt>
      <trkpt lat="44.48125" lon="1.84347">
        <ele>150</ele>
        <time>2019-08-06T13:10:57.588Z</time>
      </trkpt>
      <trkpt lat="44.48124" lon="1.84346">
        <ele>150</ele>
        <time>2019-08-06T13:11:02.582Z</time>
      </trkpt>
      <trkpt lat="44.48123" lon="1.84346">
        <ele>150</ele>
        <time>2019-08-06T13:11:06.577Z</time>
      </trkpt>
      <trkpt lat="44.48118" lon="1.84346">
        <ele>150</ele>
        <time>2019-08-06T13:11:11.575Z</time>
      </trkpt>
      <trkpt lat="44.48112" lon="1.84343">
        <ele>150</ele>
        <time>2019-08-06T13:11:15.586Z</time>
      </trkpt>
      <trkpt lat="44.48105" lon="1.84338">
        <ele>150</ele>
        <time>2019-08-06T13:11:20.586Z</time>
      </trkpt>
      <trkpt lat="44.481" lon="1.84336">
        <ele>150</ele>
        <time>2019-08-06T13:11:25.572Z</time>
      </trkpt>
      <trkpt lat="44.48094" lon="1.84332">
        <ele>150</ele>
        <time>2019-08-06T13:11:29.585Z</time>
      </trkpt>
      <trkpt lat="44.48088" lon="1.84334">
        <ele>150</ele>
        <time>2019-08-06T13:11:51.587Z</time>
      </trkpt>
      <trkpt lat="44.48088" lon="1.84335">
        <ele>150</ele>
        <time>2019-08-06T13:11:56.578Z</time>
      </trkpt>
      <trkpt lat="44.48084" lon="1.84333">
        <ele>150</ele>
        <time>2019-08-06T13:12:01.578Z</time>
      </trkpt>
      <trkpt lat="44.48081" lon="1.84333">
        <ele>150</ele>
        <time>2019-08-06T13:12:05.588Z</time>
      </trkpt>
      <trkpt lat="44.48078" lon="1.84331">
        <ele>150</ele>
        <time>2019-08-06T13:12:09.586Z</time>
      </trkpt>
      <trkpt lat="44.48071" lon="1.84328">
        <ele>150</ele>
        <time>2019-08-06T13:12:23.586Z</time>
      </trkpt>
      <trkpt lat="44.48069" lon="1.84328">
        <ele>148</ele>
        <time>2019-08-06T13:12:27.580Z</time>
      </trkpt>
      <trkpt lat="44.48067" lon="1.84328">
        <ele>148</ele>
        <time>2019-08-06T13:12:32.588Z</time>
      </trkpt>
      <trkpt lat="44.48067" lon="1.84328">
        <ele>148</ele>
        <time>2019-08-06T13:12:37.588Z</time>
      </trkpt>
      <trkpt lat="44.48061" lon="1.8433">
        <ele>148</ele>
        <time>2019-08-06T13:12:42.591Z</time>
      </trkpt>
      <trkpt lat="44.48052" lon="1.84334">
        <ele>148</ele>
        <time>2019-08-06T13:12:47.591Z</time>
      </trkpt>
      <trkpt lat="44.48047" lon="1.84336">
        <ele>148</ele>
        <time>2019-08-06T13:12:51.589Z</time>
      </trkpt>
      <trkpt lat="44.4804" lon="1.84339">
        <ele>147</ele>
        <time>2019-08-06T13:12:56.593Z</time>
      </trkpt>
      <trkpt lat="44.48031" lon="1.84344">
        <ele>147</ele>
        <time>2019-08-06T13:13:01.581Z</time>
      </trkpt>
      <trkpt lat="44.48025" lon="1.84347">
        <ele>147</ele>
        <time>2019-08-06T13:13:05.578Z</time>
      </trkpt>
      <trkpt lat="44.48019" lon="1.84349">
        <ele>148</ele>
        <time>2019-08-06T13:13:10.587Z</time>
      </trkpt>
      <trkpt lat="44.48013" lon="1.8435">
        <ele>149</ele>
        <time>2019-08-06T13:13:15.584Z</time>
      </trkpt>
      <trkpt lat="44.48006" lon="1.84351">
        <ele>149</ele>
        <time>2019-08-06T13:13:20.585Z</time>
      </trkpt>
      <trkpt lat="44.47999" lon="1.84356">
        <ele>149</ele>
        <time>2019-08-06T13:13:25.586Z</time>
      </trkpt>
      <trkpt lat="44.47994" lon="1.84358">
        <ele>149</ele>
        <time>2019-08-06T13:13:29.590Z</time>
      </trkpt>
      <trkpt lat="44.4799" lon="1.8436">
        <ele>149</ele>
        <time>2019-08-06T13:13:34.588Z</time>
      </trkpt>
      <trkpt lat="44.47987" lon="1.84361">
        <ele>149</ele>
        <time>2019-08-06T13:13:38.577Z</time>
      </trkpt>
      <trkpt lat="44.47981" lon="1.84366">
        <ele>150</ele>
        <time>2019-08-06T13:13:43.583Z</time>
      </trkpt>
      <trkpt lat="44.47954" lon="1.84376">
        <ele>151</ele>
        <time>2019-08-06T13:13:48.586Z</time>
      </trkpt>
      <trkpt lat="44.47931" lon="1.84375">
        <ele>150</ele>
        <time>2019-08-06T13:13:52.597Z</time>
      </trkpt>
      <trkpt lat="44.47906" lon="1.84366">
        <ele>150</ele>
        <time>2019-08-06T13:13:57.589Z</time>
      </trkpt>
      <trkpt lat="44.47899" lon="1.8436">
        <ele>150</ele>
        <time>2019-08-06T13:14:02.579Z</time>
      </trkpt>
      <trkpt lat="44.47894" lon="1.84357">
        <ele>150</ele>
        <time>2019-08-06T13:14:06.585Z</time>
      </trkpt>
      <trkpt lat="44.47888" lon="1.84359">
        <ele>150</ele>
        <time>2019-08-06T13:14:11.581Z</time>
      </trkpt>
      <trkpt lat="44.4788" lon="1.84359">
        <ele>150</ele>
        <time>2019-08-06T13:14:16.590Z</time>
      </trkpt>
      <trkpt lat="44.47873" lon="1.84361">
        <ele>150</ele>
        <time>2019-08-06T13:14:21.593Z</time>
      </trkpt>
      <trkpt lat="44.4787" lon="1.8436">
        <ele>150</ele>
        <time>2019-08-06T13:14:26.589Z</time>
      </trkpt>
      <trkpt lat="44.47868" lon="1.84359">
        <ele>150</ele>
        <time>2019-08-06T13:14:31.586Z</time>
      </trkpt>
      <trkpt lat="44.47865" lon="1.84361">
        <ele>150</ele>
        <time>2019-08-06T13:14:36.579Z</time>
      </trkpt>
      <trkpt lat="44.47851" lon="1.84366">
        <ele>150</ele>
        <time>2019-08-06T13:14:41.586Z</time>
      </trkpt>
      <trkpt lat="44.47844" lon="1.84368">
        <ele>149</ele>
        <time>2019-08-06T13:14:45.580Z</time>
      </trkpt>
      <trkpt lat="44.47836" lon="1.8437">
        <ele>149</ele>
        <time>2019-08-06T13:14:50.584Z</time>
      </trkpt>
      <trkpt lat="44.47829" lon="1.84372">
        <ele>149</ele>
        <time>2019-08-06T13:14:55.580Z</time>
      </trkpt>
      <trkpt lat="44.47822" lon="1.84374">
        <ele>149</ele>
        <time>2019-08-06T13:15:00.592Z</time>
      </trkpt>
      <trkpt lat="44.47815" lon="1.84377">
        <ele>148</ele>
        <time>2019-08-06T13:15:05.579Z</time>
      </trkpt>
      <trkpt lat="44.47807" lon="1.84381">
        <ele>148</ele>
        <time>2019-08-06T13:15:10.580Z</time>
      </trkpt>
      <trkpt lat="44.47799" lon="1.84382">
        <ele>148</ele>
        <time>2019-08-06T13:15:15.586Z</time>
      </trkpt>
      <trkpt lat="44.47793" lon="1.84385">
        <ele>148</ele>
        <time>2019-08-06T13:15:20.581Z</time>
      </trkpt>
      <trkpt lat="44.47788" lon="1.84387">
        <ele>148</ele>
        <time>2019-08-06T13:15:24.595Z</time>
      </trkpt>
      <trkpt lat="44.47781" lon="1.84392">
        <ele>148</ele>
        <time>2019-08-06T13:15:29.579Z</time>
      </trkpt>
      <trkpt lat="44.47774" lon="1.84393">
        <ele>148</ele>
        <time>2019-08-06T13:15:34.571Z</time>
      </trkpt>
      <trkpt lat="44.47767" lon="1.84395">
        <ele>148</ele>
        <time>2019-08-06T13:15:39.594Z</time>
      </trkpt>
      <trkpt lat="44.4776" lon="1.844">
        <ele>149</ele>
        <time>2019-08-06T13:15:44.582Z</time>
      </trkpt>
      <trkpt lat="44.47755" lon="1.84405">
        <ele>149</ele>
        <time>2019-08-06T13:15:48.590Z</time>
      </trkpt>
      <trkpt lat="44.47749" lon="1.84408">
        <ele>149</ele>
        <time>2019-08-06T13:15:53.596Z</time>
      </trkpt>
      <trkpt lat="44.47744" lon="1.84411">
        <ele>149</ele>
        <time>2019-08-06T13:15:57.590Z</time>
      </trkpt>
      <trkpt lat="44.47738" lon="1.84414">
        <ele>149</ele>
        <time>2019-08-06T13:16:02.583Z</time>
      </trkpt>
      <trkpt lat="44.47733" lon="1.84417">
        <ele>150</ele>
        <time>2019-08-06T13:16:06.582Z</time>
      </trkpt>
      <trkpt lat="44.47727" lon="1.8442">
        <ele>150</ele>
        <time>2019-08-06T13:16:10.588Z</time>
      </trkpt>
      <trkpt lat="44.4772" lon="1.84421">
        <ele>150</ele>
        <time>2019-08-06T13:16:15.593Z</time>
      </trkpt>
      <trkpt lat="44.47715" lon="1.84425">
        <ele>150</ele>
        <time>2019-08-06T13:16:20.588Z</time>
      </trkpt>
      <trkpt lat="44.47707" lon="1.84428">
        <ele>150</ele>
        <time>2019-08-06T13:16:25.596Z</time>
      </trkpt>
      <trkpt lat="44.477" lon="1.84433">
        <ele>150</ele>
        <time>2019-08-06T13:16:30.582Z</time>
      </trkpt>
      <trkpt lat="44.47696" lon="1.84436">
        <ele>150</ele>
        <time>2019-08-06T13:16:34.581Z</time>
      </trkpt>
      <trkpt lat="44.47692" lon="1.84439">
        <ele>150</ele>
        <time>2019-08-06T13:16:39.577Z</time>
      </trkpt>
      <trkpt lat="44.47686" lon="1.84443">
        <ele>150</ele>
        <time>2019-08-06T13:16:44.587Z</time>
      </trkpt>
      <trkpt lat="44.47682" lon="1.84448">
        <ele>150</ele>
        <time>2019-08-06T13:16:49.585Z</time>
      </trkpt>
      <trkpt lat="44.47675" lon="1.84448">
        <ele>150</ele>
        <time>2019-08-06T13:16:54.599Z</time>
      </trkpt>
      <trkpt lat="44.47671" lon="1.84448">
        <ele>150</ele>
        <time>2019-08-06T13:16:59.585Z</time>
      </trkpt>
      <trkpt lat="44.4767" lon="1.84448">
        <ele>150</ele>
        <time>2019-08-06T13:17:04.564Z</time>
      </trkpt>
      <trkpt lat="44.47665" lon="1.8445">
        <ele>150</ele>
        <time>2019-08-06T13:17:08.584Z</time>
      </trkpt>
      <trkpt lat="44.47659" lon="1.84452">
        <ele>150</ele>
        <time>2019-08-06T13:17:12.588Z</time>
      </trkpt>
      <trkpt lat="44.4765" lon="1.84457">
        <ele>150</ele>
        <time>2019-08-06T13:17:17.606Z</time>
      </trkpt>
      <trkpt lat="44.47644" lon="1.8446">
        <ele>150</ele>
        <time>2019-08-06T13:17:21.594Z</time>
      </trkpt>
      <trkpt lat="44.47636" lon="1.84467">
        <ele>150</ele>
        <time>2019-08-06T13:17:26.581Z</time>
      </trkpt>
      <trkpt lat="44.47629" lon="1.8447">
        <ele>150</ele>
        <time>2019-08-06T13:17:31.589Z</time>
      </trkpt>
      <trkpt lat="44.47627" lon="1.8447">
        <ele>150</ele>
        <time>2019-08-06T13:17:36.580Z</time>
      </trkpt>
      <trkpt lat="44.47627" lon="1.8447">
        <ele>150</ele>
        <time>2019-08-06T13:17:41.563Z</time>
      </trkpt>
      <trkpt lat="44.47624" lon="1.84472">
        <ele>148</ele>
        <time>2019-08-06T13:17:45.568Z</time>
      </trkpt>
      <trkpt lat="44.47612" lon="1.84474">
        <ele>148</ele>
        <time>2019-08-06T13:17:50.565Z</time>
      </trkpt>
      <trkpt lat="44.47601" lon="1.84477">
        <ele>148</ele>
        <time>2019-08-06T13:17:54.568Z</time>
      </trkpt>
      <trkpt lat="44.47593" lon="1.84478">
        <ele>148</ele>
        <time>2019-08-06T13:17:59.573Z</time>
      </trkpt>
      <trkpt lat="44.47586" lon="1.84479">
        <ele>148</ele>
        <time>2019-08-06T13:18:04.562Z</time>
      </trkpt>
      <trkpt lat="44.4758" lon="1.84478">
        <ele>148</ele>
        <time>2019-08-06T13:18:08.571Z</time>
      </trkpt>
      <trkpt lat="44.47573" lon="1.84478">
        <ele>148</ele>
        <time>2019-08-06T13:18:13.567Z</time>
      </trkpt>
      <trkpt lat="44.47569" lon="1.84477">
        <ele>147</ele>
        <time>2019-08-06T13:18:17.575Z</time>
      </trkpt>
      <trkpt lat="44.47564" lon="1.84478">
        <ele>147</ele>
        <time>2019-08-06T13:18:22.574Z</time>
      </trkpt>
      <trkpt lat="44.4756" lon="1.8448">
        <ele>147</ele>
        <time>2019-08-06T13:18:26.563Z</time>
      </trkpt>
      <trkpt lat="44.47553" lon="1.8448">
        <ele>147</ele>
        <time>2019-08-06T13:18:31.568Z</time>
      </trkpt>
      <trkpt lat="44.47546" lon="1.84479">
        <ele>147</ele>
        <time>2019-08-06T13:18:36.569Z</time>
      </trkpt>
      <trkpt lat="44.47539" lon="1.8448">
        <ele>147</ele>
        <time>2019-08-06T13:18:41.571Z</time>
      </trkpt>
      <trkpt lat="44.47532" lon="1.84482">
        <ele>147</ele>
        <time>2019-08-06T13:18:46.570Z</time>
      </trkpt>
      <trkpt lat="44.47524" lon="1.84484">
        <ele>147</ele>
        <time>2019-08-06T13:18:51.570Z</time>
      </trkpt>
      <trkpt lat="44.47516" lon="1.84486">
        <ele>147</ele>
        <time>2019-08-06T13:18:56.568Z</time>
      </trkpt>
      <trkpt lat="44.47509" lon="1.84487">
        <ele>148</ele>
        <time>2019-08-06T13:19:01.567Z</time>
      </trkpt>
      <trkpt lat="44.475" lon="1.8449">
        <ele>148</ele>
        <time>2019-08-06T13:19:06.566Z</time>
      </trkpt>
      <trkpt lat="44.47493" lon="1.84493">
        <ele>148</ele>
        <time>2019-08-06T13:19:11.565Z</time>
      </trkpt>
      <trkpt lat="44.47489" lon="1.84495">
        <ele>148</ele>
        <time>2019-08-06T13:19:15.574Z</time>
      </trkpt>
      <trkpt lat="44.47483" lon="1.84504">
        <ele>149</ele>
        <time>2019-08-06T13:19:20.571Z</time>
      </trkpt>
      <trkpt lat="44.47478" lon="1.84506">
        <ele>149</ele>
        <time>2019-08-06T13:19:24.572Z</time>
      </trkpt>
      <trkpt lat="44.47473" lon="1.84509">
        <ele>149</ele>
        <time>2019-08-06T13:19:29.570Z</time>
      </trkpt>
      <trkpt lat="44.47467" lon="1.84513">
        <ele>149</ele>
        <time>2019-08-06T13:19:33.570Z</time>
      </trkpt>
      <trkpt lat="44.47462" lon="1.8452">
        <ele>149</ele>
        <time>2019-08-06T13:19:38.564Z</time>
      </trkpt>
      <trkpt lat="44.47458" lon="1.84526">
        <ele>149</ele>
        <time>2019-08-06T13:19:42.569Z</time>
      </trkpt>
      <trkpt lat="44.47456" lon="1.84533">
        <ele>149</ele>
        <time>2019-08-06T13:19:46.575Z</time>
      </trkpt>
      <trkpt lat="44.47457" lon="1.84543">
        <ele>149</ele>
        <time>2019-08-06T13:19:51.569Z</time>
      </trkpt>
      <trkpt lat="44.4746" lon="1.84557">
        <ele>148</ele>
        <time>2019-08-06T13:19:56.567Z</time>
      </trkpt>
      <trkpt lat="44.47462" lon="1.84568">
        <ele>148</ele>
        <time>2019-08-06T13:20:01.567Z</time>
      </trkpt>
      <trkpt lat="44.47464" lon="1.84579">
        <ele>148</ele>
        <time>2019-08-06T13:20:05.567Z</time>
      </trkpt>
      <trkpt lat="44.47465" lon="1.84591">
        <ele>148</ele>
        <time>2019-08-06T13:20:10.572Z</time>
      </trkpt>
      <trkpt lat="44.47466" lon="1.84599">
        <ele>149</ele>
        <time>2019-08-06T13:20:15.564Z</time>
      </trkpt>
      <trkpt lat="44.47468" lon="1.84608">
        <ele>149</ele>
        <time>2019-08-06T13:20:19.571Z</time>
      </trkpt>
      <trkpt lat="44.47471" lon="1.84617">
        <ele>149</ele>
        <time>2019-08-06T13:20:24.581Z</time>
      </trkpt>
      <trkpt lat="44.47475" lon="1.84628">
        <ele>150</ele>
        <time>2019-08-06T13:20:29.555Z</time>
      </trkpt>
      <trkpt lat="44.47476" lon="1.84637">
        <ele>150</ele>
        <time>2019-08-06T13:20:33.572Z</time>
      </trkpt>
      <trkpt lat="44.47476" lon="1.84647">
        <ele>150</ele>
        <time>2019-08-06T13:20:38.569Z</time>
      </trkpt>
      <trkpt lat="44.47475" lon="1.84653">
        <ele>150</ele>
        <time>2019-08-06T13:20:43.570Z</time>
      </trkpt>
      <trkpt lat="44.47475" lon="1.84662">
        <ele>150</ele>
        <time>2019-08-06T13:20:48.564Z</time>
      </trkpt>
      <trkpt lat="44.47477" lon="1.84671">
        <ele>150</ele>
        <time>2019-08-06T13:20:53.566Z</time>
      </trkpt>
      <trkpt lat="44.47479" lon="1.84681">
        <ele>152</ele>
        <time>2019-08-06T13:20:58.571Z</time>
      </trkpt>
      <trkpt lat="44.4748" lon="1.8469">
        <ele>152</ele>
        <time>2019-08-06T13:21:03.565Z</time>
      </trkpt>
      <trkpt lat="44.4748" lon="1.84698">
        <ele>152</ele>
        <time>2019-08-06T13:21:08.564Z</time>
      </trkpt>
      <trkpt lat="44.47474" lon="1.84698">
        <ele>152</ele>
        <time>2019-08-06T13:21:13.565Z</time>
      </trkpt>
      <trkpt lat="44.47469" lon="1.84695">
        <ele>152</ele>
        <time>2019-08-06T13:21:17.572Z</time>
      </trkpt>
      <trkpt lat="44.4746" lon="1.84695">
        <ele>152</ele>
        <time>2019-08-06T13:21:22.567Z</time>
      </trkpt>
      <trkpt lat="44.47457" lon="1.84693">
        <ele>151</ele>
        <time>2019-08-06T13:21:27.567Z</time>
      </trkpt>
      <trkpt lat="44.47452" lon="1.84691">
        <ele>151</ele>
        <time>2019-08-06T13:21:32.571Z</time>
      </trkpt>
      <trkpt lat="44.47444" lon="1.84691">
        <ele>151</ele>
        <time>2019-08-06T13:21:37.569Z</time>
      </trkpt>
      <trkpt lat="44.47438" lon="1.84695">
        <ele>151</ele>
        <time>2019-08-06T13:21:41.571Z</time>
      </trkpt>
      <trkpt lat="44.47431" lon="1.84699">
        <ele>151</ele>
        <time>2019-08-06T13:21:46.572Z</time>
      </trkpt>
      <trkpt lat="44.47424" lon="1.84697">
        <ele>155</ele>
        <time>2019-08-06T13:21:51.568Z</time>
      </trkpt>
      <trkpt lat="44.47416" lon="1.84697">
        <ele>155</ele>
        <time>2019-08-06T13:21:56.568Z</time>
      </trkpt>
      <trkpt lat="44.47407" lon="1.84697">
        <ele>155</ele>
        <time>2019-08-06T13:22:01.569Z</time>
      </trkpt>
      <trkpt lat="44.47399" lon="1.84694">
        <ele>157</ele>
        <time>2019-08-06T13:22:06.567Z</time>
      </trkpt>
      <trkpt lat="44.47391" lon="1.84693">
        <ele>157</ele>
        <time>2019-08-06T13:22:11.570Z</time>
      </trkpt>
      <trkpt lat="44.47382" lon="1.84693">
        <ele>157</ele>
        <time>2019-08-06T13:22:16.570Z</time>
      </trkpt>
      <trkpt lat="44.47375" lon="1.84693">
        <ele>156</ele>
        <time>2019-08-06T13:22:20.573Z</time>
      </trkpt>
      <trkpt lat="44.47368" lon="1.84693">
        <ele>156</ele>
        <time>2019-08-06T13:22:25.565Z</time>
      </trkpt>
      <trkpt lat="44.47362" lon="1.84694">
        <ele>156</ele>
        <time>2019-08-06T13:22:30.570Z</time>
      </trkpt>
      <trkpt lat="44.47356" lon="1.84693">
        <ele>156</ele>
        <time>2019-08-06T13:22:35.562Z</time>
      </trkpt>
      <trkpt lat="44.4735" lon="1.84692">
        <ele>156</ele>
        <time>2019-08-06T13:22:39.566Z</time>
      </trkpt>
      <trkpt lat="44.47344" lon="1.84692">
        <ele>157</ele>
        <time>2019-08-06T13:22:44.569Z</time>
      </trkpt>
      <trkpt lat="44.47335" lon="1.84692">
        <ele>157</ele>
        <time>2019-08-06T13:22:49.567Z</time>
      </trkpt>
      <trkpt lat="44.47328" lon="1.84694">
        <ele>157</ele>
        <time>2019-08-06T13:22:54.568Z</time>
      </trkpt>
      <trkpt lat="44.47324" lon="1.84696">
        <ele>157</ele>
        <time>2019-08-06T13:22:58.568Z</time>
      </trkpt>
      <trkpt lat="44.47318" lon="1.84697">
        <ele>154</ele>
        <time>2019-08-06T13:23:03.570Z</time>
      </trkpt>
      <trkpt lat="44.47312" lon="1.84696">
        <ele>154</ele>
        <time>2019-08-06T13:23:08.567Z</time>
      </trkpt>
      <trkpt lat="44.47308" lon="1.847">
        <ele>154</ele>
        <time>2019-08-06T13:23:12.573Z</time>
      </trkpt>
      <trkpt lat="44.47305" lon="1.84702">
        <ele>154</ele>
        <time>2019-08-06T13:23:17.565Z</time>
      </trkpt>
      <trkpt lat="44.47299" lon="1.84701">
        <ele>154</ele>
        <time>2019-08-06T13:23:21.571Z</time>
      </trkpt>
      <trkpt lat="44.4729" lon="1.84702">
        <ele>150</ele>
        <time>2019-08-06T13:23:26.567Z</time>
      </trkpt>
      <trkpt lat="44.47284" lon="1.84703">
        <ele>150</ele>
        <time>2019-08-06T13:23:30.556Z</time>
      </trkpt>
      <trkpt lat="44.47275" lon="1.84704">
        <ele>150</ele>
        <time>2019-08-06T13:23:35.571Z</time>
      </trkpt>
      <trkpt lat="44.47267" lon="1.84704">
        <ele>150</ele>
        <time>2019-08-06T13:23:40.558Z</time>
      </trkpt>
      <trkpt lat="44.4726" lon="1.84707">
        <ele>149</ele>
        <time>2019-08-06T13:23:45.567Z</time>
      </trkpt>
      <trkpt lat="44.47254" lon="1.8471">
        <ele>154</ele>
        <time>2019-08-06T13:23:50.564Z</time>
      </trkpt>
      <trkpt lat="44.4725" lon="1.84713">
        <ele>154</ele>
        <time>2019-08-06T13:23:54.566Z</time>
      </trkpt>
      <trkpt lat="44.47245" lon="1.84716">
        <ele>154</ele>
        <time>2019-08-06T13:23:58.581Z</time>
      </trkpt>
      <trkpt lat="44.47238" lon="1.8472">
        <ele>154</ele>
        <time>2019-08-06T13:24:03.591Z</time>
      </trkpt>
      <trkpt lat="44.47232" lon="1.84724">
        <ele>151</ele>
        <time>2019-08-06T13:24:07.589Z</time>
      </trkpt>
      <trkpt lat="44.47226" lon="1.84728">
        <ele>151</ele>
        <time>2019-08-06T13:24:12.582Z</time>
      </trkpt>
      <trkpt lat="44.4722" lon="1.8473">
        <ele>151</ele>
        <time>2019-08-06T13:24:16.592Z</time>
      </trkpt>
      <trkpt lat="44.47213" lon="1.84733">
        <ele>151</ele>
        <time>2019-08-06T13:24:21.578Z</time>
      </trkpt>
      <trkpt lat="44.47206" lon="1.84738">
        <ele>156</ele>
        <time>2019-08-06T13:24:26.583Z</time>
      </trkpt>
      <trkpt lat="44.47199" lon="1.84741">
        <ele>156</ele>
        <time>2019-08-06T13:24:31.595Z</time>
      </trkpt>
      <trkpt lat="44.47194" lon="1.84743">
        <ele>156</ele>
        <time>2019-08-06T13:24:36.585Z</time>
      </trkpt>
      <trkpt lat="44.47188" lon="1.84747">
        <ele>156</ele>
        <time>2019-08-06T13:24:41.579Z</time>
      </trkpt>
      <trkpt lat="44.4718" lon="1.84749">
        <ele>152</ele>
        <time>2019-08-06T13:24:46.581Z</time>
      </trkpt>
      <trkpt lat="44.47173" lon="1.84751">
        <ele>152</ele>
        <time>2019-08-06T13:24:50.586Z</time>
      </trkpt>
      <trkpt lat="44.47165" lon="1.84754">
        <ele>152</ele>
        <time>2019-08-06T13:24:55.584Z</time>
      </trkpt>
      <trkpt lat="44.47159" lon="1.84755">
        <ele>152</ele>
        <time>2019-08-06T13:25:00.587Z</time>
      </trkpt>
      <trkpt lat="44.47153" lon="1.84759">
        <ele>152</ele>
        <time>2019-08-06T13:25:05.580Z</time>
      </trkpt>
      <trkpt lat="44.47147" lon="1.84764">
        <ele>155</ele>
        <time>2019-08-06T13:25:10.584Z</time>
      </trkpt>
      <trkpt lat="44.4714" lon="1.84769">
        <ele>155</ele>
        <time>2019-08-06T13:25:15.595Z</time>
      </trkpt>
      <trkpt lat="44.47133" lon="1.84773">
        <ele>155</ele>
        <time>2019-08-06T13:25:20.574Z</time>
      </trkpt>
      <trkpt lat="44.47128" lon="1.84776">
        <ele>155</ele>
        <time>2019-08-06T13:25:24.592Z</time>
      </trkpt>
      <trkpt lat="44.47121" lon="1.84778">
        <ele>153</ele>
        <time>2019-08-06T13:25:29.583Z</time>
      </trkpt>
      <trkpt lat="44.47114" lon="1.84781">
        <ele>153</ele>
        <time>2019-08-06T13:25:34.577Z</time>
      </trkpt>
      <trkpt lat="44.47109" lon="1.84783">
        <ele>153</ele>
        <time>2019-08-06T13:25:38.583Z</time>
      </trkpt>
      <trkpt lat="44.47103" lon="1.84786">
        <ele>153</ele>
        <time>2019-08-06T13:25:43.592Z</time>
      </trkpt>
      <trkpt lat="44.47097" lon="1.84788">
        <ele>152</ele>
        <time>2019-08-06T13:25:48.583Z</time>
      </trkpt>
      <trkpt lat="44.47091" lon="1.84791">
        <ele>152</ele>
        <time>2019-08-06T13:25:53.585Z</time>
      </trkpt>
      <trkpt lat="44.47085" lon="1.84795">
        <ele>160</ele>
        <time>2019-08-06T13:25:58.581Z</time>
      </trkpt>
      <trkpt lat="44.47079" lon="1.84799">
        <ele>160</ele>
        <time>2019-08-06T13:26:03.591Z</time>
      </trkpt>
      <trkpt lat="44.47074" lon="1.84803">
        <ele>160</ele>
        <time>2019-08-06T13:26:08.571Z</time>
      </trkpt>
      <trkpt lat="44.47067" lon="1.84806">
        <ele>156</ele>
        <time>2019-08-06T13:26:13.589Z</time>
      </trkpt>
      <trkpt lat="44.47061" lon="1.84807">
        <ele>156</ele>
        <time>2019-08-06T13:26:18.583Z</time>
      </trkpt>
      <trkpt lat="44.47055" lon="1.84811">
        <ele>156</ele>
        <time>2019-08-06T13:26:23.582Z</time>
      </trkpt>
      <trkpt lat="44.47051" lon="1.84813">
        <ele>156</ele>
        <time>2019-08-06T13:26:28.586Z</time>
      </trkpt>
      <trkpt lat="44.47047" lon="1.84816">
        <ele>156</ele>
        <time>2019-08-06T13:26:33.577Z</time>
      </trkpt>
      <trkpt lat="44.47037" lon="1.84812">
        <ele>154</ele>
        <time>2019-08-06T13:26:38.576Z</time>
      </trkpt>
      <trkpt lat="44.4703" lon="1.84813">
        <ele>154</ele>
        <time>2019-08-06T13:26:42.587Z</time>
      </trkpt>
      <trkpt lat="44.47021" lon="1.84814">
        <ele>154</ele>
        <time>2019-08-06T13:26:47.556Z</time>
      </trkpt>
      <trkpt lat="44.47012" lon="1.84815">
        <ele>154</ele>
        <time>2019-08-06T13:26:52.565Z</time>
      </trkpt>
      <trkpt lat="44.47004" lon="1.84817">
        <ele>154</ele>
        <time>2019-08-06T13:26:57.565Z</time>
      </trkpt>
      <trkpt lat="44.46999" lon="1.84816">
        <ele>154</ele>
        <time>2019-08-06T13:27:01.566Z</time>
      </trkpt>
      <trkpt lat="44.46993" lon="1.84816">
        <ele>154</ele>
        <time>2019-08-06T13:27:06.568Z</time>
      </trkpt>
      <trkpt lat="44.46986" lon="1.84817">
        <ele>154</ele>
        <time>2019-08-06T13:27:10.567Z</time>
      </trkpt>
      <trkpt lat="44.4698" lon="1.84818">
        <ele>155</ele>
        <time>2019-08-06T13:27:15.571Z</time>
      </trkpt>
      <trkpt lat="44.46974" lon="1.84818">
        <ele>155</ele>
        <time>2019-08-06T13:27:20.566Z</time>
      </trkpt>
      <trkpt lat="44.46969" lon="1.8482">
        <ele>165</ele>
        <time>2019-08-06T13:27:24.563Z</time>
      </trkpt>
      <trkpt lat="44.46963" lon="1.8482">
        <ele>165</ele>
        <time>2019-08-06T13:27:29.572Z</time>
      </trkpt>
      <trkpt lat="44.46956" lon="1.8482">
        <ele>166</ele>
        <time>2019-08-06T13:27:34.569Z</time>
      </trkpt>
      <trkpt lat="44.4695" lon="1.84823">
        <ele>166</ele>
        <time>2019-08-06T13:27:39.571Z</time>
      </trkpt>
      <trkpt lat="44.46944" lon="1.84826">
        <ele>166</ele>
        <time>2019-08-06T13:27:44.567Z</time>
      </trkpt>
      <trkpt lat="44.46938" lon="1.84825">
        <ele>166</ele>
        <time>2019-08-06T13:27:49.566Z</time>
      </trkpt>
      <trkpt lat="44.46931" lon="1.84825">
        <ele>166</ele>
        <time>2019-08-06T13:27:54.569Z</time>
      </trkpt>
      <trkpt lat="44.46924" lon="1.84826">
        <ele>168</ele>
        <time>2019-08-06T13:27:59.563Z</time>
      </trkpt>
      <trkpt lat="44.46916" lon="1.84827">
        <ele>168</ele>
        <time>2019-08-06T13:28:04.565Z</time>
      </trkpt>
      <trkpt lat="44.46908" lon="1.84827">
        <ele>168</ele>
        <time>2019-08-06T13:28:09.567Z</time>
      </trkpt>
      <trkpt lat="44.46901" lon="1.84828">
        <ele>168</ele>
        <time>2019-08-06T13:28:14.568Z</time>
      </trkpt>
      <trkpt lat="44.46894" lon="1.84827">
        <ele>168</ele>
        <time>2019-08-06T13:28:19.570Z</time>
      </trkpt>
      <trkpt lat="44.46888" lon="1.84828">
        <ele>168</ele>
        <time>2019-08-06T13:28:24.569Z</time>
      </trkpt>
      <trkpt lat="44.46883" lon="1.84829">
        <ele>168</ele>
        <time>2019-08-06T13:28:28.563Z</time>
      </trkpt>
      <trkpt lat="44.46877" lon="1.84828">
        <ele>168</ele>
        <time>2019-08-06T13:28:33.558Z</time>
      </trkpt>
      <trkpt lat="44.46872" lon="1.84829">
        <ele>166</ele>
        <time>2019-08-06T13:28:37.563Z</time>
      </trkpt>
      <trkpt lat="44.46866" lon="1.84831">
        <ele>166</ele>
        <time>2019-08-06T13:28:42.564Z</time>
      </trkpt>
      <trkpt lat="44.46858" lon="1.84831">
        <ele>166</ele>
        <time>2019-08-06T13:28:47.560Z</time>
      </trkpt>
      <trkpt lat="44.4685" lon="1.84832">
        <ele>166</ele>
        <time>2019-08-06T13:28:51.571Z</time>
      </trkpt>
      <trkpt lat="44.46844" lon="1.84831">
        <ele>165</ele>
        <time>2019-08-06T13:28:56.569Z</time>
      </trkpt>
      <trkpt lat="44.46838" lon="1.84832">
        <ele>165</ele>
        <time>2019-08-06T13:29:00.565Z</time>
      </trkpt>
      <trkpt lat="44.46831" lon="1.84835">
        <ele>165</ele>
        <time>2019-08-06T13:29:05.563Z</time>
      </trkpt>
      <trkpt lat="44.46824" lon="1.84836">
        <ele>165</ele>
        <time>2019-08-06T13:29:10.566Z</time>
      </trkpt>
      <trkpt lat="44.4682" lon="1.84837">
        <ele>165</ele>
        <time>2019-08-06T13:29:14.565Z</time>
      </trkpt>
      <trkpt lat="44.46814" lon="1.84837">
        <ele>161</ele>
        <time>2019-08-06T13:29:19.565Z</time>
      </trkpt>
      <trkpt lat="44.46807" lon="1.84834">
        <ele>161</ele>
        <time>2019-08-06T13:29:24.564Z</time>
      </trkpt>
      <trkpt lat="44.46802" lon="1.84829">
        <ele>161</ele>
        <time>2019-08-06T13:29:28.564Z</time>
      </trkpt>
      <trkpt lat="44.46797" lon="1.84827">
        <ele>161</ele>
        <time>2019-08-06T13:29:32.568Z</time>
      </trkpt>
      <trkpt lat="44.46791" lon="1.8483">
        <ele>156</ele>
        <time>2019-08-06T13:29:37.567Z</time>
      </trkpt>
      <trkpt lat="44.46787" lon="1.84835">
        <ele>156</ele>
        <time>2019-08-06T13:29:42.564Z</time>
      </trkpt>
      <trkpt lat="44.46785" lon="1.84842">
        <ele>156</ele>
        <time>2019-08-06T13:29:47.565Z</time>
      </trkpt>
      <trkpt lat="44.46784" lon="1.84849">
        <ele>163</ele>
        <time>2019-08-06T13:29:51.568Z</time>
      </trkpt>
      <trkpt lat="44.46782" lon="1.84858">
        <ele>163</ele>
        <time>2019-08-06T13:29:56.560Z</time>
      </trkpt>
      <trkpt lat="44.46778" lon="1.84864">
        <ele>163</ele>
        <time>2019-08-06T13:30:00.561Z</time>
      </trkpt>
      <trkpt lat="44.46775" lon="1.84873">
        <ele>163</ele>
        <time>2019-08-06T13:30:05.551Z</time>
      </trkpt>
      <trkpt lat="44.46774" lon="1.8488">
        <ele>170</ele>
        <time>2019-08-06T13:30:09.561Z</time>
      </trkpt>
      <trkpt lat="44.46772" lon="1.84886">
        <ele>170</ele>
        <time>2019-08-06T13:30:13.566Z</time>
      </trkpt>
      <trkpt lat="44.46771" lon="1.84896">
        <ele>170</ele>
        <time>2019-08-06T13:30:18.566Z</time>
      </trkpt>
      <trkpt lat="44.4677" lon="1.84906">
        <ele>174</ele>
        <time>2019-08-06T13:30:23.564Z</time>
      </trkpt>
      <trkpt lat="44.46768" lon="1.84916">
        <ele>174</ele>
        <time>2019-08-06T13:30:28.568Z</time>
      </trkpt>
      <trkpt lat="44.46766" lon="1.84924">
        <ele>174</ele>
        <time>2019-08-06T13:30:32.564Z</time>
      </trkpt>
      <trkpt lat="44.46765" lon="1.84933">
        <ele>178</ele>
        <time>2019-08-06T13:30:37.553Z</time>
      </trkpt>
      <trkpt lat="44.46764" lon="1.84941">
        <ele>165</ele>
        <time>2019-08-06T13:30:41.564Z</time>
      </trkpt>
      <trkpt lat="44.4676" lon="1.84949">
        <ele>165</ele>
        <time>2019-08-06T13:30:46.569Z</time>
      </trkpt>
      <trkpt lat="44.46758" lon="1.84959">
        <ele>167</ele>
        <time>2019-08-06T13:30:51.567Z</time>
      </trkpt>
      <trkpt lat="44.46756" lon="1.84967">
        <ele>167</ele>
        <time>2019-08-06T13:30:56.567Z</time>
      </trkpt>
      <trkpt lat="44.46754" lon="1.84976">
        <ele>167</ele>
        <time>2019-08-06T13:31:01.568Z</time>
      </trkpt>
      <trkpt lat="44.4675" lon="1.84983">
        <ele>167</ele>
        <time>2019-08-06T13:31:05.571Z</time>
      </trkpt>
      <trkpt lat="44.46748" lon="1.84993">
        <ele>171</ele>
        <time>2019-08-06T13:31:10.558Z</time>
      </trkpt>
      <trkpt lat="44.46744" lon="1.84999">
        <ele>171</ele>
        <time>2019-08-06T13:31:14.565Z</time>
      </trkpt>
      <trkpt lat="44.46738" lon="1.85004">
        <ele>171</ele>
        <time>2019-08-06T13:31:19.567Z</time>
      </trkpt>
      <trkpt lat="44.46735" lon="1.85012">
        <ele>157</ele>
        <time>2019-08-06T13:31:24.568Z</time>
      </trkpt>
      <trkpt lat="44.46732" lon="1.85021">
        <ele>160</ele>
        <time>2019-08-06T13:31:29.565Z</time>
      </trkpt>
      <trkpt lat="44.46728" lon="1.85024">
        <ele>160</ele>
        <time>2019-08-06T13:31:33.564Z</time>
      </trkpt>
      <trkpt lat="44.46726" lon="1.85031">
        <ele>160</ele>
        <time>2019-08-06T13:31:38.557Z</time>
      </trkpt>
      <trkpt lat="44.46724" lon="1.85038">
        <ele>160</ele>
        <time>2019-08-06T13:31:42.561Z</time>
      </trkpt>
      <trkpt lat="44.46718" lon="1.85044">
        <ele>167</ele>
        <time>2019-08-06T13:31:47.569Z</time>
      </trkpt>
      <trkpt lat="44.46712" lon="1.85045">
        <ele>167</ele>
        <time>2019-08-06T13:31:51.568Z</time>
      </trkpt>
      <trkpt lat="44.46705" lon="1.85048">
        <ele>158</ele>
        <time>2019-08-06T13:31:56.569Z</time>
      </trkpt>
      <trkpt lat="44.46699" lon="1.85054">
        <ele>158</ele>
        <time>2019-08-06T13:32:01.569Z</time>
      </trkpt>
      <trkpt lat="44.46691" lon="1.85055">
        <ele>158</ele>
        <time>2019-08-06T13:32:06.565Z</time>
      </trkpt>
      <trkpt lat="44.46686" lon="1.85059">
        <ele>158</ele>
        <time>2019-08-06T13:32:10.566Z</time>
      </trkpt>
      <trkpt lat="44.46678" lon="1.85062">
        <ele>156</ele>
        <time>2019-08-06T13:32:15.566Z</time>
      </trkpt>
      <trkpt lat="44.46671" lon="1.85067">
        <ele>156</ele>
        <time>2019-08-06T13:32:20.565Z</time>
      </trkpt>
      <trkpt lat="44.46666" lon="1.8507">
        <ele>164</ele>
        <time>2019-08-06T13:32:24.567Z</time>
      </trkpt>
      <trkpt lat="44.46659" lon="1.85073">
        <ele>164</ele>
        <time>2019-08-06T13:32:29.567Z</time>
      </trkpt>
      <trkpt lat="44.46652" lon="1.85078">
        <ele>160</ele>
        <time>2019-08-06T13:32:34.566Z</time>
      </trkpt>
      <trkpt lat="44.46646" lon="1.85081">
        <ele>160</ele>
        <time>2019-08-06T13:32:39.564Z</time>
      </trkpt>
      <trkpt lat="44.4664" lon="1.85084">
        <ele>160</ele>
        <time>2019-08-06T13:32:44.567Z</time>
      </trkpt>
      <trkpt lat="44.46634" lon="1.85085">
        <ele>160</ele>
        <time>2019-08-06T13:32:48.572Z</time>
      </trkpt>
      <trkpt lat="44.46628" lon="1.85085">
        <ele>160</ele>
        <time>2019-08-06T13:32:52.565Z</time>
      </trkpt>
      <trkpt lat="44.46622" lon="1.85086">
        <ele>157</ele>
        <time>2019-08-06T13:32:57.569Z</time>
      </trkpt>
      <trkpt lat="44.46614" lon="1.85087">
        <ele>157</ele>
        <time>2019-08-06T13:33:02.566Z</time>
      </trkpt>
      <trkpt lat="44.46608" lon="1.85087">
        <ele>157</ele>
        <time>2019-08-06T13:33:06.565Z</time>
      </trkpt>
      <trkpt lat="44.46602" lon="1.85086">
        <ele>157</ele>
        <time>2019-08-06T13:33:11.564Z</time>
      </trkpt>
      <trkpt lat="44.46594" lon="1.85086">
        <ele>155</ele>
        <time>2019-08-06T13:33:16.571Z</time>
      </trkpt>
      <trkpt lat="44.46585" lon="1.85084">
        <ele>155</ele>
        <time>2019-08-06T13:33:21.565Z</time>
      </trkpt>
      <trkpt lat="44.46579" lon="1.85082">
        <ele>155</ele>
        <time>2019-08-06T13:33:26.564Z</time>
      </trkpt>
      <trkpt lat="44.46575" lon="1.85081">
        <ele>155</ele>
        <time>2019-08-06T13:33:30.558Z</time>
      </trkpt>
      <trkpt lat="44.46569" lon="1.85079">
        <ele>155</ele>
        <time>2019-08-06T13:33:35.565Z</time>
      </trkpt>
      <trkpt lat="44.46563" lon="1.85078">
        <ele>155</ele>
        <time>2019-08-06T13:33:40.566Z</time>
      </trkpt>
      <trkpt lat="44.46555" lon="1.85077">
        <ele>155</ele>
        <time>2019-08-06T13:33:45.561Z</time>
      </trkpt>
      <trkpt lat="44.46547" lon="1.85077">
        <ele>155</ele>
        <time>2019-08-06T13:33:50.554Z</time>
      </trkpt>
      <trkpt lat="44.46542" lon="1.85076">
        <ele>155</ele>
        <time>2019-08-06T13:33:55.571Z</time>
      </trkpt>
      <trkpt lat="44.46536" lon="1.85078">
        <ele>155</ele>
        <time>2019-08-06T13:34:00.567Z</time>
      </trkpt>
      <trkpt lat="44.4653" lon="1.85077">
        <ele>155</ele>
        <time>2019-08-06T13:34:05.567Z</time>
      </trkpt>
      <trkpt lat="44.46525" lon="1.85079">
        <ele>155</ele>
        <time>2019-08-06T13:34:09.564Z</time>
      </trkpt>
      <trkpt lat="44.46518" lon="1.85081">
        <ele>155</ele>
        <time>2019-08-06T13:34:14.565Z</time>
      </trkpt>
      <trkpt lat="44.46512" lon="1.85084">
        <ele>154</ele>
        <time>2019-08-06T13:34:19.569Z</time>
      </trkpt>
      <trkpt lat="44.46505" lon="1.85088">
        <ele>154</ele>
        <time>2019-08-06T13:34:24.565Z</time>
      </trkpt>
      <trkpt lat="44.46498" lon="1.85092">
        <ele>154</ele>
        <time>2019-08-06T13:34:29.560Z</time>
      </trkpt>
      <trkpt lat="44.46492" lon="1.85097">
        <ele>157</ele>
        <time>2019-08-06T13:34:34.568Z</time>
      </trkpt>
      <trkpt lat="44.46487" lon="1.85102">
        <ele>157</ele>
        <time>2019-08-06T13:34:39.569Z</time>
      </trkpt>
      <trkpt lat="44.46483" lon="1.85107">
        <ele>155</ele>
        <time>2019-08-06T13:34:44.566Z</time>
      </trkpt>
      <trkpt lat="44.46479" lon="1.85112">
        <ele>155</ele>
        <time>2019-08-06T13:34:48.567Z</time>
      </trkpt>
      <trkpt lat="44.46475" lon="1.85116">
        <ele>155</ele>
        <time>2019-08-06T13:34:53.553Z</time>
      </trkpt>
      <trkpt lat="44.46473" lon="1.85123">
        <ele>155</ele>
        <time>2019-08-06T13:34:58.567Z</time>
      </trkpt>
      <trkpt lat="44.46471" lon="1.8513">
        <ele>156</ele>
        <time>2019-08-06T13:35:03.566Z</time>
      </trkpt>
      <trkpt lat="44.46467" lon="1.85138">
        <ele>156</ele>
        <time>2019-08-06T13:35:08.567Z</time>
      </trkpt>
      <trkpt lat="44.46462" lon="1.85147">
        <ele>156</ele>
        <time>2019-08-06T13:35:13.569Z</time>
      </trkpt>
      <trkpt lat="44.46457" lon="1.85156">
        <ele>154</ele>
        <time>2019-08-06T13:35:18.569Z</time>
      </trkpt>
      <trkpt lat="44.46454" lon="1.85165">
        <ele>154</ele>
        <time>2019-08-06T13:35:23.573Z</time>
      </trkpt>
      <trkpt lat="44.46451" lon="1.85174">
        <ele>154</ele>
        <time>2019-08-06T13:35:28.569Z</time>
      </trkpt>
      <trkpt lat="44.46447" lon="1.85183">
        <ele>157</ele>
        <time>2019-08-06T13:35:33.565Z</time>
      </trkpt>
      <trkpt lat="44.46445" lon="1.85191">
        <ele>157</ele>
        <time>2019-08-06T13:35:38.571Z</time>
      </trkpt>
      <trkpt lat="44.46441" lon="1.85194">
        <ele>157</ele>
        <time>2019-08-06T13:35:43.569Z</time>
      </trkpt>
      <trkpt lat="44.46437" lon="1.85202">
        <ele>157</ele>
        <time>2019-08-06T13:35:48.569Z</time>
      </trkpt>
      <trkpt lat="44.46432" lon="1.85207">
        <ele>157</ele>
        <time>2019-08-06T13:35:53.563Z</time>
      </trkpt>
      <trkpt lat="44.46427" lon="1.85216">
        <ele>157</ele>
        <time>2019-08-06T13:35:58.555Z</time>
      </trkpt>
      <trkpt lat="44.46423" lon="1.85221">
        <ele>157</ele>
        <time>2019-08-06T13:36:02.567Z</time>
      </trkpt>
      <trkpt lat="44.46417" lon="1.85229">
        <ele>157</ele>
        <time>2019-08-06T13:36:07.567Z</time>
      </trkpt>
      <trkpt lat="44.46412" lon="1.85237">
        <ele>162</ele>
        <time>2019-08-06T13:36:12.568Z</time>
      </trkpt>
      <trkpt lat="44.46407" lon="1.85244">
        <ele>162</ele>
        <time>2019-08-06T13:36:17.570Z</time>
      </trkpt>
      <trkpt lat="44.46403" lon="1.85252">
        <ele>156</ele>
        <time>2019-08-06T13:36:22.571Z</time>
      </trkpt>
      <trkpt lat="44.464" lon="1.8526">
        <ele>156</ele>
        <time>2019-08-06T13:36:27.570Z</time>
      </trkpt>
      <trkpt lat="44.46397" lon="1.85265">
        <ele>159</ele>
        <time>2019-08-06T13:36:32.567Z</time>
      </trkpt>
      <trkpt lat="44.46391" lon="1.85271">
        <ele>159</ele>
        <time>2019-08-06T13:36:37.566Z</time>
      </trkpt>
      <trkpt lat="44.46385" lon="1.85278">
        <ele>159</ele>
        <time>2019-08-06T13:36:42.565Z</time>
      </trkpt>
      <trkpt lat="44.46379" lon="1.85285">
        <ele>159</ele>
        <time>2019-08-06T13:36:47.567Z</time>
      </trkpt>
      <trkpt lat="44.46374" lon="1.85293">
        <ele>160</ele>
        <time>2019-08-06T13:36:52.565Z</time>
      </trkpt>
      <trkpt lat="44.4637" lon="1.85302">
        <ele>160</ele>
        <time>2019-08-06T13:36:57.562Z</time>
      </trkpt>
      <trkpt lat="44.46367" lon="1.85307">
        <ele>160</ele>
        <time>2019-08-06T13:37:01.559Z</time>
      </trkpt>
      <trkpt lat="44.46363" lon="1.85313">
        <ele>160</ele>
        <time>2019-08-06T13:37:05.569Z</time>
      </trkpt>
      <trkpt lat="44.46356" lon="1.85317">
        <ele>160</ele>
        <time>2019-08-06T13:37:10.565Z</time>
      </trkpt>
      <trkpt lat="44.4635" lon="1.85322">
        <ele>162</ele>
        <time>2019-08-06T13:37:15.567Z</time>
      </trkpt>
      <trkpt lat="44.46345" lon="1.85327">
        <ele>161</ele>
        <time>2019-08-06T13:37:20.568Z</time>
      </trkpt>
      <trkpt lat="44.46339" lon="1.85332">
        <ele>161</ele>
        <time>2019-08-06T13:37:24.566Z</time>
      </trkpt>
      <trkpt lat="44.46332" lon="1.85336">
        <ele>161</ele>
        <time>2019-08-06T13:37:29.566Z</time>
      </trkpt>
      <trkpt lat="44.46324" lon="1.8534">
        <ele>161</ele>
        <time>2019-08-06T13:37:34.568Z</time>
      </trkpt>
      <trkpt lat="44.46319" lon="1.85344">
        <ele>160</ele>
        <time>2019-08-06T13:37:39.566Z</time>
      </trkpt>
      <trkpt lat="44.46316" lon="1.85345">
        <ele>160</ele>
        <time>2019-08-06T13:37:43.567Z</time>
      </trkpt>
      <trkpt lat="44.4631" lon="1.85345">
        <ele>160</ele>
        <time>2019-08-06T13:37:48.566Z</time>
      </trkpt>
      <trkpt lat="44.46302" lon="1.85344">
        <ele>160</ele>
        <time>2019-08-06T13:37:53.563Z</time>
      </trkpt>
      <trkpt lat="44.46293" lon="1.85347">
        <ele>160</ele>
        <time>2019-08-06T13:37:58.564Z</time>
      </trkpt>
      <trkpt lat="44.46285" lon="1.85349">
        <ele>170</ele>
        <time>2019-08-06T13:38:02.565Z</time>
      </trkpt>
      <trkpt lat="44.46278" lon="1.85348">
        <ele>170</ele>
        <time>2019-08-06T13:38:07.564Z</time>
      </trkpt>
      <trkpt lat="44.46273" lon="1.85348">
        <ele>170</ele>
        <time>2019-08-06T13:38:11.569Z</time>
      </trkpt>
      <trkpt lat="44.46269" lon="1.85343">
        <ele>160</ele>
        <time>2019-08-06T13:38:16.560Z</time>
      </trkpt>
      <trkpt lat="44.46265" lon="1.85338">
        <ele>160</ele>
        <time>2019-08-06T13:38:20.570Z</time>
      </trkpt>
      <trkpt lat="44.46261" lon="1.85329">
        <ele>168</ele>
        <time>2019-08-06T13:38:25.583Z</time>
      </trkpt>
      <trkpt lat="44.46254" lon="1.85323">
        <ele>168</ele>
        <time>2019-08-06T13:38:30.596Z</time>
      </trkpt>
      <trkpt lat="44.46249" lon="1.85318">
        <ele>162</ele>
        <time>2019-08-06T13:38:35.585Z</time>
      </trkpt>
      <trkpt lat="44.46246" lon="1.85315">
        <ele>162</ele>
        <time>2019-08-06T13:38:40.592Z</time>
      </trkpt>
      <trkpt lat="44.4624" lon="1.85311">
        <ele>162</ele>
        <time>2019-08-06T13:38:45.584Z</time>
      </trkpt>
      <trkpt lat="44.46235" lon="1.85305">
        <ele>169</ele>
        <time>2019-08-06T13:38:50.586Z</time>
      </trkpt>
      <trkpt lat="44.4623" lon="1.85297">
        <ele>169</ele>
        <time>2019-08-06T13:38:55.592Z</time>
      </trkpt>
      <trkpt lat="44.46223" lon="1.85287">
        <ele>163</ele>
        <time>2019-08-06T13:39:00.586Z</time>
      </trkpt>
      <trkpt lat="44.46221" lon="1.85283">
        <ele>163</ele>
        <time>2019-08-06T13:39:05.590Z</time>
      </trkpt>
      <trkpt lat="44.46221" lon="1.85277">
        <ele>163</ele>
        <time>2019-08-06T13:41:55.554Z</time>
      </trkpt>
      <trkpt lat="44.4622" lon="1.85268">
        <ele>163</ele>
        <time>2019-08-06T13:42:00.553Z</time>
      </trkpt>
      <trkpt lat="44.46219" lon="1.85263">
        <ele>159</ele>
        <time>2019-08-06T13:42:04.557Z</time>
      </trkpt>
      <trkpt lat="44.46216" lon="1.8525">
        <ele>159</ele>
        <time>2019-08-06T13:42:09.563Z</time>
      </trkpt>
      <trkpt lat="44.46211" lon="1.85234">
        <ele>155</ele>
        <time>2019-08-06T13:42:14.561Z</time>
      </trkpt>
      <trkpt lat="44.46208" lon="1.85222">
        <ele>159</ele>
        <time>2019-08-06T13:42:19.562Z</time>
      </trkpt>
      <trkpt lat="44.46203" lon="1.85215">
        <ele>159</ele>
        <time>2019-08-06T13:42:24.566Z</time>
      </trkpt>
      <trkpt lat="44.46199" lon="1.85203">
        <ele>154</ele>
        <time>2019-08-06T13:42:29.562Z</time>
      </trkpt>
      <trkpt lat="44.46196" lon="1.85197">
        <ele>154</ele>
        <time>2019-08-06T13:42:33.567Z</time>
      </trkpt>
      <trkpt lat="44.46195" lon="1.85194">
        <ele>154</ele>
        <time>2019-08-06T13:42:38.568Z</time>
      </trkpt>
      <trkpt lat="44.46192" lon="1.85187">
        <ele>154</ele>
        <time>2019-08-06T13:42:43.572Z</time>
      </trkpt>
      <trkpt lat="44.46186" lon="1.85176">
        <ele>154</ele>
        <time>2019-08-06T13:42:48.564Z</time>
      </trkpt>
      <trkpt lat="44.46179" lon="1.85167">
        <ele>155</ele>
        <time>2019-08-06T13:42:53.551Z</time>
      </trkpt>
      <trkpt lat="44.46174" lon="1.85162">
        <ele>155</ele>
        <time>2019-08-06T13:42:57.564Z</time>
      </trkpt>
      <trkpt lat="44.46169" lon="1.85156">
        <ele>155</ele>
        <time>2019-08-06T13:43:02.561Z</time>
      </trkpt>
      <trkpt lat="44.46165" lon="1.85151">
        <ele>154</ele>
        <time>2019-08-06T13:43:07.564Z</time>
      </trkpt>
      <trkpt lat="44.46161" lon="1.8515">
        <ele>154</ele>
        <time>2019-08-06T13:43:12.561Z</time>
      </trkpt>
      <trkpt lat="44.46156" lon="1.85151">
        <ele>154</ele>
        <time>2019-08-06T13:43:16.563Z</time>
      </trkpt>
      <trkpt lat="44.4615" lon="1.85154">
        <ele>155</ele>
        <time>2019-08-06T13:43:21.560Z</time>
      </trkpt>
      <trkpt lat="44.46145" lon="1.8516">
        <ele>155</ele>
        <time>2019-08-06T13:43:26.552Z</time>
      </trkpt>
      <trkpt lat="44.46138" lon="1.85168">
        <ele>155</ele>
        <time>2019-08-06T13:43:30.563Z</time>
      </trkpt>
      <trkpt lat="44.46133" lon="1.85176">
        <ele>155</ele>
        <time>2019-08-06T13:43:35.565Z</time>
      </trkpt>
      <trkpt lat="44.46129" lon="1.85184">
        <ele>158</ele>
        <time>2019-08-06T13:43:39.565Z</time>
      </trkpt>
      <trkpt lat="44.46124" lon="1.85191">
        <ele>155</ele>
        <time>2019-08-06T13:43:44.564Z</time>
      </trkpt>
      <trkpt lat="44.46119" lon="1.85198">
        <ele>155</ele>
        <time>2019-08-06T13:43:49.561Z</time>
      </trkpt>
      <trkpt lat="44.46115" lon="1.85204">
        <ele>155</ele>
        <time>2019-08-06T13:43:54.560Z</time>
      </trkpt>
      <trkpt lat="44.46109" lon="1.8521">
        <ele>159</ele>
        <time>2019-08-06T13:43:59.560Z</time>
      </trkpt>
      <trkpt lat="44.46103" lon="1.85216">
        <ele>159</ele>
        <time>2019-08-06T13:44:04.564Z</time>
      </trkpt>
      <trkpt lat="44.46098" lon="1.8522">
        <ele>159</ele>
        <time>2019-08-06T13:44:09.562Z</time>
      </trkpt>
      <trkpt lat="44.46094" lon="1.85223">
        <ele>157</ele>
        <time>2019-08-06T13:44:14.561Z</time>
      </trkpt>
      <trkpt lat="44.46089" lon="1.8523">
        <ele>157</ele>
        <time>2019-08-06T13:44:19.565Z</time>
      </trkpt>
      <trkpt lat="44.46082" lon="1.85235">
        <ele>157</ele>
        <time>2019-08-06T13:44:24.562Z</time>
      </trkpt>
      <trkpt lat="44.46075" lon="1.85242">
        <ele>158</ele>
        <time>2019-08-06T13:44:29.553Z</time>
      </trkpt>
      <trkpt lat="44.46072" lon="1.85248">
        <ele>158</ele>
        <time>2019-08-06T13:44:33.563Z</time>
      </trkpt>
      <trkpt lat="44.46066" lon="1.85252">
        <ele>156</ele>
        <time>2019-08-06T13:44:37.559Z</time>
      </trkpt>
      <trkpt lat="44.46062" lon="1.85259">
        <ele>156</ele>
        <time>2019-08-06T13:44:41.559Z</time>
      </trkpt>
      <trkpt lat="44.46059" lon="1.85268">
        <ele>157</ele>
        <time>2019-08-06T13:44:46.563Z</time>
      </trkpt>
      <trkpt lat="44.46056" lon="1.85276">
        <ele>157</ele>
        <time>2019-08-06T13:44:50.563Z</time>
      </trkpt>
      <trkpt lat="44.46052" lon="1.85283">
        <ele>157</ele>
        <time>2019-08-06T13:44:55.563Z</time>
      </trkpt>
      <trkpt lat="44.46048" lon="1.8529">
        <ele>157</ele>
        <time>2019-08-06T13:45:00.562Z</time>
      </trkpt>
      <trkpt lat="44.46045" lon="1.85295">
        <ele>161</ele>
        <time>2019-08-06T13:45:04.567Z</time>
      </trkpt>
      <trkpt lat="44.46039" lon="1.85301">
        <ele>158</ele>
        <time>2019-08-06T13:45:09.566Z</time>
      </trkpt>
      <trkpt lat="44.46032" lon="1.85305">
        <ele>158</ele>
        <time>2019-08-06T13:45:14.560Z</time>
      </trkpt>
      <trkpt lat="44.46027" lon="1.85308">
        <ele>158</ele>
        <time>2019-08-06T13:45:18.564Z</time>
      </trkpt>
      <trkpt lat="44.46021" lon="1.85311">
        <ele>158</ele>
        <time>2019-08-06T13:45:23.565Z</time>
      </trkpt>
      <trkpt lat="44.46013" lon="1.85315">
        <ele>156</ele>
        <time>2019-08-06T13:45:28.567Z</time>
      </trkpt>
      <trkpt lat="44.46006" lon="1.85319">
        <ele>160</ele>
        <time>2019-08-06T13:45:33.554Z</time>
      </trkpt>
      <trkpt lat="44.45999" lon="1.85321">
        <ele>160</ele>
        <time>2019-08-06T13:45:38.563Z</time>
      </trkpt>
      <trkpt lat="44.45992" lon="1.85323">
        <ele>160</ele>
        <time>2019-08-06T13:45:43.560Z</time>
      </trkpt>
      <trkpt lat="44.45985" lon="1.85328">
        <ele>160</ele>
        <time>2019-08-06T13:45:48.567Z</time>
      </trkpt>
      <trkpt lat="44.45977" lon="1.85331">
        <ele>160</ele>
        <time>2019-08-06T13:45:53.557Z</time>
      </trkpt>
      <trkpt lat="44.45971" lon="1.85335">
        <ele>160</ele>
        <time>2019-08-06T13:45:58.565Z</time>
      </trkpt>
      <trkpt lat="44.45964" lon="1.85336">
        <ele>160</ele>
        <time>2019-08-06T13:46:03.564Z</time>
      </trkpt>
      <trkpt lat="44.45958" lon="1.85336">
        <ele>161</ele>
        <time>2019-08-06T13:46:07.563Z</time>
      </trkpt>
      <trkpt lat="44.4595" lon="1.85334">
        <ele>161</ele>
        <time>2019-08-06T13:46:12.559Z</time>
      </trkpt>
      <trkpt lat="44.45942" lon="1.8533">
        <ele>161</ele>
        <time>2019-08-06T13:46:17.565Z</time>
      </trkpt>
      <trkpt lat="44.45936" lon="1.85329">
        <ele>161</ele>
        <time>2019-08-06T13:46:22.565Z</time>
      </trkpt>
      <trkpt lat="44.45929" lon="1.85328">
        <ele>166</ele>
        <time>2019-08-06T13:46:26.561Z</time>
      </trkpt>
      <trkpt lat="44.45922" lon="1.85326">
        <ele>166</ele>
        <time>2019-08-06T13:46:30.568Z</time>
      </trkpt>
      <trkpt lat="44.45915" lon="1.85324">
        <ele>166</ele>
        <time>2019-08-06T13:46:35.561Z</time>
      </trkpt>
      <trkpt lat="44.4591" lon="1.85318">
        <ele>160</ele>
        <time>2019-08-06T13:46:40.564Z</time>
      </trkpt>
      <trkpt lat="44.45903" lon="1.85313">
        <ele>160</ele>
        <time>2019-08-06T13:46:45.559Z</time>
      </trkpt>
      <trkpt lat="44.45897" lon="1.85308">
        <ele>165</ele>
        <time>2019-08-06T13:46:50.559Z</time>
      </trkpt>
      <trkpt lat="44.45892" lon="1.85307">
        <ele>165</ele>
        <time>2019-08-06T13:46:54.562Z</time>
      </trkpt>
      <trkpt lat="44.45886" lon="1.85303">
        <ele>165</ele>
        <time>2019-08-06T13:46:59.558Z</time>
      </trkpt>
      <trkpt lat="44.45881" lon="1.853">
        <ele>165</ele>
        <time>2019-08-06T13:47:03.555Z</time>
      </trkpt>
      <trkpt lat="44.45874" lon="1.85297">
        <ele>166</ele>
        <time>2019-08-06T13:47:08.561Z</time>
      </trkpt>
      <trkpt lat="44.45869" lon="1.85295">
        <ele>166</ele>
        <time>2019-08-06T13:47:12.568Z</time>
      </trkpt>
      <trkpt lat="44.45864" lon="1.8529">
        <ele>160</ele>
        <time>2019-08-06T13:47:17.561Z</time>
      </trkpt>
      <trkpt lat="44.45857" lon="1.85286">
        <ele>160</ele>
        <time>2019-08-06T13:47:22.561Z</time>
      </trkpt>
      <trkpt lat="44.4585" lon="1.85281">
        <ele>160</ele>
        <time>2019-08-06T13:47:27.561Z</time>
      </trkpt>
      <trkpt lat="44.45846" lon="1.85278">
        <ele>161</ele>
        <time>2019-08-06T13:47:31.564Z</time>
      </trkpt>
      <trkpt lat="44.45839" lon="1.85273">
        <ele>161</ele>
        <time>2019-08-06T13:47:36.564Z</time>
      </trkpt>
      <trkpt lat="44.45832" lon="1.8527">
        <ele>161</ele>
        <time>2019-08-06T13:47:40.564Z</time>
      </trkpt>
      <trkpt lat="44.45825" lon="1.85267">
        <ele>161</ele>
        <time>2019-08-06T13:47:45.565Z</time>
      </trkpt>
      <trkpt lat="44.4582" lon="1.85264">
        <ele>156</ele>
        <time>2019-08-06T13:47:49.563Z</time>
      </trkpt>
      <trkpt lat="44.45814" lon="1.8526">
        <ele>157</ele>
        <time>2019-08-06T13:47:54.566Z</time>
      </trkpt>
      <trkpt lat="44.45807" lon="1.85256">
        <ele>157</ele>
        <time>2019-08-06T13:47:59.562Z</time>
      </trkpt>
      <trkpt lat="44.458" lon="1.85253">
        <ele>157</ele>
        <time>2019-08-06T13:48:04.548Z</time>
      </trkpt>
      <trkpt lat="44.45792" lon="1.8525">
        <ele>160</ele>
        <time>2019-08-06T13:48:09.583Z</time>
      </trkpt>
      <trkpt lat="44.45785" lon="1.85247">
        <ele>160</ele>
        <time>2019-08-06T13:48:14.583Z</time>
      </trkpt>
      <trkpt lat="44.45779" lon="1.85241">
        <ele>160</ele>
        <time>2019-08-06T13:48:19.590Z</time>
      </trkpt>
      <trkpt lat="44.45774" lon="1.85237">
        <ele>160</ele>
        <time>2019-08-06T13:48:24.585Z</time>
      </trkpt>
      <trkpt lat="44.45767" lon="1.85234">
        <ele>157</ele>
        <time>2019-08-06T13:48:29.581Z</time>
      </trkpt>
      <trkpt lat="44.4576" lon="1.85233">
        <ele>159</ele>
        <time>2019-08-06T13:48:34.581Z</time>
      </trkpt>
      <trkpt lat="44.45755" lon="1.85239">
        <ele>161</ele>
        <time>2019-08-06T13:49:02.585Z</time>
      </trkpt>
      <trkpt lat="44.45748" lon="1.85238">
        <ele>161</ele>
        <time>2019-08-06T13:49:07.582Z</time>
      </trkpt>
      <trkpt lat="44.45739" lon="1.85238">
        <ele>161</ele>
        <time>2019-08-06T13:49:12.585Z</time>
      </trkpt>
      <trkpt lat="44.45731" lon="1.85243">
        <ele>161</ele>
        <time>2019-08-06T13:49:17.580Z</time>
      </trkpt>
      <trkpt lat="44.45724" lon="1.85248">
        <ele>161</ele>
        <time>2019-08-06T13:49:22.576Z</time>
      </trkpt>
      <trkpt lat="44.45718" lon="1.85253">
        <ele>161</ele>
        <time>2019-08-06T13:49:27.579Z</time>
      </trkpt>
      <trkpt lat="44.45712" lon="1.85258">
        <ele>161</ele>
        <time>2019-08-06T13:49:32.577Z</time>
      </trkpt>
      <trkpt lat="44.45705" lon="1.85263">
        <ele>159</ele>
        <time>2019-08-06T13:49:37.588Z</time>
      </trkpt>
      <trkpt lat="44.45699" lon="1.85269">
        <ele>163</ele>
        <time>2019-08-06T13:49:42.589Z</time>
      </trkpt>
      <trkpt lat="44.45694" lon="1.85273">
        <ele>163</ele>
        <time>2019-08-06T13:49:47.583Z</time>
      </trkpt>
      <trkpt lat="44.45692" lon="1.85273">
        <ele>163</ele>
        <time>2019-08-06T13:49:52.587Z</time>
      </trkpt>
      <trkpt lat="44.45687" lon="1.85278">
        <ele>163</ele>
        <time>2019-08-06T13:49:57.577Z</time>
      </trkpt>
      <trkpt lat="44.45684" lon="1.85284">
        <ele>163</ele>
        <time>2019-08-06T13:50:02.579Z</time>
      </trkpt>
      <trkpt lat="44.45678" lon="1.8529">
        <ele>159</ele>
        <time>2019-08-06T13:50:07.572Z</time>
      </trkpt>
      <trkpt lat="44.45673" lon="1.85294">
        <ele>164</ele>
        <time>2019-08-06T13:50:12.585Z</time>
      </trkpt>
      <trkpt lat="44.45666" lon="1.85299">
        <ele>164</ele>
        <time>2019-08-06T13:50:17.571Z</time>
      </trkpt>
      <trkpt lat="44.45659" lon="1.85303">
        <ele>164</ele>
        <time>2019-08-06T13:50:21.579Z</time>
      </trkpt>
      <trkpt lat="44.45655" lon="1.85308">
        <ele>164</ele>
        <time>2019-08-06T13:50:25.591Z</time>
      </trkpt>
      <trkpt lat="44.45648" lon="1.8531">
        <ele>160</ele>
        <time>2019-08-06T13:50:30.568Z</time>
      </trkpt>
      <trkpt lat="44.45643" lon="1.8531">
        <ele>160</ele>
        <time>2019-08-06T13:50:34.563Z</time>
      </trkpt>
      <trkpt lat="44.4564" lon="1.85302">
        <ele>160</ele>
        <time>2019-08-06T13:50:39.582Z</time>
      </trkpt>
      <trkpt lat="44.45635" lon="1.85292">
        <ele>160</ele>
        <time>2019-08-06T13:50:44.573Z</time>
      </trkpt>
      <trkpt lat="44.45632" lon="1.85281">
        <ele>158</ele>
        <time>2019-08-06T13:50:49.579Z</time>
      </trkpt>
      <trkpt lat="44.45629" lon="1.85272">
        <ele>158</ele>
        <time>2019-08-06T13:50:54.574Z</time>
      </trkpt>
      <trkpt lat="44.45628" lon="1.85262">
        <ele>159</ele>
        <time>2019-08-06T13:50:58.583Z</time>
      </trkpt>
      <trkpt lat="44.45627" lon="1.85253">
        <ele>159</ele>
        <time>2019-08-06T13:51:03.585Z</time>
      </trkpt>
      <trkpt lat="44.45625" lon="1.85246">
        <ele>159</ele>
        <time>2019-08-06T13:51:07.585Z</time>
      </trkpt>
      <trkpt lat="44.45622" lon="1.85239">
        <ele>159</ele>
        <time>2019-08-06T13:51:11.588Z</time>
      </trkpt>
      <trkpt lat="44.4562" lon="1.85229">
        <ele>160</ele>
        <time>2019-08-06T13:51:16.577Z</time>
      </trkpt>
      <trkpt lat="44.4562" lon="1.85219">
        <ele>160</ele>
        <time>2019-08-06T13:51:20.580Z</time>
      </trkpt>
      <trkpt lat="44.45622" lon="1.8521">
        <ele>160</ele>
        <time>2019-08-06T13:51:24.576Z</time>
      </trkpt>
      <trkpt lat="44.45628" lon="1.85199">
        <ele>161</ele>
        <time>2019-08-06T13:51:29.579Z</time>
      </trkpt>
      <trkpt lat="44.45631" lon="1.85192">
        <ele>161</ele>
        <time>2019-08-06T13:51:33.589Z</time>
      </trkpt>
      <trkpt lat="44.45635" lon="1.85184">
        <ele>161</ele>
        <time>2019-08-06T13:51:38.586Z</time>
      </trkpt>
      <trkpt lat="44.45639" lon="1.85175">
        <ele>164</ele>
        <time>2019-08-06T13:51:43.593Z</time>
      </trkpt>
      <trkpt lat="44.45643" lon="1.85164">
        <ele>164</ele>
        <time>2019-08-06T13:51:48.573Z</time>
      </trkpt>
      <trkpt lat="44.45647" lon="1.85155">
        <ele>164</ele>
        <time>2019-08-06T13:51:53.573Z</time>
      </trkpt>
      <trkpt lat="44.45652" lon="1.85148">
        <ele>167</ele>
        <time>2019-08-06T13:51:58.550Z</time>
      </trkpt>
      <trkpt lat="44.45655" lon="1.85142">
        <ele>162</ele>
        <time>2019-08-06T13:52:02.559Z</time>
      </trkpt>
      <trkpt lat="44.4566" lon="1.85133">
        <ele>162</ele>
        <time>2019-08-06T13:52:07.562Z</time>
      </trkpt>
      <trkpt lat="44.45665" lon="1.85125">
        <ele>162</ele>
        <time>2019-08-06T13:52:12.574Z</time>
      </trkpt>
      <trkpt lat="44.45669" lon="1.85118">
        <ele>164</ele>
        <time>2019-08-06T13:52:17.548Z</time>
      </trkpt>
      <trkpt lat="44.4567" lon="1.85111">
        <ele>164</ele>
        <time>2019-08-06T13:52:21.563Z</time>
      </trkpt>
      <trkpt lat="44.45671" lon="1.85101">
        <ele>164</ele>
        <time>2019-08-06T13:52:26.565Z</time>
      </trkpt>
      <trkpt lat="44.45673" lon="1.8509">
        <ele>166</ele>
        <time>2019-08-06T13:52:31.567Z</time>
      </trkpt>
      <trkpt lat="44.45675" lon="1.85077">
        <ele>166</ele>
        <time>2019-08-06T13:52:36.569Z</time>
      </trkpt>
      <trkpt lat="44.45676" lon="1.85067">
        <ele>172</ele>
        <time>2019-08-06T13:52:41.578Z</time>
      </trkpt>
      <trkpt lat="44.45678" lon="1.85058">
        <ele>172</ele>
        <time>2019-08-06T13:52:46.585Z</time>
      </trkpt>
      <trkpt lat="44.45684" lon="1.8505">
        <ele>165</ele>
        <time>2019-08-06T13:52:51.576Z</time>
      </trkpt>
      <trkpt lat="44.45689" lon="1.85044">
        <ele>165</ele>
        <time>2019-08-06T13:52:56.593Z</time>
      </trkpt>
      <trkpt lat="44.45695" lon="1.85037">
        <ele>169</ele>
        <time>2019-08-06T13:53:01.580Z</time>
      </trkpt>
      <trkpt lat="44.45702" lon="1.85036">
        <ele>169</ele>
        <time>2019-08-06T13:53:06.579Z</time>
      </trkpt>
      <trkpt lat="44.45708" lon="1.85033">
        <ele>169</ele>
        <time>2019-08-06T13:53:11.584Z</time>
      </trkpt>
      <trkpt lat="44.45714" lon="1.85018">
        <ele>163</ele>
        <time>2019-08-06T13:53:25.578Z</time>
      </trkpt>
      <trkpt lat="44.45719" lon="1.85016">
        <ele>163</ele>
        <time>2019-08-06T13:53:30.582Z</time>
      </trkpt>
      <trkpt lat="44.45724" lon="1.85009">
        <ele>166</ele>
        <time>2019-08-06T13:53:35.588Z</time>
      </trkpt>
      <trkpt lat="44.4573" lon="1.85004">
        <ele>166</ele>
        <time>2019-08-06T13:53:40.577Z</time>
      </trkpt>
      <trkpt lat="44.45734" lon="1.84997">
        <ele>166</ele>
        <time>2019-08-06T13:53:44.582Z</time>
      </trkpt>
      <trkpt lat="44.45739" lon="1.8499">
        <ele>160</ele>
        <time>2019-08-06T13:53:49.580Z</time>
      </trkpt>
      <trkpt lat="44.45746" lon="1.84983">
        <ele>163</ele>
        <time>2019-08-06T13:53:54.577Z</time>
      </trkpt>
      <trkpt lat="44.45751" lon="1.84976">
        <ele>163</ele>
        <time>2019-08-06T13:53:59.579Z</time>
      </trkpt>
      <trkpt lat="44.45756" lon="1.84967">
        <ele>163</ele>
        <time>2019-08-06T13:54:04.579Z</time>
      </trkpt>
      <trkpt lat="44.45761" lon="1.84958">
        <ele>165</ele>
        <time>2019-08-06T13:54:09.577Z</time>
      </trkpt>
      <trkpt lat="44.45766" lon="1.84949">
        <ele>158</ele>
        <time>2019-08-06T13:54:14.586Z</time>
      </trkpt>
      <trkpt lat="44.45769" lon="1.84943">
        <ele>158</ele>
        <time>2019-08-06T13:54:19.574Z</time>
      </trkpt>
      <trkpt lat="44.4577" lon="1.84938">
        <ele>158</ele>
        <time>2019-08-06T13:54:24.576Z</time>
      </trkpt>
      <trkpt lat="44.4577" lon="1.84937">
        <ele>158</ele>
        <time>2019-08-06T13:54:28.584Z</time>
      </trkpt>
      <trkpt lat="44.45772" lon="1.84933">
        <ele>158</ele>
        <time>2019-08-06T13:54:33.587Z</time>
      </trkpt>
      <trkpt lat="44.45774" lon="1.84924">
        <ele>159</ele>
        <time>2019-08-06T13:54:38.586Z</time>
      </trkpt>
      <trkpt lat="44.45776" lon="1.84914">
        <ele>159</ele>
        <time>2019-08-06T13:54:43.582Z</time>
      </trkpt>
      <trkpt lat="44.45777" lon="1.84903">
        <ele>159</ele>
        <time>2019-08-06T13:54:48.573Z</time>
      </trkpt>
      <trkpt lat="44.45776" lon="1.84892">
        <ele>159</ele>
        <time>2019-08-06T13:54:52.587Z</time>
      </trkpt>
      <trkpt lat="44.45775" lon="1.84881">
        <ele>159</ele>
        <time>2019-08-06T13:54:57.592Z</time>
      </trkpt>
      <trkpt lat="44.45774" lon="1.84871">
        <ele>159</ele>
        <time>2019-08-06T13:55:02.585Z</time>
      </trkpt>
      <trkpt lat="44.45774" lon="1.84863">
        <ele>159</ele>
        <time>2019-08-06T13:55:07.573Z</time>
      </trkpt>
      <trkpt lat="44.45773" lon="1.84855">
        <ele>159</ele>
        <time>2019-08-06T13:55:11.557Z</time>
      </trkpt>
      <trkpt lat="44.45773" lon="1.84847">
        <ele>159</ele>
        <time>2019-08-06T13:55:15.588Z</time>
      </trkpt>
      <trkpt lat="44.45769" lon="1.84836">
        <ele>159</ele>
        <time>2019-08-06T13:55:20.581Z</time>
      </trkpt>
      <trkpt lat="44.45764" lon="1.84826">
        <ele>159</ele>
        <time>2019-08-06T13:55:24.583Z</time>
      </trkpt>
      <trkpt lat="44.4576" lon="1.84817">
        <ele>160</ele>
        <time>2019-08-06T13:55:28.579Z</time>
      </trkpt>
      <trkpt lat="44.45755" lon="1.84812">
        <ele>160</ele>
        <time>2019-08-06T13:55:32.590Z</time>
      </trkpt>
      <trkpt lat="44.4575" lon="1.84806">
        <ele>160</ele>
        <time>2019-08-06T13:55:37.588Z</time>
      </trkpt>
      <trkpt lat="44.45747" lon="1.84799">
        <ele>160</ele>
        <time>2019-08-06T13:55:42.584Z</time>
      </trkpt>
      <trkpt lat="44.45743" lon="1.84792">
        <ele>160</ele>
        <time>2019-08-06T13:55:46.579Z</time>
      </trkpt>
      <trkpt lat="44.45739" lon="1.84786">
        <ele>162</ele>
        <time>2019-08-06T13:55:50.584Z</time>
      </trkpt>
      <trkpt lat="44.45734" lon="1.84777">
        <ele>160</ele>
        <time>2019-08-06T13:55:55.581Z</time>
      </trkpt>
      <trkpt lat="44.45731" lon="1.84768">
        <ele>160</ele>
        <time>2019-08-06T13:56:09.596Z</time>
      </trkpt>
      <trkpt lat="44.45735" lon="1.84757">
        <ele>158</ele>
        <time>2019-08-06T13:56:14.578Z</time>
      </trkpt>
      <trkpt lat="44.45736" lon="1.84748">
        <ele>158</ele>
        <time>2019-08-06T13:56:18.582Z</time>
      </trkpt>
      <trkpt lat="44.45739" lon="1.84739">
        <ele>162</ele>
        <time>2019-08-06T13:56:23.571Z</time>
      </trkpt>
      <trkpt lat="44.45745" lon="1.84734">
        <ele>166</ele>
        <time>2019-08-06T13:56:28.572Z</time>
      </trkpt>
      <trkpt lat="44.4575" lon="1.84731">
        <ele>166</ele>
        <time>2019-08-06T13:56:32.587Z</time>
      </trkpt>
      <trkpt lat="44.45756" lon="1.84726">
        <ele>166</ele>
        <time>2019-08-06T13:56:37.556Z</time>
      </trkpt>
      <trkpt lat="44.4576" lon="1.84721">
        <ele>166</ele>
        <time>2019-08-06T13:56:41.573Z</time>
      </trkpt>
      <trkpt lat="44.45766" lon="1.84718">
        <ele>174</ele>
        <time>2019-08-06T13:56:46.584Z</time>
      </trkpt>
      <trkpt lat="44.4577" lon="1.84718">
        <ele>174</ele>
        <time>2019-08-06T13:56:50.594Z</time>
      </trkpt>
      <trkpt lat="44.45774" lon="1.84719">
        <ele>174</ele>
        <time>2019-08-06T13:56:54.571Z</time>
      </trkpt>
      <trkpt lat="44.4578" lon="1.84721">
        <ele>174</ele>
        <time>2019-08-06T13:56:59.576Z</time>
      </trkpt>
      <trkpt lat="44.45788" lon="1.84727">
        <ele>174</ele>
        <time>2019-08-06T13:57:04.557Z</time>
      </trkpt>
      <trkpt lat="44.45798" lon="1.8473">
        <ele>181</ele>
        <time>2019-08-06T13:57:09.554Z</time>
      </trkpt>
      <trkpt lat="44.45804" lon="1.84732">
        <ele>181</ele>
        <time>2019-08-06T13:57:13.549Z</time>
      </trkpt>
      <trkpt lat="44.4581" lon="1.84735">
        <ele>181</ele>
        <time>2019-08-06T13:57:18.557Z</time>
      </trkpt>
      <trkpt lat="44.45814" lon="1.8474">
        <ele>174</ele>
        <time>2019-08-06T13:57:23.566Z</time>
      </trkpt>
      <trkpt lat="44.4582" lon="1.84744">
        <ele>184</ele>
        <time>2019-08-06T13:57:28.554Z</time>
      </trkpt>
      <trkpt lat="44.45824" lon="1.84749">
        <ele>184</ele>
        <time>2019-08-06T13:57:32.563Z</time>
      </trkpt>
      <trkpt lat="44.45828" lon="1.84755">
        <ele>184</ele>
        <time>2019-08-06T13:57:37.558Z</time>
      </trkpt>
      <trkpt lat="44.45833" lon="1.84762">
        <ele>184</ele>
        <time>2019-08-06T13:57:42.561Z</time>
      </trkpt>
      <trkpt lat="44.45839" lon="1.8477">
        <ele>177</ele>
        <time>2019-08-06T13:57:47.556Z</time>
      </trkpt>
      <trkpt lat="44.45841" lon="1.84778">
        <ele>177</ele>
        <time>2019-08-06T13:57:51.559Z</time>
      </trkpt>
      <trkpt lat="44.4584" lon="1.84786">
        <ele>177</ele>
        <time>2019-08-06T13:57:56.560Z</time>
      </trkpt>
      <trkpt lat="44.45844" lon="1.84795">
        <ele>173</ele>
        <time>2019-08-06T13:58:01.557Z</time>
      </trkpt>
      <trkpt lat="44.45846" lon="1.84801">
        <ele>173</ele>
        <time>2019-08-06T13:58:06.554Z</time>
      </trkpt>
      <trkpt lat="44.45849" lon="1.84805">
        <ele>187</ele>
        <time>2019-08-06T13:58:10.563Z</time>
      </trkpt>
      <trkpt lat="44.45852" lon="1.8481">
        <ele>187</ele>
        <time>2019-08-06T13:58:14.560Z</time>
      </trkpt>
      <trkpt lat="44.45859" lon="1.84817">
        <ele>187</ele>
        <time>2019-08-06T13:58:19.559Z</time>
      </trkpt>
      <trkpt lat="44.45864" lon="1.84823">
        <ele>184</ele>
        <time>2019-08-06T13:58:23.559Z</time>
      </trkpt>
      <trkpt lat="44.45869" lon="1.84832">
        <ele>184</ele>
        <time>2019-08-06T13:58:28.549Z</time>
      </trkpt>
      <trkpt lat="44.45873" lon="1.8484">
        <ele>184</ele>
        <time>2019-08-06T13:58:33.551Z</time>
      </trkpt>
      <trkpt lat="44.45876" lon="1.84848">
        <ele>190</ele>
        <time>2019-08-06T13:58:37.548Z</time>
      </trkpt>
      <trkpt lat="44.45881" lon="1.84856">
        <ele>190</ele>
        <time>2019-08-06T13:58:42.546Z</time>
      </trkpt>
      <trkpt lat="44.45884" lon="1.84862">
        <ele>190</ele>
        <time>2019-08-06T13:58:46.549Z</time>
      </trkpt>
      <trkpt lat="44.45886" lon="1.84869">
        <ele>190</ele>
        <time>2019-08-06T13:58:51.558Z</time>
      </trkpt>
      <trkpt lat="44.45888" lon="1.84879">
        <ele>187</ele>
        <time>2019-08-06T13:58:56.557Z</time>
      </trkpt>
      <trkpt lat="44.4589" lon="1.84886">
        <ele>187</ele>
        <time>2019-08-06T13:59:00.566Z</time>
      </trkpt>
      <trkpt lat="44.45889" lon="1.84894">
        <ele>187</ele>
        <time>2019-08-06T13:59:05.564Z</time>
      </trkpt>
      <trkpt lat="44.45888" lon="1.84905">
        <ele>187</ele>
        <time>2019-08-06T13:59:10.559Z</time>
      </trkpt>
      <trkpt lat="44.45889" lon="1.84915">
        <ele>187</ele>
        <time>2019-08-06T13:59:15.554Z</time>
      </trkpt>
      <trkpt lat="44.45888" lon="1.84924">
        <ele>187</ele>
        <time>2019-08-06T13:59:20.561Z</time>
      </trkpt>
      <trkpt lat="44.45887" lon="1.84935">
        <ele>186</ele>
        <time>2019-08-06T13:59:25.549Z</time>
      </trkpt>
      <trkpt lat="44.45887" lon="1.84943">
        <ele>186</ele>
        <time>2019-08-06T13:59:29.559Z</time>
      </trkpt>
      <trkpt lat="44.45886" lon="1.8495">
        <ele>186</ele>
        <time>2019-08-06T13:59:33.563Z</time>
      </trkpt>
      <trkpt lat="44.45886" lon="1.8496">
        <ele>187</ele>
        <time>2019-08-06T13:59:38.556Z</time>
      </trkpt>
      <trkpt lat="44.45887" lon="1.84969">
        <ele>187</ele>
        <time>2019-08-06T13:59:43.555Z</time>
      </trkpt>
      <trkpt lat="44.45886" lon="1.84978">
        <ele>187</ele>
        <time>2019-08-06T13:59:48.559Z</time>
      </trkpt>
      <trkpt lat="44.45883" lon="1.84988">
        <ele>189</ele>
        <time>2019-08-06T13:59:53.551Z</time>
      </trkpt>
      <trkpt lat="44.45882" lon="1.84997">
        <ele>189</ele>
        <time>2019-08-06T13:59:57.574Z</time>
      </trkpt>
      <trkpt lat="44.45881" lon="1.85004">
        <ele>189</ele>
        <time>2019-08-06T14:00:01.581Z</time>
      </trkpt>
      <trkpt lat="44.45878" lon="1.85011">
        <ele>189</ele>
        <time>2019-08-06T14:00:05.578Z</time>
      </trkpt>
      <trkpt lat="44.45878" lon="1.85021">
        <ele>191</ele>
        <time>2019-08-06T14:00:10.572Z</time>
      </trkpt>
      <trkpt lat="44.45881" lon="1.85029">
        <ele>191</ele>
        <time>2019-08-06T14:00:15.561Z</time>
      </trkpt>
      <trkpt lat="44.45886" lon="1.85032">
        <ele>191</ele>
        <time>2019-08-06T14:00:20.572Z</time>
      </trkpt>
      <trkpt lat="44.45889" lon="1.85029">
        <ele>191</ele>
        <time>2019-08-06T14:00:24.569Z</time>
      </trkpt>
      <trkpt lat="44.45889" lon="1.85021">
        <ele>191</ele>
        <time>2019-08-06T14:00:29.563Z</time>
      </trkpt>
      <trkpt lat="44.45889" lon="1.85021">
        <ele>191</ele>
        <time>2019-08-06T14:00:33.571Z</time>
      </trkpt>
      <trkpt lat="44.45889" lon="1.85021">
        <ele>191</ele>
        <time>2019-08-06T14:00:37.577Z</time>
      </trkpt>
      <trkpt lat="44.45889" lon="1.85013">
        <ele>189</ele>
        <time>2019-08-06T14:00:42.594Z</time>
      </trkpt>
      <trkpt lat="44.4589" lon="1.85001">
        <ele>189</ele>
        <time>2019-08-06T14:00:47.583Z</time>
      </trkpt>
      <trkpt lat="44.45892" lon="1.84991">
        <ele>189</ele>
        <time>2019-08-06T14:00:52.564Z</time>
      </trkpt>
      <trkpt lat="44.45894" lon="1.84987">
        <ele>189</ele>
        <time>2019-08-06T14:00:56.588Z</time>
      </trkpt>
      <trkpt lat="44.45896" lon="1.84983">
        <ele>187</ele>
        <time>2019-08-06T14:01:01.576Z</time>
      </trkpt>
      <trkpt lat="44.45898" lon="1.84974">
        <ele>187</ele>
        <time>2019-08-06T14:01:05.578Z</time>
      </trkpt>
      <trkpt lat="44.45899" lon="1.84962">
        <ele>187</ele>
        <time>2019-08-06T14:01:10.581Z</time>
      </trkpt>
      <trkpt lat="44.459" lon="1.84954">
        <ele>186</ele>
        <time>2019-08-06T14:01:14.590Z</time>
      </trkpt>
      <trkpt lat="44.45903" lon="1.84946">
        <ele>186</ele>
        <time>2019-08-06T14:01:19.568Z</time>
      </trkpt>
      <trkpt lat="44.45904" lon="1.8494">
        <ele>202</ele>
        <time>2019-08-06T14:01:23.574Z</time>
      </trkpt>
      <trkpt lat="44.45907" lon="1.84929">
        <ele>200</ele>
        <time>2019-08-06T14:01:28.588Z</time>
      </trkpt>
      <trkpt lat="44.4591" lon="1.84923">
        <ele>200</ele>
        <time>2019-08-06T14:01:33.575Z</time>
      </trkpt>
      <trkpt lat="44.45914" lon="1.84912">
        <ele>200</ele>
        <time>2019-08-06T14:01:37.584Z</time>
      </trkpt>
      <trkpt lat="44.45916" lon="1.84902">
        <ele>201</ele>
        <time>2019-08-06T14:01:42.593Z</time>
      </trkpt>
      <trkpt lat="44.45918" lon="1.84893">
        <ele>201</ele>
        <time>2019-08-06T14:01:47.582Z</time>
      </trkpt>
      <trkpt lat="44.4592" lon="1.84884">
        <ele>201</ele>
        <time>2019-08-06T14:01:52.591Z</time>
      </trkpt>
      <trkpt lat="44.4592" lon="1.84875">
        <ele>201</ele>
        <time>2019-08-06T14:01:57.564Z</time>
      </trkpt>
      <trkpt lat="44.45922" lon="1.84865">
        <ele>203</ele>
        <time>2019-08-06T14:02:02.576Z</time>
      </trkpt>
      <trkpt lat="44.45923" lon="1.84855">
        <ele>203</ele>
        <time>2019-08-06T14:02:07.566Z</time>
      </trkpt>
      <trkpt lat="44.45923" lon="1.84848">
        <ele>203</ele>
        <time>2019-08-06T14:02:12.566Z</time>
      </trkpt>
      <trkpt lat="44.45922" lon="1.84841">
        <ele>206</ele>
        <time>2019-08-06T14:02:16.583Z</time>
      </trkpt>
      <trkpt lat="44.45921" lon="1.8483">
        <ele>206</ele>
        <time>2019-08-06T14:02:21.563Z</time>
      </trkpt>
      <trkpt lat="44.4592" lon="1.84823">
        <ele>206</ele>
        <time>2019-08-06T14:02:25.571Z</time>
      </trkpt>
      <trkpt lat="44.45919" lon="1.84814">
        <ele>211</ele>
        <time>2019-08-06T14:02:29.578Z</time>
      </trkpt>
      <trkpt lat="44.45917" lon="1.84804">
        <ele>211</ele>
        <time>2019-08-06T14:02:34.582Z</time>
      </trkpt>
      <trkpt lat="44.45916" lon="1.84796">
        <ele>211</ele>
        <time>2019-08-06T14:02:39.573Z</time>
      </trkpt>
      <trkpt lat="44.45914" lon="1.84789">
        <ele>216</ele>
        <time>2019-08-06T14:02:43.592Z</time>
      </trkpt>
      <trkpt lat="44.45912" lon="1.84781">
        <ele>216</ele>
        <time>2019-08-06T14:02:48.583Z</time>
      </trkpt>
      <trkpt lat="44.4591" lon="1.84772">
        <ele>216</ele>
        <time>2019-08-06T14:02:53.571Z</time>
      </trkpt>
      <trkpt lat="44.45908" lon="1.84766">
        <ele>216</ele>
        <time>2019-08-06T14:02:57.577Z</time>
      </trkpt>
      <trkpt lat="44.45907" lon="1.84759">
        <ele>224</ele>
        <time>2019-08-06T14:03:02.579Z</time>
      </trkpt>
      <trkpt lat="44.45906" lon="1.84758">
        <ele>224</ele>
        <time>2019-08-06T14:03:06.569Z</time>
      </trkpt>
      <trkpt lat="44.45905" lon="1.84757">
        <ele>224</ele>
        <time>2019-08-06T14:03:11.585Z</time>
      </trkpt>
      <trkpt lat="44.45904" lon="1.84753">
        <ele>224</ele>
        <time>2019-08-06T14:03:16.580Z</time>
      </trkpt>
      <trkpt lat="44.45901" lon="1.84749">
        <ele>209</ele>
        <time>2019-08-06T14:03:21.590Z</time>
      </trkpt>
      <trkpt lat="44.45898" lon="1.84741">
        <ele>209</ele>
        <time>2019-08-06T14:03:26.585Z</time>
      </trkpt>
      <trkpt lat="44.45897" lon="1.84733">
        <ele>215</ele>
        <time>2019-08-06T14:03:31.584Z</time>
      </trkpt>
      <trkpt lat="44.45894" lon="1.84725">
        <ele>215</ele>
        <time>2019-08-06T14:03:36.584Z</time>
      </trkpt>
      <trkpt lat="44.45891" lon="1.84716">
        <ele>215</ele>
        <time>2019-08-06T14:03:41.591Z</time>
      </trkpt>
      <trkpt lat="44.45888" lon="1.84707">
        <ele>223</ele>
        <time>2019-08-06T14:03:46.586Z</time>
      </trkpt>
      <trkpt lat="44.45887" lon="1.84701">
        <ele>223</ele>
        <time>2019-08-06T14:03:51.589Z</time>
      </trkpt>
      <trkpt lat="44.45883" lon="1.84692">
        <ele>223</ele>
        <time>2019-08-06T14:03:56.571Z</time>
      </trkpt>
      <trkpt lat="44.45881" lon="1.84682">
        <ele>223</ele>
        <time>2019-08-06T14:04:01.569Z</time>
      </trkpt>
      <trkpt lat="44.45879" lon="1.84673">
        <ele>228</ele>
        <time>2019-08-06T14:04:06.575Z</time>
      </trkpt>
      <trkpt lat="44.45876" lon="1.84665">
        <ele>228</ele>
        <time>2019-08-06T14:04:11.604Z</time>
      </trkpt>
      <trkpt lat="44.45874" lon="1.84656">
        <ele>218</ele>
        <time>2019-08-06T14:04:16.571Z</time>
      </trkpt>
      <trkpt lat="44.45871" lon="1.8465">
        <ele>224</ele>
        <time>2019-08-06T14:04:20.593Z</time>
      </trkpt>
      <trkpt lat="44.45868" lon="1.84643">
        <ele>224</ele>
        <time>2019-08-06T14:04:25.611Z</time>
      </trkpt>
      <trkpt lat="44.45865" lon="1.84634">
        <ele>224</ele>
        <time>2019-08-06T14:04:30.593Z</time>
      </trkpt>
      <trkpt lat="44.45862" lon="1.84624">
        <ele>229</ele>
        <time>2019-08-06T14:04:35.580Z</time>
      </trkpt>
      <trkpt lat="44.45859" lon="1.84616">
        <ele>229</ele>
        <time>2019-08-06T14:04:39.590Z</time>
      </trkpt>
      <trkpt lat="44.45856" lon="1.84607">
        <ele>229</ele>
        <time>2019-08-06T14:04:44.588Z</time>
      </trkpt>
      <trkpt lat="44.45853" lon="1.84599">
        <ele>229</ele>
        <time>2019-08-06T14:04:49.599Z</time>
      </trkpt>
      <trkpt lat="44.45849" lon="1.84589">
        <ele>235</ele>
        <time>2019-08-06T14:04:54.579Z</time>
      </trkpt>
      <trkpt lat="44.45847" lon="1.84578">
        <ele>225</ele>
        <time>2019-08-06T14:04:59.596Z</time>
      </trkpt>
      <trkpt lat="44.45843" lon="1.84572">
        <ele>225</ele>
        <time>2019-08-06T14:05:04.593Z</time>
      </trkpt>
      <trkpt lat="44.45839" lon="1.84565">
        <ele>230</ele>
        <time>2019-08-06T14:05:09.564Z</time>
      </trkpt>
      <trkpt lat="44.45835" lon="1.84558">
        <ele>230</ele>
        <time>2019-08-06T14:05:14.587Z</time>
      </trkpt>
      <trkpt lat="44.45832" lon="1.8455">
        <ele>230</ele>
        <time>2019-08-06T14:05:19.566Z</time>
      </trkpt>
      <trkpt lat="44.45829" lon="1.8454">
        <ele>234</ele>
        <time>2019-08-06T14:05:24.580Z</time>
      </trkpt>
      <trkpt lat="44.45827" lon="1.84533">
        <ele>234</ele>
        <time>2019-08-06T14:05:28.591Z</time>
      </trkpt>
      <trkpt lat="44.45824" lon="1.84526">
        <ele>234</ele>
        <time>2019-08-06T14:05:33.575Z</time>
      </trkpt>
      <trkpt lat="44.45824" lon="1.84519">
        <ele>234</ele>
        <time>2019-08-06T14:05:37.591Z</time>
      </trkpt>
      <trkpt lat="44.45828" lon="1.84524">
        <ele>234</ele>
        <time>2019-08-06T14:05:42.582Z</time>
      </trkpt>
      <trkpt lat="44.45834" lon="1.84531">
        <ele>234</ele>
        <time>2019-08-06T14:05:47.581Z</time>
      </trkpt>
      <trkpt lat="44.45837" lon="1.84539">
        <ele>234</ele>
        <time>2019-08-06T14:05:52.580Z</time>
      </trkpt>
      <trkpt lat="44.45838" lon="1.84547">
        <ele>230</ele>
        <time>2019-08-06T14:05:56.575Z</time>
      </trkpt>
      <trkpt lat="44.45842" lon="1.84555">
        <ele>230</ele>
        <time>2019-08-06T14:06:01.591Z</time>
      </trkpt>
      <trkpt lat="44.45846" lon="1.84562">
        <ele>230</ele>
        <time>2019-08-06T14:06:06.595Z</time>
      </trkpt>
      <trkpt lat="44.45852" lon="1.84568">
        <ele>238</ele>
        <time>2019-08-06T14:06:11.583Z</time>
      </trkpt>
      <trkpt lat="44.45858" lon="1.84573">
        <ele>235</ele>
        <time>2019-08-06T14:06:16.568Z</time>
      </trkpt>
      <trkpt lat="44.45865" lon="1.84582">
        <ele>235</ele>
        <time>2019-08-06T14:06:21.550Z</time>
      </trkpt>
      <trkpt lat="44.45869" lon="1.84588">
        <ele>235</ele>
        <time>2019-08-06T14:06:25.578Z</time>
      </trkpt>
      <trkpt lat="44.45875" lon="1.84597">
        <ele>244</ele>
        <time>2019-08-06T14:06:30.583Z</time>
      </trkpt>
      <trkpt lat="44.45882" lon="1.84604">
        <ele>240</ele>
        <time>2019-08-06T14:06:35.568Z</time>
      </trkpt>
      <trkpt lat="44.45888" lon="1.8461">
        <ele>240</ele>
        <time>2019-08-06T14:06:40.586Z</time>
      </trkpt>
      <trkpt lat="44.45892" lon="1.84617">
        <ele>240</ele>
        <time>2019-08-06T14:06:45.551Z</time>
      </trkpt>
      <trkpt lat="44.45897" lon="1.84623">
        <ele>240</ele>
        <time>2019-08-06T14:06:50.585Z</time>
      </trkpt>
      <trkpt lat="44.45901" lon="1.84629">
        <ele>234</ele>
        <time>2019-08-06T14:06:55.559Z</time>
      </trkpt>
      <trkpt lat="44.45903" lon="1.84633">
        <ele>245</ele>
        <time>2019-08-06T14:06:59.569Z</time>
      </trkpt>
      <trkpt lat="44.45909" lon="1.84639">
        <ele>245</ele>
        <time>2019-08-06T14:07:04.572Z</time>
      </trkpt>
      <trkpt lat="44.45913" lon="1.84646">
        <ele>245</ele>
        <time>2019-08-06T14:07:08.574Z</time>
      </trkpt>
      <trkpt lat="44.45917" lon="1.84652">
        <ele>245</ele>
        <time>2019-08-06T14:07:12.580Z</time>
      </trkpt>
      <trkpt lat="44.45922" lon="1.8466">
        <ele>241</ele>
        <time>2019-08-06T14:07:17.566Z</time>
      </trkpt>
      <trkpt lat="44.45929" lon="1.84666">
        <ele>241</ele>
        <time>2019-08-06T14:07:22.573Z</time>
      </trkpt>
      <trkpt lat="44.45936" lon="1.84672">
        <ele>251</ele>
        <time>2019-08-06T14:07:27.561Z</time>
      </trkpt>
      <trkpt lat="44.4594" lon="1.84679">
        <ele>251</ele>
        <time>2019-08-06T14:07:32.572Z</time>
      </trkpt>
      <trkpt lat="44.45944" lon="1.84686">
        <ele>247</ele>
        <time>2019-08-06T14:07:37.581Z</time>
      </trkpt>
      <trkpt lat="44.45947" lon="1.84691">
        <ele>247</ele>
        <time>2019-08-06T14:07:42.574Z</time>
      </trkpt>
      <trkpt lat="44.4595" lon="1.84696">
        <ele>247</ele>
        <time>2019-08-06T14:07:47.575Z</time>
      </trkpt>
      <trkpt lat="44.45955" lon="1.84706">
        <ele>247</ele>
        <time>2019-08-06T14:07:52.584Z</time>
      </trkpt>
      <trkpt lat="44.45958" lon="1.84714">
        <ele>252</ele>
        <time>2019-08-06T14:07:57.576Z</time>
      </trkpt>
      <trkpt lat="44.45961" lon="1.84722">
        <ele>252</ele>
        <time>2019-08-06T14:08:02.577Z</time>
      </trkpt>
      <trkpt lat="44.45963" lon="1.84729">
        <ele>252</ele>
        <time>2019-08-06T14:08:06.587Z</time>
      </trkpt>
      <trkpt lat="44.45966" lon="1.84735">
        <ele>252</ele>
        <time>2019-08-06T14:08:11.556Z</time>
      </trkpt>
      <trkpt lat="44.45969" lon="1.84741">
        <ele>249</ele>
        <time>2019-08-06T14:08:16.580Z</time>
      </trkpt>
      <trkpt lat="44.45972" lon="1.84749">
        <ele>249</ele>
        <time>2019-08-06T14:08:20.586Z</time>
      </trkpt>
      <trkpt lat="44.45976" lon="1.84756">
        <ele>249</ele>
        <time>2019-08-06T14:08:25.558Z</time>
      </trkpt>
      <trkpt lat="44.45983" lon="1.84764">
        <ele>246</ele>
        <time>2019-08-06T14:08:29.552Z</time>
      </trkpt>
      <trkpt lat="44.45988" lon="1.84774">
        <ele>256</ele>
        <time>2019-08-06T14:08:34.581Z</time>
      </trkpt>
      <trkpt lat="44.4599" lon="1.84781">
        <ele>256</ele>
        <time>2019-08-06T14:08:38.579Z</time>
      </trkpt>
      <trkpt lat="44.45994" lon="1.84789">
        <ele>256</ele>
        <time>2019-08-06T14:08:43.549Z</time>
      </trkpt>
      <trkpt lat="44.46" lon="1.84797">
        <ele>253</ele>
        <time>2019-08-06T14:08:48.569Z</time>
      </trkpt>
      <trkpt lat="44.46005" lon="1.84803">
        <ele>253</ele>
        <time>2019-08-06T14:08:53.554Z</time>
      </trkpt>
      <trkpt lat="44.46008" lon="1.84812">
        <ele>253</ele>
        <time>2019-08-06T14:08:58.586Z</time>
      </trkpt>
      <trkpt lat="44.46012" lon="1.84819">
        <ele>248</ele>
        <time>2019-08-06T14:09:03.571Z</time>
      </trkpt>
      <trkpt lat="44.46015" lon="1.84828">
        <ele>258</ele>
        <time>2019-08-06T14:09:07.565Z</time>
      </trkpt>
      <trkpt lat="44.46018" lon="1.84839">
        <ele>258</ele>
        <time>2019-08-06T14:09:12.577Z</time>
      </trkpt>
      <trkpt lat="44.46022" lon="1.84849">
        <ele>252</ele>
        <time>2019-08-06T14:09:17.570Z</time>
      </trkpt>
      <trkpt lat="44.46027" lon="1.84854">
        <ele>252</ele>
        <time>2019-08-06T14:09:22.582Z</time>
      </trkpt>
      <trkpt lat="44.46031" lon="1.84849">
        <ele>252</ele>
        <time>2019-08-06T14:09:27.581Z</time>
      </trkpt>
      <trkpt lat="44.46032" lon="1.8484">
        <ele>258</ele>
        <time>2019-08-06T14:09:32.578Z</time>
      </trkpt>
      <trkpt lat="44.46031" lon="1.84839">
        <ele>258</ele>
        <time>2019-08-06T14:09:37.584Z</time>
      </trkpt>
      <trkpt lat="44.46029" lon="1.84833">
        <ele>258</ele>
        <time>2019-08-06T14:09:41.584Z</time>
      </trkpt>
      <trkpt lat="44.46026" lon="1.84824">
        <ele>258</ele>
        <time>2019-08-06T14:09:45.586Z</time>
      </trkpt>
      <trkpt lat="44.46022" lon="1.84815">
        <ele>262</ele>
        <time>2019-08-06T14:09:50.574Z</time>
      </trkpt>
      <trkpt lat="44.46018" lon="1.84807">
        <ele>262</ele>
        <time>2019-08-06T14:09:55.576Z</time>
      </trkpt>
      <trkpt lat="44.46016" lon="1.84799">
        <ele>262</ele>
        <time>2019-08-06T14:10:00.566Z</time>
      </trkpt>
      <trkpt lat="44.46015" lon="1.8479">
        <ele>265</ele>
        <time>2019-08-06T14:10:05.560Z</time>
      </trkpt>
      <trkpt lat="44.46013" lon="1.84781">
        <ele>256</ele>
        <time>2019-08-06T14:10:10.548Z</time>
      </trkpt>
      <trkpt lat="44.46012" lon="1.84774">
        <ele>256</ele>
        <time>2019-08-06T14:10:14.562Z</time>
      </trkpt>
      <trkpt lat="44.46012" lon="1.84766">
        <ele>256</ele>
        <time>2019-08-06T14:10:18.564Z</time>
      </trkpt>
      <trkpt lat="44.46012" lon="1.84761">
        <ele>259</ele>
        <time>2019-08-06T14:10:23.558Z</time>
      </trkpt>
      <trkpt lat="44.46007" lon="1.84751">
        <ele>259</ele>
        <time>2019-08-06T14:10:28.569Z</time>
      </trkpt>
      <trkpt lat="44.46005" lon="1.84741">
        <ele>259</ele>
        <time>2019-08-06T14:10:33.563Z</time>
      </trkpt>
      <trkpt lat="44.46003" lon="1.84732">
        <ele>262</ele>
        <time>2019-08-06T14:10:38.558Z</time>
      </trkpt>
      <trkpt lat="44.46002" lon="1.84722">
        <ele>262</ele>
        <time>2019-08-06T14:10:43.554Z</time>
      </trkpt>
      <trkpt lat="44.46" lon="1.84713">
        <ele>262</ele>
        <time>2019-08-06T14:10:47.560Z</time>
      </trkpt>
      <trkpt lat="44.45999" lon="1.84704">
        <ele>263</ele>
        <time>2019-08-06T14:10:52.548Z</time>
      </trkpt>
      <trkpt lat="44.45998" lon="1.84695">
        <ele>263</ele>
        <time>2019-08-06T14:10:56.560Z</time>
      </trkpt>
      <trkpt lat="44.45997" lon="1.84685">
        <ele>263</ele>
        <time>2019-08-06T14:11:01.563Z</time>
      </trkpt>
      <trkpt lat="44.45994" lon="1.84675">
        <ele>266</ele>
        <time>2019-08-06T14:11:06.563Z</time>
      </trkpt>
      <trkpt lat="44.45992" lon="1.84666">
        <ele>266</ele>
        <time>2019-08-06T14:11:11.562Z</time>
      </trkpt>
      <trkpt lat="44.4599" lon="1.84655">
        <ele>266</ele>
        <time>2019-08-06T14:11:16.566Z</time>
      </trkpt>
      <trkpt lat="44.45989" lon="1.84646">
        <ele>271</ele>
        <time>2019-08-06T14:11:21.564Z</time>
      </trkpt>
      <trkpt lat="44.45988" lon="1.84638">
        <ele>271</ele>
        <time>2019-08-06T14:11:25.557Z</time>
      </trkpt>
      <trkpt lat="44.45985" lon="1.84629">
        <ele>265</ele>
        <time>2019-08-06T14:11:30.548Z</time>
      </trkpt>
      <trkpt lat="44.45983" lon="1.84623">
        <ele>270</ele>
        <time>2019-08-06T14:11:34.558Z</time>
      </trkpt>
      <trkpt lat="44.45982" lon="1.84613">
        <ele>270</ele>
        <time>2019-08-06T14:11:38.564Z</time>
      </trkpt>
      <trkpt lat="44.45981" lon="1.84603">
        <ele>270</ele>
        <time>2019-08-06T14:11:43.565Z</time>
      </trkpt>
      <trkpt lat="44.45979" lon="1.84594">
        <ele>272</ele>
        <time>2019-08-06T14:11:48.553Z</time>
      </trkpt>
      <trkpt lat="44.45977" lon="1.84587">
        <ele>272</ele>
        <time>2019-08-06T14:11:52.564Z</time>
      </trkpt>
      <trkpt lat="44.45975" lon="1.8458">
        <ele>272</ele>
        <time>2019-08-06T14:11:56.568Z</time>
      </trkpt>
      <trkpt lat="44.45975" lon="1.84571">
        <ele>272</ele>
        <time>2019-08-06T14:12:01.564Z</time>
      </trkpt>
      <trkpt lat="44.45974" lon="1.8456">
        <ele>274</ele>
        <time>2019-08-06T14:12:06.562Z</time>
      </trkpt>
      <trkpt lat="44.45976" lon="1.84553">
        <ele>274</ele>
        <time>2019-08-06T14:12:11.564Z</time>
      </trkpt>
      <trkpt lat="44.45977" lon="1.84546">
        <ele>274</ele>
        <time>2019-08-06T14:12:15.568Z</time>
      </trkpt>
      <trkpt lat="44.45977" lon="1.84537">
        <ele>275</ele>
        <time>2019-08-06T14:12:20.552Z</time>
      </trkpt>
      <trkpt lat="44.45977" lon="1.84536">
        <ele>275</ele>
        <time>2019-08-06T14:12:24.570Z</time>
      </trkpt>
      <trkpt lat="44.45976" lon="1.8453">
        <ele>275</ele>
        <time>2019-08-06T14:12:28.563Z</time>
      </trkpt>
      <trkpt lat="44.45974" lon="1.84527">
        <ele>275</ele>
        <time>2019-08-06T14:12:33.565Z</time>
      </trkpt>
      <trkpt lat="44.45974" lon="1.84523">
        <ele>275</ele>
        <time>2019-08-06T14:12:37.561Z</time>
      </trkpt>
      <trkpt lat="44.45974" lon="1.84509">
        <ele>276</ele>
        <time>2019-08-06T14:14:39.556Z</time>
      </trkpt>
      <trkpt lat="44.45975" lon="1.84508">
        <ele>276</ele>
        <time>2019-08-06T14:14:44.550Z</time>
      </trkpt>
      <trkpt lat="44.45975" lon="1.84507">
        <ele>276</ele>
        <time>2019-08-06T14:14:48.558Z</time>
      </trkpt>
      <trkpt lat="44.45973" lon="1.84501">
        <ele>276</ele>
        <time>2019-08-06T14:14:53.548Z</time>
      </trkpt>
      <trkpt lat="44.45973" lon="1.84495">
        <ele>276</ele>
        <time>2019-08-06T14:14:57.554Z</time>
      </trkpt>
      <trkpt lat="44.45973" lon="1.84485">
        <ele>277</ele>
        <time>2019-08-06T14:15:01.564Z</time>
      </trkpt>
      <trkpt lat="44.45972" lon="1.84476">
        <ele>277</ele>
        <time>2019-08-06T14:15:06.567Z</time>
      </trkpt>
      <trkpt lat="44.45974" lon="1.84464">
        <ele>277</ele>
        <time>2019-08-06T14:15:11.562Z</time>
      </trkpt>
      <trkpt lat="44.45976" lon="1.84459">
        <ele>277</ele>
        <time>2019-08-06T14:15:16.560Z</time>
      </trkpt>
      <trkpt lat="44.45976" lon="1.84456">
        <ele>277</ele>
        <time>2019-08-06T14:15:20.568Z</time>
      </trkpt>
      <trkpt lat="44.45976" lon="1.8445">
        <ele>277</ele>
        <time>2019-08-06T14:15:25.565Z</time>
      </trkpt>
      <trkpt lat="44.45974" lon="1.84447">
        <ele>277</ele>
        <time>2019-08-06T14:15:30.564Z</time>
      </trkpt>
      <trkpt lat="44.45973" lon="1.84443">
        <ele>277</ele>
        <time>2019-08-06T14:15:35.563Z</time>
      </trkpt>
      <trkpt lat="44.45967" lon="1.84435">
        <ele>277</ele>
        <time>2019-08-06T14:15:40.566Z</time>
      </trkpt>
      <trkpt lat="44.45963" lon="1.8443">
        <ele>279</ele>
        <time>2019-08-06T14:15:44.568Z</time>
      </trkpt>
      <trkpt lat="44.45961" lon="1.84426">
        <ele>279</ele>
        <time>2019-08-06T14:15:48.564Z</time>
      </trkpt>
      <trkpt lat="44.45956" lon="1.84419">
        <ele>274</ele>
        <time>2019-08-06T14:15:53.566Z</time>
      </trkpt>
    </trkseg>
  </trk>
</gpx>